El Austral — — position and weather

sailwx.info

Track history (hours):
 
Tides and Currents Weather Stations Pressure Air Temp Water Temp Dewpoint Dewpoint Depression Visibility Wind Speed Wind Dir Waves Ship Positions

Oceanographic research ship El Austral (Argentina)

Operator: St Marys Boatmen Association

Detailed information on ship capabilities available from University of Delaware's Ocean Information Center.

Last reported at 2018-Apr-26 03:31 UTC. Time now 2018-Apr-26 03:36 UTC.
Position N 46°09' W 123°53'.

MMSI: 19017.

AWS

Date/timePositionNaut miles runAvg speedWind from/ knotsBaromVisibWave heightAir tempDewpointWater temp
2018-Apr-26 03:31N 46°09' W 123°53'773527846386.3
2018-Apr-26 03:30N 01°18' E 104°06'527718995697.4
2018-Apr-26 03:30N 59°56' E 027°56'277996054.2
2018-Apr-26 03:30N 63°13' E 021°09'560920192135.7
2018-Apr-26 03:30N 01°14' E 103°52'47988636633.4
2018-Apr-26 03:30N 46°57' E 031°60'276497070.9
2018-Apr-26 03:30N 44°44' E 037°47'448516146392.0
2018-Apr-26 03:30N 01°15' E 103°50'47941569029.8
2018-Apr-26 03:30N 46°46' E 031°57'68731178160.8
2018-Apr-26 03:30N 37°47' W 122°23'69222076556.9
2018-Apr-26 03:30N 37°55' E 023°42'152762.9
2018-Apr-26 03:29N 37°46' E 023°27'87051958696.0
2018-Apr-26 03:29S 27°52' E 153°20'75321355723.8
2018-Apr-26 03:29N 29°33' W 095°02'60771458401.9
2018-Apr-26 03:28N 46°50' E 031°57'1241235045.9
2018-Apr-26 03:28N 52°03' E 001°11'1238234572.5
2018-Apr-26 03:28N 46°56' E 031°57'1353487141.0
2018-Apr-26 03:28N 39°32' E 002°43'1591318243.8
2018-Apr-26 03:27N 44°44' E 037°47'27552032.4
2018-Apr-26 03:27N 46°50' E 031°57'21119983.9
2018-Apr-26 03:26N 45°18' E 036°31'7150186516.7
2018-Apr-26 03:24N 37°52' W 122°29'786971895.9
2018-Apr-26 03:18N 01°16' E 103°52'627.6
2018-Apr-26 03:04N 01°17' E 103°46'0 0.0
2018-Apr-26 03:01N 01°17' E 103°46'774727887409.7
2018-Apr-26 03:01N 46°10' W 124°00'775427916195.7
2018-Apr-26 03:00N 01°10' E 103°43'47958630638.9
2018-Apr-26 03:00N 46°57' E 031°60'490882762.5
2018-Apr-26 03:00N 44°51' E 020°38'7302628156.7
2018-Apr-26 03:00N 44°44' E 037°47'0 7.2
2018-Apr-26 03:00N 44°44' E 037°47'9793525702.2
2018-Apr-26 03:00N 59°55' E 027°57'278333421.0
2018-Apr-26 03:00N 63°13' E 021°09'561010097839.0
2018-Apr-26 03:00N 01°17' E 103°58'47994318782.4
2018-Apr-26 03:00N 46°46' E 031°57'68728246555.4
2018-Apr-26 03:00N 37°52' W 122°29'68706182604.1
2018-Apr-26 03:00N 46°50' E 031°57'1241372217.4
2018-Apr-26 03:00N 52°03' E 001°11'53206383548.8
2018-Apr-26 03:00N 37°47' W 122°23'78793151626.5
2018-Apr-26 03:00N 01°17' E 103°46'2320569.0
2018-Apr-26 03:00N 01°17' E 104°09'192785.5
2018-Apr-26 02:59N 01°14' E 103°50'33771215559.3
2018-Apr-26 02:59S 27°52' E 153°20'75321355723.8
2018-Apr-26 02:59N 29°33' W 095°02'60771367250.0
2018-Apr-26 02:58N 46°50' E 031°57'9013243776.9
2018-Apr-26 02:58N 59°20' E 018°05'89687145.2
2018-Apr-26 02:58N 46°56' E 031°57'1353487141.1
2018-Apr-26 02:58N 39°32' E 002°43'97843992.7
2018-Apr-26 02:56N 37°46' E 023°27'50491398206.0
2018-Apr-26 02:56N 01°17' E 103°55'10173273299.4
2018-Apr-26 02:54N 41°17' W 072°55'44711149733.6
2018-Apr-26 02:54N 37°55' E 023°42'502913063.1
2018-Apr-26 02:31N 01°15' E 103°43'44804031751.0
2018-Apr-26 02:30N 44°44' E 037°47'449316176130.7
2018-Apr-26 02:30N 01°17' E 104°03'2487177.9
2018-Apr-26 02:30N 01°13' E 103°39'479017242857.9
2018-Apr-26 02:30N 46°57' E 031°60'789568426.3
2018-Apr-26 02:30N 59°53' E 027°57'799359755.5
2018-Apr-26 02:30N 46°46' E 031°57'10541264845.4
2018-Apr-26 02:30N 63°13' E 021°09'1051756547.1
2018-Apr-26 02:30N 46°50' E 031°57'68701766583.6
2018-Apr-26 02:30N 37°47' W 122°23'6917889279.4
2018-Apr-26 02:29N 37°46' E 023°27'5938548083.9
2018-Apr-26 02:29N 29°33' W 095°02'60771367251.1
2018-Apr-26 02:28N 46°50' E 031°57'9013243767.3
2018-Apr-26 02:28N 59°20' E 018°05'5648655910.7
2018-Apr-26 02:28N 01°12' E 103°49'62945664302.3
2018-Apr-26 02:28N 52°03' E 001°11'12382228442.6
2018-Apr-26 02:28N 46°56' E 031°57'65333117.8
2018-Apr-26 02:27N 37°55' E 023°42'98729872.0
2018-Apr-26 02:25N 39°32' E 002°43'9858389984.8
2018-Apr-26 02:23S 27°52' E 153°20'1021762236.2
2018-Apr-26 02:13N 50°27' W 000°51'329897314.0
2018-Apr-26 02:11N 38°58' W 076°29'504234379.7
2018-Apr-26 02:02N 45°18' E 036°31'4557142661.8
2018-Apr-26 02:01N 01°11' E 103°48'89703.5
2018-Apr-26 02:00N 01°16' E 103°55'560920193319.0
2018-Apr-26 02:00N 63°13' E 021°09'10451880294.0
2018-Apr-26 02:00N 46°57' E 031°60'4901765525.0
2018-Apr-26 02:00N 44°51' E 020°38'7302628172.0
2018-Apr-26 02:00N 44°44' E 037°47'27382026.1
2018-Apr-26 02:00N 46°46' E 031°57'64401931927.0
2018-Apr-26 02:00N 46°10' W 123°53'77653494441.0
2018-Apr-26 02:00N 01°12' E 103°36'526118939361.8
2018-Apr-26 02:00N 59°52' E 027°56'1328398264.2
2018-Apr-26 02:00N 37°55' E 023°42'1292166132.0
2018-Apr-26 01:59N 50°28' W 000°42'118213145.1
2018-Apr-26 01:59N 52°03' E 001°11'101339119783.6
2018-Apr-26 01:59S 27°52' E 153°20'75321291164.6
2018-Apr-26 01:59N 29°33' W 095°02'60771286825.3
2018-Apr-26 01:58N 46°50' E 031°57'48038645848.4
2018-Apr-26 01:58N 01°18' E 104°03'4805494240.8
2018-Apr-26 01:58N 46°56' E 031°57'1353442856.7
2018-Apr-26 01:58N 39°32' E 002°43'1352143156.1
2018-Apr-26 01:57N 46°50' E 031°57'68701545760.7
2018-Apr-26 01:57N 37°47' W 122°23'6917995992.9
2018-Apr-26 01:56N 37°46' E 023°27'741888658.3
2018-Apr-26 01:56N 45°18' E 036°31'456226658.9
2018-Apr-26 01:46N 01°18' E 104°01'527220320.4
2018-Apr-26 01:31N 59°50' E 027°55'527118977309.8
2018-Apr-26 01:30N 01°17' E 103°58'48014320859.9
2018-Apr-26 01:30N 46°57' E 031°60'4901765539.5
2018-Apr-26 01:30N 44°51' E 020°38'7302628174.5
2018-Apr-26 01:30N 44°44' E 037°47'026.5
2018-Apr-26 01:30N 44°44' E 037°47'447416106331.7
2018-Apr-26 01:30N 01°16' E 103°36'47831721911.2
2018-Apr-26 01:30N 46°46' E 031°57'12422235638.8
2018-Apr-26 01:30N 52°03' E 001°11'629222652712.6
2018-Apr-26 01:30N 01°15' E 103°50'47953452532.2
2018-Apr-26 01:30N 46°50' E 031°57'4551780127.0
2018-Apr-26 01:30N 41°09' W 073°11'101911079088.0
2018-Apr-26 01:29N 01°17' E 103°57'33731734734.0
2018-Apr-26 01:29S 27°52' E 153°20'8467896532.3
2018-Apr-26 01:28N 46°50' E 031°57'9011081265.3
2018-Apr-26 01:28N 59°20' E 018°05'5217586897.8
2018-Apr-26 01:28N 46°09' W 123°53'64315787858.2
2018-Apr-26 01:28N 46°56' E 031°57'1353487140.7
2018-Apr-26 01:28N 39°32' E 002°43'1580258472.2
2018-Apr-26 01:27N 63°13' E 021°09'8562226638.3
2018-Apr-26 01:25S 19°07' E 146°53'8055349355.9
2018-Apr-26 01:24N 37°55' E 023°42'152762.2
2018-Apr-26 01:23N 37°46' E 023°27'5938593757.6
2018-Apr-26 01:23N 29°33' W 095°02'448223591.4
2018-Apr-26 01:11N 43°26' W 003°43'541762905.1
2018-Apr-26 01:06N 37°52' W 122°29'608264971.3
2018-Apr-26 01:01N 59°51' E 027°55'11113997938.7
2018-Apr-26 01:01N 50°28' W 000°01'443796504.5
2018-Apr-26 01:00N 43°25' W 003°13'14745305260.1
2018-Apr-26 01:00N 63°13' E 021°09'10451880294.0
2018-Apr-26 01:00N 46°57' E 031°60'4901765525.0
2018-Apr-26 01:00N 44°51' E 020°38'52829507650.6
2018-Apr-26 01:00N 01°12' E 103°42'448216133702.8
2018-Apr-26 01:00N 44°44' E 037°47'277332702.2
2018-Apr-26 01:00N 46°56' E 031°57'105043.7
2018-Apr-26 01:00N 46°46' E 031°57'41805.6
2018-Apr-26 01:00N 46°50' E 031°57'47954315667.7
2018-Apr-26 01:00N 01°15' E 103°50'107395.6
2018-Apr-26 01:00N 01°13' E 103°40'50291064865.9
2018-Apr-26 01:00N 37°55' E 023°42'50389067775.9
2018-Apr-26 01:00N 01°17' E 103°54'7935.9
2018-Apr-26 00:59N 01°12' E 103°49'33772431259.6
2018-Apr-26 00:59S 27°52' E 153°20'75321178890.7
2018-Apr-26 00:59N 29°33' W 095°02'60771562573.4
2018-Apr-26 00:58N 46°50' E 031°57'901810950.8
2018-Apr-26 00:58N 59°20' E 018°05'719172626.5
2018-Apr-26 00:58N 52°03' E 001°11'49251043040.4
2018-Apr-26 00:58N 46°09' W 123°53'55831546196.3
2018-Apr-26 00:58N 39°32' E 002°43'97813484.4
2018-Apr-26 00:53N 37°46' E 023°27'504798215.2
2018-Apr-26 00:50N 01°16' E 103°52'787432809.2
2018-Apr-26 00:36N 37°47' W 122°23'533860238.2
2018-Apr-26 00:31N 50°32' E 000°20'445800624.1
2018-Apr-26 00:30N 43°24' W 002°41'14822667276.8
2018-Apr-26 00:30N 46°57' E 031°60'276994155.0
2018-Apr-26 00:30N 44°44' E 037°47'7302628189.8
2018-Apr-26 00:30N 44°51' E 020°38'7301314078.3
2018-Apr-26 00:30N 44°44' E 037°47'277499051.5
2018-Apr-26 00:30N 46°56' E 031°57'104416.0
2018-Apr-26 00:30N 46°46' E 031°57'47942465619.5
2018-Apr-26 00:30N 01°15' E 103°50'479517262687.1
2018-Apr-26 00:30N 46°50' E 031°57'479117247282.3
2018-Apr-26 00:30N 01°12' E 103°41'62885659231.7
2018-Apr-26 00:30N 52°03' E 001°11'4925886589.7
2018-Apr-26 00:30N 46°09' W 123°53'659611872521.7
2018-Apr-26 00:30N 37°55' E 023°42'152916.4
2018-Apr-26 00:29N 37°46' E 023°27'87051843479.9
2018-Apr-26 00:29S 27°52' E 153°20'33771105231.5
2018-Apr-26 00:29N 01°15' E 103°50'94743789434.1
2018-Apr-26 00:29N 29°33' W 095°02'60771458402.0
2018-Apr-26 00:28N 46°50' E 031°57'9011621898.0
2018-Apr-26 00:28N 59°20' E 018°05'3675174069.9
2018-Apr-26 00:27N 41°04' W 073°15'3477417262.1
2018-Apr-26 00:27N 39°32' E 002°43'586360647.1
2018-Apr-26 00:21N 37°47' W 122°23'590656699.1
2018-Apr-26 00:15S 23°00' W 044°19'362221734.6
2018-Apr-26 00:05N 28°58' W 013°32'145521298.0
2018-Apr-26 00:01N 50°38' E 000°39'10863910711.1
2018-Apr-26 00:00N 59°54' E 027°57'15265492802.5
2018-Apr-26 00:00N 43°30' W 003°25'364655784.4
2018-Apr-26 00:00N 39°32' E 002°43'8583089990.6
2018-Apr-26 00:00N 44°51' E 020°38'4901765543.6
2018-Apr-26 00:00N 46°57' E 031°60'276497082.4
2018-Apr-26 00:00N 44°44' E 037°47'448916159465.9
2018-Apr-26 00:00N 01°14' E 103°54'480117283557.2
2018-Apr-26 00:00N 46°56' E 031°57'1045940259.9
2018-Apr-26 00:00N 63°13' E 021°09'1054948634.1
2018-Apr-26 00:00N 46°46' E 031°57'12421490431.8
2018-Apr-26 00:00N 52°03' E 001°11'522118795991.1
2018-Apr-26 00:00S 23°00' W 044°19'6252776157.6
2018-Apr-26 00:00N 46°09' W 123°53'659623745043.4
2018-Apr-26 00:00N 37°55' E 023°42'153087.9
2018-Apr-25 23:59N 37°46' E 023°27'448716152559.0
2018-Apr-25 23:59N 41°04' W 073°15'101872444802.8
2018-Apr-25 23:59N 01°17' E 103°46'47905747982.6
2018-Apr-25 23:59N 46°50' E 031°57'60771093848.8
2018-Apr-25 23:59N 29°33' W 095°02'42662559507.2
2018-Apr-25 23:59N 28°58' W 013°32'24061082593.8
2018-Apr-25 23:58N 46°50' E 031°57'9011081265.3
2018-Apr-25 23:58N 59°20' E 018°05'108194941.4
2018-Apr-25 23:58N 45°20' E 036°40'454964478.8
2018-Apr-25 23:54N 01°15' E 103°50'0 0.8
2018-Apr-25 23:49N 01°15' E 103°51'618.7
2018-Apr-25 23:31N 01°14' E 103°56'44908082225.5
2018-Apr-25 23:30N 44°44' E 037°47'276248535.5
2018-Apr-25 23:30N 46°57' E 031°60'455316391685.9
2018-Apr-25 23:30N 41°05' W 073°13'455216387111.7
2018-Apr-25 23:30N 46°56' E 031°57'277499040.1
2018-Apr-25 23:30N 44°44' E 037°47'9803528454.3
2018-Apr-25 23:30N 59°55' E 027°57'52664739296.5
2018-Apr-25 23:30N 01°15' E 103°45'47915749432.1
2018-Apr-25 23:30N 46°46' E 031°57'21532182.3
2018-Apr-25 23:30N 45°21' E 036°40'67222419949.6
2018-Apr-25 23:30N 46°09' W 123°53'65931249133.0
2018-Apr-25 23:29N 37°46' E 023°27'1277656585.7
2018-Apr-25 23:29N 52°03' E 001°11'1013318239570.7
2018-Apr-25 23:29S 27°52' E 153°20'84673810137.3
2018-Apr-25 23:29N 46°50' E 031°57'60771041759.4
2018-Apr-25 23:29N 29°33' W 095°02'42662559509.2
2018-Apr-25 23:29N 28°58' W 013°32'24061237247.9
2018-Apr-25 23:28N 46°50' E 031°57'9011621898.0
2018-Apr-25 23:28N 59°20' E 018°05'24964113.8
2018-Apr-25 23:28N 63°13' E 021°09'152158254.5
2018-Apr-25 23:27N 37°55' E 023°42'5453159600.0
2018-Apr-25 23:25S 23°00' W 044°19'591336576.6
2018-Apr-25 23:15N 37°52' W 122°29'75895.7
2018-Apr-25 23:15N 37°47' W 122°23'568723777.3
2018-Apr-25 23:00N 63°13' E 021°09'10451253530.8
2018-Apr-25 23:00N 46°57' E 031°60'276994130.7
2018-Apr-25 23:00N 44°44' E 037°47'0 0.0
2018-Apr-25 23:00N 44°44' E 037°47'44868075040.4
2018-Apr-25 23:00N 01°15' E 103°51'479817274069.6
2018-Apr-25 23:00N 46°56' E 031°57'45463272936.1
2018-Apr-25 23:00N 41°07' W 073°06'412114833875.3
2018-Apr-25 23:00N 44°51' E 020°38'487875963.1
2018-Apr-25 23:00N 46°46' E 031°57'801240382.8
2018-Apr-25 23:00N 59°55' E 027°57'52699484800.7
2018-Apr-25 23:00N 01°12' E 103°48'47962158213.0
2018-Apr-25 23:00N 46°50' E 031°57'216258985.0
2018-Apr-25 23:00N 45°20' E 036°40'14621315940.2
2018-Apr-25 23:00N 52°03' E 001°11'49252955294.7
2018-Apr-25 23:00N 46°09' W 123°53'77501394957.8
2018-Apr-25 22:59N 01°14' E 103°52'3375810018.1
2018-Apr-25 22:59S 27°52' E 153°20'33812028338.6
2018-Apr-25 22:59N 01°15' E 103°46'94782437305.7
2018-Apr-25 22:59N 29°33' W 095°02'42662559509.2
2018-Apr-25 22:59N 28°58' W 013°32'24061082591.9
2018-Apr-25 22:58N 46°50' E 031°57'901810949.0
2018-Apr-25 22:58N 59°20' E 018°05'6087447219.5
2018-Apr-25 22:58S 23°00' W 044°19'5453350549.5
2018-Apr-25 22:57N 37°55' E 023°42'152624.1
2018-Apr-25 22:56N 37°46' E 023°27'7415058.8
2018-Apr-25 22:48N 45°18' E 036°31'145148362.8
2018-Apr-25 22:46N 50°59' E 001°17'624.5
2018-Apr-25 22:31N 51°03' E 001°24'9721166392.1
2018-Apr-25 22:30N 63°13' E 021°09'560210083545.2
2018-Apr-25 22:30N 01°16' E 103°44'479117246322.7
2018-Apr-25 22:30N 46°57' E 031°60'453716334399.8
2018-Apr-25 22:30N 41°13' W 072°58'45368164907.3
2018-Apr-25 22:30N 46°56' E 031°57'277332714.7
2018-Apr-25 22:30N 44°44' E 037°47'013.2
2018-Apr-25 22:30N 44°44' E 037°47'273246076.2
2018-Apr-25 22:30N 46°46' E 031°57'613011033727.4
2018-Apr-25 22:30S 23°00' W 044°19'64532112036.6
2018-Apr-25 22:30N 59°54' E 027°56'797318727.8
2018-Apr-25 22:30N 46°50' E 031°57'648212085.9
2018-Apr-25 22:30N 37°55' E 023°42'659611872513.2
2018-Apr-25 22:30N 46°09' W 123°53'7748996223.7
2018-Apr-25 22:29N 01°16' E 103°52'33761519335.4
2018-Apr-25 22:29S 27°52' E 153°20'101335211308.7
2018-Apr-25 22:29N 52°03' E 001°11'45731371984.9
2018-Apr-25 22:29N 29°33' W 095°02'42662193865.0
2018-Apr-25 22:29N 28°58' W 013°32'24062886911.7
2018-Apr-25 22:29N 46°50' E 031°57'901405474.5
2018-Apr-25 22:28N 59°20' E 018°05'502098211.4
2018-Apr-25 22:25N 48°51' W 123°26'6447191823.4
2018-Apr-25 22:23N 37°46' E 023°27'691748919.1
2018-Apr-25 22:15N 37°47' W 122°23'537222538.0
2018-Apr-25 22:01N 51°10' E 001°40'10331859596.4
2018-Apr-25 22:01N 59°52' E 027°55'796715951.6
2018-Apr-25 22:00N 46°50' E 031°57'712783.4
2018-Apr-25 22:00N 46°57' E 031°60'276331389.4
2018-Apr-25 22:00N 44°44' E 037°47'277998130.8
2018-Apr-25 22:00N 46°56' E 031°57'10451880519.9
2018-Apr-25 22:00N 63°13' E 021°09'10541264838.5
2018-Apr-25 22:00N 46°46' E 031°57'1242120845.2
2018-Apr-25 22:00N 52°03' E 001°11'12784601068.6
2018-Apr-25 22:00N 37°55' E 023°42'659623745026.4
2018-Apr-25 22:00N 46°09' W 123°53'775013950239.3
2018-Apr-25 22:00N 01°15' E 103°51'50471211169.2
2018-Apr-25 21:59N 37°46' E 023°27'50473028301.6
2018-Apr-25 21:59N 01°16' E 103°52'33761104970.6
2018-Apr-25 21:59S 27°52' E 153°20'75321355723.4
2018-Apr-25 21:59N 29°33' W 095°02'43792252121.4
2018-Apr-25 21:59S 23°00' W 044°19'61324415044.2
2018-Apr-25 21:59N 46°50' E 031°57'901648759.2
2018-Apr-25 21:58N 59°20' E 018°05'572661721.1
2018-Apr-25 21:53N 37°47' W 122°23'7876301636.7
2018-Apr-25 21:51N 01°15' E 103°50'625418070.8
2018-Apr-25 21:31N 51°20' E 001°52'10211836935.7
2018-Apr-25 21:30N 59°51' E 027°55'794953015.7
2018-Apr-25 21:30N 46°50' E 031°57'4881755147.3
2018-Apr-25 21:30N 44°51' E 020°38'4901765539.5
2018-Apr-25 21:30N 46°57' E 031°60'276497077.5
2018-Apr-25 21:30N 44°44' E 037°47'026.5
2018-Apr-25 21:30N 44°44' E 037°47'277998116.2
2018-Apr-25 21:30N 46°56' E 031°57'105887.9
2018-Apr-25 21:30N 46°46' E 031°57'4796556909.9
2018-Apr-25 21:30N 01°13' E 103°50'34823.3
2018-Apr-25 21:30N 01°15' E 103°50'50364532001.2
2018-Apr-25 21:30N 37°55' E 023°42'1521238083.7
2018-Apr-25 21:29N 63°13' E 021°09'51336159979.9
2018-Apr-25 21:29N 46°09' W 123°53'49255910570.1
2018-Apr-25 21:29N 52°03' E 001°11'4573633223.8
2018-Apr-25 21:29N 29°33' W 095°02'60771682768.8
2018-Apr-25 21:28N 46°50' E 031°57'901648757.8
2018-Apr-25 21:28N 59°20' E 018°05'60871043512.4
2018-Apr-25 21:28S 23°00' W 044°19'8852277103.7
2018-Apr-25 21:26N 01°16' E 103°52'33762430937.9
2018-Apr-25 21:26S 27°52' E 153°20'63952092931.5
2018-Apr-25 21:26N 37°47' W 122°23'6917161687.0
2018-Apr-25 21:23N 37°46' E 023°27'1928165236.6
2018-Apr-25 21:23N 28°58' W 013°32'25676969.9
2018-Apr-25 21:01N 59°51' E 027°55'794952651.9
2018-Apr-25 21:00N 46°50' E 031°57'78523.4
2018-Apr-25 21:00N 46°57' E 031°60'22972.5
2018-Apr-25 21:00N 46°56' E 031°57'277499046.7
2018-Apr-25 21:00N 44°44' E 037°47'14875353527.6
2018-Apr-25 21:00N 51°29' E 002°04'1207723917.9
2018-Apr-25 21:00N 46°46' E 031°57'47943451717.7
2018-Apr-25 21:00N 01°13' E 103°48'5710.9
2018-Apr-25 21:00N 01°17' E 103°46'5041756146.4
2018-Apr-25 20:59N 37°46' E 023°27'1277510679.7
2018-Apr-25 20:59N 52°03' E 001°11'492517731705.3
2018-Apr-25 20:59N 46°09' W 123°53'1691217403.9
2018-Apr-25 20:59N 29°33' W 095°02'42662193865.0
2018-Apr-25 20:59N 28°58' W 013°32'24061443455.9
2018-Apr-25 20:58N 46°50' E 031°57'901648759.2
2018-Apr-25 20:58N 59°20' E 018°05'6088284611.5
2018-Apr-25 20:57S 23°01' W 044°19'59131520527.5
2018-Apr-25 20:57N 37°52' W 122°29'6393460317.0
2018-Apr-25 20:56S 27°52' E 153°20'63952558027.4
2018-Apr-25 20:56N 37°47' W 122°23'6922181888.2
2018-Apr-25 20:54N 37°55' E 023°42'5036671511.7
2018-Apr-25 20:53N 01°16' E 103°52'455017784.6
2018-Apr-25 20:38N 45°20' E 036°40'9287592.9
2018-Apr-25 20:30N 59°52' E 027°56'2791004908.8
2018-Apr-25 20:30N 63°13' E 021°09'10451253529.3
2018-Apr-25 20:30N 46°57' E 031°60'13552438661.8
2018-Apr-25 20:30N 39°32' E 002°43'13534871408.6
2018-Apr-25 20:30N 46°56' E 031°57'11961434737.3
2018-Apr-25 20:30N 51°40' E 002°16'14801331991.5
2018-Apr-25 20:30N 44°44' E 037°47'273492155.3
2018-Apr-25 20:30N 46°46' E 031°57'64564507.4
2018-Apr-25 20:30N 37°55' E 023°42'152762.9
2018-Apr-25 20:29N 37°46' E 023°27'87052849013.4
2018-Apr-25 20:29S 27°52' E 153°20'75321084579.1
2018-Apr-25 20:29N 29°33' W 095°02'43791970647.4
2018-Apr-25 20:29S 23°01' W 044°19'61325519107.9
2018-Apr-25 20:29N 46°50' E 031°57'901540632.7
2018-Apr-25 20:28N 59°20' E 018°05'90157933.1
2018-Apr-25 20:27N 46°50' E 031°57'12412233317.5
2018-Apr-25 20:27N 52°03' E 001°11'1523685390.0
2018-Apr-25 20:27N 44°44' E 037°47'723797940.4
2018-Apr-25 20:23N 37°47' W 122°23'7876205462.7
2018-Apr-25 20:21N 01°15' E 103°50'10819117316.7
2018-Apr-25 20:15N 26°28' W 080°04'10820164358.3
2018-Apr-25 20:11N 01°16' E 103°52'484346246.3
2018-Apr-25 20:05N 46°30' E 030°45'54742.2
2018-Apr-25 20:00N 46°50' E 031°57'76397.8
2018-Apr-25 20:00N 46°57' E 031°60'47978635332.2
2018-Apr-25 20:00N 01°16' E 103°53'479917275946.1
2018-Apr-25 20:00N 46°56' E 031°57'1045940261.0
2018-Apr-25 20:00N 63°13' E 021°09'483717413658.1
2018-Apr-25 20:00N 26°28' W 080°04'51342640126.4
2018-Apr-25 20:00N 59°53' E 027°57'645411617913.7
2018-Apr-25 20:00S 23°01' W 044°19'5453676965.0
2018-Apr-25 20:00N 37°55' E 023°42'50364531995.2
2018-Apr-25 20:00N 01°15' E 103°50'50461211132.6
2018-Apr-25 19:59N 37°46' E 023°27'616738858.7
2018-Apr-25 19:59N 46°30' E 030°45'1205722788.3
2018-Apr-25 19:59N 52°03' E 001°11'101335211312.7
2018-Apr-25 19:59S 27°52' E 153°20'75321291166.0
2018-Apr-25 19:59N 29°33' W 095°02'60771988728.3
2018-Apr-25 19:59N 46°50' E 031°57'901463399.4
2018-Apr-25 19:58N 59°20' E 018°05'1299141658.3
2018-Apr-25 19:58N 43°33' W 005°42'5322161004.6
2018-Apr-25 19:56N 37°47' W 122°23'6873252463.2
2018-Apr-25 19:54N 46°46' E 031°57'4795265558.0
2018-Apr-25 19:53N 01°16' E 103°52'710762401.4
2018-Apr-25 19:46N 27°55' W 015°24'710626986.4
2018-Apr-25 19:31N 01°15' E 103°51'708425501313.1
2018-Apr-25 19:31N 27°57' W 014°59'708912759685.2
2018-Apr-25 19:30N 01°16' E 103°57'479917277594.1
2018-Apr-25 19:30N 46°50' E 031°57'10513782735.7
2018-Apr-25 19:30N 63°13' E 021°09'11013965348.5
2018-Apr-25 19:30N 44°51' E 020°38'4901765539.5
2018-Apr-25 19:30N 46°57' E 031°60'13554877334.0
2018-Apr-25 19:30N 39°32' E 002°43'15912864182.9
2018-Apr-25 19:30N 44°44' E 037°47'310371430.0
2018-Apr-25 19:30N 46°29' E 030°51'48382902985.7
2018-Apr-25 19:30N 01°13' E 103°48'658323698533.4
2018-Apr-25 19:30N 43°36' W 005°39'46025522540.6
2018-Apr-25 19:30S 23°01' W 044°19'64552582175.7
2018-Apr-25 19:30N 59°55' E 027°57'1015406066.4
2018-Apr-25 19:30N 52°03' E 001°11'1278383421.2
2018-Apr-25 19:30N 37°55' E 023°42'653138316.4
2018-Apr-25 19:29N 46°56' E 031°57'55272487005.5
2018-Apr-25 19:29N 26°28' W 080°04'108206492152.7
2018-Apr-25 19:29N 01°16' E 103°52'33764051555.3
2018-Apr-25 19:29S 27°52' E 153°20'75321291166.0
2018-Apr-25 19:29N 29°33' W 095°02'42661919631.9
2018-Apr-25 19:29N 28°58' W 013°32'2274818715.6
2018-Apr-25 19:28N 59°20' E 018°05'113868309.4
2018-Apr-25 19:27N 44°44' E 037°47'2758603.3
2018-Apr-25 19:26N 46°50' E 031°57'4166.6
2018-Apr-25 19:24N 46°46' E 031°57'65943108.8
2018-Apr-25 19:23N 37°46' E 023°27'195121221.6
2018-Apr-25 19:18N 70°17' E 023°04'486440626.2
2018-Apr-25 19:11N 46°09' W 123°53'5073475.1
2018-Apr-25 19:02N 37°47' W 122°23'5440238812.9
2018-Apr-25 19:01N 27°55' W 015°06'26739623995.0
2018-Apr-25 19:00N 59°55' E 027°57'7982871552.9
2018-Apr-25 19:00N 46°50' E 031°57'13521622435.1
2018-Apr-25 19:00N 39°32' E 002°43'8583089989.1
2018-Apr-25 19:00N 44°51' E 020°38'730657047.5
2018-Apr-25 19:00N 44°44' E 037°47'018.8
2018-Apr-25 19:00N 44°44' E 037°47'12554517117.6
2018-Apr-25 19:00N 63°13' E 021°09'56111346545.6
2018-Apr-25 19:00N 01°16' E 103°57'57152285826.4
2018-Apr-25 19:00N 70°17' E 023°04'42542187535.9
2018-Apr-25 19:00N 34°33' W 077°19'5023753426.9
2018-Apr-25 18:59N 46°56' E 031°57'47981016017.3
2018-Apr-25 18:59N 01°16' E 103°52'774827894270.3
2018-Apr-25 18:59N 46°09' W 123°53'661611909582.3
2018-Apr-25 18:59S 27°52' E 153°20'63952558027.4
2018-Apr-25 18:59N 37°47' W 122°23'787628353853.2
2018-Apr-25 18:59N 01°15' E 103°50'94743410490.9
2018-Apr-25 18:59N 29°33' W 095°02'60771988728.3
2018-Apr-25 18:59N 46°50' E 031°57'901540632.7
2018-Apr-25 18:58N 59°20' E 018°05'47431707351.0
2018-Apr-25 18:58N 26°28' W 080°04'407414667717.7
2018-Apr-25 18:58N 52°03' E 001°11'52222349680.6
2018-Apr-25 18:58S 23°01' W 044°19'6138538975.3
2018-Apr-25 18:57N 46°57' E 031°60'65553556.2
2018-Apr-25 18:57N 37°55' E 023°42'152385.5
2018-Apr-25 18:56N 37°46' E 023°27'648256773.9
2018-Apr-25 18:49N 47°38' W 122°56'6313311346.8
2018-Apr-25 18:48N 46°46' E 031°57'411.8
2018-Apr-25 18:30N 46°50' E 031°57'75118.3
2018-Apr-25 18:30N 46°57' E 031°60'1045626765.4
2018-Apr-25 18:30N 63°13' E 021°09'12554517103.3
2018-Apr-25 18:30N 44°44' E 037°47'7301314085.8
2018-Apr-25 18:30N 44°51' E 020°38'59635366954.1
2018-Apr-25 18:30N 47°36' W 122°59'54059729291.7
2018-Apr-25 18:30N 59°53' E 027°56'645423233179.7
2018-Apr-25 18:30S 23°01' W 044°19'67121342471.7
2018-Apr-25 18:30N 70°17' E 023°04'571110280108.0
2018-Apr-25 18:30N 01°15' E 103°51'2135.9
2018-Apr-25 18:29N 01°16' E 103°52'77485578852.4
2018-Apr-25 18:29N 46°09' W 123°53'661623819164.6
2018-Apr-25 18:29S 27°52' E 153°20'101333316277.2
2018-Apr-25 18:29N 52°03' E 001°11'62855656205.7
2018-Apr-25 18:29N 01°18' E 103°43'94796825160.9
2018-Apr-25 18:29N 29°33' W 095°02'60771988728.3
2018-Apr-25 18:29N 46°50' E 031°57'901540632.7
2018-Apr-25 18:28N 59°20' E 018°05'4181557512.0
2018-Apr-25 18:28N 34°33' W 077°19'50236027412.0
2018-Apr-25 18:28N 46°56' E 031°57'4800155686.0
2018-Apr-25 18:26N 01°17' E 103°56'4797159908.7
2018-Apr-25 18:24N 46°46' E 031°57'64562763.8
2018-Apr-25 18:24N 37°55' E 023°42'152762.2
2018-Apr-25 18:23N 37°46' E 023°27'1928154221.2
2018-Apr-25 18:23N 28°58' W 013°32'5480121023.2
2018-Apr-25 18:20N 37°47' W 122°23'645919925.3
2018-Apr-25 18:00N 44°51' E 020°38'8583089983.2
2018-Apr-25 18:00N 39°32' E 002°43'1591954728.2
2018-Apr-25 18:00N 44°44' E 037°47'570520538900.3
2018-Apr-25 18:00N 26°33' W 077°04'481865071.5
2018-Apr-25 18:00N 34°33' W 077°21'35862582003.8
2018-Apr-25 18:00N 52°03' E 001°11'10133647640.8
2018-Apr-25 18:00N 59°52' E 027°55'279501968.2
2018-Apr-25 18:00N 63°13' E 021°09'42790460.0
2018-Apr-25 18:00N 70°17' E 023°04'57071027320.2
2018-Apr-25 18:00N 01°13' E 103°39'1213823.2
2018-Apr-25 17:59N 01°15' E 103°51'620826.7
2018-Apr-25 17:59N 01°17' E 103°45'119676.0
2018-Apr-25 17:59N 01°17' E 103°56'77451467415.0
2018-Apr-25 17:59N 46°09' W 123°53'661623819164.6
2018-Apr-25 17:59S 27°52' E 153°20'63952302224.7
2018-Apr-25 17:59N 37°47' W 122°23'1452522839.3
2018-Apr-25 17:59N 29°33' W 095°02'60772187601.1
2018-Apr-25 17:59N 46°50' E 031°57'901463399.4
2018-Apr-25 17:58N 59°20' E 018°05'8963225177.3
2018-Apr-25 17:58N 46°57' E 031°60'5528995080.0
2018-Apr-25 17:58N 26°28' W 080°04'55271989602.7
2018-Apr-25 17:58N 46°56' E 031°57'61362761368.9
2018-Apr-25 17:58S 23°01' W 044°19'61331298662.5
2018-Apr-25 17:57N 46°50' E 031°57'41149.0
2018-Apr-25 17:57N 46°46' E 031°57'65940186.0
2018-Apr-25 17:56N 37°46' E 023°27'504793658.8
2018-Apr-25 17:53N 01°16' E 103°52'7001840076.3
2018-Apr-25 17:53N 28°58' W 013°32'194159207.7
2018-Apr-25 17:51N 37°55' E 023°42'644065495.8
2018-Apr-25 17:45N 48°36' W 122°57'22139318.5
2018-Apr-25 17:30N 34°31' W 077°23'425315312094.1
2018-Apr-25 17:30N 63°13' E 021°09'2781000778.0
2018-Apr-25 17:30N 59°54' E 027°57'9421695184.0
2018-Apr-25 17:30N 44°51' E 020°38'8583089984.6
2018-Apr-25 17:30N 39°32' E 002°43'15911432096.5
2018-Apr-25 17:30N 44°44' E 037°47'44762302069.9
2018-Apr-25 17:30N 01°13' E 103°36'112593.1
2018-Apr-25 17:30N 01°17' E 103°46'77877008612.7
2018-Apr-25 17:30N 48°36' W 122°57'2434547647.7
2018-Apr-25 17:30N 26°28' W 080°04'2416457853.0
2018-Apr-25 17:29N 47°29' W 123°05'66981607511.0
2018-Apr-25 17:29S 27°52' E 153°20'661623819164.6
2018-Apr-25 17:29N 46°09' W 123°53'1691289870.4
2018-Apr-25 17:29N 29°33' W 095°02'60774375389.5
2018-Apr-25 17:29N 46°50' E 031°57'24068661559.7
2018-Apr-25 17:29N 28°58' W 013°32'24062165192.8
2018-Apr-25 17:29N 46°50' E 031°57'901540641.4
2018-Apr-25 17:28N 59°20' E 018°05'8963225165.5
2018-Apr-25 17:28N 46°57' E 031°60'61381299883.4
2018-Apr-25 17:28S 23°01' W 044°19'61361840912.4
2018-Apr-25 17:28N 46°56' E 031°57'1238405168.3
2018-Apr-25 17:28N 52°03' E 001°11'152326877.9
2018-Apr-25 17:24N 44°44' E 037°47'273196862.4
2018-Apr-25 17:24N 46°46' E 031°57'64510902.6
2018-Apr-25 17:21N 37°55' E 023°42'5036477126.2
2018-Apr-25 17:20N 01°16' E 103°52'78742180551.3
2018-Apr-25 17:20N 37°47' W 122°23'645919925.3
2018-Apr-25 17:00N 44°51' E 020°38'7302628172.0
2018-Apr-25 17:00N 44°44' E 037°47'12551129280.9
2018-Apr-25 17:00N 63°13' E 021°09'10541264846.9
2018-Apr-25 17:00N 46°46' E 031°57'5036954178.2
2018-Apr-25 17:00N 34°29' W 077°28'426215343149.3
2018-Apr-25 17:00N 70°17' E 023°04'635134447.7
2018-Apr-25 17:00N 59°55' E 028°05'13322397175.8
2018-Apr-25 17:00N 37°55' E 023°42'50301509031.2
2018-Apr-25 16:59N 01°17' E 103°46'778514012366.1
2018-Apr-25 16:59N 47°25' W 123°08'65015850534.4
2018-Apr-25 16:59N 37°46' E 023°27'54371779404.7
2018-Apr-25 16:59S 23°01' W 044°19'885210622477.0
2018-Apr-25 16:59N 01°16' E 103°52'33764051558.7
2018-Apr-25 16:59S 27°52' E 153°20'661623819148.2
2018-Apr-25 16:59N 46°09' W 123°53'507202717.5
2018-Apr-25 16:59N 37°47' W 122°23'78914057972.1
2018-Apr-25 16:59N 01°13' E 103°36'948817078995.6
2018-Apr-25 16:59N 29°33' W 095°02'94746820978.2
2018-Apr-25 16:59N 01°15' E 103°50'47958631329.5
2018-Apr-25 16:59N 46°50' E 031°57'0160.1
2018-Apr-25 16:59N 46°50' E 031°57'76430.7
2018-Apr-25 16:58N 46°57' E 031°60'8961075055.9
2018-Apr-25 16:58N 59°20' E 018°05'896104013.2
2018-Apr-25 16:58N 46°56' E 031°57'2182585.4
2018-Apr-25 16:53N 45°20' E 036°40'259524974.8
2018-Apr-25 16:47N 28°58' W 013°32'1539102619.5
2018-Apr-25 16:46N 52°03' E 001°11'628624842.3
2018-Apr-25 16:31N 01°17' E 103°44'560110082618.6
2018-Apr-25 16:30N 63°13' E 021°09'560920191901.0
2018-Apr-25 16:30N 01°15' E 103°53'52896346455.2
2018-Apr-25 16:30N 44°51' E 020°38'8583089992.1
2018-Apr-25 16:30N 39°32' E 002°43'15912864186.1
2018-Apr-25 16:30N 44°44' E 037°47'273246071.7
2018-Apr-25 16:30N 46°46' E 031°57'796409580.5
2018-Apr-25 16:30N 59°51' E 028°11'646423271425.8
2018-Apr-25 16:30S 23°03' W 044°20'39792864877.2
2018-Apr-25 16:30N 34°28' W 077°31'2206882553.3
2018-Apr-25 16:30N 47°22' W 123°05'65041377332.4
2018-Apr-25 16:30N 37°55' E 023°42'152762.9
2018-Apr-25 16:29N 37°46' E 023°27'87052849012.3
2018-Apr-25 16:29S 27°52' E 153°20'66163402735.5
2018-Apr-25 16:29N 46°09' W 123°53'507202717.5
2018-Apr-25 16:29N 37°47' W 122°23'1452522840.3
2018-Apr-25 16:29N 29°33' W 095°02'457316463843.3
2018-Apr-25 16:29N 52°03' E 001°11'1241893323.5
2018-Apr-25 16:29N 46°50' E 031°57'0200.2
2018-Apr-25 16:29N 46°50' E 031°57'901463400.5
2018-Apr-25 16:28N 59°20' E 018°05'8963225184.6
2018-Apr-25 16:28N 46°57' E 031°60'2198.2
2018-Apr-25 16:28N 46°56' E 031°57'1428165885.3
2018-Apr-25 16:27N 70°17' E 023°04'571179690.8
2018-Apr-25 16:23N 01°16' E 103°52'7001869044.9
2018-Apr-25 16:23N 28°58' W 013°32'13679321.1
2018-Apr-25 16:14N 50°24' W 003°30'7223785.3
2018-Apr-25 16:02N 55°18' E 014°42'82133605.6
2018-Apr-25 16:01N 48°23' W 004°26'1239202717.0
2018-Apr-25 16:01N 63°13' E 021°09'1101566478.4
2018-Apr-25 16:00N 44°51' E 020°38'7302628172.0
2018-Apr-25 16:00N 44°44' E 037°47'15912864193.1
2018-Apr-25 16:00N 39°32' E 002°43'15705651225.8
2018-Apr-25 16:00N 59°48' E 028°17'45822061893.6
2018-Apr-25 16:00N 34°26' W 077°33'105565428559.6
2018-Apr-25 16:00N 01°16' E 103°57'175704.0
2018-Apr-25 16:00N 01°13' E 103°40'570710273286.3
2018-Apr-25 16:00N 70°17' E 023°05'1943466209.3
2018-Apr-25 16:00N 37°55' E 023°42'152762.9
2018-Apr-25 15:59N 37°46' E 023°27'87052238509.7
2018-Apr-25 15:59S 27°52' E 153°20'66167939716.1
2018-Apr-25 15:59N 46°09' W 123°53'1691320383.1
2018-Apr-25 15:59N 29°33' W 095°02'60772187601.1
2018-Apr-25 15:59N 46°50' E 031°57'9011081265.3
2018-Apr-25 15:58N 59°20' E 018°05'896806294.3
2018-Apr-25 15:58N 46°57' E 031°60'1239247834.1
2018-Apr-25 15:58N 52°03' E 001°11'523118832018.3
2018-Apr-25 15:58S 23°07' W 044°26'48881466489.3
2018-Apr-25 15:58N 48°23' W 004°26'14735302605.8
2018-Apr-25 15:58N 46°56' E 031°57'27731191.6
2018-Apr-25 15:57N 44°44' E 037°47'2759415.6
2018-Apr-25 15:56N 46°50' E 031°57'4796115097.3
2018-Apr-25 15:53N 01°16' E 103°52'78742180551.7
2018-Apr-25 15:53N 37°47' W 122°23'687330320.3
2018-Apr-25 15:39N 46°46' E 031°57'479932783.9
2018-Apr-25 15:31N 01°15' E 103°57'1055612667738.4
2018-Apr-25 15:30N 34°25' W 077°34'458816518519.9
2018-Apr-25 15:30N 59°47' E 028°25'13434835392.7
2018-Apr-25 15:30N 48°23' W 004°26'615737580.7
2018-Apr-25 15:30N 39°32' E 002°43'15912864193.1
2018-Apr-25 15:30N 44°44' E 037°47'447816119301.6
2018-Apr-25 15:30N 01°13' E 103°38'56016721027.7
2018-Apr-25 15:30N 63°13' E 021°09'63632863320.4
2018-Apr-25 15:30S 23°07' W 044°26'5463655549.8
2018-Apr-25 15:30N 37°55' E 023°42'152762.2
2018-Apr-25 15:29N 37°46' E 023°27'444114087.2
2018-Apr-25 15:29N 44°51' E 020°38'60783646550.9
2018-Apr-25 15:29N 46°09' W 123°53'507304076.3
2018-Apr-25 15:29N 37°47' W 122°23'1452522839.3
2018-Apr-25 15:29N 29°33' W 095°02'60772187602.8
2018-Apr-25 15:29N 46°50' E 031°57'73671.7
2018-Apr-25 15:28N 46°57' E 031°60'8963225177.3
2018-Apr-25 15:28N 59°20' E 018°05'719161841.3
2018-Apr-25 15:28N 52°03' E 001°11'1238297128.4
2018-Apr-25 15:28N 46°56' E 031°57'27735647.4
2018-Apr-25 15:27N 44°44' E 037°47'16052888689.3
2018-Apr-25 15:27N 70°17' E 023°05'143447811.7
2018-Apr-25 15:26N 46°50' E 031°57'4159.7
2018-Apr-25 15:24N 46°46' E 031°57'479423292.0
2018-Apr-25 15:12N 01°15' E 103°50'571930011.7
2018-Apr-25 15:01N 55°16' E 014°41'516619753.3
2018-Apr-25 15:00N 63°13' E 021°09'11011321782.8
2018-Apr-25 15:00N 44°51' E 020°38'7301314094.9
2018-Apr-25 15:00N 44°44' E 037°47'15915728402.1
2018-Apr-25 15:00N 39°32' E 002°43'15732830956.8
2018-Apr-25 15:00N 59°46' E 028°27'7901421867.9
2018-Apr-25 15:00N 46°46' E 031°57'273984291.3
2018-Apr-25 15:00N 44°44' E 037°47'632122753862.0
2018-Apr-25 15:00S 23°03' W 044°20'3978716101.5
2018-Apr-25 15:00N 34°24' W 077°37'105591583857.1
2018-Apr-25 15:00N 01°15' E 103°56'216240.3
2018-Apr-25 14:59N 01°13' E 103°36'3388717375.5
2018-Apr-25 14:59S 27°52' E 153°20'66167939716.1
2018-Apr-25 14:59N 46°09' W 123°53'1691358075.2
2018-Apr-25 14:59N 29°33' W 095°02'457316463875.9
2018-Apr-25 14:59N 52°03' E 001°11'1241893319.1
2018-Apr-25 14:59N 46°50' E 031°57'0262.7
2018-Apr-25 14:59N 46°50' E 031°57'72853.5
2018-Apr-25 14:58N 46°57' E 031°60'2212.3
2018-Apr-25 14:58N 46°56' E 031°57'65330145.9
2018-Apr-25 14:57N 37°55' E 023°42'152916.4
2018-Apr-25 14:56N 37°46' E 023°27'1951270130.7
2018-Apr-25 14:56N 70°17' E 023°05'168849417.7
2018-Apr-25 14:54N 43°33' E 007°01'5899359968.9
2018-Apr-25 14:53N 37°47' W 122°23'548017982.5
2018-Apr-25 14:35N 28°58' W 013°32'227433146.6
2018-Apr-25 14:30N 59°20' E 018°05'249448732.8
2018-Apr-25 14:30N 63°13' E 021°09'11011982674.2
2018-Apr-25 14:30N 44°51' E 020°38'7302628159.2
2018-Apr-25 14:30N 44°44' E 037°47'15912864193.2
2018-Apr-25 14:30N 39°32' E 002°43'13512432113.0
2018-Apr-25 14:30N 46°46' E 031°57'480017278893.8
2018-Apr-25 14:30N 01°18' E 104°01'449116166048.8
2018-Apr-25 14:30N 44°44' E 037°47'68066125501.9
2018-Apr-25 14:30N 46°09' W 123°53'49254432918.2
2018-Apr-25 14:30N 52°03' E 001°11'517310249.0
2018-Apr-25 14:30N 55°15' E 014°41'110997397.0
2018-Apr-25 14:29N 37°46' E 023°27'54371779407.4
2018-Apr-25 14:29S 23°01' W 044°19'107134285186.4
2018-Apr-25 14:29S 27°52' E 153°20'63952302224.7
2018-Apr-25 14:29N 37°47' W 122°23'1452522839.3
2018-Apr-25 14:29N 29°33' W 095°02'60775469235.4
2018-Apr-25 14:29N 46°50' E 031°57'0131.3
2018-Apr-25 14:29N 46°50' E 031°57'73675.2
2018-Apr-25 14:28N 46°57' E 031°60'2191.8
2018-Apr-25 14:28N 46°56' E 031°57'107315832.9
2018-Apr-25 14:24N 43°33' E 007°01'831271937.6
2018-Apr-25 14:24N 37°55' E 023°42'194116477.6
2018-Apr-25 14:17N 28°58' W 013°32'700149513.4
2018-Apr-25 14:08N 01°16' E 103°52'7753132903.2
2018-Apr-25 14:05N 38°08' W 124°36'7768112760.7
2018-Apr-25 14:00N 01°12' E 103°38'52784750316.0
2018-Apr-25 14:00N 44°51' E 020°38'730876052.4
2018-Apr-25 14:00N 44°44' E 037°47'273246077.7
2018-Apr-25 14:00N 46°46' E 031°57'64405796111.3
2018-Apr-25 14:00N 46°09' W 123°53'55656678324.8
2018-Apr-25 14:00N 59°46' E 028°27'294264422.6
2018-Apr-25 14:00N 63°13' E 021°09'56112525066.9
2018-Apr-25 14:00N 01°16' E 103°58'1056612679170.5
2018-Apr-25 14:00N 34°21' W 077°42'4919983714.6
2018-Apr-25 14:00N 37°55' E 023°42'5042567192.5
2018-Apr-25 13:59N 01°19' E 104°00'33714045137.4
2018-Apr-25 13:59S 27°52' E 153°20'84671451480.9
2018-Apr-25 13:59N 46°50' E 031°57'61325519018.5
2018-Apr-25 13:59S 23°00' W 044°19'61325518819.6
2018-Apr-25 13:59N 46°50' E 031°57'72855.8
2018-Apr-25 13:58N 46°57' E 031°60'2219.4
2018-Apr-25 13:58N 46°56' E 031°57'1428165843.5
2018-Apr-25 13:57N 70°17' E 023°05'5176182684.5
2018-Apr-25 13:56N 29°33' W 095°02'45738231866.1
2018-Apr-25 13:56N 52°03' E 001°11'5320113991.4
2018-Apr-25 13:53N 37°47' W 122°23'6917159614.2
2018-Apr-25 13:50N 37°46' E 023°27'4763349911.9
2018-Apr-25 13:49N 36°53' W 076°22'10441252258.7
2018-Apr-25 13:47N 01°16' E 103°52'455044269.1
2018-Apr-25 13:41N 45°20' E 036°40'774.1
2018-Apr-25 13:36N 45°17' E 036°33'454754566.6
2018-Apr-25 13:31N 01°13' E 103°39'52796334661.5
2018-Apr-25 13:30N 44°51' E 020°38'9403383977.8
2018-Apr-25 13:30N 59°47' E 028°26'52519450916.0
2018-Apr-25 13:30N 01°15' E 103°57'571620579361.4
2018-Apr-25 13:30N 70°19' E 023°02'16075783846.7
2018-Apr-25 13:30N 44°44' E 037°47'15915728402.1
2018-Apr-25 13:30N 39°32' E 002°43'13511621407.5
2018-Apr-25 13:30N 46°46' E 031°57'273246076.2
2018-Apr-25 13:30N 44°44' E 037°47'1255752853.9
2018-Apr-25 13:30N 63°13' E 021°09'24926396.6
2018-Apr-25 13:30N 59°20' E 018°04'1081432577.3
2018-Apr-25 13:29N 45°17' E 036°33'53093185413.7
2018-Apr-25 13:29N 34°19' W 077°44'143363686359.8
2018-Apr-25 13:29S 27°52' E 153°20'63952092931.5
2018-Apr-25 13:29N 37°47' W 122°23'1452402184.1
2018-Apr-25 13:29N 29°33' W 095°02'60777292315.8
2018-Apr-25 13:29N 46°50' E 031°57'0200.7
2018-Apr-25 13:29N 46°50' E 031°57'72853.9
2018-Apr-25 13:28N 46°57' E 031°60'2198.2
2018-Apr-25 13:28N 46°56' E 031°57'123899041.0
2018-Apr-25 13:27N 52°03' E 001°11'1278158656.1
2018-Apr-25 13:27N 37°55' E 023°42'152499.1
2018-Apr-25 13:26N 37°46' E 023°27'74786776.8
2018-Apr-25 13:26N 45°20' E 036°40'628923148.0
2018-Apr-25 13:10S 23°01' W 044°19'8852118466.0
2018-Apr-25 13:05N 01°16' E 103°52'7869219588.9
2018-Apr-25 13:03N 37°52' W 122°29'7885201326.4
2018-Apr-25 13:01N 01°12' E 103°37'43846.4
2018-Apr-25 13:00N 01°13' E 103°41'44794031481.0
2018-Apr-25 13:00N 44°44' E 037°47'15911909462.1
2018-Apr-25 13:00N 39°32' E 002°43'15695648915.8
2018-Apr-25 13:00N 59°43' E 028°23'9641156412.0
2018-Apr-25 13:00N 44°44' E 037°47'730262815.9
2018-Apr-25 13:00N 44°51' E 020°38'8731048039.7
2018-Apr-25 13:00N 59°20' E 018°05'4214523132.6
2018-Apr-25 13:00N 34°16' W 077°46'39752862024.6
2018-Apr-25 13:00S 23°01' W 044°19'62817536888.7
2018-Apr-25 12:59N 45°17' E 036°33'741333276.8
2018-Apr-25 12:59N 37°46' E 023°27'65932966680.5
2018-Apr-25 12:59N 46°09' W 123°53'66162646578.1
2018-Apr-25 12:59S 27°52' E 153°20'63952302224.7
2018-Apr-25 12:59N 37°47' W 122°23'1452580932.6
2018-Apr-25 12:59N 29°33' W 095°02'60772430669.8
2018-Apr-25 12:59N 46°50' E 031°57'47952877259.1
2018-Apr-25 12:58N 01°15' E 103°50'47964316272.0
2018-Apr-25 12:58N 46°57' E 031°60'2212.3
2018-Apr-25 12:58N 46°56' E 031°57'1424222964.8
2018-Apr-25 12:58N 47°34' W 003°01'31459488.4
2018-Apr-25 12:57N 52°03' E 001°11'126755626.3
2018-Apr-25 12:56N 70°21' E 023°04'1438369710.6
2018-Apr-25 12:56N 46°50' E 031°57'4157.7
2018-Apr-25 12:54N 46°46' E 031°57'1072137875.2
2018-Apr-25 12:54N 43°33' E 007°01'831249277.1
2018-Apr-25 12:54N 37°55' E 023°42'504013070.9
2018-Apr-25 12:31N 01°14' E 103°54'52906348084.7
2018-Apr-25 12:30N 44°51' E 020°38'11011982674.3
2018-Apr-25 12:30N 63°13' E 021°09'12551129284.5
2018-Apr-25 12:30N 44°44' E 037°47'9621731627.5
2018-Apr-25 12:30N 59°41' E 028°19'9623463280.4
2018-Apr-25 12:30N 44°44' E 037°47'1608304705.0
2018-Apr-25 12:30N 70°21' E 023°04'42883858858.2
2018-Apr-25 12:30N 34°15' W 077°47'42161084149.7
2018-Apr-25 12:30N 59°19' E 018°05'13041173315.8
2018-Apr-25 12:30N 37°55' E 023°42'6596879443.5
2018-Apr-25 12:29N 46°09' W 123°53'66162977400.3
2018-Apr-25 12:29S 27°52' E 153°20'63952558027.4
2018-Apr-25 12:29N 37°47' W 122°23'1452475308.5
2018-Apr-25 12:29N 29°33' W 095°02'60775469239.6
2018-Apr-25 12:29N 46°50' E 031°57'0197.7
2018-Apr-25 12:29N 46°50' E 031°57'72568.1
2018-Apr-25 12:28N 46°57' E 031°60'2212.3
2018-Apr-25 12:28N 46°56' E 031°57'781281249.5
2018-Apr-25 12:28N 59°55' E 030°15'6540511826.5
2018-Apr-25 12:27S 23°01' W 044°19'4980527343.7
2018-Apr-25 12:26N 35°55' E 014°31'443227999.9
2018-Apr-25 12:26N 37°46' E 023°27'105370192.4
2018-Apr-25 12:25N 41°07' E 001°09'29811295.9
2018-Apr-25 12:24N 43°33' E 007°01'56015991.2
2018-Apr-25 12:22N 52°07' E 001°31'627796160.1
2018-Apr-25 12:18N 01°15' E 103°50'226.3
2018-Apr-25 12:14N 01°16' E 103°52'6138163686.9
2018-Apr-25 12:12N 39°34' E 002°38'8604569.0
2018-Apr-25 12:00N 44°51' E 020°38'11013965348.3
2018-Apr-25 12:00N 63°13' E 021°09'15801895463.1
2018-Apr-25 12:00N 39°32' E 002°43'13511621414.6
2018-Apr-25 12:00N 46°46' E 031°57'273492150.1
2018-Apr-25 12:00N 44°44' E 037°47'1188855562.8
2018-Apr-25 12:00N 35°56' E 014°30'14112539328.2
2018-Apr-25 12:00N 59°20' E 018°05'52171341473.3
2018-Apr-25 12:00N 46°09' W 123°53'55705012954.4
2018-Apr-25 12:00N 43°33' E 007°01'309185560.6
2018-Apr-25 12:00N 39°34' E 002°38'991396359.0
2018-Apr-25 12:00N 37°55' E 023°42'153499.7
2018-Apr-25 11:59N 37°46' E 023°27'13282390020.6
2018-Apr-25 11:59N 59°40' E 028°18'460716585838.6
2018-Apr-25 11:59N 34°13' W 077°49'143403036669.0
2018-Apr-25 11:59S 27°52' E 153°20'63952092931.5
2018-Apr-25 11:59N 37°47' W 122°23'1452653549.2
2018-Apr-25 11:59N 29°33' W 095°02'45888258990.1
2018-Apr-25 11:59N 52°05' E 001°32'12272209107.1
2018-Apr-25 11:59N 46°50' E 031°57'14385176041.9
2018-Apr-25 11:59N 70°21' E 023°04'14381293965.0
2018-Apr-25 11:59N 46°50' E 031°57'73213.2
2018-Apr-25 11:58N 46°57' E 031°60'47961079068.0
2018-Apr-25 11:58N 01°15' E 103°50'47971233598.2
2018-Apr-25 11:58N 46°56' E 031°57'781937604.4
2018-Apr-25 11:58N 59°55' E 030°16'15849699.9
2018-Apr-25 11:48N 41°04' E 001°11'5732107467.2
2018-Apr-25 11:45N 37°52' W 122°29'7869120540.3
2018-Apr-25 11:41N 01°16' E 103°52'613835186.5
2018-Apr-25 11:31N 39°33' E 002°39'19757111619.1
2018-Apr-25 11:30N 70°21' E 022°56'15311837467.6
2018-Apr-25 11:30N 44°51' E 020°38'11013965348.3
2018-Apr-25 11:30N 63°13' E 021°09'15801421597.0
2018-Apr-25 11:30N 39°32' E 002°43'15911432092.6
2018-Apr-25 11:30N 44°44' E 037°47'026.5
2018-Apr-25 11:30N 44°44' E 037°47'53924853085.8
2018-Apr-25 11:30N 34°12' W 077°49'36372618347.6
2018-Apr-25 11:30N 52°05' E 001°32'1224440801.0
2018-Apr-25 11:30N 46°56' E 031°57'775398591.4
2018-Apr-25 11:30N 59°40' E 028°18'52523151338.0
2018-Apr-25 11:30N 01°16' E 103°57'565020339403.5
2018-Apr-25 11:30N 59°20' E 018°05'14105076883.0
2018-Apr-25 11:30N 35°57' E 014°28'458329974.5
2018-Apr-25 11:30N 37°55' E 023°42'153087.1
2018-Apr-25 11:29N 37°46' E 023°27'87051741062.0
2018-Apr-25 11:29S 27°52' E 153°20'107139641659.4
2018-Apr-25 11:29S 23°01' W 044°19'4379985327.6
2018-Apr-25 11:29N 29°33' W 095°02'60777292319.4
2018-Apr-25 11:29N 46°50' E 031°57'0160.5
2018-Apr-25 11:29N 46°50' E 031°57'72570.2
2018-Apr-25 11:28N 46°57' E 031°60'781175689.6
2018-Apr-25 11:28N 59°55' E 030°16'5622413062.4
2018-Apr-25 11:27N 46°09' W 123°53'50266869.6
2018-Apr-25 11:27N 37°52' W 122°29'6872161697.4
2018-Apr-25 11:24N 46°46' E 031°57'6873284383.8
2018-Apr-25 11:23N 37°47' W 122°23'5906433897.9
2018-Apr-25 11:22S 23°00' W 044°19'469980947.0
2018-Apr-25 11:19N 41°00' E 001°23'6211254093.6
2018-Apr-25 11:17N 01°16' E 103°52'700141934.0
2018-Apr-25 11:07N 28°58' W 013°32'257423459.7
2018-Apr-25 11:01N 59°43' E 028°17'9351121408.8
2018-Apr-25 11:00N 44°51' E 020°38'8581544945.2
2018-Apr-25 11:00N 39°32' E 002°43'19771016714.7
2018-Apr-25 11:00N 70°23' E 022°50'16132903155.2
2018-Apr-25 11:00N 44°44' E 037°47'12554517123.6
2018-Apr-25 11:00N 63°13' E 021°09'1045221376.0
2018-Apr-25 11:00N 46°56' E 031°57'1073482920.2
2018-Apr-25 11:00N 43°33' E 007°01'82595782.7
2018-Apr-25 10:59N 37°46' E 023°27'6917995992.9
2018-Apr-25 10:59N 37°47' W 122°23'1452475308.5
2018-Apr-25 10:59N 29°33' W 095°02'60772734501.4
2018-Apr-25 10:59N 46°50' E 031°57'72570.6
2018-Apr-25 10:58N 46°57' E 031°60'1226245137.2
2018-Apr-25 10:58N 52°05' E 001°32'1072257291.4
2018-Apr-25 10:58N 59°55' E 030°16'1572943223.2
2018-Apr-25 10:58N 35°57' E 014°27'1190142775.1
2018-Apr-25 10:57N 44°44' E 037°47'2639950134.1
2018-Apr-25 10:57N 28°58' W 013°32'54821644693.8
2018-Apr-25 10:57N 37°52' W 122°29'7869534471.2
2018-Apr-25 10:56N 01°16' E 103°52'4796863231.1
2018-Apr-25 10:56N 46°50' E 031°57'143323781.0
2018-Apr-25 10:52N 47°30' W 003°10'131717762.6
2018-Apr-25 10:48N 37°55' E 023°42'6532287.3
2018-Apr-25 10:30N 46°56' E 031°57'489879833.7
2018-Apr-25 10:30N 44°51' E 020°38'528019007517.4
2018-Apr-25 10:30N 01°14' E 103°41'560220168533.9
2018-Apr-25 10:30N 63°13' E 021°09'1255752857.3
2018-Apr-25 10:30N 44°44' E 037°47'16155813406.2
2018-Apr-25 10:30N 70°24' E 022°39'16155813381.4
2018-Apr-25 10:30N 44°44' E 037°47'11394098694.1
2018-Apr-25 10:30N 59°20' E 018°04'708318497.9
2018-Apr-25 10:30N 52°05' E 001°32'330296655.7
2018-Apr-25 10:30N 47°32' W 003°13'64703327198.1
2018-Apr-25 10:30N 01°17' E 103°46'50301065210.6
2018-Apr-25 10:30N 37°55' E 023°42'1941205542.0
2018-Apr-25 10:29N 28°57' W 013°33'1057612691766.1
2018-Apr-25 10:29S 27°52' E 153°20'75321355724.3
2018-Apr-25 10:29N 29°33' W 095°02'60775469236.8
2018-Apr-25 10:29N 46°50' E 031°57'0266.9
2018-Apr-25 10:29N 46°50' E 031°57'72570.2
2018-Apr-25 10:28N 46°57' E 031°60'6866268655.5
2018-Apr-25 10:27N 37°52' W 122°29'6917711504.7
2018-Apr-25 10:26N 37°46' E 023°27'5047908491.7
2018-Apr-25 10:26N 01°16' E 103°52'5180262652.8
2018-Apr-25 10:25N 59°55' E 030°16'6172193198.7
2018-Apr-25 10:23N 37°47' W 122°23'84824.0
2018-Apr-25 10:17N 37°14' W 124°01'595780921.8
2018-Apr-25 10:12N 39°34' E 002°38'15697924.1
2018-Apr-25 10:00N 59°52' E 028°09'9421694899.2
2018-Apr-25 10:00N 44°51' E 020°38'8601032598.5
2018-Apr-25 10:00N 39°34' E 002°38'15941434332.1
2018-Apr-25 10:00N 44°44' E 037°47'68066125528.9
2018-Apr-25 10:00N 46°09' W 123°53'68068167371.8
2018-Apr-25 10:00N 44°44' E 037°47'44924042419.2
2018-Apr-25 10:00N 01°18' E 104°01'64853890756.5
2018-Apr-25 10:00N 47°35' W 003°15'14342581423.6
2018-Apr-25 10:00N 46°56' E 031°57'4790663204.3
2018-Apr-25 10:00N 01°12' E 103°37'199690.9
2018-Apr-25 09:59N 01°16' E 103°55'47998638073.3
2018-Apr-25 09:59N 46°57' E 031°60'1045376059.2
2018-Apr-25 09:59N 63°13' E 021°09'93262398132.2
2018-Apr-25 09:59S 27°52' E 153°20'63952092932.6
2018-Apr-25 09:59N 37°47' W 122°23'54644917771.1
2018-Apr-25 09:59N 70°23' E 022°34'51573713213.8
2018-Apr-25 09:59N 29°33' W 095°02'607710938479.1
2018-Apr-25 09:59N 46°50' E 031°57'0385.6
2018-Apr-25 09:59N 46°50' E 031°57'122749634.4
2018-Apr-25 09:57N 52°05' E 001°32'107227957.5
2018-Apr-25 09:55N 59°55' E 030°15'90632943.4
2018-Apr-25 09:53N 45°19' E 036°32'2106705.9
2018-Apr-25 09:51N 46°46' E 031°57'64559545.1
2018-Apr-25 09:51N 37°55' E 023°42'15261.1
2018-Apr-25 09:47N 37°46' E 023°27'691776155.0
2018-Apr-25 09:42N 37°52' W 122°29'608432116.7
2018-Apr-25 09:31N 59°56' E 028°04'525818929736.2
2018-Apr-25 09:30N 01°12' E 103°37'527818999384.0
2018-Apr-25 09:30N 44°51' E 020°38'52929526111.4
2018-Apr-25 09:30N 01°17' E 103°59'61444423929.3
2018-Apr-25 09:30N 39°34' E 002°38'613111036173.2
2018-Apr-25 09:30N 01°13' E 103°41'448016128835.7
2018-Apr-25 09:30N 44°44' E 037°47'680612251057.7
2018-Apr-25 09:30N 46°09' W 123°53'52189393121.1
2018-Apr-25 09:30N 59°19' E 018°06'1038373580.0
2018-Apr-25 09:30N 47°37' W 003°17'14351033403.7
2018-Apr-25 09:30N 46°56' E 031°57'1073429246.1
2018-Apr-25 09:30N 43°33' E 007°01'831249276.7
2018-Apr-25 09:30N 37°55' E 023°42'655168319.6
2018-Apr-25 09:29N 46°57' E 031°60'6075520741.9
2018-Apr-25 09:29N 29°33' W 095°02'458816518059.9
2018-Apr-25 09:29N 52°05' E 001°32'12272209073.2
2018-Apr-25 09:29N 46°50' E 031°57'0266.9
2018-Apr-25 09:29N 46°50' E 031°57'1443108250.2
2018-Apr-25 09:28N 70°23' E 022°34'15691883014.5
2018-Apr-25 09:28N 45°19' E 036°34'74230718.0
2018-Apr-25 09:26N 37°46' E 023°27'87051958695.5
2018-Apr-25 09:26S 27°52' E 153°20'8839418676.2
2018-Apr-25 09:25N 59°55' E 030°15'791109531.8
2018-Apr-25 09:24N 46°46' E 031°57'68363037.8
2018-Apr-25 09:24N 54°54' E 019°19'5959429067.2
2018-Apr-25 09:23N 37°47' W 122°23'749.3
2018-Apr-25 09:15N 37°52' W 122°29'645926851.0
2018-Apr-25 09:00N 44°51' E 020°38'11011982674.3
2018-Apr-25 09:00N 63°13' E 021°09'15791894646.8
2018-Apr-25 09:00N 39°34' E 002°38'15942868664.2
2018-Apr-25 09:00N 44°44' E 037°47'68064900423.1
2018-Apr-25 09:00N 46°09' W 123°53'67208064492.0
2018-Apr-25 09:00N 45°20' E 036°37'15691882529.9
2018-Apr-25 09:00N 70°23' E 022°33'1437574877.4
2018-Apr-25 09:00N 46°56' E 031°57'7922851454.0
2018-Apr-25 09:00N 59°55' E 027°55'52634737098.4
2018-Apr-25 09:00N 01°13' E 103°37'813507.7
2018-Apr-25 09:00N 01°10' E 103°44'593910689831.5
2018-Apr-25 09:00N 43°33' E 007°01'10331859745.7
2018-Apr-25 09:00N 59°20' E 018°05'1304391225.7
2018-Apr-25 09:00N 37°55' E 023°42'13262387288.4
2018-Apr-25 09:00N 47°39' W 003°20'1438517662.7
2018-Apr-25 08:59N 46°57' E 031°60'677187384.8
2018-Apr-25 08:59N 54°55' E 019°20'551619858125.3
2018-Apr-25 08:59N 01°16' E 103°58'33711213732.7
2018-Apr-25 08:59S 27°52' E 153°20'3368866175.2
2018-Apr-25 08:59N 01°18' E 104°03'94606811537.0
2018-Apr-25 08:59N 29°33' W 095°02'458816518089.3
2018-Apr-25 08:59N 52°05' E 001°32'12272209065.7
2018-Apr-25 08:59N 46°50' E 031°57'662113417.1
2018-Apr-25 08:58N 37°46' E 023°27'1356168301.2
2018-Apr-25 08:58N 59°55' E 030°15'6169389633.5
2018-Apr-25 08:57N 37°52' W 122°29'6869329727.2
2018-Apr-25 08:56N 46°50' E 031°57'6870149886.4
2018-Apr-25 08:53N 37°47' W 122°23'607816292.3
2018-Apr-25 08:30N 59°55' E 027°50'9411694676.6
2018-Apr-25 08:30N 44°51' E 020°38'52806335759.5
2018-Apr-25 08:30N 01°12' E 103°40'613011034322.6
2018-Apr-25 08:30N 39°34' E 002°38'13302394154.3
2018-Apr-25 08:30N 59°20' E 018°05'11391366350.6
2018-Apr-25 08:30N 44°44' E 037°47'60108610.6
2018-Apr-25 08:30N 45°21' E 036°40'1568705620.3
2018-Apr-25 08:30N 70°23' E 022°33'15821898716.0
2018-Apr-25 08:30N 47°39' W 003°23'14391036037.8
2018-Apr-25 08:30N 46°56' E 031°57'68644942433.5
2018-Apr-25 08:30N 37°52' W 122°29'59007080030.3
2018-Apr-25 08:30N 43°33' E 007°01'831213666.4
2018-Apr-25 08:30N 37°55' E 023°42'655196372.9
2018-Apr-25 08:29N 46°57' E 031°60'668801685.7
2018-Apr-25 08:29N 37°46' E 023°27'87051649428.8
2018-Apr-25 08:29S 27°52' E 153°20'33722427814.6
2018-Apr-25 08:29N 01°16' E 103°57'94672129981.6
2018-Apr-25 08:29N 29°33' W 095°02'607721876958.3
2018-Apr-25 08:29N 46°50' E 031°57'0160.5
2018-Apr-25 08:29N 46°50' E 031°57'78861635.1
2018-Apr-25 08:28N 59°55' E 030°15'5183227551.4
2018-Apr-25 08:26N 01°17' E 103°58'10414193249.1
2018-Apr-25 08:23N 38°58' W 076°29'40394846829.1
2018-Apr-25 08:23N 54°56' E 019°18'59571128744.3
2018-Apr-25 08:23N 37°47' W 122°23'876032.6
2018-Apr-25 08:22N 36°47' W 123°43'781342041.3
2018-Apr-25 08:11N 01°17' E 103°46'643.5
2018-Apr-25 08:02N 01°16' E 103°52'5287206872.1
2018-Apr-25 08:00N 44°51' E 020°38'11013965348.7
2018-Apr-25 08:00N 63°13' E 021°09'581210461492.2
2018-Apr-25 08:00N 36°42' W 123°39'78284696656.9
2018-Apr-25 08:00N 01°13' E 103°36'44778058243.2
2018-Apr-25 08:00N 44°44' E 037°47'037.5
2018-Apr-25 08:00N 44°44' E 037°47'9411128795.1
2018-Apr-25 08:00N 54°55' E 019°18'55071802422.7
2018-Apr-25 08:00N 01°17' E 103°45'526818965292.2
2018-Apr-25 08:00N 59°55' E 027°49'1250449850.5
2018-Apr-25 08:00N 43°33' E 007°01'1275655727.3
2018-Apr-25 08:00N 45°22' E 036°41'15671410431.1
2018-Apr-25 08:00N 70°23' E 022°33'14371293476.5
2018-Apr-25 08:00N 46°56' E 031°57'2604.4
2018-Apr-25 07:59N 46°57' E 031°60'47981079643.1
2018-Apr-25 07:59N 01°16' E 103°55'33742024427.7
2018-Apr-25 07:59S 27°52' E 153°20'94024835132.1
2018-Apr-25 07:59N 59°20' E 018°05'57265153719.7
2018-Apr-25 07:59N 37°47' W 122°23'78684720677.0
2018-Apr-25 07:59N 01°17' E 103°58'94658518654.0
2018-Apr-25 07:59N 29°33' W 095°02'607721876947.4
2018-Apr-25 07:59N 46°50' E 031°57'0266.9
2018-Apr-25 07:59N 46°50' E 031°57'64819437.7
2018-Apr-25 07:57N 37°55' E 023°42'1268147267.3
2018-Apr-25 07:56N 52°05' E 001°32'1267414611.3
2018-Apr-25 07:56N 37°46' E 023°27'132691782.1
2018-Apr-25 07:55N 47°39' W 003°27'1403315743.0
2018-Apr-25 07:55N 59°55' E 030°15'5180174297.1
2018-Apr-25 07:53N 01°16' E 103°52'479561647.4
2018-Apr-25 07:48N 46°46' E 031°57'4791261338.0
2018-Apr-25 07:47N 38°58' W 076°29'1041537345.5
2018-Apr-25 07:31N 01°16' E 103°58'01245.8
2018-Apr-25 07:31N 01°17' E 103°58'52916349633.8
2018-Apr-25 07:30N 44°51' E 020°38'52774749338.4
2018-Apr-25 07:30N 01°13' E 103°36'447716116639.7
2018-Apr-25 07:30N 44°44' E 037°47'12554517117.6
2018-Apr-25 07:30N 63°13' E 021°09'10543794536.2
2018-Apr-25 07:30N 46°46' E 031°57'273328105.0
2018-Apr-25 07:30N 44°44' E 037°47'44794031542.5
2018-Apr-25 07:30N 01°13' E 103°41'52691354943.7
2018-Apr-25 07:30N 59°53' E 027°48'1248561696.7
2018-Apr-25 07:30N 43°33' E 007°01'1481313619.6
2018-Apr-25 07:30N 27°57' W 016°33'25773091805.6
2018-Apr-25 07:30N 46°56' E 031°57'2849.3
2018-Apr-25 07:29N 46°57' E 031°60'1443324609.2
2018-Apr-25 07:29N 47°39' W 003°27'64885839164.1
2018-Apr-25 07:29N 01°16' E 103°52'33766077336.2
2018-Apr-25 07:29S 27°52' E 153°20'87056267825.6
2018-Apr-25 07:29N 37°46' E 023°27'69174979964.5
2018-Apr-25 07:29N 37°47' W 122°23'507912239.7
2018-Apr-25 07:29N 46°09' W 123°53'64372896657.6
2018-Apr-25 07:29N 46°50' E 031°57'0131.3
2018-Apr-25 07:29N 46°50' E 031°57'68059700.7
2018-Apr-25 07:28N 54°53' E 019°19'65752534.2
2018-Apr-25 07:27N 52°05' E 001°32'1268138341.8
2018-Apr-25 07:27N 37°55' E 023°42'134543635.5
2018-Apr-25 07:25N 59°55' E 030°15'902812222.6
2018-Apr-25 07:25N 45°24' E 036°43'15717759.5
2018-Apr-25 07:13N 41°09' E 001°14'189523766.8
2018-Apr-25 07:08N 70°22' E 022°31'143611883.1
2018-Apr-25 07:01N 46°56' E 031°57'12344443769.8
2018-Apr-25 07:01N 52°04' E 001°16'10053619622.2
2018-Apr-25 07:00N 59°52' E 027°46'9383376842.0
2018-Apr-25 07:00N 44°51' E 020°38'730262817.2
2018-Apr-25 07:00N 44°44' E 037°47'010.8
2018-Apr-25 07:00N 44°44' E 037°47'12552258571.9
2018-Apr-25 07:00N 63°13' E 021°09'1284210046.4
2018-Apr-25 07:00N 43°33' E 007°01'16881215385.6
2018-Apr-25 07:00N 70°23' E 022°32'57351214502.0
2018-Apr-25 07:00N 01°16' E 103°58'48015761625.9
2018-Apr-25 06:59N 46°57' E 031°60'47901915863.2
2018-Apr-25 06:59N 01°12' E 103°39'64802592098.5
2018-Apr-25 06:59N 47°39' W 003°27'103156189186.3
2018-Apr-25 06:59S 27°52' E 153°20'87054477018.3
2018-Apr-25 06:59N 37°46' E 023°27'69176224955.6
2018-Apr-25 06:59N 37°47' W 122°23'1452580932.6
2018-Apr-25 06:59N 29°33' W 095°02'607710938473.7
2018-Apr-25 06:59N 46°50' E 031°57'0200.2
2018-Apr-25 06:59N 46°50' E 031°57'6437926893.8
2018-Apr-25 06:58N 46°09' W 123°53'77501550025.6
2018-Apr-25 06:58N 01°15' E 103°51'51812331515.2
2018-Apr-25 06:58N 59°55' E 030°15'51771433722.4
2018-Apr-25 06:58N 01°12' E 103°41'7881709323.9
2018-Apr-25 06:57N 37°52' W 122°29'71541287766.6
2018-Apr-25 06:57N 45°24' E 036°43'2155869.9
2018-Apr-25 06:54N 46°46' E 031°57'681129037.5
2018-Apr-25 06:54N 54°52' E 019°21'1033148811.7
2018-Apr-25 06:54N 37°55' E 023°42'470944148.2
2018-Apr-25 06:47N 38°58' W 076°29'357327959.0
2018-Apr-25 06:40N 41°01' E 001°11'190812649.8
2018-Apr-25 06:31N 70°23' E 022°47'6442318446.2
2018-Apr-25 06:30N 59°51' E 027°44'527018972876.0
2018-Apr-25 06:30N 01°12' E 103°38'2383542.3
2018-Apr-25 06:30N 01°18' E 104°01'529219051822.4
2018-Apr-25 06:30N 44°51' E 020°38'487437978.8
2018-Apr-25 06:30N 46°46' E 031°57'273123042.2
2018-Apr-25 06:30N 44°44' E 037°47'15232741614.1
2018-Apr-25 06:30N 52°03' E 001°11'56291901.7
2018-Apr-25 06:30N 43°33' E 007°01'557020051782.7
2018-Apr-25 06:30N 46°09' W 123°53'6432926193.2
2018-Apr-25 06:29N 46°57' E 031°60'1443324609.0
2018-Apr-25 06:29N 47°39' W 003°27'103157427025.6
2018-Apr-25 06:29S 27°52' E 153°20'94024230752.5
2018-Apr-25 06:29N 59°20' E 018°05'572620614840.3
2018-Apr-25 06:29N 37°47' W 122°23'68702061011.1
2018-Apr-25 06:29N 46°50' E 031°57'0157.2
2018-Apr-25 06:29N 46°50' E 031°57'6647.1
2018-Apr-25 06:28N 46°56' E 031°57'781401821.4
2018-Apr-25 06:28N 59°55' E 030°15'465104539.1
2018-Apr-25 06:28N 54°51' E 019°23'937140490.4
2018-Apr-25 06:27N 44°44' E 037°47'72361132641.2
2018-Apr-25 06:27N 37°52' W 122°29'6923129126.6
2018-Apr-25 06:24N 37°55' E 023°42'5037477163.4
2018-Apr-25 06:23N 01°16' E 103°52'50486057068.5
2018-Apr-25 06:23N 37°46' E 023°27'7477023.7
2018-Apr-25 06:17N 45°20' E 036°40'157510839.3
2018-Apr-25 06:08N 41°04' E 001°09'5843107311.5
2018-Apr-25 06:05N 36°11' W 123°20'658795234.2
2018-Apr-25 06:00N 44°51' E 020°38'11013965348.5
2018-Apr-25 06:00N 63°13' E 021°09'15171364975.7
2018-Apr-25 06:00N 41°06' E 001°11'13724938687.8
2018-Apr-25 06:00N 46°46' E 031°57'273492157.6
2018-Apr-25 06:00N 44°44' E 037°47'16085788801.7
2018-Apr-25 06:00N 70°19' E 022°58'57151582537.8
2018-Apr-25 06:00N 01°11' E 103°42'1821282.7
2018-Apr-25 06:00N 01°17' E 103°59'52794751176.6
2018-Apr-25 06:00N 59°50' E 027°43'55361992942.0
2018-Apr-25 06:00N 46°09' W 123°53'49252533099.7
2018-Apr-25 06:00N 52°03' E 001°11'12781150269.2
2018-Apr-25 06:00N 37°55' E 023°42'655181266.6
2018-Apr-25 05:59N 46°57' E 031°60'84681325359.4
2018-Apr-25 05:59S 27°52' E 153°20'87057834779.1
2018-Apr-25 05:59N 37°46' E 023°27'13114719072.6
2018-Apr-25 05:59N 59°20' E 018°05'56413384776.0
2018-Apr-25 05:59N 01°17' E 103°45'94784264939.1
2018-Apr-25 05:59N 29°33' W 095°02'6077643426.2
2018-Apr-25 05:58N 46°50' E 031°57'65630.1
2018-Apr-25 05:58N 46°56' E 031°57'781216345.8
2018-Apr-25 05:58N 59°55' E 030°15'811171801.7
2018-Apr-25 05:58N 46°24' E 030°51'5214522.1
2018-Apr-25 05:57N 46°50' E 031°57'7007764413.4
2018-Apr-25 05:57N 36°09' W 123°18'1076789.1
2018-Apr-25 05:56N 37°47' W 122°23'778.8
2018-Apr-25 05:51N 37°52' W 122°29'5900117348.7
2018-Apr-25 05:48N 43°33' E 007°01'594041125.8
2018-Apr-25 05:39N 01°15' E 103°50'12798.5
2018-Apr-25 05:38N 01°24' E 103°59'527440480.5
2018-Apr-25 05:30N 59°51' E 027°42'9361684382.2
2018-Apr-25 05:30N 44°51' E 020°38'486583730.1
2018-Apr-25 05:30N 46°50' E 031°55'47908621762.2
2018-Apr-25 05:30N 01°15' E 103°41'32469.6
2018-Apr-25 05:30N 01°18' E 103°43'78464707464.4
2018-Apr-25 05:30N 36°02' W 123°13'784328236201.9
2018-Apr-25 05:30N 01°17' E 103°46'62877544335.2
2018-Apr-25 05:30N 52°03' E 001°11'9271112807.6
2018-Apr-25 05:30N 63°13' E 021°09'10501890209.0
2018-Apr-25 05:30N 46°50' E 031°55'64351447986.9
2018-Apr-25 05:30N 46°09' W 123°53'77433981874.9
2018-Apr-25 05:30N 01°17' E 103°58'50426049889.5
2018-Apr-25 05:30N 37°55' E 023°42'655196372.9
2018-Apr-25 05:29N 46°57' E 031°60'84681270136.5
2018-Apr-25 05:29S 27°52' E 153°20'870515669569.8
2018-Apr-25 05:29N 37°46' E 023°27'13114719072.6
2018-Apr-25 05:29N 59°20' E 018°05'57263435810.8
2018-Apr-25 05:29N 37°47' W 122°23'1452475309.4
2018-Apr-25 05:29N 29°33' W 095°02'51751035086.7
2018-Apr-25 05:28N 70°17' E 023°04'1428257119.9
2018-Apr-25 05:28N 46°56' E 031°57'27721236.8
2018-Apr-25 05:27N 44°44' E 037°47'31227371.8
2018-Apr-25 05:27N 46°28' E 030°47'80728481.3
2018-Apr-25 05:25N 59°55' E 030°15'51783106900.3
2018-Apr-25 05:25N 01°24' E 103°59'7857120875.5
2018-Apr-25 05:21N 37°52' W 122°29'7870232242.6
2018-Apr-25 05:19N 01°15' E 103°50'5940362464.9
2018-Apr-25 05:18N 43°33' E 007°01'8349387.6
2018-Apr-25 05:13N 54°47' E 019°34'405323607.8
2018-Apr-25 05:02N 38°58' W 076°29'10412360428.0
2018-Apr-25 05:01N 01°13' E 103°53'52894760499.3
2018-Apr-25 05:00N 44°51' E 020°38'730262817.4
2018-Apr-25 05:00N 44°44' E 037°47'73825314766.6
2018-Apr-25 05:00N 35°53' W 123°08'785614141561.0
2018-Apr-25 05:00N 01°13' E 103°40'47892462982.9
2018-Apr-25 05:00N 46°50' E 031°57'68702473045.5
2018-Apr-25 05:00N 37°52' W 122°29'54816577119.3
2018-Apr-25 05:00N 70°17' E 023°04'48645836577.5
2018-Apr-25 05:00N 46°09' W 123°53'55333319638.5
2018-Apr-25 05:00N 59°52' E 027°40'13264774544.3
2018-Apr-25 05:00N 37°55' E 023°42'50301509028.7
2018-Apr-25 04:59N 01°17' E 103°46'47915748722.3
2018-Apr-25 04:59N 46°57' E 031°60'47991727694.4
2018-Apr-25 04:59N 01°17' E 103°56'56491070374.2
2018-Apr-25 04:59N 59°20' E 018°05'51641430027.6
2018-Apr-25 04:59N 29°33' W 095°02'6077875040.5
2018-Apr-25 04:58N 46°50' E 031°57'1241343528.7
2018-Apr-25 04:58N 52°03' E 001°11'12384456883.6
2018-Apr-25 04:58N 46°56' E 031°57'8469260591.6
2018-Apr-25 04:56S 27°52' E 153°20'63951534816.5
2018-Apr-25 04:56N 37°47' W 122°23'219755688.0
2018-Apr-25 04:53N 36°53' W 076°22'4763535801.9
2018-Apr-25 04:53N 37°46' E 023°27'75116995.4
2018-Apr-25 04:50N 45°24' E 036°43'127731264.9
2018-Apr-25 04:48N 43°33' E 007°01'5941455063.4
2018-Apr-25 04:47N 01°16' E 103°52'1041070706.2
2018-Apr-25 04:38N 38°58' W 076°29'435133541.8
2018-Apr-25 04:30N 44°51' E 020°38'11013965348.3
2018-Apr-25 04:30N 63°13' E 021°09'56053363252.3
2018-Apr-25 04:30N 01°11' E 103°42'44828067698.7
2018-Apr-25 04:30N 44°44' E 037°47'982196429.0
2018-Apr-25 04:30N 59°53' E 027°38'635228688.1
2018-Apr-25 04:30N 70°17' E 023°04'48644377430.4
2018-Apr-25 04:30N 46°09' W 123°53'65962638327.0
2018-Apr-25 04:30N 37°55' E 023°42'655196375.0
2018-Apr-25 04:29N 46°57' E 031°60'48031235083.0
2018-Apr-25 04:29N 01°18' E 104°03'33681515793.6
2018-Apr-25 04:29S 27°52' E 153°20'33876096806.0
2018-Apr-25 04:29N 01°12' E 103°36'50364532656.8
2018-Apr-25 04:29N 37°46' E 023°27'13114719070.2
2018-Apr-25 04:29N 59°20' E 018°05'51641327882.8
2018-Apr-25 04:29N 29°33' W 095°02'6077875040.0
2018-Apr-25 04:28N 46°50' E 031°57'1241496208.8
2018-Apr-25 04:28N 52°03' E 001°11'1238891379.7
2018-Apr-25 04:28N 46°56' E 031°57'6384.8
2018-Apr-25 04:27N 46°50' E 031°57'68702473043.4
2018-Apr-25 04:27N 37°52' W 122°29'7154696089.5
2018-Apr-25 04:26N 45°24' E 036°43'71551073203.1
2018-Apr-25 04:26N 37°47' W 122°23'5899172668.0
2018-Apr-25 04:24N 43°33' E 007°01'5013820269.5
2018-Apr-25 04:23S 23°00' W 044°19'41811157693.8
2018-Apr-25 04:23N 38°58' W 076°29'1041099931.5
2018-Apr-25 04:17N 01°16' E 103°52'517.7
2018-Apr-25 04:01N 01°16' E 103°57'52914761503.8
2018-Apr-25 04:00N 44°51' E 020°38'11013965348.3
2018-Apr-25 04:00N 63°13' E 021°09'56075046696.6
2018-Apr-25 04:00N 01°15' E 103°51'62935664013.8
2018-Apr-25 04:00N 52°03' E 001°11'15235483138.1
2018-Apr-25 04:00N 44°44' E 037°47'981504440.2
2018-Apr-25 04:00N 59°52' E 027°40'797573662.5
2018-Apr-25 04:00N 46°50' E 031°57'68702060871.3
2018-Apr-25 04:00N 37°52' W 122°29'69231917035.4
2018-Apr-25 04:00N 37°55' E 023°42'655168319.6
2018-Apr-25 03:59N 46°57' E 031°60'217391200.9
2018-Apr-25 03:59N 45°24' E 036°43'62922516798.4
2018-Apr-25 03:59S 23°00' W 044°19'107133213906.3
2018-Apr-25 03:59S 27°52' E 153°20'870531339127.9
2018-Apr-25 03:59N 37°46' E 023°27'13111179768.1
2018-Apr-25 03:59N 59°20' E 018°05'57265153716.1
2018-Apr-25 03:59N 37°47' W 122°23'1452435699.4
2018-Apr-25 03:59N 29°33' W 095°02'6077994364.2
2018-Apr-25 03:58N 46°50' E 031°57'47881567066.9
2018-Apr-25 03:58N 01°13' E 103°38'2631648.5
2018-Apr-25 03:58N 01°19' E 104°04'2240226.3
2018-Apr-25 03:58N 01°11' E 103°43'7868178137.9
2018-Apr-25 03:55N 35°36' W 122°57'73098771353.1
2018-Apr-25 03:55N 45°20' E 036°40'21852397.6
2018-Apr-25 03:55N 46°56' E 031°57'107352205.9
2018-Apr-25 03:54N 43°33' E 007°01'3776357759.9
2018-Apr-25 03:53N 38°58' W 076°29'3936488588.7
2018-Apr-25 03:53N 70°17' E 023°04'5711147913.7
2018-Apr-25 03:50N 01°16' E 103°52'479556966.8
2018-Apr-25 03:45N 46°46' E 031°57'478934139.6
2018-Apr-25 03:37N 01°18' E 103°46'10402187231.8
2018-Apr-25 03:34N 38°57' W 076°28'10398199103.4
2018-Apr-25 03:31N 01°15' E 103°39'1452044.6
2018-Apr-25 03:30N 01°15' E 103°54'528919039764.1
2018-Apr-25 03:30N 44°51' E 020°38'11011321782.8
2018-Apr-25 03:30N 63°13' E 021°09'1255376429.6
2018-Apr-25 03:30N 44°44' E 037°47'44802687917.4
2018-Apr-25 03:30N 01°17' E 103°46'47905747890.2
2018-Apr-25 03:30N 46°50' E 031°57'795114543.2
2018-Apr-25 03:30N 59°51' E 027°42'13252385422.3
2018-Apr-25 03:30N 37°55' E 023°42'50379066197.5
2018-Apr-25 03:30N 01°12' E 103°49'47981919066.9
2018-Apr-25 03:29N 46°57' E 031°60'896111212.8
2018-Apr-25 03:29N 59°20' E 018°05'13114719072.6
2018-Apr-25 03:29N 37°46' E 023°27'69176224955.6
2018-Apr-25 03:29N 37°47' W 122°23'1452522839.3
2018-Apr-25 03:29N 29°33' W 095°02'63451038221.1
2018-Apr-25 03:28N 45°20' E 036°40'216389025.9
2018-Apr-25 03:28N 46°50' E 031°57'12411488622.7
2018-Apr-25 03:28N 52°03' E 001°11'1238405171.6
2018-Apr-25 03:28N 46°56' E 031°57'48003456001.1
2018-Apr-25 03:28N 01°18' E 103°56'77435575183.9
2018-Apr-25 03:28N 46°09' W 123°53'48642188720.2
2018-Apr-25 03:28N 70°17' E 023°04'39361574509.2
2018-Apr-25 03:28N 38°57' W 076°28'266.9
2018-Apr-25 03:26N 38°58' W 076°29'142984289449.7
2018-Apr-25 03:26S 27°52' E 153°20'6294365444.8
2018-Apr-25 03:25N 35°28' W 122°52'6032314721.6
2018-Apr-25 03:24N 43°33' E 007°01'107225909.4
2018-Apr-25 03:21N 46°46' E 031°57'687263435.1
2018-Apr-25 03:15N 37°52' W 122°29'645926851.0
2018-Apr-25 03:00N 44°51' E 020°38'52912116448.6
2018-Apr-25 03:00N 01°15' E 103°56'44904040882.8
2018-Apr-25 03:00N 44°44' E 037°47'9781173671.5
2018-Apr-25 03:00N 59°50' E 027°44'52779498651.4
2018-Apr-25 03:00N 01°12' E 103°50'47975756933.1
2018-Apr-25 03:00N 46°50' E 031°57'47925750042.1
2018-Apr-25 03:00N 01°16' E 103°46'5032724565.9
2018-Apr-25 03:00N 37°55' E 023°42'655181267.9
2018-Apr-25 02:59N 46°57' E 031°60'4803960596.4
2018-Apr-25 02:59N 01°18' E 104°03'33684042130.4
2018-Apr-25 02:59S 27°52' E 153°20'94025640997.4
2018-Apr-25 02:59N 59°20' E 018°05'13114719072.6
2018-Apr-25 02:59N 37°46' E 023°27'691712449911.2
2018-Apr-25 02:59N 37°47' W 122°23'1452435699.4
2018-Apr-25 02:59N 29°33' W 095°02'43793152979.2
2018-Apr-25 02:59S 23°00' W 044°19'52212349501.4
2018-Apr-25 02:58N 52°03' E 001°11'1241558229.8
2018-Apr-25 02:58N 46°50' E 031°57'48012468935.6
2018-Apr-25 02:58N 01°15' E 103°57'48031728930.5
2018-Apr-25 02:58N 46°56' E 031°57'64312104675.1
2018-Apr-25 02:58N 46°09' W 123°53'2140453238.3
2018-Apr-25 02:58N 38°57' W 076°28'39361574509.2
2018-Apr-25 02:57N 70°17' E 023°04'14381294312.5
2018-Apr-25 02:57N 46°46' E 031°57'6931228914.8
2018-Apr-25 02:56N 32°40' W 117°07'8185320292.2
2018-Apr-25 02:54N 01°24' E 103°60'59421782740.3
2018-Apr-25 02:54N 43°33' E 007°01'6034221648.3
2018-Apr-25 02:52N 35°19' W 122°45'1536970.3
2018-Apr-25 02:51N 37°52' W 122°29'216435566.6
2018-Apr-25 02:47N 38°58' W 076°29'5048336539.4
2018-Apr-25 02:46N 45°20' E 036°40'416.1
2018-Apr-25 02:32N 45°24' E 036°43'4543151446.1
2018-Apr-25 02:31N 01°12' E 103°40'1140155.3
2018-Apr-25 02:30N 01°15' E 103°51'528719031584.0
2018-Apr-25 02:30N 44°51' E 020°38'52872114738.6
2018-Apr-25 02:30N 01°12' E 103°48'44865383271.3
2018-Apr-25 02:30N 44°44' E 037°47'52053123082.9
2018-Apr-25 02:30N 36°53' W 076°22'437215739996.1
2018-Apr-25 02:30N 59°50' E 027°43'10073624566.8
2018-Apr-25 02:30N 52°03' E 001°11'12411116661.5
2018-Apr-25 02:30N 46°50' E 031°57'64886406.0
2018-Apr-25 02:30N 37°55' E 023°42'50376044569.3
2018-Apr-25 02:30N 01°24' E 103°59'5604840583.8
2018-Apr-25 02:29N 63°13' E 021°09'93264196731.4
2018-Apr-25 02:29S 27°52' E 153°20'94025641000.3
2018-Apr-25 02:29N 59°20' E 018°05'51641327882.8
2018-Apr-25 02:29N 29°33' W 095°02'1150376378.2
2018-Apr-25 02:29N 32°40' W 117°07'69292078596.4
2018-Apr-25 02:28N 46°50' E 031°57'61617.8
2018-Apr-25 02:28N 46°56' E 031°57'6431926057.3
2018-Apr-25 02:28N 46°09' W 123°53'62521731432.2
2018-Apr-25 02:27S 23°00' W 044°19'61305516886.5
2018-Apr-25 02:27N 46°46' E 031°57'70341101016.0
2018-Apr-25 02:27N 35°14' W 122°39'7028722909.5
2018-Apr-25 02:26N 46°57' E 031°60'66882933.6
2018-Apr-25 02:26N 37°46' E 023°27'69178299935.1
2018-Apr-25 02:26N 37°47' W 122°23'7863267033.9
2018-Apr-25 02:24N 01°18' E 104°03'59491529761.1
2018-Apr-25 02:24N 43°33' E 007°01'5900118659.8
2018-Apr-25 02:21N 37°52' W 122°29'786223105.8
2018-Apr-25 02:00N 01°17' E 103°58'529219049479.5
2018-Apr-25 02:00N 44°51' E 020°38'11011982674.2
2018-Apr-25 02:00N 63°13' E 021°09'588310588506.5
2018-Apr-25 02:00N 35°08' W 122°32'62685641575.1
2018-Apr-25 02:00N 59°51' E 027°41'9801763188.9
2018-Apr-25 02:00N 44°44' E 037°47'44778059074.7
2018-Apr-25 02:00N 01°13' E 103°38'47871436208.8
2018-Apr-25 02:00N 46°50' E 031°57'1241638087.5
2018-Apr-25 02:00N 52°03' E 001°11'1278270651.2
2018-Apr-25 02:00N 37°55' E 023°42'54531635900.2
2018-Apr-25 01:59S 23°00' W 044°19'88507965148.0
2018-Apr-25 01:59N 01°15' E 103°50'71406.2
2018-Apr-25 01:59N 01°18' E 103°43'104327510742.9
2018-Apr-25 01:59N 36°53' W 076°22'40167229191.5
2018-Apr-25 01:59N 59°20' E 018°05'13114719072.6
2018-Apr-25 01:59N 37°46' E 023°27'59381644251.5
2018-Apr-25 01:59N 29°33' W 095°02'1691338184.9
2018-Apr-25 01:58N 46°09' W 123°53'64374634469.0
2018-Apr-25 01:58N 46°50' E 031°57'48011329549.2
2018-Apr-25 01:58N 01°18' E 104°00'48035763627.5
2018-Apr-25 01:58N 46°56' E 031°57'258.9
2018-Apr-25 01:56N 46°57' E 031°60'84681451581.8
2018-Apr-25 01:56S 27°52' E 153°20'9695262431.8
2018-Apr-25 01:54N 43°33' E 007°01'107261275.1
2018-Apr-25 01:53N 46°46' E 031°57'6872217017.0
2018-Apr-25 01:51N 37°52' W 122°29'71558585978.1
2018-Apr-25 01:51N 45°20' E 036°40'7155108233.0
2018-Apr-25 01:47N 37°47' W 122°23'645923630.9
2018-Apr-25 01:30N 44°51' E 020°38'11011982674.3
2018-Apr-25 01:30N 63°13' E 021°09'1255903430.0
2018-Apr-25 01:30N 44°44' E 037°47'9811765970.7
2018-Apr-25 01:30N 59°52' E 027°39'62693224102.2
2018-Apr-25 01:30N 35°01' W 122°24'70333616991.0
2018-Apr-25 01:30N 46°50' E 031°57'47951726266.6
2018-Apr-25 01:30N 01°15' E 103°50'47941232812.8
2018-Apr-25 01:30N 46°46' E 031°56'645773414.0
2018-Apr-25 01:30N 37°55' E 023°42'655181268.6
2018-Apr-25 01:29N 46°57' E 031°60'1239278813.0
2018-Apr-25 01:29N 52°03' E 001°11'62973238674.5
2018-Apr-25 01:29N 01°16' E 103°58'50524546778.4
2018-Apr-25 01:29N 37°46' E 023°27'59381425018.2
2018-Apr-25 01:29N 29°33' W 095°02'4379985304.1
2018-Apr-25 01:28S 23°00' W 044°19'625211254303.3
2018-Apr-25 01:28N 46°09' W 123°53'64373862057.5
2018-Apr-25 01:28N 46°50' E 031°57'61617.8
2018-Apr-25 01:28N 46°56' E 031°57'4874324929.1
2018-Apr-25 01:27N 36°53' W 076°22'4016198060.0
2018-Apr-25 01:26N 59°20' E 018°05'57264122972.9
2018-Apr-25 01:26N 37°47' W 122°23'5899175522.1
2018-Apr-25 01:24N 43°33' E 007°01'5945548730.0
2018-Apr-25 01:23N 01°18' E 103°57'337313327.9
2018-Apr-25 01:08S 27°52' E 153°20'14298308224.0
2018-Apr-25 01:05N 38°58' W 076°29'10404131887.8
2018-Apr-25 01:01N 01°16' E 103°46'52823803283.9
2018-Apr-25 01:00N 44°51' E 020°38'52783800177.5
2018-Apr-25 01:00N 01°12' E 103°38'45425450917.5
2018-Apr-25 01:00N 45°21' E 036°40'45555465869.3
2018-Apr-25 01:00N 01°16' E 103°58'48008639663.9
2018-Apr-25 01:00N 46°45' E 031°56'52452.1
2018-Apr-25 01:00N 46°50' E 031°57'050.0
2018-Apr-25 01:00N 46°50' E 031°57'1241446587.1
2018-Apr-25 01:00N 52°03' E 001°11'12782300544.0
2018-Apr-25 01:00N 37°55' E 023°42'50404535706.3
2018-Apr-25 01:00N 01°14' E 103°54'48001727961.9
2018-Apr-25 00:59N 46°57' E 031°60'47964316272.4
2018-Apr-25 00:59N 01°15' E 103°50'52801900731.9
2018-Apr-25 00:59N 59°53' E 027°38'89605376117.0
2018-Apr-25 00:59S 27°52' E 153°20'87054477018.3
2018-Apr-25 00:59N 37°46' E 023°27'13114719072.6
2018-Apr-25 00:59N 59°20' E 018°05'51641327882.8
2018-Apr-25 00:59N 29°33' W 095°02'1691338183.3
2018-Apr-25 00:58N 46°09' W 123°53'77481992234.2
2018-Apr-25 00:58N 01°17' E 103°53'47984318282.1
2018-Apr-25 00:58N 46°56' E 031°57'6136566402.7
2018-Apr-25 00:57S 23°00' W 044°19'8863490895.3
2018-Apr-25 00:56N 01°18' E 104°03'5949140896.8
2018-Apr-25 00:54N 43°33' E 007°01'589989236.0
2018-Apr-25 00:50N 37°47' W 122°23'21972635892.6
2018-Apr-25 00:50N 36°53' W 076°22'22318461.9
2018-Apr-25 00:34N 34°49' W 122°09'223138058.6
2018-Apr-25 00:30N 36°53' W 076°22'1043837575854.8
2018-Apr-25 00:30N 01°14' E 103°47'560620180607.4
2018-Apr-25 00:30N 63°13' E 021°09'11013965348.5
2018-Apr-25 00:30N 44°51' E 020°38'660711891829.4
2018-Apr-25 00:30N 34°48' W 122°08'74005327798.3
2018-Apr-25 00:30N 44°44' E 037°47'1523456926.1
2018-Apr-25 00:30N 52°03' E 001°11'12414466632.6
2018-Apr-25 00:30N 46°50' E 031°57'47973453564.2
2018-Apr-25 00:30N 01°15' E 103°52'47971439059.9
2018-Apr-25 00:30N 46°50' E 031°57'648291566.0
2018-Apr-25 00:30N 37°55' E 023°42'1327217090.4
2018-Apr-25 00:29N 59°52' E 027°38'52842113498.5
2018-Apr-25 00:29N 01°16' E 103°58'33712426858.8
2018-Apr-25 00:29S 27°52' E 153°20'87053482128.7
2018-Apr-25 00:29N 37°46' E 023°27'69178299929.5
2018-Apr-25 00:29N 37°47' W 122°23'1452522839.8
2018-Apr-25 00:29N 29°33' W 095°02'1691289871.4
2018-Apr-25 00:28N 46°09' W 123°53'64311361850.3
2018-Apr-25 00:28N 46°56' E 031°57'101961.5
2018-Apr-25 00:28N 46°46' E 031°57'4794246562.0
2018-Apr-25 00:27N 01°15' E 103°50'47961328084.1
2018-Apr-25 00:26N 46°57' E 031°60'896115184.9
2018-Apr-25 00:26N 59°20' E 018°05'103329995.1
2018-Apr-25 00:24N 43°33' E 007°01'594150324.7
2018-Apr-25 00:17N 01°16' E 103°52'786996023.6
2018-Apr-25 00:12N 37°52' W 122°29'7155170584.2
2018-Apr-25 00:09N 45°20' E 036°40'455830898.6
2018-Apr-25 00:01N 01°16' E 104°03'52956353940.6
2018-Apr-25 00:00N 44°51' E 020°38'11011982674.3
2018-Apr-25 00:00N 63°13' E 021°09'12021442930.2
2018-Apr-25 00:00N 45°20' E 036°40'73206587928.5
2018-Apr-25 00:00N 34°41' W 122°01'790614231427.9
2018-Apr-25 00:00N 01°17' E 103°58'52813168658.6
2018-Apr-25 00:00N 59°51' E 027°40'796573300.4
2018-Apr-25 00:00N 46°50' E 031°57'053.4
2018-Apr-25 00:00N 46°50' E 031°57'648179425.2
2018-Apr-25 00:00N 37°55' E 023°42'50302263566.8
2018-Apr-24 23:59N 01°17' E 103°46'47914311584.3
2018-Apr-24 23:59N 46°57' E 031°60'84681325359.2
2018-Apr-24 23:59S 27°52' E 153°20'87056267829.4
2018-Apr-24 23:59N 37°46' E 023°27'13114719070.2
2018-Apr-24 23:59N 59°20' E 018°05'57264122972.9
2018-Apr-24 23:59N 37°47' W 122°23'1452580932.6
2018-Apr-24 23:59N 29°33' W 095°02'1691289871.4
2018-Apr-24 23:58N 46°09' W 123°53'77503985863.3
2018-Apr-24 23:58N 01°15' E 103°50'47972467198.0
2018-Apr-24 23:58N 46°56' E 031°57'1238318349.6
2018-Apr-24 23:58N 52°03' E 001°11'1242745220.4
2018-Apr-24 23:58N 46°46' E 031°57'27333941.9
2018-Apr-24 23:57N 44°44' E 037°47'4489489703.4
2018-Apr-24 23:57N 01°14' E 103°54'10444175697.2
2018-Apr-24 23:53N 36°53' W 076°22'10440736930.9
2018-Apr-24 23:52N 01°15' E 103°50'88504551505.0
2018-Apr-24 23:52S 23°00' W 044°19'8852212445.8
2018-Apr-24 23:50N 01°16' E 103°52'710873530.8
2018-Apr-24 23:44N 27°52' W 015°25'296021573.2
2018-Apr-24 23:36N 70°17' E 023°04'571966196.3
2018-Apr-24 23:31N 34°35' W 121°53'792214260284.9
2018-Apr-24 23:30N 01°15' E 103°50'528619029913.5
2018-Apr-24 23:30N 44°51' E 020°38'52949529725.1
2018-Apr-24 23:30N 01°18' E 104°03'561210102015.4
2018-Apr-24 23:30N 63°13' E 021°09'12551505714.6
2018-Apr-24 23:30N 44°44' E 037°47'27563307724.1
2018-Apr-24 23:30N 28°02' W 015°23'31321879304.1
2018-Apr-24 23:30N 36°53' W 076°22'48773511419.7
2018-Apr-24 23:30N 46°50' E 031°57'795168336.9
2018-Apr-24 23:30N 59°50' E 027°42'82102462900.7
2018-Apr-24 23:30S 19°10' E 146°51'28285090872.2
2018-Apr-24 23:30N 01°15' E 103°50'47961569555.3
2018-Apr-24 23:29N 46°57' E 031°60'48001570763.1
2018-Apr-24 23:29N 01°14' E 103°54'62962266671.1
2018-Apr-24 23:29N 52°03' E 001°11'1013336479159.3
2018-Apr-24 23:29S 27°52' E 153°20'87056267824.0
2018-Apr-24 23:29N 37°46' E 023°27'13114719094.0
2018-Apr-24 23:29N 59°20' E 018°05'57264122972.9
2018-Apr-24 23:29N 37°47' W 122°23'1452580932.6
2018-Apr-24 23:29N 29°33' W 095°02'1691289871.4
2018-Apr-24 23:28N 46°09' W 123°53'64311653675.3
2018-Apr-24 23:28N 46°56' E 031°57'101857.1
2018-Apr-24 23:28N 46°46' E 031°57'1438199125.2
2018-Apr-24 23:27N 70°17' E 023°04'1435860789.5
2018-Apr-24 23:27N 46°50' E 031°57'4790663261.9
2018-Apr-24 23:27N 01°17' E 103°46'8846176927.1
2018-Apr-24 23:24S 23°00' W 044°19'501325063.8
2018-Apr-24 23:12N 43°33' E 007°01'12759071.5
2018-Apr-24 23:03N 45°20' E 036°40'68013826.6
2018-Apr-24 23:00N 44°51' E 020°38'1101990844.4
2018-Apr-24 23:00N 63°12' E 021°02'279334538.2
2018-Apr-24 23:00N 59°50' E 027°44'9783521683.3
2018-Apr-24 23:00N 44°44' E 037°47'275494688.1
2018-Apr-24 23:00N 46°50' E 031°57'70352814176.1
2018-Apr-24 23:00N 34°32' W 121°50'703612664256.9
2018-Apr-24 23:00N 46°50' E 031°57'1073257465.3
2018-Apr-24 23:00N 43°33' E 007°01'593810688868.4
2018-Apr-24 23:00N 01°14' E 103°47'57102936746.8
2018-Apr-24 23:00N 70°17' E 023°04'19431748523.3
2018-Apr-24 23:00N 37°55' E 023°42'50384534140.1
2018-Apr-24 23:00N 01°16' E 103°54'47981727217.5
2018-Apr-24 22:59N 46°57' E 031°60'47971015835.6
2018-Apr-24 22:59N 01°12' E 103°49'33772431190.7
2018-Apr-24 22:59S 27°52' E 153°20'87056267820.9
2018-Apr-24 22:59N 37°46' E 023°27'13114719072.6
2018-Apr-24 22:59N 59°20' E 018°05'572620614864.5
2018-Apr-24 22:59N 37°47' W 122°23'78764725639.2
2018-Apr-24 22:59N 01°15' E 103°50'94748526223.3
2018-Apr-24 22:59N 29°33' W 095°02'1691234126.9
2018-Apr-24 22:58N 46°09' W 123°53'64312315145.4
2018-Apr-24 22:58N 46°56' E 031°57'101681.2
2018-Apr-24 22:58N 46°46' E 031°57'61307355844.0
2018-Apr-24 22:58S 23°00' W 044°19'397329732.1
2018-Apr-24 22:50N 34°12' W 077°48'397558167.4
2018-Apr-24 22:46S 23°07' W 044°26'4050291622.4
2018-Apr-24 22:45N 36°48' W 075°45'221834268.3
2018-Apr-24 22:41N 48°40' W 123°25'776444792.5
2018-Apr-24 22:31N 01°12' E 103°50'52886345398.7
2018-Apr-24 22:30N 44°51' E 020°38'9371686422.2
2018-Apr-24 22:30N 59°51' E 027°45'52799502806.1
2018-Apr-24 22:30N 01°16' E 103°59'73923.2
2018-Apr-24 22:30N 01°18' E 104°05'711725622249.3
2018-Apr-24 22:30N 28°04' W 015°23'27569920277.3
2018-Apr-24 22:30N 44°44' E 037°47'275989389.6
2018-Apr-24 22:30N 46°50' E 031°57'12414465862.6
2018-Apr-24 22:30N 52°03' E 001°11'1241558329.4
2018-Apr-24 22:30N 46°50' E 031°57'64883319.5
2018-Apr-24 22:30N 37°55' E 023°42'54619828987.1
2018-Apr-24 22:30S 23°06' W 044°24'107131244120.5
2018-Apr-24 22:29S 27°52' E 153°20'87053482129.2
2018-Apr-24 22:29N 37°46' E 023°27'69174979964.5
2018-Apr-24 22:29N 37°47' W 122°23'1452653549.2
2018-Apr-24 22:29N 29°33' W 095°02'1691253637.5
2018-Apr-24 22:28N 46°09' W 123°53'64311929286.6
2018-Apr-24 22:28N 46°56' E 031°57'101858.2
2018-Apr-24 22:28N 46°46' E 031°57'61301379227.2
2018-Apr-24 22:28S 23°00' W 044°19'501381288.5
2018-Apr-24 22:24N 43°33' E 007°01'107518965.2
2018-Apr-24 22:20N 46°57' E 031°60'4854110591.5
2018-Apr-24 22:18N 36°52' W 075°51'405534266.3
2018-Apr-24 22:11N 70°17' E 023°04'5711116819.5
2018-Apr-24 22:08N 01°16' E 103°52'792965023.3
2018-Apr-24 22:00N 34°27' W 121°44'660623782549.1
2018-Apr-24 22:00N 44°51' E 020°38'52819505971.4
2018-Apr-24 22:00N 01°17' E 103°45'561520215431.7
2018-Apr-24 22:00N 63°13' E 020°48'1055632906.4
2018-Apr-24 22:00N 46°50' E 031°57'48561942286.2
2018-Apr-24 22:00N 36°55' W 075°55'485617481449.2
2018-Apr-24 22:00N 46°50' E 031°57'216777323.1
2018-Apr-24 22:00N 45°20' E 036°40'53266391250.6
2018-Apr-24 22:00N 34°09' W 077°51'40061201672.6
2018-Apr-24 22:00N 43°33' E 007°01'12474490281.9
2018-Apr-24 22:00N 59°52' E 027°47'1327398195.1
2018-Apr-24 22:00N 37°55' E 023°42'65965936243.9
2018-Apr-24 22:00N 46°09' W 123°53'64322315484.4
2018-Apr-24 21:59N 46°57' E 031°60'48008640834.8
2018-Apr-24 21:59N 01°15' E 103°56'3372674409.2
2018-Apr-24 21:59S 27°52' E 153°20'94024835143.1
2018-Apr-24 21:59N 59°20' E 018°05'13114719072.6
2018-Apr-24 21:59N 37°46' E 023°27'59381526805.2
2018-Apr-24 21:59N 29°33' W 095°02'51756210500.3
2018-Apr-24 21:59N 70°17' E 023°04'1265413871.7
2018-Apr-24 21:58N 52°03' E 001°11'1238234571.9
2018-Apr-24 21:58N 46°56' E 031°57'101681.2
2018-Apr-24 21:58N 46°46' E 031°57'6873211464.7
2018-Apr-24 21:56N 37°47' W 122°23'7237274233.1
2018-Apr-24 21:54N 44°44' E 037°47'448635885.2
2018-Apr-24 21:47N 01°16' E 103°52'516.8
2018-Apr-24 21:31N 01°14' E 103°48'52739491051.0
2018-Apr-24 21:30N 59°53' E 027°49'435815689831.8
2018-Apr-24 21:30N 36°57' W 076°02'441015874259.1
2018-Apr-24 21:30N 44°51' E 020°38'490588508.3
2018-Apr-24 21:30N 46°57' E 031°60'76419.3
2018-Apr-24 21:30N 46°50' E 031°57'275494687.4
2018-Apr-24 21:30N 44°44' E 037°47'12591510909.3
2018-Apr-24 21:30N 63°13' E 020°53'58943031138.3
2018-Apr-24 21:30N 34°21' W 121°36'703712666133.2
2018-Apr-24 21:30N 46°50' E 031°57'50711304056.6
2018-Apr-24 21:30N 34°06' W 077°53'49361184627.6
2018-Apr-24 21:30N 37°55' E 023°42'1278153369.2
2018-Apr-24 21:29N 52°03' E 001°11'101337295830.5
2018-Apr-24 21:29S 27°52' E 153°20'94025641000.3
2018-Apr-24 21:29N 59°20' E 018°05'51641327882.8
2018-Apr-24 21:29N 29°33' W 095°02'51756210502.8
2018-Apr-24 21:29N 70°17' E 023°04'48642501392.2
2018-Apr-24 21:29N 46°09' W 123°53'6431964642.8
2018-Apr-24 21:28N 46°56' E 031°57'101859.4
2018-Apr-24 21:28N 46°46' E 031°57'65920982.2
2018-Apr-24 21:26N 37°46' E 023°27'6917135325.0
2018-Apr-24 21:23N 37°47' W 122°23'78744724530.3
2018-Apr-24 21:23N 01°16' E 103°52'10441126554.0
2018-Apr-24 21:18N 36°53' W 076°22'220045001.4
2018-Apr-24 21:15N 37°52' W 122°29'591329982.5
2018-Apr-24 21:03S 23°00' W 044°19'6132146204.0
2018-Apr-24 21:01N 46°50' E 031°57'798957950.7
2018-Apr-24 21:00N 59°55' E 027°49'277995875.7
2018-Apr-24 21:00N 63°12' E 021°03'11013963589.6
2018-Apr-24 21:00N 44°51' E 020°38'730238925.0
2018-Apr-24 21:00N 44°44' E 037°47'74023330892.3
2018-Apr-24 21:00N 34°14' W 121°29'2164708142.5
2018-Apr-24 21:00N 34°03' W 077°54'4939889009.4
2018-Apr-24 21:00N 37°55' E 023°42'1304426795.6
2018-Apr-24 20:59N 59°20' E 018°05'94021611714.4
2018-Apr-24 20:59S 27°52' E 153°20'661623819189.9
2018-Apr-24 20:59N 46°09' W 123°53'625222508467.2
2018-Apr-24 20:59S 23°00' W 044°19'54372796081.1
2018-Apr-24 20:59N 37°46' E 023°27'59381526805.2
2018-Apr-24 20:59N 29°33' W 095°02'457316463700.9
2018-Apr-24 20:59N 52°03' E 001°11'1265156988.9
2018-Apr-24 20:58N 70°17' E 023°04'14281028492.3
2018-Apr-24 20:58N 46°56' E 031°57'610627.9
2018-Apr-24 20:58N 46°50' E 031°57'4879.9
2018-Apr-24 20:58N 46°46' E 031°57'47991727665.5
2018-Apr-24 20:58N 01°19' E 104°00'48011234452.5
2018-Apr-24 20:57N 46°57' E 031°60'47961015594.2
2018-Apr-24 20:57N 01°15' E 103°50'78701888908.0
2018-Apr-24 20:57N 37°52' W 122°29'2200149439.0
2018-Apr-24 20:56N 36°53' W 076°22'2197988462.6
2018-Apr-24 20:56N 37°47' W 122°23'7874154060.9
2018-Apr-24 20:53N 01°16' E 103°52'710822544.8
2018-Apr-24 20:34N 27°55' W 015°25'7101983248.1
2018-Apr-24 20:33N 01°17' E 103°46'4543268136.6
2018-Apr-24 20:32N 45°24' E 036°43'68120444.7
2018-Apr-24 20:30N 44°51' E 020°38'11013965348.3
2018-Apr-24 20:30N 63°13' E 021°09'10453760592.3
2018-Apr-24 20:30N 46°57' E 031°60'794571376.8
2018-Apr-24 20:30N 59°56' E 027°48'9831769242.4
2018-Apr-24 20:30N 44°44' E 037°47'27583309548.8
2018-Apr-24 20:30N 28°02' W 015°25'25221815833.0
2018-Apr-24 20:30N 46°50' E 031°56'4801691336.0
2018-Apr-24 20:30N 01°19' E 104°00'571310283984.3
2018-Apr-24 20:30N 70°17' E 023°04'19431748523.3
2018-Apr-24 20:30N 37°55' E 023°42'659611872487.8
2018-Apr-24 20:30N 46°09' W 123°53'52172347591.2
2018-Apr-24 20:29N 59°20' E 018°05'4235476463.1
2018-Apr-24 20:29N 34°00' W 077°56'21721563973.5
2018-Apr-24 20:29N 37°47' W 122°23'1452580932.6
2018-Apr-24 20:29N 29°33' W 095°02'1369492833.0
2018-Apr-24 20:29N 34°07' W 121°21'70331054997.6
2018-Apr-24 20:28N 46°56' E 031°57'63251.9
2018-Apr-24 20:28N 46°50' E 031°56'41184.6
2018-Apr-24 20:28N 46°46' E 031°57'6130596447.5
2018-Apr-24 20:27S 23°00' W 044°19'62894527728.5
2018-Apr-24 20:27N 45°20' E 036°40'4297.7
2018-Apr-24 20:26N 45°24' E 036°43'7154172854.7
2018-Apr-24 20:24N 37°52' W 122°29'6393442612.5
2018-Apr-24 20:23S 27°52' E 153°20'3382193275.9
2018-Apr-24 20:22N 01°17' E 103°46'5041147541.0
2018-Apr-24 20:20N 37°46' E 023°27'504749107.7
2018-Apr-24 20:14N 01°16' E 103°52'10441817099.3
2018-Apr-24 20:13N 36°53' W 076°22'375419584.0
2018-Apr-24 20:02N 57°54' E 010°41'54432623.7
2018-Apr-24 20:01N 59°58' E 027°47'943848836.1
2018-Apr-24 20:00N 44°51' E 020°38'4901765525.0
2018-Apr-24 20:00N 46°57' E 031°60'2522825239.2
2018-Apr-24 20:00N 28°05' W 015°22'27533304198.4
2018-Apr-24 20:00N 44°44' E 037°47'448216134172.1
2018-Apr-24 20:00N 01°12' E 103°42'45465455171.0
2018-Apr-24 20:00N 45°20' E 036°40'1202721461.7
2018-Apr-24 20:00N 63°13' E 021°09'42780939.1
2018-Apr-24 20:00N 70°17' E 023°04'19431748528.7
2018-Apr-24 20:00N 37°55' E 023°42'50284525647.5
2018-Apr-24 20:00N 01°13' E 103°41'56422901389.7
2018-Apr-24 19:59N 59°20' E 018°05'59331124091.2
2018-Apr-24 19:59N 34°01' W 121°13'63244553406.5
2018-Apr-24 19:59S 27°52' E 153°20'87055223188.0
2018-Apr-24 19:59N 37°46' E 023°27'69174979964.5
2018-Apr-24 19:59N 37°47' W 122°23'1452475308.5
2018-Apr-24 19:59N 29°33' W 095°02'607410932838.8
2018-Apr-24 19:59N 46°56' E 031°57'63271.0
2018-Apr-24 19:59N 46°50' E 031°57'4300.4
2018-Apr-24 19:58N 46°46' E 031°57'480217287139.5
2018-Apr-24 19:58N 01°19' E 104°04'48031152755.8
2018-Apr-24 19:58N 46°50' E 031°57'6869618238.4
2018-Apr-24 19:57N 37°52' W 122°29'7154858511.0
2018-Apr-24 19:56N 45°24' E 036°43'1569148607.9
2018-Apr-24 19:56N 41°11' E 001°16'65220776.1
2018-Apr-24 19:54N 52°03' E 001°11'9053066.2
2018-Apr-24 19:36N 37°07' W 001°48'180519057.5
2018-Apr-24 19:31N 59°57' E 027°48'9421130934.6
2018-Apr-24 19:30N 44°51' E 020°38'490882762.5
2018-Apr-24 19:30N 46°57' E 031°60'48018641972.6
2018-Apr-24 19:30N 01°15' E 103°57'44905388404.7
2018-Apr-24 19:30N 44°44' E 037°47'44832689716.5
2018-Apr-24 19:30N 01°11' E 103°43'709925557421.4
2018-Apr-24 19:30N 28°03' W 015°22'25224539080.5
2018-Apr-24 19:30N 46°56' E 031°57'70348441139.3
2018-Apr-24 19:30N 33°55' W 121°06'746335511.0
2018-Apr-24 19:30N 46°09' W 123°53'22311606092.4
2018-Apr-24 19:30N 33°55' W 078°02'49501113644.3
2018-Apr-24 19:30N 37°55' E 023°42'1304361134.8
2018-Apr-24 19:29N 59°20' E 018°05'94021692300.1
2018-Apr-24 19:29S 27°52' E 153°20'87053133912.8
2018-Apr-24 19:29N 37°46' E 023°27'69176224955.6
2018-Apr-24 19:29N 37°47' W 122°23'1452522839.3
2018-Apr-24 19:29N 29°33' W 095°02'94573782925.2
2018-Apr-24 19:29N 01°18' E 104°06'480517299069.1
2018-Apr-24 19:29N 46°50' E 031°57'101596199.4
2018-Apr-24 19:28N 57°45' E 010°49'1018732875.8
2018-Apr-24 19:28N 46°46' E 031°57'46330.4
2018-Apr-24 19:28N 46°50' E 031°57'1435206589.4
2018-Apr-24 19:27N 70°17' E 023°04'5481657711.0
2018-Apr-24 19:27N 37°52' W 122°29'53199574687.6
2018-Apr-24 19:27N 52°03' E 001°11'7579563.8
2018-Apr-24 19:22N 39°29' W 000°28'630026404.7
2018-Apr-24 19:08N 01°16' E 103°52'1044188231.3
2018-Apr-24 19:01N 36°53' W 076°22'44271138351.4
2018-Apr-24 19:00N 44°51' E 020°38'4901765529.1
2018-Apr-24 19:00N 46°57' E 031°60'276124270.6
2018-Apr-24 19:00N 44°44' E 037°47'74042961484.9
2018-Apr-24 19:00N 33°48' W 120°59'63022520844.1
2018-Apr-24 19:00N 59°55' E 027°49'55359962591.6
2018-Apr-24 19:00N 46°09' W 123°53'22281604191.5
2018-Apr-24 19:00N 33°55' W 078°05'43142218593.1
2018-Apr-24 19:00N 63°13' E 021°09'427219688.3
2018-Apr-24 19:00N 70°17' E 023°04'19436994093.6
2018-Apr-24 19:00N 37°55' E 023°42'50281645640.4
2018-Apr-24 18:59N 01°12' E 103°40'5039604698.2
2018-Apr-24 18:59N 37°46' E 023°27'691712449911.2
2018-Apr-24 18:59N 37°47' W 122°23'78747086798.0
2018-Apr-24 18:59N 01°16' E 103°52'62937551565.1
2018-Apr-24 18:59N 52°03' E 001°11'45732743973.6
2018-Apr-24 18:59N 29°33' W 095°02'6078429060.8
2018-Apr-24 18:58N 46°46' E 031°57'46330.5
2018-Apr-24 18:58N 46°50' E 031°57'6607.0
2018-Apr-24 18:57N 46°56' E 031°57'68641544471.4
2018-Apr-24 18:57N 37°52' W 122°29'7857628560.2
2018-Apr-24 18:56N 01°18' E 104°04'33674040879.1
2018-Apr-24 18:56S 27°52' E 153°20'8467952534.3
2018-Apr-24 18:56N 46°50' E 031°57'613235895.9
2018-Apr-24 18:45S 23°00' W 044°19'8850838438.2
2018-Apr-24 18:45N 01°15' E 103°50'590224968.1
2018-Apr-24 18:31N 57°34' E 011°15'5351925953.0
2018-Apr-24 18:30N 59°54' E 027°49'9413386078.5
2018-Apr-24 18:30N 44°51' E 020°38'8751574862.7
2018-Apr-24 18:30N 41°07' E 001°22'13672459713.9
2018-Apr-24 18:30N 46°57' E 031°60'47872461935.9
2018-Apr-24 18:30N 01°13' E 103°36'44765371572.8
2018-Apr-24 18:30N 44°44' E 037°47'68062722447.7
2018-Apr-24 18:30N 46°09' W 123°53'502150463.8
2018-Apr-24 18:30N 37°52' W 122°29'21683902468.3
2018-Apr-24 18:30N 33°56' W 078°09'49551372084.3
2018-Apr-24 18:30N 37°55' E 023°42'1304391229.1
2018-Apr-24 18:29N 59°20' E 018°05'24989759.3
2018-Apr-24 18:29N 63°13' E 021°09'59212664657.7
2018-Apr-24 18:29N 33°42' W 120°51'63323256258.9
2018-Apr-24 18:29S 27°52' E 153°20'87056267825.6
2018-Apr-24 18:29N 37°46' E 023°27'69176224955.6
2018-Apr-24 18:29N 37°47' W 122°23'1452580932.6
2018-Apr-24 18:29N 29°33' W 095°02'51753726308.5
2018-Apr-24 18:29N 70°17' E 023°04'14351032978.0
2018-Apr-24 18:29N 46°50' E 031°57'21664858.2
2018-Apr-24 18:28N 45°24' E 036°43'21871508.1
2018-Apr-24 18:28N 46°56' E 031°57'48061153506.1
2018-Apr-24 18:28N 01°18' E 104°05'48033458329.1
2018-Apr-24 18:28N 46°46' E 031°57'412661.1
2018-Apr-24 18:28N 46°50' E 031°57'1241106330.6
2018-Apr-24 18:27N 52°03' E 001°11'6292566318.8
2018-Apr-24 18:26N 01°15' E 103°50'2143.8
2018-Apr-24 18:26N 01°16' E 103°52'6488324397.9
2018-Apr-24 18:25N 47°39' W 003°27'1663221732.7
2018-Apr-24 18:24N 45°20' E 036°40'6288125069.5
2018-Apr-24 18:21S 23°00' W 044°19'548818656.6
2018-Apr-24 18:03N 32°41' W 117°08'5650115562.1
2018-Apr-24 18:01N 57°25' E 011°28'5351927062.6
2018-Apr-24 18:00N 59°55' E 027°57'554019943596.9
2018-Apr-24 18:00N 46°09' W 123°53'607810939519.6
2018-Apr-24 18:00N 44°51' E 020°38'490882771.8
2018-Apr-24 18:00N 46°57' E 031°60'48064325570.2
2018-Apr-24 18:00N 01°18' E 104°06'44955394568.1
2018-Apr-24 18:00N 44°44' E 037°47'6023823.2
2018-Apr-24 18:00N 45°20' E 036°40'71551717213.5
2018-Apr-24 18:00N 37°52' W 122°29'590010620037.8
2018-Apr-24 18:00N 43°33' E 007°01'403014508915.4
2018-Apr-24 18:00N 33°55' W 078°12'43231945543.2
2018-Apr-24 18:00N 70°17' E 023°04'19431748523.3
2018-Apr-24 18:00N 37°55' E 023°42'502818099095.1
2018-Apr-24 18:00N 01°13' E 103°39'56411846154.1
2018-Apr-24 17:59N 59°20' E 018°05'56405076015.7
2018-Apr-24 17:59N 01°17' E 103°44'88441326674.2
2018-Apr-24 17:59S 23°00' W 044°19'543719572677.7
2018-Apr-24 17:59N 37°46' E 023°27'50471514152.1
2018-Apr-24 17:59N 01°16' E 103°52'947211366100.8
2018-Apr-24 17:59N 29°33' W 095°02'60772734618.4
2018-Apr-24 17:59N 46°50' E 031°57'61032.1
2018-Apr-24 17:58N 46°56' E 031°57'47973454075.7
2018-Apr-24 17:58N 01°15' E 103°50'337712157528.2
2018-Apr-24 17:58S 27°52' E 153°20'84662031840.6
2018-Apr-24 17:58N 46°46' E 031°57'43159.9
2018-Apr-24 17:58N 46°50' E 031°57'70418448732.1
2018-Apr-24 17:58N 33°35' W 120°43'5816265022.4
2018-Apr-24 17:56N 39°52' W 000°03'5720624038.5
2018-Apr-24 17:56N 37°47' W 122°23'527723775.9
2018-Apr-24 17:43N 47°39' W 003°27'16648833.9
2018-Apr-24 17:31N 45°24' E 036°43'1200100474.3
2018-Apr-24 17:31N 63°13' E 021°09'458824639.2
2018-Apr-24 17:31N 57°14' E 011°35'5411947017.1
2018-Apr-24 17:30N 59°56' E 028°05'526318948579.4
2018-Apr-24 17:30N 01°15' E 103°50'528619029945.6
2018-Apr-24 17:30N 44°51' E 020°38'52952382669.5
2018-Apr-24 17:30N 01°18' E 104°04'79857186698.4
2018-Apr-24 17:30N 33°30' W 120°36'27855566.8
2018-Apr-24 17:30N 37°52' W 122°30'591421290254.4
2018-Apr-24 17:30S 23°01' W 044°19'50133007903.0
2018-Apr-24 17:30N 43°33' E 007°01'1688675398.9
2018-Apr-24 17:30N 70°17' E 023°04'19431748523.4
2018-Apr-24 17:30N 37°55' E 023°42'1304521639.1
2018-Apr-24 17:29N 59°20' E 018°05'52171565064.8
2018-Apr-24 17:29N 46°09' W 123°53'50776019.1
2018-Apr-24 17:29N 37°47' W 122°23'1452580933.1
2018-Apr-24 17:29N 29°33' W 095°02'45738231855.8
2018-Apr-24 17:29N 52°03' E 001°11'1241638102.4
2018-Apr-24 17:29N 46°50' E 031°57'61032.1
2018-Apr-24 17:28N 46°56' E 031°57'84694355599.1
2018-Apr-24 17:28S 27°52' E 153°20'87053133912.8
2018-Apr-24 17:28N 37°46' E 023°27'659592743.9
2018-Apr-24 17:28N 46°46' E 031°57'43165.3
2018-Apr-24 17:28N 46°50' E 031°57'71117.5
2018-Apr-24 17:27N 46°57' E 031°60'27690377.7
2018-Apr-24 17:27N 44°44' E 037°47'6042884.5
2018-Apr-24 17:27N 45°20' E 036°40'4129.4
2018-Apr-24 17:25N 45°24' E 036°43'7154283025.9
2018-Apr-24 17:24N 37°52' W 122°29'5277134738.0
2018-Apr-24 17:22N 47°39' W 003°27'529026897.5
2018-Apr-24 17:10N 32°41' W 117°08'4032607.5
2018-Apr-24 17:00N 37°50' W 122°26'645811624952.7
2018-Apr-24 17:00N 44°51' E 020°38'4901765539.5
2018-Apr-24 17:00N 46°57' E 031°60'14285141096.5
2018-Apr-24 17:00N 70°17' E 023°04'8501530800.2
2018-Apr-24 17:00N 57°03' E 011°41'1234555183.1
2018-Apr-24 17:00N 44°44' E 037°47'44795374275.0
2018-Apr-24 17:00N 01°13' E 103°39'45438177086.9
2018-Apr-24 17:00N 45°20' E 036°40'67226050239.8
2018-Apr-24 17:00N 46°09' W 123°53'780311919.5
2018-Apr-24 17:00N 33°26' W 120°27'60175414932.5
2018-Apr-24 17:00N 43°33' E 007°01'59462378271.8
2018-Apr-24 17:00N 01°16' E 103°57'50413629478.7
2018-Apr-24 17:00N 37°55' E 023°42'54532804449.9
2018-Apr-24 17:00S 23°00' W 044°19'646011628287.8
2018-Apr-24 16:59N 59°51' E 028°09'46352383763.4
2018-Apr-24 16:59N 33°55' W 078°18'2156250402.0
2018-Apr-24 16:59N 37°47' W 122°23'53203191776.9
2018-Apr-24 16:59N 52°03' E 001°11'45735487947.7
2018-Apr-24 16:59N 29°33' W 095°02'94595675306.3
2018-Apr-24 16:59N 01°18' E 104°05'48048647111.4
2018-Apr-24 16:59N 46°50' E 031°57'6946.1
2018-Apr-24 16:58N 46°56' E 031°57'846915244598.5
2018-Apr-24 16:58S 27°52' E 153°20'87052410701.2
2018-Apr-24 16:58N 37°46' E 023°27'659592741.6
2018-Apr-24 16:58N 46°46' E 031°57'43170.8
2018-Apr-24 16:58N 46°50' E 031°57'6929580098.4
2018-Apr-24 16:57N 32°42' W 117°09'4057638.0
2018-Apr-24 16:54N 37°52' W 122°29'7154310305.9
2018-Apr-24 16:53N 45°24' E 036°43'5135186732.6
2018-Apr-24 16:51N 36°53' W 076°22'330186123.5
2018-Apr-24 16:49N 47°39' W 003°27'648021559.0
2018-Apr-24 16:31N 01°12' E 103°38'52499447551.5
2018-Apr-24 16:30N 59°46' E 028°14'9371687374.5
2018-Apr-24 16:30N 44°51' E 020°38'490588508.3
2018-Apr-24 16:30N 46°57' E 031°60'276124269.4
2018-Apr-24 16:30N 44°44' E 037°47'15231096618.0
2018-Apr-24 16:30N 52°03' E 001°11'3657692972.6
2018-Apr-24 16:30N 33°55' W 078°22'40387268317.4
2018-Apr-24 16:30N 43°33' E 007°01'831249277.1
2018-Apr-24 16:30N 37°55' E 023°42'1304426795.8
2018-Apr-24 16:29N 59°20' E 018°05'5726606319.1
2018-Apr-24 16:29N 37°47' W 122°23'1452475308.5
2018-Apr-24 16:29N 29°33' W 095°02'60773125275.8
2018-Apr-24 16:29N 46°50' E 031°57'48042470596.3
2018-Apr-24 16:28N 01°18' E 104°05'800414407214.3
2018-Apr-24 16:28N 33°21' W 120°17'566020376776.5
2018-Apr-24 16:28S 23°00' W 044°19'671212081576.5
2018-Apr-24 16:28N 70°17' E 023°04'1428514244.5
2018-Apr-24 16:28N 46°56' E 031°57'84694355598.4
2018-Apr-24 16:28S 27°52' E 153°20'87052849010.6
2018-Apr-24 16:28N 37°46' E 023°27'6591185496.3
2018-Apr-24 16:28N 46°46' E 031°57'43159.9
2018-Apr-24 16:28N 46°50' E 031°57'4796690671.0
2018-Apr-24 16:27N 01°12' E 103°48'4550125986.6
2018-Apr-24 16:25N 45°24' E 036°43'1664149734.6
2018-Apr-24 16:25N 47°39' W 003°27'1663249449.7
2018-Apr-24 16:24N 45°20' E 036°40'71551431013.5
2018-Apr-24 16:24N 37°52' W 122°29'4051303.8
2018-Apr-24 16:05N 32°39' W 117°13'123326907.2
2018-Apr-24 16:02N 30°04' W 093°21'5469164072.3
2018-Apr-24 16:00N 59°42' E 028°18'9341120644.7
2018-Apr-24 16:00N 44°51' E 020°38'11013965348.5
2018-Apr-24 16:00N 63°13' E 021°09'10453760592.3
2018-Apr-24 16:00N 46°57' E 031°60'643211577475.7
2018-Apr-24 16:00N 46°09' W 123°53'68062722457.3
2018-Apr-24 16:00N 44°44' E 037°47'44861794588.8
2018-Apr-24 16:00N 01°13' E 103°50'5037697366.9
2018-Apr-24 16:00N 37°55' E 023°42'50453026898.8
2018-Apr-24 16:00N 01°18' E 104°04'56534069971.7
2018-Apr-24 15:59N 59°20' E 018°05'58647036548.3
2018-Apr-24 15:59N 32°38' W 117°13'82062461703.5
2018-Apr-24 15:59N 01°13' E 103°38'78881419884.2
2018-Apr-24 15:59N 37°47' W 122°23'1452522839.3
2018-Apr-24 15:59N 29°33' W 095°02'60773125278.2
2018-Apr-24 15:59N 46°50' E 031°57'21643238.3
2018-Apr-24 15:58N 45°24' E 036°43'218157319.0
2018-Apr-24 15:58N 46°56' E 031°57'667149995.3
2018-Apr-24 15:58N 37°46' E 023°27'659474195.1
2018-Apr-24 15:58N 46°46' E 031°57'44227.4
2018-Apr-24 15:58N 46°50' E 031°57'61327358411.2
2018-Apr-24 15:58S 23°00' W 044°19'67124027195.8
2018-Apr-24 15:58N 70°17' E 023°04'1559175374.4
2018-Apr-24 15:57N 45°20' E 036°40'71551717216.2
2018-Apr-24 15:57N 37°52' W 122°29'5319503929.6
2018-Apr-24 15:56N 52°03' E 001°11'10133536458.4
2018-Apr-24 15:55S 27°52' E 153°20'63541203982.3
2018-Apr-24 15:55N 33°16' W 120°06'215941777.9
2018-Apr-24 15:52N 36°53' W 076°22'372748792.7
2018-Apr-24 15:47N 39°34' E 002°38'15655651.5
2018-Apr-24 15:30N 59°40' E 028°18'525518918707.2
2018-Apr-24 15:30N 01°18' E 104°04'561310103497.6
2018-Apr-24 15:30N 63°13' E 021°09'10451880294.0
2018-Apr-24 15:30N 46°57' E 031°60'47938628299.0
2018-Apr-24 15:30N 01°11' E 103°42'804714483956.5
2018-Apr-24 15:30N 33°12' W 119°59'65917909690.3
2018-Apr-24 15:30N 44°51' E 020°38'730876063.3
2018-Apr-24 15:30N 44°44' E 037°47'15232741537.3
2018-Apr-24 15:30N 52°03' E 001°11'3662573248.4
2018-Apr-24 15:30N 33°53' W 078°28'49721988640.3
2018-Apr-24 15:30N 37°55' E 023°42'1304521639.1
2018-Apr-24 15:30N 59°20' E 018°05'4016688494.4
2018-Apr-24 15:29N 36°53' W 076°22'37273354495.8
2018-Apr-24 15:29N 39°34' E 002°38'58581405848.0
2018-Apr-24 15:29N 37°47' W 122°23'78607074382.4
2018-Apr-24 15:29N 01°17' E 104°06'94578511721.9
2018-Apr-24 15:29N 29°33' W 095°02'60773125278.2
2018-Apr-24 15:29N 46°50' E 031°57'21664856.3
2018-Apr-24 15:28N 45°24' E 036°43'62922265087.4
2018-Apr-24 15:28S 23°00' W 044°19'61367363218.9
2018-Apr-24 15:28N 46°56' E 031°57'84695081531.5
2018-Apr-24 15:28S 27°52' E 153°20'87053482124.0
2018-Apr-24 15:28N 37°46' E 023°27'659592743.9
2018-Apr-24 15:28N 46°46' E 031°57'44220.2
2018-Apr-24 15:28N 46°50' E 031°57'1435215196.4
2018-Apr-24 15:27N 70°17' E 023°04'1559295366.4
2018-Apr-24 15:27N 45°20' E 036°40'715535140.8
2018-Apr-24 15:15N 37°52' W 122°29'4033109.7
2018-Apr-24 15:07N 32°36' W 117°22'115871889.3
2018-Apr-24 15:06N 28°57' W 095°18'561759653.9
2018-Apr-24 15:00N 59°40' E 028°18'295265885.9
2018-Apr-24 15:00N 63°13' E 021°09'10453760592.3
2018-Apr-24 15:00N 46°57' E 031°60'47915749253.5
2018-Apr-24 15:00N 01°13' E 103°42'448016128933.8
2018-Apr-24 15:00N 44°44' E 037°47'44868075123.6
2018-Apr-24 15:00N 01°13' E 103°49'81872456038.9
2018-Apr-24 15:00N 32°36' W 117°23'11594172911.9
2018-Apr-24 15:00N 28°57' W 095°19'5228818292.8
2018-Apr-24 15:00N 70°17' E 023°04'19431748528.7
2018-Apr-24 15:00N 37°55' E 023°42'1304426795.6
2018-Apr-24 14:59N 59°20' E 018°05'42651023531.6
2018-Apr-24 14:59N 33°53' W 078°31'2147483005.3
2018-Apr-24 14:59N 37°47' W 122°23'1452402184.1
2018-Apr-24 14:59N 29°33' W 095°02'60772430771.3
2018-Apr-24 14:59N 46°50' E 031°57'61032.1
2018-Apr-24 14:58N 46°56' E 031°57'84694355600.5
2018-Apr-24 14:58S 27°52' E 153°20'87053482125.3
2018-Apr-24 14:58N 37°46' E 023°27'659592741.6
2018-Apr-24 14:58N 46°46' E 031°57'48051330495.7
2018-Apr-24 14:58N 01°18' E 104°06'4560529503.3
2018-Apr-24 14:57N 45°20' E 036°40'146287737.2
2018-Apr-24 14:56N 52°03' E 001°11'5221324083.6
2018-Apr-24 14:55S 23°00' W 044°19'61321003467.6
2018-Apr-24 14:55N 46°50' E 031°57'48733738.2
2018-Apr-24 14:54N 44°51' E 020°38'591709482.5
2018-Apr-24 14:54N 43°33' E 007°01'5949690906.0
2018-Apr-24 14:53N 01°18' E 104°04'4556162405.5
2018-Apr-24 14:52N 45°24' E 036°43'7154585349.3
2018-Apr-24 14:51N 37°52' W 122°29'3154089.5
2018-Apr-24 14:46N 33°07' W 119°45'803530480.9
2018-Apr-24 14:31N 01°18' E 104°04'52954765139.8
2018-Apr-24 14:30N 44°51' E 020°38'650723423875.6
2018-Apr-24 14:30N 32°37' W 117°30'694612503450.5
2018-Apr-24 14:30N 46°57' E 031°60'10453760571.6
2018-Apr-24 14:30N 63°13' E 021°09'1255903432.8
2018-Apr-24 14:30N 44°44' E 037°47'44858073169.8
2018-Apr-24 14:30N 01°13' E 103°48'52492362091.0
2018-Apr-24 14:30N 59°40' E 028°18'561920229272.1
2018-Apr-24 14:30N 28°56' W 095°20'52133753140.2
2018-Apr-24 14:30N 59°20' E 018°04'52174695150.9
2018-Apr-24 14:30N 46°09' W 123°53'65961249739.1
2018-Apr-24 14:30N 37°55' E 023°42'19452333632.2
2018-Apr-24 14:30N 70°19' E 022°60'5173344841.4
2018-Apr-24 14:29N 29°33' W 095°02'60773125278.2
2018-Apr-24 14:29N 46°50' E 031°57'6987.2
2018-Apr-24 14:28N 46°56' E 031°57'61361472694.3
2018-Apr-24 14:28S 23°00' W 044°19'54379786488.5
2018-Apr-24 14:28N 37°46' E 023°27'6591185491.8
2018-Apr-24 14:28N 46°46' E 031°57'42527.8
2018-Apr-24 14:28N 46°50' E 031°57'1240186045.1
2018-Apr-24 14:27N 52°03' E 001°11'5319598443.7
2018-Apr-24 14:27N 37°52' W 122°29'319143747.0
2018-Apr-24 14:27N 33°04' W 119°39'31321681.2
2018-Apr-24 14:26N 37°47' W 122°23'7155888170.1
2018-Apr-24 14:25N 45°24' E 036°43'127750503.5
2018-Apr-24 14:24N 43°33' E 007°01'9695329278.1
2018-Apr-24 14:22S 27°52' E 153°20'1439961488.4
2018-Apr-24 14:08N 27°11' W 080°15'386069482.1
2018-Apr-24 14:05N 47°39' W 003°27'648892687.7
2018-Apr-24 14:01N 01°11' E 103°48'572620612328.4
2018-Apr-24 14:01N 70°23' E 022°47'15341380186.7
2018-Apr-24 14:00N 44°51' E 020°38'490882769.8
2018-Apr-24 14:00N 46°57' E 031°60'55036603131.0
2018-Apr-24 14:00N 27°11' W 080°15'58282997214.1
2018-Apr-24 14:00N 44°44' E 037°47'6042884.5
2018-Apr-24 14:00N 45°20' E 036°40'639011502074.6
2018-Apr-24 14:00N 28°56' W 095°20'1707341326.9
2018-Apr-24 14:00N 46°09' W 123°53'65962638338.2
2018-Apr-24 14:00N 37°55' E 023°42'50423630393.7
2018-Apr-24 14:00N 01°16' E 103°59'80552899699.0
2018-Apr-24 13:59N 33°00' W 119°31'80481524865.9
2018-Apr-24 13:59N 01°18' E 104°05'52562703020.7
2018-Apr-24 13:59N 59°40' E 028°18'61073664200.0
2018-Apr-24 13:59N 37°47' W 122°23'1452522839.3
2018-Apr-24 13:59N 29°33' W 095°02'60772734618.4
2018-Apr-24 13:59N 46°50' E 031°57'6945.2
2018-Apr-24 13:58N 46°56' E 031°57'84696097837.1
2018-Apr-24 13:58S 27°52' E 153°20'87053133912.8
2018-Apr-24 13:58N 37°46' E 023°27'659790330.9
2018-Apr-24 13:58N 46°46' E 031°57'43159.8
2018-Apr-24 13:58N 46°50' E 031°57'12411488604.1
2018-Apr-24 13:58N 52°03' E 001°11'5221895085.2
2018-Apr-24 13:57S 23°00' W 044°19'6292383929.9
2018-Apr-24 13:56N 45°24' E 036°43'166358708.6
2018-Apr-24 13:55N 47°39' W 003°26'527781890.2
2018-Apr-24 13:51N 37°52' W 122°29'786423185.2
2018-Apr-24 13:31N 01°16' E 103°58'52923809904.9
2018-Apr-24 13:30N 44°51' E 020°38'658123691996.1
2018-Apr-24 13:30N 32°57' W 119°29'701825263045.2
2018-Apr-24 13:30N 46°57' E 031°60'1045417843.6
2018-Apr-24 13:30N 63°13' E 021°09'12552258574.9
2018-Apr-24 13:30N 44°44' E 037°47'16152907296.4
2018-Apr-24 13:30N 70°23' E 022°35'15691882292.1
2018-Apr-24 13:30N 45°20' E 036°40'10811297581.6
2018-Apr-24 13:30N 59°20' E 018°04'5217782525.2
2018-Apr-24 13:30N 46°09' W 123°53'65967915014.5
2018-Apr-24 13:30N 37°55' E 023°42'1318527183.1
2018-Apr-24 13:29N 59°40' E 028°18'6107594195.0
2018-Apr-24 13:29N 37°47' W 122°23'1452653549.2
2018-Apr-24 13:29N 29°33' W 095°02'60772430770.1
2018-Apr-24 13:29N 46°50' E 031°57'61223673401.9
2018-Apr-24 13:28N 28°56' W 095°20'61191295863.9
2018-Apr-24 13:28N 46°56' E 031°57'84694355600.5
2018-Apr-24 13:28S 27°52' E 153°20'84663809702.0
2018-Apr-24 13:28N 46°46' E 031°57'6592370975.6
2018-Apr-24 13:28N 37°46' E 023°27'661340168.7
2018-Apr-24 13:28N 46°50' E 031°57'12391486714.0
2018-Apr-24 13:28N 52°02' E 001°13'31839470.0
2018-Apr-24 13:27N 47°39' W 003°25'648099273.2
2018-Apr-24 13:23N 01°17' E 103°46'4543230373.3
2018-Apr-24 13:22N 45°24' E 036°43'116230084.3
2018-Apr-24 13:20N 35°57' E 014°26'4868126078.8
2018-Apr-24 13:18N 27°11' W 080°15'223115442.3
2018-Apr-24 13:09N 37°52' W 122°29'786056140.1
2018-Apr-24 13:00N 01°19' E 104°00'52929524770.9
2018-Apr-24 13:00N 44°51' E 020°38'490882769.8
2018-Apr-24 13:00N 46°57' E 031°60'1440740378.4
2018-Apr-24 13:00N 47°41' W 003°23'53216385471.7
2018-Apr-24 13:00N 32°39' W 117°45'62824523282.4
2018-Apr-24 13:00N 59°40' E 028°18'524518881108.2
2018-Apr-24 13:00N 01°15' E 103°43'80747266998.1
2018-Apr-24 13:00N 32°54' W 119°27'593621369905.7
2018-Apr-24 13:00N 59°20' E 018°05'1410563852.5
2018-Apr-24 13:00N 35°58' E 014°26'49798961477.6
2018-Apr-24 13:00S 23°00' W 044°19'52211708774.2
2018-Apr-24 13:00N 52°02' E 001°13'12761148824.6
2018-Apr-24 13:00N 37°55' E 023°42'65961484062.0
2018-Apr-24 12:59N 46°09' W 123°53'50762913.8
2018-Apr-24 12:59N 37°47' W 122°23'1452580932.6
2018-Apr-24 12:59N 29°33' W 095°02'60772430771.9
2018-Apr-24 12:59N 46°50' E 031°57'6987.2
2018-Apr-24 12:58N 46°56' E 031°57'219393304.8
2018-Apr-24 12:58N 45°24' E 036°43'81945899765.1
2018-Apr-24 12:58S 27°52' E 153°20'87053133914.7
2018-Apr-24 12:58N 37°46' E 023°27'661595297.6
2018-Apr-24 12:58N 46°50' E 031°57'61227345990.7
2018-Apr-24 12:58N 28°56' W 095°19'52101172251.6
2018-Apr-24 12:58N 70°22' E 022°33'48208675572.2
2018-Apr-24 12:58N 27°11' W 080°15'2231223060.3
2018-Apr-24 12:57N 37°52' W 122°29'687282465.7
2018-Apr-24 12:52N 46°46' E 031°57'21516457.7
2018-Apr-24 12:51N 45°20' E 036°40'6801975.2
2018-Apr-24 12:30N 44°51' E 020°38'11011982674.3
2018-Apr-24 12:30N 63°13' E 021°09'10453760592.3
2018-Apr-24 12:30N 46°57' E 031°60'695825048545.5
2018-Apr-24 12:30N 32°40' W 117°49'54073243976.4
2018-Apr-24 12:30N 52°06' E 001°19'15181366413.9
2018-Apr-24 12:30N 44°44' E 037°47'962865641.3
2018-Apr-24 12:30N 59°40' E 028°18'311560061.0
2018-Apr-24 12:30N 59°19' E 018°06'10803888833.1
2018-Apr-24 12:30N 45°20' E 036°40'11592086036.7
2018-Apr-24 12:30N 35°59' E 014°24'66252168299.6
2018-Apr-24 12:30N 32°52' W 119°25'335603669.7
2018-Apr-24 12:30N 37°52' W 122°29'69231780103.1
2018-Apr-24 12:30N 37°55' E 023°42'1947500744.6
2018-Apr-24 12:29N 70°22' E 022°33'5733764458.8
2018-Apr-24 12:29N 01°16' E 103°58'78695665697.4
2018-Apr-24 12:29N 37°47' W 122°23'1452522840.3
2018-Apr-24 12:29N 29°33' W 095°02'60773125280.8
2018-Apr-24 12:29N 46°50' E 031°57'6986.3
2018-Apr-24 12:28N 46°56' E 031°57'84697622296.4
2018-Apr-24 12:28S 27°52' E 153°20'84662176973.8
2018-Apr-24 12:28N 46°46' E 031°57'42536.5
2018-Apr-24 12:28N 46°50' E 031°57'2169274.6
2018-Apr-24 12:26N 45°24' E 036°43'8756615.9
2018-Apr-24 12:18N 54°50' E 019°24'103824741.5
2018-Apr-24 12:16N 37°46' E 023°27'5047137650.2
2018-Apr-24 12:14N 01°16' E 103°52'549799951.0
2018-Apr-24 12:10N 54°40' E 019°34'6643974.8
2018-Apr-24 12:00N 52°06' E 001°32'8763152865.7
2018-Apr-24 12:00N 44°51' E 020°38'490882769.8
2018-Apr-24 12:00N 46°57' E 031°60'776698223.3
2018-Apr-24 12:00N 59°41' E 028°19'52529453924.5
2018-Apr-24 12:00N 01°16' E 103°57'56105049226.2
2018-Apr-24 12:00N 63°13' E 021°09'1202865754.1
2018-Apr-24 12:00N 45°20' E 036°40'724426077606.7
2018-Apr-24 12:00N 32°40' W 117°49'1185609552.8
2018-Apr-24 12:00N 29°33' W 095°02'4014268.2
2018-Apr-24 12:00N 28°57' W 095°19'59841657094.7
2018-Apr-24 12:00N 37°55' E 023°42'462831971.3
2018-Apr-24 12:00N 36°02' E 014°22'6562536874.8
2018-Apr-24 11:59N 37°47' W 122°23'78743149689.2
2018-Apr-24 11:59N 01°16' E 103°52'47962158077.9
2018-Apr-24 11:59N 46°50' E 031°57'61034.1
2018-Apr-24 11:58N 46°56' E 031°57'84693811152.5
2018-Apr-24 11:58S 27°52' E 153°20'87053482127.5
2018-Apr-24 11:58N 37°46' E 023°27'659790333.9
2018-Apr-24 11:58N 46°46' E 031°57'46330.5
2018-Apr-24 11:58N 46°50' E 031°57'1442192271.2
2018-Apr-24 11:57N 70°22' E 022°33'1614387412.4
2018-Apr-24 11:57N 44°44' E 037°47'72361532399.2
2018-Apr-24 11:57N 37°52' W 122°29'7154919835.5
2018-Apr-24 11:56N 45°24' E 036°43'86632135.4
2018-Apr-24 11:55N 54°40' E 019°30'594057179.0
2018-Apr-24 11:49S 23°00' W 044°19'5487897905.1
2018-Apr-24 11:48N 32°40' W 117°07'202525048.3
2018-Apr-24 11:43N 36°53' W 076°22'380023747.9
2018-Apr-24 11:34N 55°23' E 011°02'73113297.9
2018-Apr-24 11:30N 44°51' E 020°38'490882769.8
2018-Apr-24 11:30N 46°57' E 031°60'780702175.4
2018-Apr-24 11:30N 59°45' E 028°15'290261401.4
2018-Apr-24 11:30N 63°13' E 021°09'560720183882.2
2018-Apr-24 11:30N 01°15' E 103°50'448516146423.7
2018-Apr-24 11:30N 44°44' E 037°47'6035730.6
2018-Apr-24 11:30N 45°20' E 036°40'86850.1
2018-Apr-24 11:30N 45°18' E 036°30'63387605039.4
2018-Apr-24 11:30N 29°33' W 095°02'1184284122.9
2018-Apr-24 11:30N 32°39' W 117°47'69383567904.5
2018-Apr-24 11:30N 37°55' E 023°42'46350560.0
2018-Apr-24 11:29N 36°04' E 014°19'65581816173.5
2018-Apr-24 11:29N 37°47' W 122°23'78684720989.9
2018-Apr-24 11:29N 01°16' E 103°59'62823769192.4
2018-Apr-24 11:29N 52°05' E 001°32'1227883626.3
2018-Apr-24 11:29N 46°50' E 031°57'61327358667.1
2018-Apr-24 11:29S 23°00' W 044°19'62921258383.2
2018-Apr-24 11:28N 45°24' E 036°43'219393300.5
2018-Apr-24 11:28N 46°56' E 031°57'84693811152.3
2018-Apr-24 11:28S 27°52' E 153°20'84663047763.9
2018-Apr-24 11:28N 46°46' E 031°57'6872399027.2
2018-Apr-24 11:27N 37°52' W 122°29'6869201053.2
2018-Apr-24 11:25N 46°50' E 031°57'4790366911.0
2018-Apr-24 11:24N 01°17' E 103°46'8077252843.4
2018-Apr-24 11:22N 32°45' W 119°21'61674439909.6
2018-Apr-24 11:22N 54°38' E 019°31'11355074.2
2018-Apr-24 11:09N 43°23' W 003°40'6480204644.0
2018-Apr-24 11:07N 01°15' E 103°50'5875881230.8
2018-Apr-24 11:06N 55°14' E 011°06'7129417.4
2018-Apr-24 11:02N 47°36' W 003°27'125758760.1
2018-Apr-24 11:01N 63°13' E 021°09'14821778122.5
2018-Apr-24 11:00N 43°24' W 003°33'10453762189.9
2018-Apr-24 11:00N 44°51' E 020°38'7212597292.8
2018-Apr-24 11:00N 55°12' E 011°05'9313350187.1
2018-Apr-24 11:00N 46°57' E 031°60'785565007.3
2018-Apr-24 11:00N 59°50' E 028°11'922553341.8
2018-Apr-24 11:00N 45°20' E 036°38'6173129.9
2018-Apr-24 11:00N 44°44' E 037°47'11382047576.3
2018-Apr-24 11:00N 59°19' E 018°06'51653099087.2
2018-Apr-24 11:00N 29°33' W 095°02'515718564056.7
2018-Apr-24 11:00N 70°22' E 022°33'54612184445.2
2018-Apr-24 11:00N 37°52' W 122°29'69231661430.7
2018-Apr-24 11:00N 37°55' E 023°42'50282011060.7
2018-Apr-24 10:59N 01°13' E 103°39'123884.2
2018-Apr-24 10:59N 01°15' E 103°50'0 1.2
2018-Apr-24 10:59N 01°15' E 103°50'787614176917.8
2018-Apr-24 10:59N 37°47' W 122°23'68701454831.4
2018-Apr-24 10:59N 46°50' E 031°57'6986.3
2018-Apr-24 10:58N 46°56' E 031°57'1225734728.6
2018-Apr-24 10:58N 52°05' E 001°32'1011536414241.8
2018-Apr-24 10:58S 27°52' E 153°20'107135509549.9
2018-Apr-24 10:58S 23°00' W 044°19'54376524099.3
2018-Apr-24 10:58N 37°46' E 023°27'6591185483.2
2018-Apr-24 10:58N 46°46' E 031°57'46319.9
2018-Apr-24 10:58N 46°50' E 031°57'144333725.8
2018-Apr-24 10:55N 47°35' W 003°26'166432909.0
2018-Apr-24 10:52N 45°24' E 036°43'87847869.9
2018-Apr-24 10:51N 54°52' E 019°20'550615959.3
2018-Apr-24 10:30N 01°11' E 103°39'52809504252.9
2018-Apr-24 10:30N 44°51' E 020°38'4901765546.6
2018-Apr-24 10:30N 46°57' E 031°60'47961438756.6
2018-Apr-24 10:30N 01°15' E 103°50'573020627874.4
2018-Apr-24 10:30N 70°23' E 022°35'16155814844.0
2018-Apr-24 10:30N 44°44' E 037°47'9773515747.8
2018-Apr-24 10:30N 59°54' E 028°07'307552090.5
2018-Apr-24 10:30N 59°20' E 018°05'51642655810.9
2018-Apr-24 10:30N 29°33' W 095°02'5522828356.1
2018-Apr-24 10:30N 36°05' E 014°13'1148459272.2
2018-Apr-24 10:29N 54°53' E 019°19'5960595966.7
2018-Apr-24 10:29N 37°47' W 122°23'52833803798.9
2018-Apr-24 10:29N 47°33' W 003°23'1441518793.5
2018-Apr-24 10:29N 46°50' E 031°57'21637061.2
2018-Apr-24 10:28N 45°24' E 036°43'219393300.5
2018-Apr-24 10:28N 46°56' E 031°57'1225629764.7
2018-Apr-24 10:28N 52°05' E 001°32'1011518207081.5
2018-Apr-24 10:28S 27°52' E 153°20'84663047764.8
2018-Apr-24 10:28N 46°46' E 031°57'42532.3
2018-Apr-24 10:28N 46°50' E 031°57'6869426371.7
2018-Apr-24 10:27N 37°52' W 122°29'69232076788.3
2018-Apr-24 10:27N 37°55' E 023°42'5453755032.1
2018-Apr-24 10:26S 23°00' W 044°19'558712994.1
2018-Apr-24 10:00N 44°51' E 020°38'6052178354.9
2018-Apr-24 10:00N 54°54' E 019°18'6772436567.3
2018-Apr-24 10:00N 46°57' E 031°60'1436430774.4
2018-Apr-24 10:00N 70°24' E 022°46'16145809740.2
2018-Apr-24 10:00N 44°44' E 037°47'11392049501.5
2018-Apr-24 10:00N 59°20' E 018°05'7081274416.5
2018-Apr-24 10:00N 52°05' E 001°32'45883303612.2
2018-Apr-24 10:00N 29°33' W 095°02'1458524815.0
2018-Apr-24 10:00N 37°52' W 122°29'60827298833.8
2018-Apr-24 10:00N 59°56' E 028°01'626411274463.1
2018-Apr-24 10:00N 32°38' W 117°48'58797055397.0
2018-Apr-24 10:00N 63°13' E 021°09'15211095185.1
2018-Apr-24 10:00N 37°55' E 023°42'5039755820.7
2018-Apr-24 09:59N 01°16' E 103°54'47974317616.1
2018-Apr-24 09:59N 46°46' E 031°56'21250989.5
2018-Apr-24 09:59N 45°20' E 036°36'715312874802.7
2018-Apr-24 09:59N 37°47' W 122°23'68701374009.3
2018-Apr-24 09:59N 46°50' E 031°57'61331471800.1
2018-Apr-24 09:58S 23°00' W 044°19'61363155814.5
2018-Apr-24 09:58N 46°56' E 031°57'219262200.4
2018-Apr-24 09:58N 45°24' E 036°43'81944916471.0
2018-Apr-24 09:58S 27°52' E 153°20'84672177290.9
2018-Apr-24 09:58N 46°50' E 031°57'7021382942.4
2018-Apr-24 09:57N 32°36' W 119°02'6994246861.9
2018-Apr-24 09:55N 37°46' E 023°27'505212339.4
2018-Apr-24 09:30N 01°16' E 103°58'529219049823.7
2018-Apr-24 09:30N 44°51' E 020°38'4871751631.4
2018-Apr-24 09:30N 46°46' E 031°57'214771319.5
2018-Apr-24 09:30N 45°21' E 036°40'217389898.9
2018-Apr-24 09:30N 46°57' E 031°60'6781220190.0
2018-Apr-24 09:30N 54°56' E 019°18'408733757.5
2018-Apr-24 09:30N 59°55' E 027°52'981504560.3
2018-Apr-24 09:30N 44°44' E 037°47'6144071.2
2018-Apr-24 09:30N 45°25' E 036°42'63443806373.3
2018-Apr-24 09:30N 29°33' W 095°02'49441369181.1
2018-Apr-24 09:30N 54°47' E 010°49'573120630937.1
2018-Apr-24 09:30N 32°38' W 117°43'6958347913.3
2018-Apr-24 09:29N 46°50' E 031°57'1228259961.3
2018-Apr-24 09:28N 52°06' E 001°32'1225881907.5
2018-Apr-24 09:28N 46°56' E 031°57'61362008266.9
2018-Apr-24 09:28S 23°01' W 044°19'61321839704.3
2018-Apr-24 09:28N 46°50' E 031°57'6869419144.4
2018-Apr-24 09:27N 37°52' W 122°29'63931917988.4
2018-Apr-24 09:27S 27°52' E 153°20'869531302277.5
2018-Apr-24 09:27N 37°55' E 023°42'6922530185.1
2018-Apr-24 09:26N 37°47' W 122°23'6917518746.3
2018-Apr-24 09:25N 37°46' E 023°27'69873144337.9
2018-Apr-24 09:25N 32°36' W 118°54'809820943.8
2018-Apr-24 09:02N 01°16' E 103°52'5287244002.8
2018-Apr-24 09:00N 44°51' E 020°38'651523455148.1
2018-Apr-24 09:00N 32°38' W 117°43'695525037061.3
2018-Apr-24 09:00N 46°57' E 031°60'793570866.6
2018-Apr-24 09:00N 59°55' E 027°43'52829506707.4
2018-Apr-24 09:00N 01°14' E 103°55'44904040805.8
2018-Apr-24 09:00N 44°44' E 037°47'11394098729.6
2018-Apr-24 09:00N 59°20' E 018°04'60882191502.1
2018-Apr-24 09:00S 23°01' W 044°19'437915765240.9
2018-Apr-24 09:00N 29°33' W 095°02'63447613366.2
2018-Apr-24 09:00N 45°21' E 036°41'733138936.1
2018-Apr-24 09:00N 37°55' E 023°42'69901006592.7
2018-Apr-24 08:59N 32°37' W 118°50'35664073.7
2018-Apr-24 08:59N 37°47' W 122°23'56872559034.2
2018-Apr-24 08:59N 63°13' E 021°09'1051472842.0
2018-Apr-24 08:59N 46°50' E 031°57'6986.3
2018-Apr-24 08:58N 46°56' E 031°57'212127403.9
2018-Apr-24 08:58N 45°20' E 036°30'87879050.5
2018-Apr-24 08:57N 54°57' E 019°17'9264680649.7
2018-Apr-24 08:57S 27°52' E 153°20'8705323084.1
2018-Apr-24 08:55N 37°46' E 023°27'661216471.8
2018-Apr-24 08:55N 46°50' E 031°57'7778184205.7
2018-Apr-24 08:52S 19°10' E 146°51'6365263388.3
2018-Apr-24 08:51N 37°52' W 122°29'7869377692.4
2018-Apr-24 08:50N 01°16' E 103°52'479541393.9
2018-Apr-24 08:43N 46°46' E 031°57'479723624.7
2018-Apr-24 08:31N 01°17' E 103°55'52896347109.0
2018-Apr-24 08:30N 44°51' E 020°38'6922490050.2
2018-Apr-24 08:30N 54°36' E 011°07'603723404.7
2018-Apr-24 08:30N 63°13' E 021°09'56105049036.6
2018-Apr-24 08:30N 01°15' E 103°55'815929373909.1
2018-Apr-24 08:30N 32°38' W 117°46'73223765594.5
2018-Apr-24 08:30N 44°44' E 037°47'6274103.8
2018-Apr-24 08:30N 45°28' E 036°46'63453806934.2
2018-Apr-24 08:30N 29°33' W 095°02'75321355724.3
2018-Apr-24 08:30S 27°52' E 153°20'86957825574.2
2018-Apr-24 08:30N 37°55' E 023°42'7341320633.6
2018-Apr-24 08:30N 45°21' E 036°41'7155599042.6
2018-Apr-24 08:29N 37°47' W 122°23'68701648811.5
2018-Apr-24 08:29N 46°50' E 031°57'47871914628.1
2018-Apr-24 08:28N 01°13' E 103°36'47891326107.7
2018-Apr-24 08:28N 46°56' E 031°57'667184609.6
2018-Apr-24 08:28N 37°46' E 023°27'661198431.8
2018-Apr-24 08:28N 46°50' E 031°57'7951.9
2018-Apr-24 08:27N 46°57' E 031°60'2123888.4
2018-Apr-24 08:24N 45°17' E 036°29'88117416.9
2018-Apr-24 08:21N 54°58' E 019°17'551575779.9
2018-Apr-24 08:17N 01°16' E 103°52'5279140760.4
2018-Apr-24 08:14N 59°54' E 027°41'6290297929.0
2018-Apr-24 08:13N 32°37' W 118°43'7007788307.0
2018-Apr-24 08:13N 46°46' E 031°57'479923407.5
2018-Apr-24 08:00N 01°16' E 103°57'28245082777.5
2018-Apr-24 08:00S 19°12' E 146°51'892032110930.6
2018-Apr-24 08:00N 54°33' E 011°23'6192228856.3
2018-Apr-24 08:00N 59°54' E 027°41'528319017861.5
2018-Apr-24 08:00N 01°16' E 103°59'529219052414.0
2018-Apr-24 08:00N 44°51' E 020°38'730657048.0
2018-Apr-24 08:00N 44°44' E 037°47'81257312118.2
2018-Apr-24 08:00S 27°52' E 153°20'644511600613.6
2018-Apr-24 08:00N 32°37' W 117°50'1186711495.0
2018-Apr-24 08:00N 29°33' W 095°02'1229632311.2
2018-Apr-24 08:00N 32°37' W 118°42'69831795670.5
2018-Apr-24 08:00N 37°55' E 023°42'734528253.5
2018-Apr-24 08:00N 45°21' E 036°41'45443271951.9
2018-Apr-24 08:00N 01°12' E 103°41'193336.1
2018-Apr-24 07:59N 01°17' E 103°60'55191324598.0
2018-Apr-24 07:59N 54°57' E 019°18'683175705.3
2018-Apr-24 07:59N 46°50' E 031°57'6908.2
2018-Apr-24 07:58N 46°56' E 031°57'667239992.4
2018-Apr-24 07:58N 37°46' E 023°27'661198431.8
2018-Apr-24 07:58N 46°50' E 031°57'901810949.0
2018-Apr-24 07:58N 59°20' E 018°05'896134382.1
2018-Apr-24 07:57N 46°57' E 031°60'6866772384.6
2018-Apr-24 07:57N 37°52' W 122°29'6872186012.5
2018-Apr-24 07:55N 46°46' E 031°57'12357358.1
2018-Apr-24 07:45N 52°07' E 001°23'541422958.9
2018-Apr-24 07:30N 32°37' W 117°51'578220816933.1
2018-Apr-24 07:30N 54°28' E 011°38'58475262223.1
2018-Apr-24 07:30N 01°16' E 103°59'31547.7
2018-Apr-24 07:30N 01°18' E 104°01'449116168946.9
2018-Apr-24 07:30N 44°44' E 037°47'44782303088.6
2018-Apr-24 07:30N 01°13' E 103°39'3385507798.4
2018-Apr-24 07:30S 27°52' E 153°20'86955217049.4
2018-Apr-24 07:30N 37°55' E 023°42'50429075686.0
2018-Apr-24 07:30N 01°18' E 103°60'455416395851.5
2018-Apr-24 07:30N 45°21' E 036°41'680128905.3
2018-Apr-24 07:29N 44°51' E 020°38'6459968865.5
2018-Apr-24 07:29N 37°47' W 122°23'68701766582.2
2018-Apr-24 07:29N 46°50' E 031°57'61081.2
2018-Apr-24 07:28N 46°56' E 031°57'667171423.8
2018-Apr-24 07:28N 37°46' E 023°27'661216471.8
2018-Apr-24 07:28N 46°50' E 031°57'9011081265.3
2018-Apr-24 07:28N 59°20' E 018°05'896140224.8
2018-Apr-24 07:27N 46°57' E 031°60'6075874846.4
2018-Apr-24 07:27N 29°33' W 095°02'5302636249.4
2018-Apr-24 07:27N 54°56' E 019°19'66948166.4
2018-Apr-24 07:26N 52°03' E 001°12'124174456.2
2018-Apr-24 07:25N 46°46' E 031°57'80228290.0
2018-Apr-24 07:23N 59°53' E 027°41'6072172112.6
2018-Apr-24 07:21N 37°52' W 122°29'568516760.3
2018-Apr-24 07:01N 63°13' E 021°09'274985172.6
2018-Apr-24 07:01N 59°53' E 027°41'9381125228.3
2018-Apr-24 07:00N 44°51' E 020°38'6672402684.0
2018-Apr-24 07:00N 54°26' E 011°53'8863190640.7
2018-Apr-24 07:00N 46°57' E 031°60'695925050675.1
2018-Apr-24 07:00N 32°36' W 117°45'73221757391.4
2018-Apr-24 07:00N 44°44' E 037°47'60107272.0
2018-Apr-24 07:00N 45°20' E 036°40'63454568143.4
2018-Apr-24 07:00N 29°33' W 095°02'94624258055.0
2018-Apr-24 07:00N 01°18' E 104°01'33701213238.6
2018-Apr-24 07:00S 27°52' E 153°20'86955217049.4
2018-Apr-24 07:00N 37°55' E 023°42'50301065208.6
2018-Apr-24 06:59N 01°17' E 103°46'1119280.4
2018-Apr-24 06:59N 01°17' E 103°56'78701133273.8
2018-Apr-24 06:59N 37°47' W 122°23'68701454832.6
2018-Apr-24 06:59N 46°50' E 031°57'61031.1
2018-Apr-24 06:58N 46°56' E 031°57'61029.5
2018-Apr-24 06:58N 46°50' E 031°57'9011621901.6
2018-Apr-24 06:58N 59°20' E 018°05'904361652.0
2018-Apr-24 06:58N 46°46' E 031°57'659474193.3
2018-Apr-24 06:58N 37°46' E 023°27'1277104456.9
2018-Apr-24 06:57N 52°03' E 001°11'543762940.8
2018-Apr-24 06:52N 32°37' W 118°34'3693236.2
2018-Apr-24 06:45N 37°52' W 122°29'5958330008.2
2018-Apr-24 06:44N 54°54' E 019°20'551324869.4
2018-Apr-24 06:30N 01°17' E 103°54'52889518683.2
2018-Apr-24 06:30N 44°51' E 020°38'11013965370.5
2018-Apr-24 06:30N 63°13' E 021°09'587721155718.9
2018-Apr-24 06:30N 32°36' W 117°38'695425034114.6
2018-Apr-24 06:30N 46°57' E 031°60'790568935.4
2018-Apr-24 06:30N 59°52' E 027°40'981441367.9
2018-Apr-24 06:30N 44°44' E 037°47'44915388703.0
2018-Apr-24 06:30N 01°19' E 104°01'78592572005.3
2018-Apr-24 06:30N 37°52' W 122°29'69231465969.2
2018-Apr-24 06:30N 37°55' E 023°42'6922519139.6
2018-Apr-24 06:29N 37°47' W 122°23'1452186728.3
2018-Apr-24 06:28N 29°33' W 095°02'60742733204.2
2018-Apr-24 06:28N 46°56' E 031°57'21887364.7
2018-Apr-24 06:28N 45°20' E 036°40'21664839.6
2018-Apr-24 06:28N 46°50' E 031°57'901648759.2
2018-Apr-24 06:28N 59°20' E 018°05'904464978.4
2018-Apr-24 06:28N 46°46' E 031°57'659395163.9
2018-Apr-24 06:28N 37°46' E 023°27'69661671937.7
2018-Apr-24 06:27N 32°37' W 118°29'5434260833.4
2018-Apr-24 06:26N 52°03' E 001°11'1241154021.0
2018-Apr-24 06:26N 46°50' E 031°57'8467274604.9
2018-Apr-24 06:24S 27°52' E 153°20'925928885.7
2018-Apr-24 06:05N 54°53' E 019°22'6038863.5
2018-Apr-24 06:00N 44°51' E 020°38'11011982674.3
2018-Apr-24 06:00N 63°13' E 021°09'10453760572.8
2018-Apr-24 06:00N 46°57' E 031°60'69516255852.8
2018-Apr-24 06:00N 32°36' W 117°35'624911247426.4
2018-Apr-24 06:00N 59°51' E 027°42'979440767.6
2018-Apr-24 06:00N 44°44' E 037°47'15231370777.9
2018-Apr-24 06:00N 52°03' E 001°11'101331519966.8
2018-Apr-24 06:00S 27°52' E 153°20'641723100743.1
2018-Apr-24 06:00N 32°37' W 118°24'69698362396.9
2018-Apr-24 06:00N 37°55' E 023°42'1033103342.3
2018-Apr-24 05:59N 54°53' E 019°22'59621951284.4
2018-Apr-24 05:59N 37°47' W 122°23'78743543394.3
2018-Apr-24 05:59N 01°16' E 103°52'47963452918.3
2018-Apr-24 05:59N 46°50' E 031°57'60771458462.0
2018-Apr-24 05:58N 29°33' W 095°02'946534074396.6
2018-Apr-24 05:58N 01°16' E 103°59'48032882040.6
2018-Apr-24 05:58N 46°56' E 031°57'21878597.8
2018-Apr-24 05:58N 45°20' E 036°40'21655576.8
2018-Apr-24 05:58N 46°50' E 031°57'901810949.0
2018-Apr-24 05:58N 59°20' E 018°05'1311393256.0
2018-Apr-24 05:58N 37°46' E 023°27'691761488.1
2018-Apr-24 05:51N 37°52' W 122°29'687250696.0
2018-Apr-24 05:43N 46°46' E 031°57'4872383.5
2018-Apr-24 05:30N 44°51' E 020°38'650811714737.8
2018-Apr-24 05:30N 32°36' W 117°31'69488337540.5
2018-Apr-24 05:30N 46°57' E 031°60'790710619.0
2018-Apr-24 05:30N 59°52' E 027°45'980391869.9
2018-Apr-24 05:30N 44°44' E 037°47'1327227445.2
2018-Apr-24 05:30N 43°33' E 007°01'96958725868.7
2018-Apr-24 05:30S 27°52' E 153°20'86955217049.4
2018-Apr-24 05:30N 37°55' E 023°42'1278270652.0
2018-Apr-24 05:29N 52°03' E 001°11'5320736563.0
2018-Apr-24 05:29N 37°47' W 122°23'68701374009.5
2018-Apr-24 05:29N 46°50' E 031°57'60771458464.4
2018-Apr-24 05:28N 29°33' W 095°02'60743644336.2
2018-Apr-24 05:28N 46°56' E 031°57'21878597.7
2018-Apr-24 05:28N 45°20' E 036°40'21655576.1
2018-Apr-24 05:28N 46°50' E 031°57'901648759.2
2018-Apr-24 05:28N 59°20' E 018°05'1311393256.0
2018-Apr-24 05:28N 37°46' E 023°27'691732595.1
2018-Apr-24 05:15N 37°52' W 122°29'591333107.0
2018-Apr-24 05:04S 23°01' W 044°19'6448105033.2
2018-Apr-24 05:00N 59°53' E 027°47'790948240.7
2018-Apr-24 05:00N 46°57' E 031°60'10453760592.3
2018-Apr-24 05:00N 63°13' E 021°09'927556408.2
2018-Apr-24 05:00N 52°03' E 001°11'1523548313.5
2018-Apr-24 05:00N 44°44' E 037°47'81251169933.8
2018-Apr-24 05:00S 27°52' E 153°20'86956260459.3
2018-Apr-24 05:00N 37°55' E 023°42'50443631548.7
2018-Apr-24 05:00N 01°18' E 104°02'9461486554.9
2018-Apr-24 04:58N 29°33' W 095°02'60743644333.1
2018-Apr-24 04:58N 46°56' E 031°57'21878597.7
2018-Apr-24 04:58N 45°20' E 036°40'72291301140.7
2018-Apr-24 04:58N 32°36' W 117°25'69152263093.0
2018-Apr-24 04:58N 37°46' E 023°27'54379786733.8
2018-Apr-24 04:58S 23°01' W 044°19'63201516749.9
2018-Apr-24 04:57N 48°40' W 123°29'65526777.5
2018-Apr-24 04:56N 37°47' W 122°23'68702248379.1
2018-Apr-24 04:56N 46°50' E 031°57'90162389.4
2018-Apr-24 04:55N 59°20' E 018°05'90118430.7
2018-Apr-24 04:52N 46°50' E 031°57'6686213.9
2018-Apr-24 04:45N 54°45' E 019°34'6121512481.4
2018-Apr-24 04:45N 32°37' W 118°09'522029.1
2018-Apr-24 04:43N 32°40' W 117°07'693133402.6
2018-Apr-24 04:31N 46°46' E 031°57'801205931.8
2018-Apr-24 04:31N 59°54' E 027°49'791474536.4
2018-Apr-24 04:30N 46°57' E 031°60'697412553153.7
2018-Apr-24 04:30N 32°37' W 118°06'81347320217.7
2018-Apr-24 04:30N 01°18' E 104°01'44914041786.2
2018-Apr-24 04:30N 44°44' E 037°47'44885386182.6
2018-Apr-24 04:30N 01°15' E 103°55'82932.2
2018-Apr-24 04:30N 01°18' E 104°02'62991744433.6
2018-Apr-24 04:30N 52°03' E 001°11'101339119795.4
2018-Apr-24 04:30S 27°52' E 153°20'86956260459.3
2018-Apr-24 04:30N 37°55' E 023°42'1521391137.5
2018-Apr-24 04:29N 63°13' E 021°09'105185971.6
2018-Apr-24 04:29N 46°50' E 031°57'60771286879.9
2018-Apr-24 04:28N 29°33' W 095°02'60743644333.1
2018-Apr-24 04:28N 46°56' E 031°57'61365522736.7
2018-Apr-24 04:28S 23°01' W 044°19'62893234113.7
2018-Apr-24 04:28N 45°20' E 036°40'21655576.1
2018-Apr-24 04:28N 46°50' E 031°57'9011081265.3
2018-Apr-24 04:28N 59°20' E 018°05'5034503376.4
2018-Apr-24 04:27N 48°40' W 123°29'65529091.6
2018-Apr-24 04:26N 37°47' W 122°23'6873353448.2
2018-Apr-24 04:25N 46°46' E 031°57'6931453667.7
2018-Apr-24 04:24N 32°40' W 117°07'607936175.3
2018-Apr-24 04:14N 54°41' E 019°38'551066793.0
2018-Apr-24 04:09N 46°09' W 123°53'870173921.4
2018-Apr-24 04:08N 32°36' W 117°14'40723630.3
2018-Apr-24 04:07N 37°52' W 122°29'6393122421.1
2018-Apr-24 04:04S 27°58' E 153°25'9011142281.7
2018-Apr-24 04:01N 44°51' E 020°38'9413387852.6
2018-Apr-24 04:00N 59°55' E 027°50'275494899.5
2018-Apr-24 04:00N 63°13' E 021°09'10451253530.8
2018-Apr-24 04:00N 46°57' E 031°60'626622558639.5
2018-Apr-24 04:00N 48°40' W 123°29'64582906130.1
2018-Apr-24 04:00N 37°46' E 023°27'769923265.1
2018-Apr-24 04:00N 44°44' E 037°47'6417924052.3
2018-Apr-24 04:00N 29°33' W 095°02'16916087299.0
2018-Apr-24 04:00N 46°09' W 123°53'661611909594.9
2018-Apr-24 04:00S 27°52' E 153°20'86956260459.3
2018-Apr-24 04:00N 37°55' E 023°42'870315665496.9
2018-Apr-24 04:00S 27°58' E 153°25'92515550576.6
2018-Apr-24 04:00N 54°38' E 019°38'5944764251.2
2018-Apr-24 03:59S 23°01' W 044°19'88663989545.5
2018-Apr-24 03:59N 01°18' E 104°05'78619433196.5
2018-Apr-24 03:59N 37°47' W 122°23'68702248377.7
2018-Apr-24 03:59N 46°50' E 031°57'48021920772.6
2018-Apr-24 03:59N 01°18' E 104°02'48041235325.8
2018-Apr-24 03:58N 46°56' E 031°57'21887328.3
2018-Apr-24 03:58N 45°20' E 036°40'1462752014.4
2018-Apr-24 03:58N 52°03' E 001°11'1241893173.1
2018-Apr-24 03:58N 46°50' E 031°57'901405474.5
2018-Apr-24 03:58N 59°20' E 018°05'5725142130.3
2018-Apr-24 03:55N 37°52' W 122°29'40714784.5
2018-Apr-24 03:54N 32°38' W 117°13'5111.1
2018-Apr-24 03:51N 32°40' W 117°07'6931190471.2
2018-Apr-24 03:49N 46°46' E 031°57'4795146281.7
2018-Apr-24 03:47N 01°16' E 103°52'660.2
2018-Apr-24 03:40N 01°17' E 103°46'593578550.4
2018-Apr-24 03:36N 43°33' E 007°01'593566765.4
2018-Apr-24 03:31N 01°17' E 103°45'526918968902.3
2018-Apr-24 03:30N 59°56' E 027°48'528119010340.8
2018-Apr-24 03:30N 01°18' E 104°04'48045765094.7
2018-Apr-24 03:30N 46°57' E 031°60'10453760592.3
2018-Apr-24 03:30N 63°13' E 021°09'49388888426.9
2018-Apr-24 03:30N 48°40' W 123°29'997512919.2
2018-Apr-24 03:30N 32°35' W 117°53'693824977858.0
2018-Apr-24 03:30N 37°46' E 023°27'7691384914.6
2018-Apr-24 03:30N 44°44' E 037°47'6417888511.6
2018-Apr-24 03:30N 29°33' W 095°02'753227114486.8
2018-Apr-24 03:30S 27°52' E 153°20'33856092785.3
2018-Apr-24 03:30N 01°13' E 103°39'50283619971.3
2018-Apr-24 03:30N 37°55' E 023°42'5453818000.1
2018-Apr-24 03:29S 23°01' W 044°19'59061012495.5
2018-Apr-24 03:29N 37°47' W 122°23'78745669428.2
2018-Apr-24 03:29N 01°16' E 103°52'47962158069.6
2018-Apr-24 03:29N 46°50' E 031°57'61081.2
2018-Apr-24 03:28N 46°56' E 031°57'21865498.1
2018-Apr-24 03:28N 45°20' E 036°40'1462752013.4
2018-Apr-24 03:28N 52°03' E 001°11'1241893171.7
2018-Apr-24 03:28N 46°50' E 031°57'901648759.2
2018-Apr-24 03:28N 59°20' E 018°05'5858149555.0
2018-Apr-24 03:25N 32°40' W 117°07'6931542428.5
2018-Apr-24 03:25N 46°46' E 031°57'10729347.5
2018-Apr-24 03:18N 43°33' E 007°01'12504323.4
2018-Apr-24 03:00N 59°55' E 027°49'52734745561.7
2018-Apr-24 03:00N 01°14' E 103°48'479517261735.5
2018-Apr-24 03:00N 46°57' E 031°60'1045417843.6
2018-Apr-24 03:00N 63°13' E 021°09'15295504345.4
2018-Apr-24 03:00N 37°46' E 023°27'12774596094.6
2018-Apr-24 03:00N 52°03' E 001°11'15235483112.0
2018-Apr-24 03:00N 44°44' E 037°47'1327227445.5
2018-Apr-24 03:00N 43°33' E 007°01'49905987466.3
2018-Apr-24 03:00N 29°33' W 095°02'753227114476.7
2018-Apr-24 03:00S 27°52' E 153°20'661611909586.8
2018-Apr-24 03:00N 46°09' W 123°53'65963392141.8
2018-Apr-24 03:00N 37°55' E 023°42'5037863544.1
2018-Apr-24 02:59N 01°17' E 103°54'814704.4
2018-Apr-24 02:59N 01°17' E 103°46'78791233244.9
2018-Apr-24 02:59N 37°47' W 122°23'68702248377.7
2018-Apr-24 02:59N 46°50' E 031°57'61080.2
2018-Apr-24 02:58N 46°56' E 031°57'21887329.4
2018-Apr-24 02:58N 45°20' E 036°40'62893773130.7
2018-Apr-24 02:58S 23°01' W 044°19'61322006951.4
2018-Apr-24 02:58N 46°50' E 031°57'901648759.2
2018-Apr-24 02:58N 59°20' E 018°05'5656175520.8
2018-Apr-24 02:56N 01°18' E 104°07'480580455.0
2018-Apr-24 02:52N 46°46' E 031°57'479424551.0
2018-Apr-24 02:41N 01°15' E 103°50'78702833360.4
2018-Apr-24 02:40N 37°52' W 122°29'64927508.2
2018-Apr-24 02:39N 48°40' W 123°29'534337713.0
2018-Apr-24 02:31N 59°54' E 027°49'9403384754.1
2018-Apr-24 02:30N 44°51' E 020°38'490353105.0
2018-Apr-24 02:30N 46°57' E 031°60'668240504.8
2018-Apr-24 02:30N 37°46' E 023°27'504118147516.0
2018-Apr-24 02:30N 01°17' E 103°46'448016127780.8
2018-Apr-24 02:30N 44°44' E 037°47'6417924051.6
2018-Apr-24 02:30N 29°33' W 095°02'16912029099.7
2018-Apr-24 02:30N 46°09' W 123°53'65964748998.5
2018-Apr-24 02:30N 37°55' E 023°42'5453530592.9
2018-Apr-24 02:29S 23°01' W 044°19'59063037491.7
2018-Apr-24 02:29N 37°47' W 122°23'68701766583.6
2018-Apr-24 02:29N 46°50' E 031°57'61031.1
2018-Apr-24 02:28N 46°56' E 031°57'1017642.3
2018-Apr-24 02:28N 46°46' E 031°57'21585948.4
2018-Apr-24 02:28N 45°20' E 036°40'14625264136.6
2018-Apr-24 02:28N 52°03' E 001°11'1241372158.4
2018-Apr-24 02:28N 46°50' E 031°57'901648759.2
2018-Apr-24 02:28N 59°20' E 018°05'5655415460.2
2018-Apr-24 02:27N 01°18' E 104°06'33661101450.1
2018-Apr-24 02:27S 27°52' E 153°20'6393264550.0
2018-Apr-24 02:25N 37°52' W 122°29'65035972.6
2018-Apr-24 02:24N 48°40' W 123°29'7749185982.2
2018-Apr-24 02:22N 01°18' E 103°58'860.5
2018-Apr-24 02:14N 01°15' E 103°50'818160979.4
2018-Apr-24 02:06N 32°36' W 117°27'624671841.5
2018-Apr-24 02:01N 59°53' E 027°49'276248262.9
2018-Apr-24 02:00N 63°13' E 021°09'10451880226.8
2018-Apr-24 02:00N 46°57' E 031°60'48058648256.7
2018-Apr-24 02:00N 01°18' E 104°05'1923250.6
2018-Apr-24 02:00N 01°16' E 103°46'776113969915.3
2018-Apr-24 02:00N 48°40' W 123°29'66403984234.7
2018-Apr-24 02:00N 44°44' E 037°47'63183791037.1
2018-Apr-24 02:00S 23°01' W 044°19'88591993260.2
2018-Apr-24 02:00N 01°16' E 103°59'946517036988.1
2018-Apr-24 02:00N 29°33' W 095°02'16912029104.8
2018-Apr-24 02:00N 46°09' W 123°53'65964748998.5
2018-Apr-24 02:00N 37°55' E 023°42'50371066658.1
2018-Apr-24 01:59N 01°17' E 103°53'78731012227.0
2018-Apr-24 01:59N 37°47' W 122°23'68701766583.6
2018-Apr-24 01:59N 46°50' E 031°57'1241297774.5
2018-Apr-24 01:58N 52°03' E 001°11'1242745213.1
2018-Apr-24 01:58N 46°46' E 031°57'1035306.9
2018-Apr-24 01:58N 46°56' E 031°57'48083461729.4
2018-Apr-24 01:58N 01°18' E 104°07'4806961217.9
2018-Apr-24 01:58N 46°50' E 031°57'901648756.8
2018-Apr-24 01:58N 59°20' E 018°05'564641911.9
2018-Apr-24 01:50N 01°15' E 103°50'78701287891.4
2018-Apr-24 01:49N 37°52' W 122°29'6917366215.9
2018-Apr-24 01:48N 37°46' E 023°27'4441499.7
2018-Apr-24 01:31N 44°51' E 020°38'9413387574.5
2018-Apr-24 01:30N 59°55' E 027°49'52824753498.4
2018-Apr-24 01:30N 01°18' E 104°08'480717304500.5
2018-Apr-24 01:30N 46°57' E 031°60'668267227.6
2018-Apr-24 01:30N 37°46' E 023°27'50573641017.8
2018-Apr-24 01:30N 01°19' E 104°05'44944044446.0
2018-Apr-24 01:30N 44°44' E 037°47'44862691619.2
2018-Apr-24 01:30N 01°12' E 103°49'33771013051.1
2018-Apr-24 01:30S 27°52' E 153°20'753213557243.4
2018-Apr-24 01:30N 29°33' W 095°02'16912029099.7
2018-Apr-24 01:30N 46°09' W 123°53'51332639993.4
2018-Apr-24 01:30N 63°13' E 021°09'6353693098.8
2018-Apr-24 01:29S 23°01' W 044°19'88501676896.9
2018-Apr-24 01:29N 01°15' E 103°50'47958631328.7
2018-Apr-24 01:29N 46°50' E 031°57'6986.3
2018-Apr-24 01:28N 46°56' E 031°57'1238342837.9
2018-Apr-24 01:28N 52°03' E 001°11'1241405988.9
2018-Apr-24 01:28N 46°50' E 031°57'901810946.0
2018-Apr-24 01:28N 59°20' E 018°05'5862527556.1
2018-Apr-24 01:27N 33°27' W 118°30'940187979.5
2018-Apr-24 01:27N 48°40' W 123°29'64611661316.4
2018-Apr-24 01:27N 37°55' E 023°42'5297488919.8
2018-Apr-24 01:26N 27°11' W 080°15'22251001473.9
2018-Apr-24 01:26N 37°47' W 122°23'7813.2
2018-Apr-24 01:25N 37°52' W 122°29'68726184921.9
2018-Apr-24 01:25N 46°46' E 031°57'479525235.7
2018-Apr-24 01:14N 01°16' E 103°52'527523559.7
2018-Apr-24 01:00N 59°56' E 027°48'273492279.8
2018-Apr-24 01:00N 63°13' E 021°09'10451880285.8
2018-Apr-24 01:00N 46°57' E 031°60'47981919122.2
2018-Apr-24 01:00N 01°15' E 103°52'50489087077.1
2018-Apr-24 01:00N 37°46' E 023°27'7692769808.4
2018-Apr-24 01:00N 44°44' E 037°47'449316175040.5
2018-Apr-24 01:00N 01°19' E 104°05'81023240636.8
2018-Apr-24 01:00N 33°27' W 118°30'69485002212.5
2018-Apr-24 01:00N 46°50' E 031°57'60771988728.3
2018-Apr-24 01:00N 29°33' W 095°02'75329038162.3
2018-Apr-24 01:00S 27°52' E 153°20'661623819189.9
2018-Apr-24 01:00N 46°09' W 123°53'65967914997.5
2018-Apr-24 01:00N 37°55' E 023°42'50401814243.0
2018-Apr-24 01:00N 01°17' E 103°56'1035276.6
2018-Apr-24 00:59N 01°11' E 103°49'6295985276.2
2018-Apr-24 00:59N 52°03' E 001°11'53201367901.4
2018-Apr-24 00:59N 37°47' W 122°23'68702248379.1
2018-Apr-24 00:59N 46°50' E 031°57'61134.2
2018-Apr-24 00:58N 46°56' E 031°57'1011768.5
2018-Apr-24 00:58N 46°46' E 031°57'904116245.5
2018-Apr-24 00:58N 59°20' E 018°05'5871274476.0
2018-Apr-24 00:57N 32°36' W 117°21'8173403044.9
2018-Apr-24 00:55N 01°18' E 104°04'7744416109.9
2018-Apr-24 00:54N 48°40' W 123°29'100415245.1
2018-Apr-24 00:50N 32°37' W 117°13'824.9
2018-Apr-24 00:31N 32°37' W 117°23'81759809963.6
2018-Apr-24 00:30N 01°17' E 104°00'622817.9
2018-Apr-24 00:30N 01°16' E 103°54'47988635791.1
2018-Apr-24 00:30N 46°57' E 031°60'47973453771.8
2018-Apr-24 00:30N 01°12' E 103°48'528719032737.9
2018-Apr-24 00:30N 44°51' E 020°38'52926350433.5
2018-Apr-24 00:30N 01°16' E 103°58'50539094969.4
2018-Apr-24 00:30N 37°46' E 023°27'769461632.5
2018-Apr-24 00:30N 44°44' E 037°47'731013157436.3
2018-Apr-24 00:30N 33°27' W 118°30'69483126380.2
2018-Apr-24 00:30N 46°50' E 031°57'12411116465.7
2018-Apr-24 00:30N 52°03' E 001°11'101335211311.0
2018-Apr-24 00:30S 27°52' E 153°20'66164763841.2
2018-Apr-24 00:30N 46°09' W 123°53'55359963017.5
2018-Apr-24 00:30N 59°55' E 027°49'5093426382.4
2018-Apr-24 00:29N 27°11' W 080°15'22252002939.0
2018-Apr-24 00:29N 37°47' W 122°23'68702061014.2
2018-Apr-24 00:29N 46°50' E 031°57'61134.2
2018-Apr-24 00:28N 46°56' E 031°57'896100762.2
2018-Apr-24 00:28N 59°20' E 018°05'503484286.6
2018-Apr-24 00:24N 48°40' W 123°29'5437815575.0
2018-Apr-24 00:24N 43°33' E 007°01'5911122999.2
2018-Apr-24 00:21N 32°35' W 117°21'6946252576.2
2018-Apr-24 00:19N 46°46' E 031°57'687234649.4
2018-Apr-24 00:07N 37°52' W 122°29'645955896.5
2018-Apr-24 00:00N 44°51' E 020°38'11013965348.3
2018-Apr-24 00:00N 63°13' E 021°09'10451253530.8
2018-Apr-24 00:00N 46°57' E 031°60'48004320173.1
2018-Apr-24 00:00N 01°15' E 103°56'50513030683.4
2018-Apr-24 00:00N 37°46' E 023°27'645811624520.3
2018-Apr-24 00:00N 48°40' W 123°29'664023905393.6
2018-Apr-24 00:00N 44°44' E 037°47'9823534127.1
2018-Apr-24 00:00N 59°55' E 027°49'62292242327.2
2018-Apr-24 00:00N 33°27' W 118°30'694725010023.5
2018-Apr-24 00:00N 46°50' E 031°57'60771682770.1
2018-Apr-24 00:00N 29°33' W 095°02'16911521824.7
2018-Apr-24 00:00N 46°09' W 123°53'773527844764.8
2018-Apr-24 00:00N 01°17' E 104°07'504818173301.9
2018-Apr-24 00:00N 37°55' E 023°42'6922519139.6
2018-Apr-23 23:59N 37°47' W 122°23'68702473217.1
2018-Apr-23 23:59N 46°50' E 031°57'61031.1
2018-Apr-23 23:58N 46°56' E 031°57'896104012.6
2018-Apr-23 23:58N 59°20' E 018°05'90453358.5
2018-Apr-23 23:57N 46°46' E 031°57'84667619408.5
2018-Apr-23 23:57S 27°52' E 153°20'3377868396.1
2018-Apr-23 23:57N 01°15' E 103°50'6292943863.1
2018-Apr-23 23:56N 52°03' E 001°11'531920350.0
2018-Apr-23 23:40N 37°52' W 122°29'5013209.9
2018-Apr-23 23:31N 46°06' W 124°17'6097645587.8
2018-Apr-23 23:30N 44°51' E 020°38'65027802207.5
2018-Apr-23 23:30N 32°43' W 117°30'586321107757.6
2018-Apr-23 23:30N 63°13' E 021°09'10453760592.3
2018-Apr-23 23:30N 46°57' E 031°60'69555007477.7
2018-Apr-23 23:30N 32°36' W 117°39'73195269452.5
2018-Apr-23 23:30N 44°44' E 037°47'44918083208.1
2018-Apr-23 23:30N 01°17' E 103°59'52796334428.6
2018-Apr-23 23:30N 59°56' E 027°48'53403844605.0
2018-Apr-23 23:30N 48°40' W 123°29'77589309187.2
2018-Apr-23 23:30N 01°15' E 103°50'94742436064.1
2018-Apr-23 23:30N 29°33' W 095°02'753227114497.0
2018-Apr-23 23:30S 27°52' E 153°20'66164763841.2
2018-Apr-23 23:30N 46°09' W 123°53'65967914997.5
2018-Apr-23 23:30N 37°55' E 023°42'648129584.9
2018-Apr-23 23:29N 46°50' E 031°57'6870951202.2
2018-Apr-23 23:29N 37°47' W 122°23'68702248379.1
2018-Apr-23 23:29N 46°50' E 031°57'61080.2
2018-Apr-23 23:28N 46°56' E 031°57'1238278555.7
2018-Apr-23 23:28N 52°03' E 001°11'53901212723.5
2018-Apr-23 23:28N 33°27' W 118°30'586221102243.9
2018-Apr-23 23:28N 59°20' E 018°05'5647186499.5
2018-Apr-23 23:26N 01°16' E 103°52'479555502.4
2018-Apr-23 23:21N 46°46' E 031°57'4871434.8
2018-Apr-23 23:00N 44°51' E 020°38'609210965450.5
2018-Apr-23 23:00N 46°10' W 124°15'644611602505.1
2018-Apr-23 23:00N 46°57' E 031°60'668267229.6
2018-Apr-23 23:00N 37°46' E 023°27'7691384904.2
2018-Apr-23 23:00N 44°44' E 037°47'732013175669.9
2018-Apr-23 23:00N 32°36' W 117°42'54011944208.7
2018-Apr-23 23:00N 52°03' E 001°11'47765731709.9
2018-Apr-23 23:00N 48°40' W 123°29'1751573191.0
2018-Apr-23 23:00N 29°33' W 095°02'75329038125.0
2018-Apr-23 23:00S 27°52' E 153°20'66167939665.8
2018-Apr-23 23:00N 46°09' W 123°53'553219914102.3
2018-Apr-23 23:00N 59°58' E 027°47'13334797639.8
2018-Apr-23 23:00N 37°55' E 023°42'648111072.3
2018-Apr-23 22:59N 46°50' E 031°57'479517263549.7
2018-Apr-23 22:59N 01°15' E 103°50'78761134153.6
2018-Apr-23 22:59N 37°47' W 122°23'68702748020.9
2018-Apr-23 22:59N 46°50' E 031°57'61032.1
2018-Apr-23 22:58N 46°56' E 031°57'896104012.6
2018-Apr-23 22:58N 59°20' E 018°05'58624220448.8
2018-Apr-23 22:58N 33°27' W 118°30'6950446765.3
2018-Apr-23 22:57N 46°46' E 031°57'613024823.3
2018-Apr-23 22:42S 23°00' W 044°19'591346582.1
2018-Apr-23 22:34N 37°52' W 122°29'645999798.0
2018-Apr-23 22:31N 44°51' E 020°38'52869514956.0
2018-Apr-23 22:30N 01°15' E 103°50'47968632538.0
2018-Apr-23 22:30N 46°57' E 031°60'644311596949.6
2018-Apr-23 22:30N 46°11' W 124°11'8691564088.0
2018-Apr-23 22:30N 32°36' W 117°40'81727354908.6
2018-Apr-23 22:30N 01°12' E 103°48'44862306997.3
2018-Apr-23 22:30N 44°44' E 037°47'9831769527.1
2018-Apr-23 22:30N 59°56' E 027°49'5543907017.2
2018-Apr-23 22:30N 29°33' W 095°02'753213557253.6
2018-Apr-23 22:30S 27°52' E 153°20'66164763844.5
2018-Apr-23 22:30N 46°09' W 123°53'659611872496.3
2018-Apr-23 22:30N 37°55' E 023°42'648116626.0
2018-Apr-23 22:29N 46°50' E 031°57'694725010034.9
2018-Apr-23 22:29N 33°27' W 118°30'32155114.1
2018-Apr-23 22:29N 37°47' W 122°23'68701902473.4
2018-Apr-23 22:29N 46°50' E 031°57'61134.2
2018-Apr-23 22:28N 46°56' E 031°57'89694835.0
2018-Apr-23 22:28N 59°20' E 018°05'719517877.5
2018-Apr-23 22:28N 52°03' E 001°11'1277153204.0
2018-Apr-23 22:27N 37°46' E 023°27'65994838.7
2018-Apr-23 22:27N 46°46' E 031°57'687255594.8
2018-Apr-23 22:19N 37°52' W 122°29'591341175.0
2018-Apr-23 22:11S 23°00' W 044°19'6288103846.6
2018-Apr-23 22:07N 45°20' E 036°40'6806103.0
2018-Apr-23 22:00N 44°51' E 020°38'490882769.8
2018-Apr-23 22:00N 46°57' E 031°60'47958631857.5
2018-Apr-23 22:00N 01°13' E 103°48'52734745828.1
2018-Apr-23 22:00N 59°55' E 027°49'626122539615.2
2018-Apr-23 22:00N 32°29' W 117°38'69318317056.7
2018-Apr-23 22:00N 37°46' E 023°27'769553959.0
2018-Apr-23 22:00N 44°44' E 037°47'64171100062.3
2018-Apr-23 22:00N 29°33' W 095°02'43793941238.9
2018-Apr-23 22:00S 23°01' W 044°19'1071338566989.6
2018-Apr-23 22:00S 27°52' E 153°20'66164763838.0
2018-Apr-23 22:00N 46°09' W 123°53'659611872496.3
2018-Apr-23 22:00N 37°55' E 023°42'648122764.6
2018-Apr-23 21:59N 46°50' E 031°57'69474168333.8
2018-Apr-23 21:59N 33°27' W 118°30'53903880718.5
2018-Apr-23 21:59N 52°03' E 001°11'62937551562.6
2018-Apr-23 21:59N 01°16' E 103°52'78742180552.1
2018-Apr-23 21:59N 37°47' W 122°23'68703091521.3
2018-Apr-23 21:59N 46°50' E 031°57'6986.3
2018-Apr-23 21:58N 46°56' E 031°57'21856138.6
2018-Apr-23 21:58N 45°20' E 036°40'1202393524.1
2018-Apr-23 21:58N 63°13' E 021°09'249149598.9
2018-Apr-23 21:58N 59°20' E 018°05'50341006755.5
2018-Apr-23 21:58N 48°40' W 123°29'6275525347.4
2018-Apr-23 21:57N 46°46' E 031°57'6080148905.5
2018-Apr-23 21:54N 29°32' W 095°03'169782545.3
2018-Apr-23 21:53N 46°13' W 123°58'5068100.0
2018-Apr-23 21:49N 37°52' W 122°29'590026125.6
2018-Apr-23 21:36N 43°33' E 007°01'5916630.7
2018-Apr-23 21:30N 44°51' E 020°38'52784750077.0
2018-Apr-23 21:30N 01°13' E 103°38'478817238245.7
2018-Apr-23 21:30N 46°57' E 031°60'791711915.8
2018-Apr-23 21:30N 59°54' E 027°48'52773799504.1
2018-Apr-23 21:30N 01°14' E 103°54'817029413052.2
2018-Apr-23 21:30N 32°21' W 117°38'879632814.8
2018-Apr-23 21:30N 46°12' W 123°51'66191036093.6
2018-Apr-23 21:30S 27°52' E 153°20'1013318239519.5
2018-Apr-23 21:30N 52°03' E 001°11'12781150251.4
2018-Apr-23 21:30N 37°55' E 023°42'659623744992.5
2018-Apr-23 21:30N 46°09' W 123°53'64371219598.2
2018-Apr-23 21:29N 46°50' E 031°57'69474168337.2
2018-Apr-23 21:29N 33°27' W 118°30'32252609.7
2018-Apr-23 21:29N 37°47' W 122°23'68702748019.0
2018-Apr-23 21:29N 46°50' E 031°57'61331471815.4
2018-Apr-23 21:28S 23°01' W 044°19'61363681821.9
2018-Apr-23 21:28N 46°56' E 031°57'896104012.0
2018-Apr-23 21:28N 59°20' E 018°05'113899965.0
2018-Apr-23 21:27N 44°44' E 037°47'27351806.1
2018-Apr-23 21:27N 46°46' E 031°57'6940409598.8
2018-Apr-23 21:26N 32°36' W 117°14'40763688.7
2018-Apr-23 21:25N 37°52' W 122°29'6509742.6
2018-Apr-23 21:21N 48°40' W 123°29'543720912.2
2018-Apr-23 21:06N 43°33' E 007°01'556062358.0
2018-Apr-23 21:01N 46°14' W 123°44'606710921419.8
2018-Apr-23 21:00N 44°51' E 020°38'11013965348.5
2018-Apr-23 21:00N 63°13' E 021°09'276141887.8
2018-Apr-23 21:00N 59°53' E 027°49'980235269.4
2018-Apr-23 21:00N 44°44' E 037°47'72362605076.2
2018-Apr-23 21:00N 37°52' W 122°29'1458874691.7
2018-Apr-23 21:00N 29°33' W 095°02'75324519081.1
2018-Apr-23 21:00S 27°52' E 153°20'66165954797.5
2018-Apr-23 21:00N 46°09' W 123°53'659623744992.5
2018-Apr-23 21:00N 37°55' E 023°42'50362265998.0
2018-Apr-23 21:00N 01°15' E 103°50'47951726356.1
2018-Apr-23 20:59N 46°50' E 031°57'69472778889.2
2018-Apr-23 20:59N 33°27' W 118°30'55791338972.8
2018-Apr-23 20:59S 23°01' W 044°19'590610631228.3
2018-Apr-23 20:59N 37°47' W 122°23'68702248379.1
2018-Apr-23 20:59N 46°50' E 031°57'61080.2
2018-Apr-23 20:58N 46°56' E 031°57'1238278555.5
2018-Apr-23 20:58N 52°03' E 001°11'719161837.1
2018-Apr-23 20:58N 59°20' E 018°05'896129007.1
2018-Apr-23 20:57N 46°57' E 031°60'668240504.8
2018-Apr-23 20:57N 37°46' E 023°27'65994839.0
2018-Apr-23 20:57N 46°46' E 031°57'697968643.9
2018-Apr-23 20:51N 32°19' W 117°43'101628787.1
2018-Apr-23 20:49N 48°40' W 123°29'518018893.6
2018-Apr-23 20:32N 28°07' W 016°30'205472485.1
2018-Apr-23 20:30N 44°51' E 020°38'653111756571.5
2018-Apr-23 20:30N 32°19' W 117°42'697312550659.2
2018-Apr-23 20:30N 46°57' E 031°60'792570359.1
2018-Apr-23 20:30N 59°55' E 027°50'13401205768.0
2018-Apr-23 20:30N 37°46' E 023°27'769692452.2
2018-Apr-23 20:30N 44°44' E 037°47'664011952704.2
2018-Apr-23 20:30N 48°40' W 123°29'650212565.2
2018-Apr-23 20:30N 37°52' W 122°29'1458477104.5
2018-Apr-23 20:30N 29°33' W 095°02'75326778621.7
2018-Apr-23 20:30S 27°52' E 153°20'86957825574.2
2018-Apr-23 20:30N 37°55' E 023°42'50361394460.3
2018-Apr-23 20:29N 01°15' E 103°50'47953452712.2
2018-Apr-23 20:29N 46°50' E 031°57'69471563126.5
2018-Apr-23 20:29N 33°27' W 118°30'55792231616.2
2018-Apr-23 20:29S 23°01' W 044°19'59067087474.3
2018-Apr-23 20:29N 37°47' W 122°23'68702473217.2
2018-Apr-23 20:29N 46°50' E 031°57'61081.2
2018-Apr-23 20:28N 46°56' E 031°57'21852397.9
2018-Apr-23 20:28N 45°20' E 036°40'1081259505.3
2018-Apr-23 20:28N 59°20' E 018°05'90452497.9
2018-Apr-23 20:27N 46°46' E 031°57'1242144233.1
2018-Apr-23 20:26N 52°03' E 001°11'536167721.7
2018-Apr-23 20:22N 33°44' W 118°11'581316567.8
2018-Apr-23 20:01N 63°13' E 021°00'11021322073.9
2018-Apr-23 20:00N 44°51' E 020°38'490441384.9
2018-Apr-23 20:00N 46°57' E 031°60'626622558879.5
2018-Apr-23 20:00N 48°39' W 123°28'53406408099.8
2018-Apr-23 20:00N 59°56' E 027°48'983589826.3
2018-Apr-23 20:00N 44°44' E 037°47'73393774141.7
2018-Apr-23 20:00N 32°19' W 117°45'55051651440.7
2018-Apr-23 20:00S 23°01' W 044°19'62803229624.0
2018-Apr-23 20:00N 45°18' E 036°30'633822815678.9
2018-Apr-23 20:00N 29°33' W 095°02'75326778621.7
2018-Apr-23 20:00S 27°52' E 153°20'66164763838.0
2018-Apr-23 20:00N 46°09' W 123°53'790711368.4
2018-Apr-23 20:00N 33°44' W 118°09'69151778182.8
2018-Apr-23 19:59N 46°50' E 031°57'64175774954.0
2018-Apr-23 19:59N 46°10' W 123°25'796159261.7
2018-Apr-23 19:59N 33°27' W 118°30'53902425450.3
2018-Apr-23 19:59N 52°03' E 001°11'1241638088.6
2018-Apr-23 19:59N 46°50' E 031°57'61134.2
2018-Apr-23 19:58N 46°56' E 031°57'21852397.9
2018-Apr-23 19:58N 45°20' E 036°40'1081216254.4
2018-Apr-23 19:58N 59°20' E 018°05'5646383533.4
2018-Apr-23 19:57N 01°15' E 103°50'5036954104.5
2018-Apr-23 19:57N 37°55' E 023°42'6922541710.5
2018-Apr-23 19:56N 37°47' W 122°23'687382471.3
2018-Apr-23 19:51N 46°46' E 031°57'687245984.6
2018-Apr-23 19:42N 37°52' W 122°29'572758571.3
2018-Apr-23 19:36N 41°05' E 001°06'531557979.8
2018-Apr-23 19:31N 48°42' W 123°29'77619313680.9
2018-Apr-23 19:30N 01°13' E 103°48'528619031054.1
2018-Apr-23 19:30N 44°51' E 020°38'490588513.2
2018-Apr-23 19:30N 46°57' E 031°60'25511837068.5
2018-Apr-23 19:30N 28°18' W 016°15'20771246179.1
2018-Apr-23 19:30N 37°46' E 023°27'7691384897.6
2018-Apr-23 19:30N 44°44' E 037°47'63183249467.3
2018-Apr-23 19:30S 23°01' W 044°19'522118797231.3
2018-Apr-23 19:30N 52°03' E 001°11'1011242657.2
2018-Apr-23 19:30N 59°56' E 027°48'554319953806.8
2018-Apr-23 19:30N 29°33' W 095°02'75326778621.7
2018-Apr-23 19:30S 27°52' E 153°20'64384635600.7
2018-Apr-23 19:30N 33°26' W 118°30'8021443719.5
2018-Apr-23 19:30N 46°09' W 123°53'64371363081.6
2018-Apr-23 19:29N 46°50' E 031°57'1372705565.5
2018-Apr-23 19:29N 40°56' E 001°17'57411087690.5
2018-Apr-23 19:29N 37°47' W 122°23'68702473217.1
2018-Apr-23 19:29N 46°50' E 031°57'61031.1
2018-Apr-23 19:28N 46°56' E 031°57'89697708.8
2018-Apr-23 19:28N 59°20' E 018°05'564610163628.9
2018-Apr-23 19:28N 01°15' E 103°50'4794308202.2
2018-Apr-23 19:27N 46°46' E 031°57'21111878.0
2018-Apr-23 19:26N 45°20' E 036°34'7151229852.6
2018-Apr-23 19:24N 37°52' W 122°29'571648765.6
2018-Apr-23 19:17N 39°29' W 000°28'630164073.0
2018-Apr-23 19:11N 01°16' E 103°52'7787737728.2
2018-Apr-23 19:10N 46°11' W 123°08'637447116.9
2018-Apr-23 19:02N 46°30' E 030°45'6373222749.3
2018-Apr-23 19:01N 46°10' W 123°04'156561109.8
2018-Apr-23 19:01N 48°45' W 123°19'591721300104.4
2018-Apr-23 19:00N 44°51' E 020°38'942376874.0
2018-Apr-23 19:00N 59°55' E 027°55'527118973933.1
2018-Apr-23 19:00N 01°12' E 103°48'455316389648.8
2018-Apr-23 19:00N 45°21' E 036°37'745670825.0
2018-Apr-23 19:00N 37°46' E 023°27'769395687.0
2018-Apr-23 19:00N 44°44' E 037°47'64171155065.4
2018-Apr-23 19:00N 29°33' W 095°02'603110855742.7
2018-Apr-23 19:00N 46°30' E 030°45'852030672022.7
2018-Apr-23 19:00S 27°52' E 153°20'86956260459.3
2018-Apr-23 19:00N 37°55' E 023°42'7342640843.3
2018-Apr-23 19:00N 45°22' E 036°40'672124195367.0
2018-Apr-23 19:00N 46°09' W 123°53'64371448272.9
2018-Apr-23 18:59N 46°50' E 031°57'1353608803.0
2018-Apr-23 18:59N 40°42' E 001°54'47031881274.0
2018-Apr-23 18:59S 23°01' W 044°19'59061932948.9
2018-Apr-23 18:59N 37°47' W 122°23'68702748019.0
2018-Apr-23 18:59N 46°50' E 031°57'69485002456.6
2018-Apr-23 18:59N 33°26' W 118°30'69431470372.5
2018-Apr-23 18:58N 46°56' E 031°57'896100762.2
2018-Apr-23 18:58N 59°20' E 018°05'896124045.3
2018-Apr-23 18:57N 46°57' E 031°60'111229.5
2018-Apr-23 18:57N 46°46' E 031°57'6872141369.6
2018-Apr-23 18:54N 37°52' W 122°29'5773384883.1
2018-Apr-23 18:53N 38°46' E 000°09'576228183.5
2018-Apr-23 18:41N 32°22' W 117°39'8170177175.3
2018-Apr-23 18:38N 01°16' E 103°52'779862249.2
2018-Apr-23 18:31N 46°05' W 122°55'604010872779.4
2018-Apr-23 18:30N 44°51' E 020°38'652623492232.1
2018-Apr-23 18:30N 32°23' W 117°39'817529430208.6
2018-Apr-23 18:30N 01°13' E 103°48'47968632205.8
2018-Apr-23 18:30N 46°57' E 031°60'47944314827.4
2018-Apr-23 18:30N 01°15' E 103°47'526218943389.5
2018-Apr-23 18:30N 59°56' E 028°05'1342966163.9
2018-Apr-23 18:30N 37°46' E 023°27'10181832984.5
2018-Apr-23 18:30N 40°47' E 001°53'1599959556.9
2018-Apr-23 18:30N 44°44' E 037°47'17501575372.9
2018-Apr-23 18:30N 38°25' W 000°17'452016273375.6
2018-Apr-23 18:30S 23°01' W 044°19'55792869225.4
2018-Apr-23 18:30N 33°27' W 118°30'1223550433.3
2018-Apr-23 18:30N 29°33' W 095°02'75329038162.3
2018-Apr-23 18:30S 27°52' E 153°20'86956260459.3
2018-Apr-23 18:30N 37°55' E 023°42'65967915003.2
2018-Apr-23 18:30N 46°09' W 123°53'64371544826.8
2018-Apr-23 18:29N 46°50' E 031°57'5036174.5
2018-Apr-23 18:29N 46°28' E 030°51'48381451468.1
2018-Apr-23 18:29N 01°16' E 103°52'78742577017.6
2018-Apr-23 18:29N 37°47' W 122°23'68704122028.4
2018-Apr-23 18:29N 46°50' E 031°57'12414466621.6
2018-Apr-23 18:29N 52°03' E 001°11'1238193776.9
2018-Apr-23 18:28N 46°56' E 031°57'89694834.5
2018-Apr-23 18:28N 59°20' E 018°05'5725381645.6
2018-Apr-23 18:27N 37°52' W 122°29'7154130739.8
2018-Apr-23 18:24N 45°21' E 036°40'12756482.2
2018-Apr-23 18:12N 43°33' E 007°01'593231403.1
2018-Apr-23 18:01N 32°27' W 117°38'652223480266.8
2018-Apr-23 18:00N 44°51' E 020°38'593021348942.3
2018-Apr-23 18:00N 48°24' W 123°12'627011286585.4
2018-Apr-23 18:00N 46°57' E 031°60'22965.6
2018-Apr-23 18:00N 46°56' E 031°57'786566273.9
2018-Apr-23 18:00N 59°51' E 028°10'52579462908.1
2018-Apr-23 18:00N 01°15' E 103°48'50456053431.4
2018-Apr-23 18:00N 37°46' E 023°27'693024946227.2
2018-Apr-23 18:00N 33°27' W 118°30'73094385626.8
2018-Apr-23 18:00N 44°44' E 037°47'63182067839.9
2018-Apr-23 18:00S 23°01' W 044°19'43791751690.0
2018-Apr-23 18:00N 29°33' W 095°02'59462675644.0
2018-Apr-23 18:00N 37°55' E 023°42'65965936248.1
2018-Apr-23 18:00N 46°09' W 123°53'64371655169.0
2018-Apr-23 17:59N 46°50' E 031°57'1241202993.5
2018-Apr-23 17:59N 52°03' E 001°11'53202735806.4
2018-Apr-23 17:59N 37°47' W 122°23'68703533167.2
2018-Apr-23 17:59N 46°50' E 031°57'90157932.9
2018-Apr-23 17:58N 59°20' E 018°05'5725388847.0
2018-Apr-23 17:57N 37°52' W 122°29'63931917987.3
2018-Apr-23 17:57S 27°52' E 153°20'846657181.3
2018-Apr-23 17:48N 46°46' E 031°57'149655537.3
2018-Apr-23 17:46N 39°01' W 000°25'393859561.9
2018-Apr-23 17:42N 26°33' W 077°03'4254612509.1
2018-Apr-23 17:42N 43°33' E 007°01'127551587.3
2018-Apr-23 17:40N 45°22' E 036°41'9175578.6
2018-Apr-23 17:31N 59°46' E 028°14'9373373558.0
2018-Apr-23 17:30N 44°51' E 020°38'489351936.4
2018-Apr-23 17:30N 46°56' E 031°57'47972878397.1
2018-Apr-23 17:30N 01°15' E 103°50'817114707545.4
2018-Apr-23 17:30N 32°30' W 117°39'693112475575.2
2018-Apr-23 17:30N 37°46' E 023°27'515018538499.4
2018-Apr-23 17:30N 26°33' W 077°03'57052281978.9
2018-Apr-23 17:30N 44°44' E 037°47'72362894529.7
2018-Apr-23 17:30N 37°52' W 122°29'68726184921.4
2018-Apr-23 17:30N 46°46' E 031°57'60787294023.6
2018-Apr-23 17:30N 29°33' W 095°02'75326778621.7
2018-Apr-23 17:30S 27°52' E 153°20'86956260459.3
2018-Apr-23 17:30N 37°55' E 023°42'65965936248.1
2018-Apr-23 17:30N 46°09' W 123°53'64371782490.9
2018-Apr-23 17:29N 46°50' E 031°57'6870824375.8
2018-Apr-23 17:29N 37°47' W 122°23'68703533167.2
2018-Apr-23 17:29N 46°50' E 031°57'124193055.1
2018-Apr-23 17:28N 52°03' E 001°11'719369915.0
2018-Apr-23 17:28N 59°20' E 018°05'6088429707.4
2018-Apr-23 17:27S 23°01' W 044°19'6290231059.2
2018-Apr-23 17:25N 45°22' E 036°41'248.0
2018-Apr-23 17:23N 45°20' E 036°40'12756740.4
2018-Apr-23 17:12N 43°33' E 007°01'12526610.4
2018-Apr-23 17:00N 59°42' E 028°18'9343363047.6
2018-Apr-23 17:00N 44°51' E 020°38'11011982674.3
2018-Apr-23 17:00N 63°13' E 021°09'10451880509.5
2018-Apr-23 17:00N 46°56' E 031°57'686524713928.1
2018-Apr-23 17:00N 37°47' W 122°23'69172766646.9
2018-Apr-23 17:00N 37°46' E 023°27'7691384911.0
2018-Apr-23 17:00N 44°44' E 037°47'72361532399.0
2018-Apr-23 17:00N 37°52' W 122°29'63934603166.7
2018-Apr-23 17:00S 27°52' E 153°20'75329038158.9
2018-Apr-23 17:00N 29°33' W 095°02'59463057878.9
2018-Apr-23 17:00N 37°55' E 023°42'65965936248.1
2018-Apr-23 17:00N 46°09' W 123°53'64371655169.0
2018-Apr-23 16:59N 46°50' E 031°57'6132761256.9
2018-Apr-23 16:59S 23°01' W 044°19'61333153892.2
2018-Apr-23 16:59N 46°50' E 031°57'69601392000.0
2018-Apr-23 16:58N 32°33' W 117°39'72413724183.3
2018-Apr-23 16:58N 45°22' E 036°41'1080121510.8
2018-Apr-23 16:58N 59°20' E 018°05'719517881.9
2018-Apr-23 16:58N 52°03' E 001°11'1239234789.4
2018-Apr-23 16:57N 46°57' E 031°60'111190.3
2018-Apr-23 16:57N 46°46' E 031°57'21519834.1
2018-Apr-23 16:56N 45°20' E 036°40'454938265.5
2018-Apr-23 16:49N 01°15' E 103°50'57111713330.0
2018-Apr-23 16:49N 70°17' E 023°04'15284978.3
2018-Apr-23 16:30N 44°51' E 020°38'1101991337.1
2018-Apr-23 16:30N 63°13' E 021°09'10453761039.7
2018-Apr-23 16:30N 46°56' E 031°57'47974317595.2
2018-Apr-23 16:30N 01°15' E 103°50'50463027832.2
2018-Apr-23 16:30N 37°46' E 023°27'514618526366.7
2018-Apr-23 16:30N 26°34' W 076°60'57025131391.4
2018-Apr-23 16:30N 44°44' E 037°47'962384728.4
2018-Apr-23 16:30N 59°40' E 028°18'64597750247.3
2018-Apr-23 16:30S 23°01' W 044°19'522118797052.1
2018-Apr-23 16:30N 52°03' E 001°11'45731829317.9
2018-Apr-23 16:30N 29°33' W 095°02'75329038158.9
2018-Apr-23 16:30S 27°52' E 153°20'869510434095.0
2018-Apr-23 16:30N 37°55' E 023°42'648129584.9
2018-Apr-23 16:29N 46°50' E 031°57'216129679.2
2018-Apr-23 16:29N 45°20' E 036°40'72402606252.4
2018-Apr-23 16:29N 32°36' W 117°39'69571192693.2
2018-Apr-23 16:29N 46°50' E 031°57'21633744.6
2018-Apr-23 16:28N 45°22' E 036°41'1080117828.7
2018-Apr-23 16:28N 59°20' E 018°05'90456118.5
2018-Apr-23 16:27N 46°46' E 031°57'6873298089.1
2018-Apr-23 16:25N 37°47' W 122°23'7248.2
2018-Apr-23 16:24N 37°52' W 122°29'4655106.6
2018-Apr-23 16:18N 45°37' W 122°47'215816603.5
2018-Apr-23 16:11N 36°56' W 076°20'407151058.7
2018-Apr-23 16:06S 23°00' W 044°19'645872431.2
2018-Apr-23 16:01N 59°40' E 028°18'9321678044.6
2018-Apr-23 16:00N 44°51' E 020°38'489586560.7
2018-Apr-23 16:00N 46°56' E 031°57'25944.9
2018-Apr-23 16:00N 46°57' E 031°60'47994319315.8
2018-Apr-23 16:00N 01°13' E 103°53'106429578152.7
2018-Apr-23 16:00N 26°32' W 076°58'24974495168.0
2018-Apr-23 16:00N 45°35' W 122°45'67936113303.4
2018-Apr-23 16:00N 44°44' E 037°47'72361860769.1
2018-Apr-23 16:00N 37°52' W 122°29'1458656018.2
2018-Apr-23 16:00N 29°33' W 095°02'75326778619.2
2018-Apr-23 16:00S 27°52' E 153°20'86957825571.2
2018-Apr-23 16:00N 37°55' E 023°42'648137207.5
2018-Apr-23 15:59N 46°50' E 031°57'21664839.6
2018-Apr-23 15:59N 45°20' E 036°40'67221152426.6
2018-Apr-23 15:59N 46°09' W 123°53'643711586598.3
2018-Apr-23 15:59N 46°50' E 031°57'69561317961.2
2018-Apr-23 15:58N 32°37' W 117°39'387464293.7
2018-Apr-23 15:58N 37°47' W 122°23'71558585421.2
2018-Apr-23 15:58N 45°22' E 036°41'1462228804.8
2018-Apr-23 15:58N 52°03' E 001°11'52213132875.6
2018-Apr-23 15:58S 23°01' W 044°19'60885478765.1
2018-Apr-23 15:58N 59°20' E 018°05'1311131085.3
2018-Apr-23 15:57N 37°46' E 023°27'659118549.2
2018-Apr-23 15:57N 46°46' E 031°57'6130501562.3
2018-Apr-23 15:56S 23°00' W 044°19'885235097.4
2018-Apr-23 15:41N 01°16' E 103°52'816746523.4
2018-Apr-23 15:31N 32°40' W 117°39'651123438881.0
2018-Apr-23 15:30N 44°51' E 020°38'489439921.5
2018-Apr-23 15:30N 46°56' E 031°57'480117284131.7
2018-Apr-23 15:30N 01°16' E 103°56'780928112489.7
2018-Apr-23 15:30N 45°33' W 122°42'65682627298.5
2018-Apr-23 15:30N 37°46' E 023°27'769276979.5
2018-Apr-23 15:30N 44°44' E 037°47'72362605076.7
2018-Apr-23 15:30N 37°52' W 122°29'502601826.5
2018-Apr-23 15:30N 46°09' W 123°53'16911521817.2
2018-Apr-23 15:30N 29°33' W 095°02'75326778616.6
2018-Apr-23 15:30S 27°52' E 153°20'86957825568.3
2018-Apr-23 15:30N 37°55' E 023°42'648155501.9
2018-Apr-23 15:29N 46°50' E 031°57'21664837.7
2018-Apr-23 15:29N 45°20' E 036°40'913273771.7
2018-Apr-23 15:29N 59°40' E 028°18'781200918.4
2018-Apr-23 15:29N 46°50' E 031°57'68701236608.5
2018-Apr-23 15:28N 37°47' W 122°23'71556439061.3
2018-Apr-23 15:28N 45°22' E 036°41'1080121508.9
2018-Apr-23 15:28N 59°20' E 018°05'90456118.5
2018-Apr-23 15:27N 46°46' E 031°57'479522388.2
2018-Apr-23 15:14N 01°16' E 103°52'524923299.5
2018-Apr-23 15:01N 59°40' E 028°18'9323356089.2
2018-Apr-23 15:00N 44°51' E 020°38'489439916.9
2018-Apr-23 15:00N 46°56' E 031°57'48024321568.6
2018-Apr-23 15:00N 01°16' E 103°57'78085622022.4
2018-Apr-23 15:00N 45°33' W 122°42'656811822851.3
2018-Apr-23 15:00N 37°46' E 023°27'7691384897.6
2018-Apr-23 15:00N 44°44' E 037°47'73168779618.7
2018-Apr-23 15:00N 32°40' W 117°42'390116860.4
2018-Apr-23 15:00N 37°52' W 122°29'502257925.7
2018-Apr-23 15:00N 46°09' W 123°53'16912029089.6
2018-Apr-23 15:00N 29°33' W 095°02'75329038158.9
2018-Apr-23 15:00S 27°52' E 153°20'86956260457.0
2018-Apr-23 15:00N 37°55' E 023°42'648145784.1
2018-Apr-23 14:59N 46°50' E 031°57'4796959195.3
2018-Apr-23 14:59N 01°16' E 103°52'88523186736.0
2018-Apr-23 14:59S 23°01' W 044°19'61332453020.8
2018-Apr-23 14:59N 46°50' E 031°57'21632338.4
2018-Apr-23 14:58N 45°22' E 036°41'1080125429.9
2018-Apr-23 14:58N 59°20' E 018°05'90457102.6
2018-Apr-23 14:57N 46°46' E 031°57'6873281151.8
2018-Apr-23 14:55N 37°47' W 122°23'220817203.3
2018-Apr-23 14:48N 36°58' W 076°06'342823869.8
2018-Apr-23 14:39N 52°03' E 001°11'8866160.8
2018-Apr-23 14:30N 44°51' E 020°38'489586554.8
2018-Apr-23 14:30N 46°56' E 031°57'485517479527.7
2018-Apr-23 14:30N 36°57' W 076°01'485717484422.8
2018-Apr-23 14:30N 46°57' E 031°60'641911554346.1
2018-Apr-23 14:30N 45°33' W 122°42'52179389748.6
2018-Apr-23 14:30N 59°19' E 018°06'249179621.8
2018-Apr-23 14:30N 63°13' E 021°09'15295504344.6
2018-Apr-23 14:30N 37°46' E 023°27'7482691948.1
2018-Apr-23 14:30N 45°22' E 036°40'61109565.0
2018-Apr-23 14:30N 44°44' E 037°47'962288547.1
2018-Apr-23 14:30N 59°40' E 028°18'52513150546.4
2018-Apr-23 14:30N 01°17' E 103°56'885631880867.8
2018-Apr-23 14:30S 23°01' W 044°19'883915909396.5
2018-Apr-23 14:30N 01°12' E 103°40'776227943038.0
2018-Apr-23 14:30N 46°09' W 123°53'16913043642.2
2018-Apr-23 14:30N 29°33' W 095°02'59462378351.8
2018-Apr-23 14:30N 37°55' E 023°42'648155501.9
2018-Apr-23 14:29N 46°50' E 031°57'021.8
2018-Apr-23 14:29N 46°50' E 031°57'68701301692.4
2018-Apr-23 14:28N 37°47' W 122°23'71554292713.3
2018-Apr-23 14:28N 45°22' E 036°41'7154296031.6
2018-Apr-23 14:27N 37°52' W 122°29'687212369851.7
2018-Apr-23 14:27N 46°46' E 031°57'479513156.5
2018-Apr-23 14:05N 01°16' E 103°52'16218.6
2018-Apr-23 14:01N 01°13' E 103°36'782928184117.7
2018-Apr-23 14:01N 45°33' W 122°42'606021815683.0
2018-Apr-23 14:01N 44°51' E 020°38'651811732439.4
2018-Apr-23 14:00N 32°40' W 117°48'69568347120.2
2018-Apr-23 14:00N 46°56' E 031°57'25944.9
2018-Apr-23 14:00N 46°57' E 031°60'846810161087.2
2018-Apr-23 14:00S 27°52' E 153°20'87054477018.3
2018-Apr-23 14:00N 37°46' E 023°27'7471345352.6
2018-Apr-23 14:00N 45°21' E 036°40'61109008.5
2018-Apr-23 14:00N 44°44' E 037°47'44891795692.1
2018-Apr-23 14:00N 01°15' E 103°56'78655663120.9
2018-Apr-23 14:00N 37°52' W 122°29'502257922.6
2018-Apr-23 14:00N 46°09' W 123°53'16916087268.9
2018-Apr-23 14:00N 29°33' W 095°02'45731829316.0
2018-Apr-23 14:00N 52°03' E 001°11'12784601071.6
2018-Apr-23 14:00N 37°55' E 023°42'1318593080.8
2018-Apr-23 14:00N 59°40' E 028°18'781468779.4
2018-Apr-23 13:59N 46°50' E 031°57'901648410.1
2018-Apr-23 13:59N 59°20' E 018°07'6089913330.6
2018-Apr-23 13:59S 23°01' W 044°19'6290707618.1
2018-Apr-23 13:58N 45°22' E 036°41'51124601187.0
2018-Apr-23 13:58N 36°53' W 075°52'4857208141.7
2018-Apr-23 13:57N 46°46' E 031°57'4188.7
2018-Apr-23 13:56N 46°50' E 031°57'68701124189.6
2018-Apr-23 13:55N 37°47' W 122°23'229913794.5
2018-Apr-23 13:45N 41°17' W 072°55'1017181368.2
2018-Apr-23 13:38N 01°16' E 103°52'524942367.5
2018-Apr-23 13:31N 59°40' E 028°18'9323356089.2
2018-Apr-23 13:30N 44°51' E 020°38'8843182104.8
2018-Apr-23 13:30N 52°05' E 001°16'12352222133.4
2018-Apr-23 13:30N 46°56' E 031°57'8961074614.1
2018-Apr-23 13:30N 59°19' E 018°05'940211281832.8
2018-Apr-23 13:30S 27°52' E 153°20'81252437362.0
2018-Apr-23 13:30N 44°44' E 037°47'72362003905.1
2018-Apr-23 13:30N 37°52' W 122°29'4611661393.8
2018-Apr-23 13:30N 45°33' W 122°42'51374623237.9
2018-Apr-23 13:30N 63°13' E 021°09'51339240022.2
2018-Apr-23 13:30N 46°09' W 123°53'16916087284.3
2018-Apr-23 13:30N 29°33' W 095°02'63443806577.8
2018-Apr-23 13:30N 45°22' E 036°41'72441862844.7
2018-Apr-23 13:29N 32°40' W 117°51'69636266275.2
2018-Apr-23 13:29N 46°50' E 031°57'6132761257.9
2018-Apr-23 13:29S 23°01' W 044°19'61333153890.7
2018-Apr-23 13:29N 46°50' E 031°57'68701177722.5
2018-Apr-23 13:28N 37°47' W 122°23'7154715377.8
2018-Apr-23 13:28N 45°22' E 036°40'21631114.6
2018-Apr-23 13:27N 46°57' E 031°60'4796227197.7
2018-Apr-23 13:26N 01°16' E 103°52'5047159384.5
2018-Apr-23 13:24N 37°46' E 023°27'5437105233.6
2018-Apr-23 13:21S 23°00' W 044°19'436450848.4
2018-Apr-23 13:16N 28°57' W 095°18'612151730.5
2018-Apr-23 13:09N 46°46' E 031°57'7855605.5
2018-Apr-23 13:01N 59°40' E 028°18'7752790471.9
2018-Apr-23 13:00N 46°56' E 031°57'4891759682.0
2018-Apr-23 13:00N 44°51' E 020°38'11011982674.2
2018-Apr-23 13:00N 63°13' E 021°09'370013319392.7
2018-Apr-23 13:00N 41°13' W 072°52'453316318365.8
2018-Apr-23 13:00N 46°57' E 031°60'61203671978.9
2018-Apr-23 13:00N 28°57' W 095°19'59765378432.4
2018-Apr-23 13:00N 37°46' E 023°27'769461636.5
2018-Apr-23 13:00N 44°44' E 037°47'6013524.5
2018-Apr-23 13:00N 45°21' E 036°40'63444567797.4
2018-Apr-23 13:00N 29°33' W 095°02'16291954500.6
2018-Apr-23 13:00N 45°33' W 122°42'670812074057.1
2018-Apr-23 13:00N 45°22' E 036°41'734660547.9
2018-Apr-23 13:00N 37°55' E 023°42'648166609.8
2018-Apr-23 12:59N 46°50' E 031°57'47881723848.0
2018-Apr-23 12:59N 01°13' E 103°39'4788662984.3
2018-Apr-23 12:59N 46°50' E 031°57'6965783583.6
2018-Apr-23 12:58N 32°39' W 117°54'55239941988.6
2018-Apr-23 12:58S 23°01' W 044°19'62521125447.7
2018-Apr-23 12:58N 46°09' W 123°53'6252441322.8
2018-Apr-23 12:57S 23°00' W 044°19'59132365153.3
2018-Apr-23 12:57N 37°52' W 122°29'7268.0
2018-Apr-23 12:55N 37°47' W 122°23'687390960.9
2018-Apr-23 12:51N 46°46' E 031°57'4795302829.7
2018-Apr-23 12:50N 01°16' E 103°52'10409148105.6
2018-Apr-23 12:46N 38°57' W 076°28'1040041006.9
2018-Apr-23 12:31N 01°13' E 103°40'52449438938.7
2018-Apr-23 12:30N 59°40' E 028°18'7752790405.5
2018-Apr-23 12:30N 46°56' E 031°57'64187701729.8
2018-Apr-23 12:30N 45°33' W 122°42'641923108692.2
2018-Apr-23 12:30N 46°57' E 031°60'61211468999.5
2018-Apr-23 12:30N 28°56' W 095°20'946434069133.3
2018-Apr-23 12:30N 01°15' E 103°50'44853229282.3
2018-Apr-23 12:30N 44°44' E 037°47'72363721540.8
2018-Apr-23 12:30N 37°52' W 122°29'1458656019.4
2018-Apr-23 12:30N 29°33' W 095°02'59463057880.9
2018-Apr-23 12:30N 37°55' E 023°42'7342642192.4
2018-Apr-23 12:30N 45°22' E 036°41'21648561.0
2018-Apr-23 12:29N 46°50' E 031°57'022.3
2018-Apr-23 12:29N 46°50' E 031°57'61331698264.9
2018-Apr-23 12:29S 23°01' W 044°19'59062362423.0
2018-Apr-23 12:28N 37°47' W 122°23'50755286.0
2018-Apr-23 12:28N 46°09' W 123°53'2140963132.1
2018-Apr-23 12:28N 38°57' W 076°28'4702564180.7
2018-Apr-23 12:27N 37°46' E 023°27'659118549.2
2018-Apr-23 12:27N 46°46' E 031°57'68210226.0
2018-Apr-23 12:23N 54°58' E 019°28'609478911.5
2018-Apr-23 12:18N 32°39' W 117°50'541730515.8
2018-Apr-23 12:08N 52°07' E 001°31'10098486.6
2018-Apr-23 12:01N 59°44' E 028°17'9353367449.5
2018-Apr-23 12:00N 44°51' E 020°38'11011982674.2
2018-Apr-23 12:00N 63°13' E 021°09'10453761019.0
2018-Apr-23 12:00N 46°56' E 031°57'8963224532.9
2018-Apr-23 12:00N 59°20' E 018°05'1311429021.4
2018-Apr-23 12:00N 37°46' E 023°27'769395683.1
2018-Apr-23 12:00N 44°44' E 037°47'15105434348.1
2018-Apr-23 12:00N 52°05' E 001°32'1229442305.8
2018-Apr-23 12:00N 46°46' E 031°57'687224739703.4
2018-Apr-23 12:00N 37°52' W 122°29'1458874690.9
2018-Apr-23 12:00N 29°33' W 095°02'59462378350.2
2018-Apr-23 12:00N 37°55' E 023°42'59853591045.5
2018-Apr-23 12:00N 28°56' W 095°19'61222203891.1
2018-Apr-23 11:59N 46°50' E 031°57'47952466230.3
2018-Apr-23 11:59N 01°15' E 103°50'781414066084.6
2018-Apr-23 11:59N 45°33' W 122°42'6424856539.9
2018-Apr-23 11:59N 46°50' E 031°57'68701124190.4
2018-Apr-23 11:58N 37°47' W 122°23'50755286.0
2018-Apr-23 11:58N 46°09' W 123°53'6721345667.3
2018-Apr-23 11:57N 45°22' E 036°41'12317346.4
2018-Apr-23 11:47N 41°56' E 008°45'104149288.6
2018-Apr-23 11:45N 46°57' E 031°60'479621370.1
2018-Apr-23 11:32N 01°16' E 103°52'5287221305.0
2018-Apr-23 11:31N 44°51' E 020°38'9393379930.1
2018-Apr-23 11:30N 59°48' E 028°13'288518231.9
2018-Apr-23 11:30N 63°13' E 021°09'10451880276.0
2018-Apr-23 11:30N 46°57' E 031°60'8961612237.5
2018-Apr-23 11:30N 59°20' E 018°05'56492542240.7
2018-Apr-23 11:30N 01°15' E 103°54'505018180948.4
2018-Apr-23 11:30N 37°46' E 023°27'656823645702.6
2018-Apr-23 11:30N 45°33' W 122°42'67924075333.3
2018-Apr-23 11:30N 44°44' E 037°47'64171100061.5
2018-Apr-23 11:30N 29°33' W 095°02'63444567905.9
2018-Apr-23 11:30N 45°22' E 036°41'7341321096.2
2018-Apr-23 11:30N 37°55' E 023°42'648166609.2
2018-Apr-23 11:29N 46°50' E 031°57'4796664058.8
2018-Apr-23 11:29N 01°16' E 103°52'48372487488.2
2018-Apr-23 11:29N 46°27' E 030°52'5045169.2
2018-Apr-23 11:29N 46°50' E 031°57'68701177722.5
2018-Apr-23 11:28N 37°47' W 122°23'5333767982.9
2018-Apr-23 11:28N 52°05' E 001°32'49381777564.5
2018-Apr-23 11:28N 46°09' W 123°53'64313858555.0
2018-Apr-23 11:28N 46°56' E 031°57'10693.9
2018-Apr-23 11:27N 46°46' E 031°57'143919111.8
2018-Apr-23 11:22N 47°32' W 003°18'528830263.3
2018-Apr-23 11:12N 37°52' W 122°29'3912669.0
2018-Apr-23 11:03N 32°39' W 117°41'8171639455.9
2018-Apr-23 11:02N 01°17' E 103°46'13430.3
2018-Apr-23 11:01N 01°16' E 103°59'52639473527.5
2018-Apr-23 11:00N 59°53' E 028°11'3081108711.3
2018-Apr-23 11:00N 59°19' E 018°06'896644807.2
2018-Apr-23 11:00N 46°30' E 030°46'616246517.1
2018-Apr-23 11:00N 37°46' E 023°27'656823645719.3
2018-Apr-23 11:00N 45°33' W 122°42'809485432.8
2018-Apr-23 11:00N 32°38' W 117°41'392108454.6
2018-Apr-23 11:00N 37°52' W 122°29'1458749735.7
2018-Apr-23 11:00N 29°33' W 095°02'63443806588.2
2018-Apr-23 11:00N 45°22' E 036°41'7341321096.2
2018-Apr-23 11:00N 37°55' E 023°42'648179425.2
2018-Apr-23 10:59N 46°50' E 031°57'1051420270.7
2018-Apr-23 10:59N 63°13' E 021°09'5607917487.5
2018-Apr-23 10:59N 01°16' E 103°52'47965754880.1
2018-Apr-23 10:59N 46°50' E 031°57'6870951236.7
2018-Apr-23 10:58N 37°47' W 122°23'52856342274.8
2018-Apr-23 10:58N 47°34' W 003°19'64751013501.5
2018-Apr-23 10:58N 01°17' E 103°46'88463980908.9
2018-Apr-23 10:58S 23°01' W 044°19'61364418165.8
2018-Apr-23 10:58N 46°56' E 031°57'2272.6
2018-Apr-23 10:57N 46°57' E 031°60'1226232263.8
2018-Apr-23 10:57N 52°05' E 001°32'1229402127.8
2018-Apr-23 10:57N 46°46' E 031°57'10272709.9
2018-Apr-23 10:34N 36°02' E 014°11'550290033.6
2018-Apr-23 10:31N 01°17' E 103°46'45448179515.8
2018-Apr-23 10:30N 45°20' E 036°40'6802447295.1
2018-Apr-23 10:30N 44°51' E 020°38'651623458126.3
2018-Apr-23 10:30N 32°38' W 117°44'587710578746.5
2018-Apr-23 10:30N 63°13' E 021°09'12544514110.9
2018-Apr-23 10:30N 47°36' W 003°20'13404823269.2
2018-Apr-23 10:30N 59°57' E 028°09'55466655209.5
2018-Apr-23 10:30N 45°33' W 122°42'65685911425.7
2018-Apr-23 10:30N 37°46' E 023°27'457274029.9
2018-Apr-23 10:30N 36°02' E 014°11'55133969567.4
2018-Apr-23 10:30N 01°16' E 103°58'44908082166.5
2018-Apr-23 10:30N 44°44' E 037°47'64171540086.4
2018-Apr-23 10:30N 29°33' W 095°02'59462378350.2
2018-Apr-23 10:30N 37°55' E 023°42'648194377.3
2018-Apr-23 10:29N 46°50' E 031°57'6132712143.1
2018-Apr-23 10:29S 23°01' W 044°19'61333153888.2
2018-Apr-23 10:29N 46°50' E 031°57'68701075312.5
2018-Apr-23 10:28N 37°47' W 122°23'71551515083.3
2018-Apr-23 10:28N 45°22' E 036°41'14481737886.5
2018-Apr-23 10:28N 52°05' E 001°32'49381185050.3
2018-Apr-23 10:28N 46°09' W 123°53'64317717110.0
2018-Apr-23 10:28N 46°56' E 031°57'2249.5
2018-Apr-23 10:27N 46°57' E 031°60'6866119982.3
2018-Apr-23 10:24N 37°52' W 122°29'7050239450.6
2018-Apr-23 10:22N 44°38' E 033°32'1456965.2
2018-Apr-23 10:21N 46°46' E 031°57'4871427.8
2018-Apr-23 10:01N 44°51' E 020°38'651823465808.7
2018-Apr-23 10:00N 32°38' W 117°46'816814702007.3
2018-Apr-23 10:00N 01°16' E 103°45'47918623215.9
2018-Apr-23 10:00N 46°57' E 031°60'641923108692.2
2018-Apr-23 10:00N 45°33' W 122°42'492217720524.3
2018-Apr-23 10:00N 47°38' W 003°21'14381035147.7
2018-Apr-23 10:00N 46°56' E 031°57'7971435247.7
2018-Apr-23 10:00N 60°02' E 028°07'13482426630.5
2018-Apr-23 10:00N 37°46' E 023°27'769692448.8
2018-Apr-23 10:00N 44°44' E 037°47'15081809971.9
2018-Apr-23 10:00N 52°07' E 001°34'9151647676.1
2018-Apr-23 10:00N 63°13' E 021°09'249896823.7
2018-Apr-23 10:00N 59°20' E 018°05'57252290006.8
2018-Apr-23 10:00N 37°52' W 122°29'1458656018.2
2018-Apr-23 10:00N 29°33' W 095°02'59462378350.2
2018-Apr-23 10:00N 37°55' E 023°42'648179423.9
2018-Apr-23 09:59N 46°50' E 031°57'61321576888.5
2018-Apr-23 09:59S 23°01' W 044°19'61331003510.7
2018-Apr-23 09:59N 46°50' E 031°57'68701075312.5
2018-Apr-23 09:58N 37°47' W 122°23'71551609780.5
2018-Apr-23 09:58N 45°22' E 036°41'67211273513.1
2018-Apr-23 09:58N 46°09' W 123°53'6440429343.9
2018-Apr-23 09:57N 46°46' E 031°57'4797161401.1
2018-Apr-23 09:55N 01°17' E 103°55'550118825.6
2018-Apr-23 09:38N 54°50' E 019°36'549446316.4
2018-Apr-23 09:31N 01°13' E 103°40'528019008008.5
2018-Apr-23 09:31N 44°51' E 020°38'490294254.8
2018-Apr-23 09:30N 46°57' E 031°60'480117283512.1
2018-Apr-23 09:30N 01°15' E 103°56'48025762694.6
2018-Apr-23 09:30N 46°56' E 031°57'667599936.9
2018-Apr-23 09:30N 37°46' E 023°27'656811822851.3
2018-Apr-23 09:30N 45°33' W 122°42'67088049376.4
2018-Apr-23 09:30N 45°22' E 036°41'11634188106.3
2018-Apr-23 09:30N 36°01' E 014°17'11951075173.5
2018-Apr-23 09:30N 44°44' E 037°47'1137818862.0
2018-Apr-23 09:30N 59°19' E 018°06'10791942701.4
2018-Apr-23 09:30N 45°21' E 036°40'63441903215.1
2018-Apr-23 09:30N 29°33' W 095°02'55492853923.1
2018-Apr-23 09:30N 60°06' E 028°04'10083628877.7
2018-Apr-23 09:30N 52°06' E 001°34'12684563750.6
2018-Apr-23 09:30N 37°55' E 023°42'648179425.2
2018-Apr-23 09:29N 46°50' E 031°57'14402591171.3
2018-Apr-23 09:29N 47°40' W 003°23'4872565809.4
2018-Apr-23 09:29S 23°00' W 044°19'61327358993.8
2018-Apr-23 09:29N 46°50' E 031°57'1051290979.7
2018-Apr-23 09:29N 63°13' E 021°09'56872047227.3
2018-Apr-23 09:28N 37°47' W 122°23'50750678.8
2018-Apr-23 09:28N 46°09' W 123°53'6440437444.1
2018-Apr-23 09:27N 46°46' E 031°57'687212369843.7
2018-Apr-23 09:27N 37°52' W 122°29'595735153.6
2018-Apr-23 09:17N 54°59' E 019°23'4041210816.2
2018-Apr-23 09:16N 38°57' W 076°28'405214588219.9
2018-Apr-23 09:16N 54°51' E 019°36'6012387.5
2018-Apr-23 09:00N 44°51' E 020°38'490441384.9
2018-Apr-23 09:00N 46°57' E 031°60'613811048363.6
2018-Apr-23 09:00S 23°00' W 044°19'883831816806.6
2018-Apr-23 09:00N 01°13' E 103°39'47908622259.3
2018-Apr-23 09:00N 46°56' E 031°57'48025762432.9
2018-Apr-23 09:00N 01°15' E 103°56'561120199114.7
2018-Apr-23 09:00N 63°13' E 021°09'51376164317.2
2018-Apr-23 09:00N 45°33' W 122°42'55336639893.6
2018-Apr-23 09:00N 60°07' E 028°02'62617512787.3
2018-Apr-23 09:00N 32°38' W 117°52'732626374454.3
2018-Apr-23 09:00N 44°44' E 037°47'11394098712.6
2018-Apr-23 09:00N 59°20' E 018°04'1036932661.5
2018-Apr-23 09:00N 47°41' W 003°22'44321063749.1
2018-Apr-23 09:00N 29°33' W 095°02'45884129450.3
2018-Apr-23 09:00N 52°04' E 001°32'12681521333.0
2018-Apr-23 09:00N 37°55' E 023°42'10301236514.8
2018-Apr-23 09:00N 54°51' E 019°37'671241507.5
2018-Apr-23 08:59N 46°50' E 031°57'48021920710.9
2018-Apr-23 08:59N 01°16' E 103°59'48028642757.7
2018-Apr-23 08:59N 46°50' E 031°57'21670666.1
2018-Apr-23 08:59N 45°20' E 036°40'7155677888.3
2018-Apr-23 08:58N 37°47' W 122°23'50750678.8
2018-Apr-23 08:58N 46°09' W 123°53'67212419661.7
2018-Apr-23 08:58N 45°22' E 036°41'7154114466.0
2018-Apr-23 08:54N 37°52' W 122°29'687227519.1
2018-Apr-23 08:39N 46°46' E 031°57'4873462.3
2018-Apr-23 08:31N 44°51' E 020°38'652511745722.1
2018-Apr-23 08:30N 32°38' W 117°55'69658357655.8
2018-Apr-23 08:30N 46°57' E 031°60'667480523.3
2018-Apr-23 08:30N 54°52' E 019°37'503452318.1
2018-Apr-23 08:30N 63°13' E 021°09'15292752172.7
2018-Apr-23 08:30N 37°46' E 023°27'13521217155.5
2018-Apr-23 08:30N 60°07' E 028°02'527118976915.2
2018-Apr-23 08:30N 01°17' E 103°55'56485083618.3
2018-Apr-23 08:30N 59°20' E 018°05'57252060885.1
2018-Apr-23 08:30N 37°52' W 122°29'1458583127.3
2018-Apr-23 08:30N 29°33' W 095°02'16291172700.4
2018-Apr-23 08:30N 45°33' W 122°42'65727885978.6
2018-Apr-23 08:30N 37°55' E 023°42'13291594538.5
2018-Apr-23 08:30N 47°43' W 003°22'1439647387.2
2018-Apr-23 08:29N 46°50' E 031°57'12274418561.5
2018-Apr-23 08:29N 52°05' E 001°32'1228491035.5
2018-Apr-23 08:29N 46°50' E 031°57'61321471732.7
2018-Apr-23 08:29S 23°00' W 044°19'5906590617.1
2018-Apr-23 08:28N 37°47' W 122°23'6865686498.5
2018-Apr-23 08:28N 46°56' E 031°57'643123151518.7
2018-Apr-23 08:28N 46°09' W 123°53'67212419650.6
2018-Apr-23 08:28N 45°22' E 036°41'606778.1
2018-Apr-23 08:27N 44°44' E 037°47'812555605.1
2018-Apr-23 08:18S 27°52' E 153°20'8466148671.1
2018-Apr-23 08:15N 46°46' E 031°57'642726717.7
2018-Apr-23 08:01N 45°33' W 122°42'606021815667.8
2018-Apr-23 08:00N 44°51' E 020°38'11013965348.5
2018-Apr-23 08:00N 63°13' E 021°09'588721192823.6
2018-Apr-23 08:00N 32°38' W 117°58'696712540901.9
2018-Apr-23 08:00N 46°57' E 031°60'802577238.3
2018-Apr-23 08:00N 60°06' E 028°03'989222444.0
2018-Apr-23 08:00N 44°44' E 037°47'448616149715.4
2018-Apr-23 08:00N 01°12' E 103°49'78744049592.8
2018-Apr-23 08:00N 37°52' W 122°29'1458524814.5
2018-Apr-23 08:00N 29°33' W 095°02'59463567525.3
2018-Apr-23 08:00N 37°55' E 023°42'50271508021.0
2018-Apr-23 07:59N 01°13' E 103°38'478817237045.3
2018-Apr-23 07:59N 46°50' E 031°57'661595299.6
2018-Apr-23 07:59N 37°46' E 023°27'662297700.5
2018-Apr-23 07:59N 46°50' E 031°57'21664774.7
2018-Apr-23 07:59N 45°20' E 036°40'1449237052.7
2018-Apr-23 07:59N 52°05' E 001°32'53331279977.0
2018-Apr-23 07:58N 37°47' W 122°23'5279826211.2
2018-Apr-23 07:58N 47°43' W 003°21'1437397890.1
2018-Apr-23 07:58N 46°56' E 031°57'643123151518.7
2018-Apr-23 07:58N 46°09' W 123°53'67212199681.0
2018-Apr-23 07:58N 45°22' E 036°41'62901509500.6
2018-Apr-23 07:57S 23°00' W 044°19'6087534482.4
2018-Apr-23 07:57N 59°20' E 018°05'2702895.5
2018-Apr-23 07:51N 54°54' E 019°37'6686046.6
2018-Apr-23 07:44N 46°57' E 031°60'478831111.2
2018-Apr-23 07:35N 38°58' W 076°29'404051946.3
2018-Apr-23 07:31N 54°60' E 019°22'54786573192.9
2018-Apr-23 07:31N 45°33' W 122°42'606010907833.9
2018-Apr-23 07:30N 44°51' E 020°38'490353107.9
2018-Apr-23 07:30N 46°57' E 031°60'613822096758.0
2018-Apr-23 07:30S 23°00' W 044°19'884731848421.2
2018-Apr-23 07:30N 01°13' E 103°48'52699484850.0
2018-Apr-23 07:30N 60°06' E 028°04'62697522336.8
2018-Apr-23 07:30N 32°38' W 118°00'81394883312.1
2018-Apr-23 07:30N 01°18' E 104°01'62823769116.7
2018-Apr-23 07:30N 52°05' E 001°32'15095434146.2
2018-Apr-23 07:30N 44°44' E 037°47'12554517149.8
2018-Apr-23 07:30N 63°13' E 021°09'56852558033.8
2018-Apr-23 07:30N 37°52' W 122°29'1458656018.7
2018-Apr-23 07:30N 29°33' W 095°02'51644647589.7
2018-Apr-23 07:30N 59°20' E 018°05'13042347375.9
2018-Apr-23 07:30N 37°55' E 023°42'1034620525.5
2018-Apr-23 07:30N 54°55' E 019°37'669401537.6
2018-Apr-23 07:29N 46°57' E 031°60'668400848.9
2018-Apr-23 07:29N 37°46' E 023°27'662340227.9
2018-Apr-23 07:29N 46°50' E 031°57'21655522.1
2018-Apr-23 07:29N 45°20' E 036°40'7155735992.5
2018-Apr-23 07:28N 37°47' W 122°23'5279703809.6
2018-Apr-23 07:28N 47°43' W 003°21'1437574730.1
2018-Apr-23 07:28N 46°56' E 031°57'64317717165.7
2018-Apr-23 07:28N 46°09' W 123°53'67213024558.7
2018-Apr-23 07:28N 45°22' E 036°41'8818638.9
2018-Apr-23 07:22N 54°59' E 019°22'6101738.7
2018-Apr-23 07:01N 44°51' E 020°38'1101991337.1
2018-Apr-23 07:00N 63°13' E 021°09'10453760571.6
2018-Apr-23 07:00N 46°57' E 031°60'641923108671.5
2018-Apr-23 07:00N 45°33' W 122°42'66477976876.6
2018-Apr-23 07:00S 27°52' E 153°20'894416099767.3
2018-Apr-23 07:00N 60°06' E 028°04'62664511392.0
2018-Apr-23 07:00N 32°38' W 117°56'81664199890.8
2018-Apr-23 07:00N 01°14' E 103°37'447616113163.1
2018-Apr-23 07:00N 44°44' E 037°47'932559470.3
2018-Apr-23 07:00N 54°56' E 019°37'59684297148.1
2018-Apr-23 07:00N 37°52' W 122°29'1458583127.3
2018-Apr-23 07:00N 29°33' W 095°02'946834084050.9
2018-Apr-23 07:00N 01°16' E 103°57'56516780613.3
2018-Apr-23 07:00N 59°20' E 018°05'13041564917.3
2018-Apr-23 07:00N 37°55' E 023°42'655235651.9
2018-Apr-23 06:59N 46°57' E 031°60'712862.7
2018-Apr-23 06:59N 46°50' E 031°57'47954315575.7
2018-Apr-23 06:59N 01°13' E 103°48'504618163858.2
2018-Apr-23 06:59N 37°46' E 023°27'662476322.4
2018-Apr-23 06:59N 46°50' E 031°57'613222076001.2
2018-Apr-23 06:59S 23°00' W 044°19'62881616968.7
2018-Apr-23 06:59N 45°20' E 036°40'7155715547.8
2018-Apr-23 06:58N 37°47' W 122°23'6865686498.5
2018-Apr-23 06:58N 46°56' E 031°57'64317717165.7
2018-Apr-23 06:58N 46°09' W 123°53'54862821144.5
2018-Apr-23 06:58N 54°58' E 019°22'65940911.8
2018-Apr-23 06:57N 52°05' E 001°32'627022261.7
2018-Apr-23 06:40N 01°17' E 103°46'528134008.3
2018-Apr-23 06:30N 44°51' E 020°38'6072186917.9
2018-Apr-23 06:30N 54°58' E 019°37'671804726.2
2018-Apr-23 06:30N 46°57' E 031°60'10453760592.3
2018-Apr-23 06:30N 63°13' E 021°09'93268393467.4
2018-Apr-23 06:30S 27°52' E 153°20'337712157008.6
2018-Apr-23 06:30N 01°13' E 103°49'933101.6
2018-Apr-23 06:30N 01°12' E 103°40'782614087682.7
2018-Apr-23 06:30N 45°33' W 122°42'807581204.1
2018-Apr-23 06:30N 32°38' W 117°53'54223253287.0
2018-Apr-23 06:30N 52°05' E 001°32'15095433984.0
2018-Apr-23 06:30N 44°44' E 037°47'72362605078.3
2018-Apr-23 06:30N 37°52' W 122°29'1458749735.0
2018-Apr-23 06:30N 29°33' W 095°02'51649295179.4
2018-Apr-23 06:30N 59°20' E 018°05'305183257.9
2018-Apr-23 06:30N 60°07' E 028°03'803262815.2
2018-Apr-23 06:29N 46°57' E 031°60'725725.4
2018-Apr-23 06:29N 46°50' E 031°57'661476236.2
2018-Apr-23 06:29N 37°46' E 023°27'662476319.0
2018-Apr-23 06:29N 46°50' E 031°57'47905747539.5
2018-Apr-23 06:29N 38°58' W 076°29'50481514427.4
2018-Apr-23 06:29N 45°20' E 036°40'880198023.8
2018-Apr-23 06:29N 54°57' E 019°23'5487334794.3
2018-Apr-23 06:28N 46°09' W 123°53'67212688496.6
2018-Apr-23 06:28N 45°22' E 036°41'7155198124.8
2018-Apr-23 06:25N 37°47' W 122°23'6865686497.9
2018-Apr-23 06:25N 46°56' E 031°57'6925319597.7
2018-Apr-23 06:24N 32°40' W 117°07'693148544.2
2018-Apr-23 06:15N 46°46' E 031°57'479542620.5
2018-Apr-23 06:08N 01°16' E 103°52'10441395648.2
2018-Apr-23 06:07N 36°53' W 076°22'442742956.6
2018-Apr-23 06:00N 44°51' E 020°38'490441381.3
2018-Apr-23 06:00N 46°57' E 031°60'804482513.8
2018-Apr-23 06:00N 60°08' E 028°01'55326637993.0
2018-Apr-23 06:00N 45°33' W 122°42'67922445199.4
2018-Apr-23 06:00N 44°44' E 037°47'1255564641.2
2018-Apr-23 06:00N 63°13' E 021°09'52151706759.6
2018-Apr-23 06:00N 29°33' W 095°02'94798531091.5
2018-Apr-23 06:00N 01°18' E 103°43'563920299643.8
2018-Apr-23 06:00N 59°20' E 018°05'901231699.7
2018-Apr-23 05:59N 46°50' E 031°57'47928626055.8
2018-Apr-23 05:59N 01°12' E 103°42'54976596853.2
2018-Apr-23 05:59N 54°59' E 019°38'10453761038.0
2018-Apr-23 05:59N 37°46' E 023°27'662793870.7
2018-Apr-23 05:59N 46°50' E 031°57'21645725.1
2018-Apr-23 05:59N 45°20' E 036°40'45531639252.0
2018-Apr-23 05:59N 01°14' E 103°55'55121044454.7
2018-Apr-23 05:59N 54°57' E 019°25'59613065748.3
2018-Apr-23 05:58N 37°47' W 122°23'6865726880.2
2018-Apr-23 05:58N 46°56' E 031°57'846930489226.4
2018-Apr-23 05:58S 27°52' E 153°20'66164763836.2
2018-Apr-23 05:58N 46°09' W 123°53'77539303374.9
2018-Apr-23 05:58N 01°17' E 103°46'45444089942.9
2018-Apr-23 05:58N 45°22' E 036°41'21518838.7
2018-Apr-23 05:57N 46°46' E 031°57'645116113.0
2018-Apr-23 05:57N 37°55' E 023°42'6923151960.0
2018-Apr-23 05:54N 37°52' W 122°29'38915906.7
2018-Apr-23 05:52N 32°38' W 117°48'8160199825.4
2018-Apr-23 05:50N 01°16' E 103°52'550916949.6
2018-Apr-23 05:30N 54°56' E 019°25'675486028.5
2018-Apr-23 05:30N 46°57' E 031°60'641911554346.4
2018-Apr-23 05:30N 45°33' W 122°42'54876584620.6
2018-Apr-23 05:30N 55°00' E 019°38'934258678.3
2018-Apr-23 05:30N 44°44' E 037°47'44888078307.5
2018-Apr-23 05:30N 01°16' E 103°55'103803.8
2018-Apr-23 05:30N 01°18' E 103°46'787328344563.9
2018-Apr-23 05:30N 37°52' W 122°29'607310931729.7
2018-Apr-23 05:30N 60°08' E 028°01'55473993605.1
2018-Apr-23 05:30N 29°33' W 095°02'516418590365.8
2018-Apr-23 05:30N 59°20' E 018°05'1304586844.3
2018-Apr-23 05:30N 37°55' E 023°42'655261835.4
2018-Apr-23 05:29N 46°57' E 031°60'712862.7
2018-Apr-23 05:29N 46°50' E 031°57'089.0
2018-Apr-23 05:29N 46°50' E 031°57'69602277804.9
2018-Apr-23 05:29N 32°38' W 117°45'72425214405.2
2018-Apr-23 05:29N 45°20' E 036°40'7155757639.4
2018-Apr-23 05:28N 37°47' W 122°23'6865686498.0
2018-Apr-23 05:28N 46°56' E 031°57'846930489197.1
2018-Apr-23 05:28S 27°52' E 153°20'66165954787.1
2018-Apr-23 05:28N 46°09' W 123°53'67213456643.7
2018-Apr-23 05:28N 45°22' E 036°41'74910444.5
2018-Apr-23 05:23N 37°46' E 023°27'5047757076.7
2018-Apr-23 05:23N 01°16' E 103°52'479535961.1
2018-Apr-23 05:15N 46°46' E 031°57'481861730.4
2018-Apr-23 05:10N 37°06' W 075°14'405041181.5
2018-Apr-23 05:04S 23°00' W 044°19'618095899.5
2018-Apr-23 05:01N 45°33' W 122°42'606021815683.0
2018-Apr-23 05:01N 44°51' E 020°38'52814752632.9
2018-Apr-23 05:00N 01°15' E 103°44'47918623478.3
2018-Apr-23 05:00N 46°57' E 031°60'47911077893.7
2018-Apr-23 05:00N 01°18' E 103°46'25462.7
2018-Apr-23 05:00N 01°17' E 103°44'448016126676.8
2018-Apr-23 05:00N 44°44' E 037°47'990274224.4
2018-Apr-23 05:00N 60°08' E 028°04'270486111.4
2018-Apr-23 05:00N 63°13' E 021°09'52156258110.8
2018-Apr-23 05:00N 29°33' W 095°02'51643098390.7
2018-Apr-23 05:00N 59°20' E 018°05'13042347375.9
2018-Apr-23 05:00N 37°55' E 023°42'648194379.5
2018-Apr-23 04:59N 46°50' E 031°57'661595301.9
2018-Apr-23 04:59N 37°46' E 023°27'662396938.4
2018-Apr-23 04:59N 46°50' E 031°57'677812210.8
2018-Apr-23 04:59N 55°02' E 019°39'5967438403.1
2018-Apr-23 04:58N 37°47' W 122°23'2248289019.0
2018-Apr-23 04:58N 37°07' W 075°12'142138527733.3
2018-Apr-23 04:58S 27°52' E 153°20'66163969860.8
2018-Apr-23 04:58N 46°09' W 123°53'67214839264.1
2018-Apr-23 04:58N 45°22' E 036°41'62891257894.7
2018-Apr-23 04:57S 23°00' W 044°19'55121322963.1
2018-Apr-23 04:57N 32°38' W 117°41'69592505148.2
2018-Apr-23 04:57N 46°46' E 031°57'687212369825.9
2018-Apr-23 04:57N 37°52' W 122°29'5959691969.0
2018-Apr-23 04:56N 54°56' E 019°22'5511862518.0
2018-Apr-23 04:56N 01°16' E 103°52'4798250323.2
2018-Apr-23 04:55N 46°56' E 031°57'479749485.3
2018-Apr-23 04:49N 01°15' E 103°50'817126429.0
2018-Apr-23 04:31N 32°38' W 117°38'651111720423.4
2018-Apr-23 04:30N 44°51' E 020°38'4871754359.6
2018-Apr-23 04:30N 46°50' E 031°57'27544972.1
2018-Apr-23 04:30N 44°44' E 037°47'934240277.3
2018-Apr-23 04:30N 55°03' E 019°40'53153826730.8
2018-Apr-23 04:30N 29°33' W 095°02'51644647589.7
2018-Apr-23 04:30N 59°20' E 018°05'1304938950.4
2018-Apr-23 04:30N 37°55' E 023°42'54536543600.9
2018-Apr-23 04:30S 23°00' W 044°19'884631846831.6
2018-Apr-23 04:30N 01°17' E 103°46'47912874385.8
2018-Apr-23 04:29N 46°57' E 031°60'668481022.1
2018-Apr-23 04:29N 37°46' E 023°27'662396935.4
2018-Apr-23 04:29N 46°50' E 031°57'1051236420.7
2018-Apr-23 04:29N 63°13' E 021°09'271122100.7
2018-Apr-23 04:29N 60°08' E 028°07'6079810587.1
2018-Apr-23 04:28N 37°47' W 122°23'6395677124.9
2018-Apr-23 04:28S 27°52' E 153°20'66163402737.8
2018-Apr-23 04:28N 46°09' W 123°53'67214032761.9
2018-Apr-23 04:28N 45°22' E 036°41'21752030.4
2018-Apr-23 04:27N 46°57' E 031°60'239.3
2018-Apr-23 04:25N 46°56' E 031°57'67733839.2
2018-Apr-23 04:24N 54°56' E 019°20'6848702.0
2018-Apr-23 04:19N 46°46' E 031°57'6872399027.2
2018-Apr-23 04:18N 37°52' W 122°29'4074026.7
2018-Apr-23 04:12N 32°40' W 117°07'8199138570.6
2018-Apr-23 04:08N 01°15' E 103°50'2377.2
2018-Apr-23 04:08N 01°16' E 103°52'528742013.7
2018-Apr-23 04:01N 44°51' E 020°38'614184294.5
2018-Apr-23 04:00N 55°05' E 019°42'935258858.1
2018-Apr-23 04:00N 44°44' E 037°47'9881778803.1
2018-Apr-23 04:00N 60°07' E 028°09'60792735738.5
2018-Apr-23 04:00N 37°52' W 122°29'394354454.4
2018-Apr-23 04:00N 32°40' W 117°34'1173844324.5
2018-Apr-23 04:00N 29°33' W 095°02'59463057878.9
2018-Apr-23 04:00N 37°55' E 023°42'655214229.8
2018-Apr-23 03:59N 46°57' E 031°60'47908622866.0
2018-Apr-23 03:59N 01°17' E 103°45'50414536716.0
2018-Apr-23 03:59N 37°46' E 023°27'662595407.6
2018-Apr-23 03:59N 46°50' E 031°57'4784521944.8
2018-Apr-23 03:59N 01°15' E 103°36'47851148338.9
2018-Apr-23 03:59N 46°50' E 031°57'6821228199.8
2018-Apr-23 03:58N 54°56' E 019°18'595710722030.1
2018-Apr-23 03:58N 37°47' W 122°23'6873883620.6
2018-Apr-23 03:58N 46°46' E 031°57'105884.4
2018-Apr-23 03:58N 46°56' E 031°57'846930489203.5
2018-Apr-23 03:58S 27°52' E 153°20'66163969860.8
2018-Apr-23 03:58N 46°09' W 123°53'67216049139.1
2018-Apr-23 03:58N 45°22' E 036°41'21748779.1
2018-Apr-23 03:57N 46°57' E 031°60'89675003.5
2018-Apr-23 03:57N 59°20' E 018°05'564794113.3
2018-Apr-23 03:53N 01°16' E 103°52'885226756.4
2018-Apr-23 03:33S 23°00' W 044°19'88464549329.7
2018-Apr-23 03:33N 01°17' E 103°45'5259121369.4
2018-Apr-23 03:31N 60°06' E 028°10'525618920453.9
2018-Apr-23 03:31N 01°15' E 103°36'52759495138.7
2018-Apr-23 03:30N 44°51' E 020°38'490353105.0
2018-Apr-23 03:30N 46°57' E 031°60'47955753784.9
2018-Apr-23 03:30N 01°14' E 103°48'81799815158.8
2018-Apr-23 03:30N 32°41' W 117°32'60865477787.2
2018-Apr-23 03:30N 55°08' E 019°46'54922824333.7
2018-Apr-23 03:30N 01°17' E 103°45'448016128184.7
2018-Apr-23 03:30N 44°44' E 037°47'63182274504.2
2018-Apr-23 03:30S 23°00' W 044°19'591310643812.6
2018-Apr-23 03:30N 37°52' W 122°29'1458874691.7
2018-Apr-23 03:30N 29°33' W 095°02'51646196786.3
2018-Apr-23 03:30N 59°20' E 018°05'1304670678.8
2018-Apr-23 03:30N 37°55' E 023°42'655261836.4
2018-Apr-23 03:29N 46°57' E 031°60'676486885.7
2018-Apr-23 03:29N 54°56' E 019°22'10443756807.0
2018-Apr-23 03:29N 37°46' E 023°27'662595401.0
2018-Apr-23 03:29N 46°50' E 031°57'47991151845.4
2018-Apr-23 03:29N 01°17' E 103°57'56106731747.5
2018-Apr-23 03:29N 63°13' E 021°09'1051118200.5
2018-Apr-23 03:28N 46°50' E 031°57'68708243746.5
2018-Apr-23 03:28N 37°47' W 122°23'50743439.5
2018-Apr-23 03:28N 46°09' W 123°53'6431137806.5
2018-Apr-23 03:25N 46°56' E 031°57'8469167523.0
2018-Apr-23 03:22S 27°52' E 153°20'8466141100.0
2018-Apr-23 03:18N 46°46' E 031°57'478940950.9
2018-Apr-23 03:11N 01°17' E 103°46'781743630.7
2018-Apr-23 03:01N 45°33' W 122°42'60607271894.3
2018-Apr-23 03:00N 44°51' E 020°38'55873352467.7
2018-Apr-23 03:00S 23°00' W 044°19'883431801695.0
2018-Apr-23 03:00N 01°12' E 103°35'551619856475.1
2018-Apr-23 03:00N 55°13' E 019°10'55294976512.8
2018-Apr-23 03:00N 01°15' E 103°58'56114040190.2
2018-Apr-23 03:00N 63°13' E 021°09'1255376429.1
2018-Apr-23 03:00N 44°44' E 037°47'9331119201.8
2018-Apr-23 03:00N 55°10' E 019°53'397285547.6
2018-Apr-23 03:00N 60°05' E 028°09'55546664460.9
2018-Apr-23 03:00N 29°33' W 095°02'51643718068.9
2018-Apr-23 03:00N 59°20' E 018°05'587810580222.6
2018-Apr-23 03:00N 32°39' W 117°36'608710956423.3
2018-Apr-23 03:00N 54°56' E 019°31'10363728340.2
2018-Apr-23 03:00N 37°55' E 023°42'655235651.9
2018-Apr-23 02:59N 46°57' E 031°60'72328.4
2018-Apr-23 02:59N 46°50' E 031°57'47981727227.0
2018-Apr-23 02:59N 01°15' E 103°53'78742576846.3
2018-Apr-23 02:59N 37°47' W 122°23'68701648750.4
2018-Apr-23 02:59N 46°50' E 031°57'8467635043.5
2018-Apr-23 02:58S 27°52' E 153°20'66162381919.0
2018-Apr-23 02:58N 46°09' W 123°53'64321157745.4
2018-Apr-23 02:57N 46°57' E 031°60'66839426.7
2018-Apr-23 02:56N 37°46' E 023°27'5047216307.5
2018-Apr-23 02:55N 01°16' E 103°52'4795151413.1
2018-Apr-23 02:53N 46°46' E 031°57'10490.1
2018-Apr-23 02:52N 46°56' E 031°57'686320350.2
2018-Apr-23 02:32N 37°48' W 122°22'46524615.1
2018-Apr-23 02:31N 45°33' W 122°42'606010907841.5
2018-Apr-23 02:30N 44°51' E 020°38'52809504636.5
2018-Apr-23 02:30N 01°12' E 103°40'479117246759.3
2018-Apr-23 02:30N 46°57' E 031°60'695612520508.5
2018-Apr-23 02:30N 32°39' W 117°45'815714682228.5
2018-Apr-23 02:30N 01°17' E 103°57'560920193795.2
2018-Apr-23 02:30N 63°13' E 021°09'56846820499.5
2018-Apr-23 02:30N 37°48' W 122°22'60821368446.5
2018-Apr-23 02:30N 60°04' E 028°11'395284227.1
2018-Apr-23 02:30N 55°13' E 019°53'53212128205.5
2018-Apr-23 02:30N 29°33' W 095°02'51643718071.8
2018-Apr-23 02:30N 59°20' E 018°05'244880065.1
2018-Apr-23 02:30N 55°17' E 019°07'697167257.8
2018-Apr-23 02:29N 46°57' E 031°60'668801695.1
2018-Apr-23 02:29N 37°46' E 023°27'543719572282.2
2018-Apr-23 02:29S 23°00' W 044°19'595410716818.1
2018-Apr-23 02:29N 54°53' E 019°37'6722419357.3
2018-Apr-23 02:29N 46°50' E 031°57'47973453626.2
2018-Apr-23 02:29N 01°11' E 103°48'78811576129.4
2018-Apr-23 02:29N 37°47' W 122°23'68701766517.1
2018-Apr-23 02:29N 46°50' E 031°57'6437503746.2
2018-Apr-23 02:28N 46°09' W 123°53'64317717144.3
2018-Apr-23 02:28N 46°56' E 031°57'846915244609.1
2018-Apr-23 02:28S 27°52' E 153°20'3374674895.6
2018-Apr-23 02:28N 01°18' E 103°55'4796189736.6
2018-Apr-23 02:26N 46°46' E 031°57'6872191780.6
2018-Apr-23 02:24N 37°52' W 122°29'645916561.9
2018-Apr-23 02:01N 44°51' E 020°38'955429647.2
2018-Apr-23 02:00N 60°06' E 028°11'526618958172.9
2018-Apr-23 02:00N 01°16' E 103°55'815629363181.6
2018-Apr-23 02:00N 32°39' W 117°48'73222196652.0
2018-Apr-23 02:00N 44°44' E 037°47'926476131.0
2018-Apr-23 02:00N 54°50' E 019°43'54916589060.2
2018-Apr-23 02:00N 01°11' E 103°42'78819457336.4
2018-Apr-23 02:00N 37°52' W 122°29'1458656018.2
2018-Apr-23 02:00N 29°33' W 095°02'16291954500.6
2018-Apr-23 02:00N 45°33' W 122°42'52159387249.6
2018-Apr-23 02:00N 59°20' E 018°05'244879184.4
2018-Apr-23 02:00N 55°18' E 019°10'696179006.7
2018-Apr-23 01:59N 46°57' E 031°60'6681202529.1
2018-Apr-23 01:59N 37°46' E 023°27'662476324.3
2018-Apr-23 01:59N 46°50' E 031°57'4742.3
2018-Apr-23 01:59N 46°46' E 031°57'687312370679.6
2018-Apr-23 01:59N 37°47' W 122°23'24105.4
2018-Apr-23 01:59N 37°49' W 122°22'68671901588.6
2018-Apr-23 01:59N 46°50' E 031°57'6132959793.4
2018-Apr-23 01:58S 23°00' W 044°19'6252833652.5
2018-Apr-23 01:58N 46°09' W 123°53'643123151411.6
2018-Apr-23 01:58N 46°56' E 031°57'846915244605.9
2018-Apr-23 01:58S 27°52' E 153°20'84681051147.6
2018-Apr-23 01:57N 46°57' E 031°60'65551227.5
2018-Apr-23 01:57N 37°55' E 023°42'50394535156.5
2018-Apr-23 01:57N 01°17' E 103°56'549517886.6
2018-Apr-23 01:38N 55°13' E 019°54'28219.2
2018-Apr-23 01:31N 54°45' E 019°47'5952142100.5
2018-Apr-23 01:30N 44°51' E 020°38'490588514.5
2018-Apr-23 01:30N 46°57' E 031°60'480117285220.6
2018-Apr-23 01:30N 01°17' E 103°59'932331.2
2018-Apr-23 01:30N 01°15' E 103°50'81631959165.8
2018-Apr-23 01:30N 32°38' W 117°46'62613219883.7
2018-Apr-23 01:30N 60°07' E 028°09'9881778194.7
2018-Apr-23 01:30N 44°44' E 037°47'64171777022.4
2018-Apr-23 01:30N 29°33' W 095°02'52913174393.8
2018-Apr-23 01:30N 55°14' E 019°11'10551266529.3
2018-Apr-23 01:30N 37°55' E 023°42'1304521639.1
2018-Apr-23 01:29N 59°20' E 018°05'8963225213.5
2018-Apr-23 01:29N 46°57' E 031°60'1045626769.1
2018-Apr-23 01:29N 63°13' E 021°09'10511260911.9
2018-Apr-23 01:29N 46°50' E 031°57'68701177722.4
2018-Apr-23 01:29N 37°47' W 122°23'59692148850.2
2018-Apr-23 01:29N 55°13' E 019°54'597710759054.2
2018-Apr-23 01:29S 23°00' W 044°19'61327358407.0
2018-Apr-23 01:29N 46°50' E 031°57'21623541.4
2018-Apr-23 01:28N 45°22' E 036°41'67211728320.9
2018-Apr-23 01:28N 46°09' W 123°53'643111575716.4
2018-Apr-23 01:28N 46°56' E 031°57'846915244601.7
2018-Apr-23 01:28S 27°52' E 153°20'6393403787.0
2018-Apr-23 01:27N 37°52' W 122°29'6917778208.2
2018-Apr-23 01:26N 37°46' E 023°27'5051133690.2
2018-Apr-23 01:24N 01°14' E 103°54'20785309.0
2018-Apr-23 01:01N 31°34' E 121°20'57502300032.7
2018-Apr-23 01:00N 37°47' W 122°23'645923252772.9
2018-Apr-23 01:00N 44°51' E 020°38'490588513.2
2018-Apr-23 01:00N 46°57' E 031°60'695625042537.9
2018-Apr-23 01:00N 32°37' W 117°43'607310931381.7
2018-Apr-23 01:00N 55°09' E 019°12'54631966651.3
2018-Apr-23 01:00N 45°33' W 122°42'466838349.5
2018-Apr-23 01:00N 37°48' W 122°18'78779452954.1
2018-Apr-23 01:00N 01°14' E 103°55'44903232449.5
2018-Apr-23 01:00N 44°44' E 037°47'72363721540.4
2018-Apr-23 01:00N 37°52' W 122°29'1458656018.2
2018-Apr-23 01:00N 29°33' W 095°02'74222968829.7
2018-Apr-23 01:00N 31°34' E 121°20'46562095269.2
2018-Apr-23 01:00N 54°41' E 019°50'6542353842.8
2018-Apr-23 00:59N 46°57' E 031°60'725587.7
2018-Apr-23 00:59N 46°50' E 031°57'9013244242.2
2018-Apr-23 00:59N 59°20' E 018°05'13111179768.1
2018-Apr-23 00:59N 37°46' E 023°27'66164356.7
2018-Apr-23 00:59N 46°50' E 031°57'64371219596.0
2018-Apr-23 00:58N 46°09' W 123°53'66161401128.6
2018-Apr-23 00:58S 27°52' E 153°20'89425364933.1
2018-Apr-23 00:58N 60°08' E 028°08'803481855.7
2018-Apr-23 00:58N 46°56' E 031°57'4797719597.9
2018-Apr-23 00:58N 01°15' E 103°50'88502896415.5
2018-Apr-23 00:57S 23°00' W 044°19'5977159395.7
2018-Apr-23 00:55N 55°13' E 019°54'105042007.0
2018-Apr-23 00:54N 37°55' E 023°42'5464117095.4
2018-Apr-23 00:51S 23°07' W 044°28'10465202542.2
2018-Apr-23 00:48S 32°33' E 152°29'8611794894.1
2018-Apr-23 00:47N 46°46' E 031°57'21510879.3
2018-Apr-23 00:46N 45°22' E 036°41'6802649.9
2018-Apr-23 00:31N 44°51' E 020°38'11011982674.3
2018-Apr-23 00:30N 63°13' E 021°09'10451253529.3
2018-Apr-23 00:30N 46°57' E 031°60'641923108677.3
2018-Apr-23 00:30N 45°33' W 122°42'618022248656.8
2018-Apr-23 00:30S 23°00' W 044°19'595510718659.9
2018-Apr-23 00:30N 54°38' E 019°57'913193243.4
2018-Apr-23 00:30N 44°44' E 037°47'9881778198.4
2018-Apr-23 00:30N 60°07' E 028°10'4171500650.1
2018-Apr-23 00:30N 55°05' E 019°14'52951466416.0
2018-Apr-23 00:30N 29°33' W 095°02'14465206256.0
2018-Apr-23 00:30N 37°47' W 122°15'507608651.1
2018-Apr-23 00:30N 46°09' W 123°53'8623103795.2
2018-Apr-23 00:30N 32°36' W 117°41'69358321417.3
2018-Apr-23 00:30N 37°55' E 023°42'1304426795.6
2018-Apr-23 00:29N 59°20' E 018°05'9013244242.2
2018-Apr-23 00:29N 46°50' E 031°57'67561.4
2018-Apr-23 00:29N 46°56' E 031°57'21856043.3
2018-Apr-23 00:29N 45°22' E 036°41'21629879.5
2018-Apr-23 00:29N 46°50' E 031°57'687012365628.6
2018-Apr-23 00:29N 37°47' W 122°23'6395469842.1
2018-Apr-23 00:28S 27°52' E 153°20'8705340642.8
2018-Apr-23 00:26N 37°46' E 023°27'6917171742.6
2018-Apr-23 00:24N 37°52' W 122°29'6622335784.3
2018-Apr-23 00:23S 32°34' E 152°27'9410155401.7
2018-Apr-23 00:19N 55°13' E 019°54'6816679.7
2018-Apr-23 00:13N 46°46' E 031°57'479577759.2
2018-Apr-23 00:09N 01°15' E 103°51'528735911.5
2018-Apr-23 00:00N 44°51' E 020°38'11013965348.5
2018-Apr-23 00:00N 63°13' E 021°09'1045940147.0
2018-Apr-23 00:00N 46°57' E 031°60'69565008273.4
2018-Apr-23 00:00N 32°36' W 117°41'8633105547.3
2018-Apr-23 00:00N 46°09' W 123°53'6136711.2
2018-Apr-23 00:00N 45°33' W 122°42'55402492954.2
2018-Apr-23 00:00N 60°06' E 028°11'419502912.1
2018-Apr-23 00:00N 54°39' E 020°05'54804931610.5
2018-Apr-23 00:00N 01°17' E 104°00'55193973733.0
2018-Apr-23 00:00N 55°02' E 019°19'53004770427.5
2018-Apr-23 00:00N 29°33' W 095°02'14461735415.3
2018-Apr-23 00:00N 37°47' W 122°15'787928364665.5
2018-Apr-23 00:00N 01°15' E 103°55'50403628798.8
2018-Apr-23 00:00N 37°55' E 023°42'10503781090.9
2018-Apr-23 00:00N 55°13' E 019°54'678271356.7
2018-Apr-22 23:59N 46°50' E 031°57'725612.1
2018-Apr-22 23:59N 46°57' E 031°60'8963225220.8
2018-Apr-22 23:59N 59°20' E 018°05'8963224391.3
2018-Apr-22 23:59N 46°56' E 031°57'667799974.8
2018-Apr-22 23:59N 37°46' E 023°27'88073522959.1
2018-Apr-22 23:59S 32°35' E 152°25'104571981401.7
2018-Apr-22 23:59S 23°00' W 044°19'61322006838.3
2018-Apr-22 23:59N 46°50' E 031°57'21633776.8
2018-Apr-22 23:58N 45°22' E 036°41'81951180104.1
2018-Apr-22 23:58S 27°52' E 153°20'6393306878.1
2018-Apr-22 23:57N 37°52' W 122°29'6872247396.7
2018-Apr-22 23:55N 46°46' E 031°57'691719889.3
2018-Apr-22 23:34N 33°59' W 118°27'72111857.3
2018-Apr-22 23:31N 45°33' W 122°42'606021815686.8
2018-Apr-22 23:30N 44°51' E 020°38'490353107.9
2018-Apr-22 23:30N 46°57' E 031°60'64323859140.7
2018-Apr-22 23:30N 46°09' W 123°53'859441794.4
2018-Apr-22 23:30N 32°38' W 117°49'62662819568.4
2018-Apr-22 23:30N 60°05' E 028°10'55541249656.9
2018-Apr-22 23:30N 29°33' W 095°02'77159257922.5
2018-Apr-22 23:30S 32°37' E 152°23'95264899026.1
2018-Apr-22 23:30N 63°13' E 021°09'1051540390.2
2018-Apr-22 23:30N 46°50' E 031°57'712795.6
2018-Apr-22 23:29N 46°57' E 031°60'8963225213.5
2018-Apr-22 23:29N 59°20' E 018°05'13114719072.6
2018-Apr-22 23:29N 37°46' E 023°27'6672399924.4
2018-Apr-22 23:29N 46°56' E 031°57'21843589.3
2018-Apr-22 23:29N 45°22' E 036°41'21635312.5
2018-Apr-22 23:29N 46°50' E 031°57'687012365619.7
2018-Apr-22 23:29N 37°47' W 122°23'61625.4
2018-Apr-22 23:28N 37°47' W 122°15'5951793472.8
2018-Apr-22 23:28N 54°57' E 019°19'59462378326.1
2018-Apr-22 23:28S 23°00' W 044°19'1071338566787.9
2018-Apr-22 23:28S 27°52' E 153°20'6458516651.2
2018-Apr-22 23:27N 33°59' W 118°27'6909857704.1
2018-Apr-22 23:27N 37°55' E 023°42'64523940.7
2018-Apr-22 23:25N 46°46' E 031°57'479711747.6
2018-Apr-22 23:01N 01°13' E 103°51'52899519620.3
2018-Apr-22 23:00N 44°51' E 020°38'11011321782.8
2018-Apr-22 23:00N 63°13' E 021°09'10451880296.2
2018-Apr-22 23:00N 46°57' E 031°60'64192567632.5
2018-Apr-22 23:00N 45°33' W 122°42'55389968725.8
2018-Apr-22 23:00N 60°07' E 028°09'62647517062.3
2018-Apr-22 23:00N 32°38' W 117°48'73242396936.6
2018-Apr-22 23:00N 44°44' E 037°47'64172566812.0
2018-Apr-22 23:00N 29°33' W 095°02'77185556876.3
2018-Apr-22 23:00S 32°38' E 152°20'87954523215.5
2018-Apr-22 23:00N 37°55' E 023°42'648259216.1
2018-Apr-22 22:59N 46°50' E 031°57'725605.2
2018-Apr-22 22:59N 46°57' E 031°60'668481018.7
2018-Apr-22 22:59N 37°46' E 023°27'69031656770.6
2018-Apr-22 22:59N 33°58' W 118°27'69151082328.1
2018-Apr-22 22:59N 46°50' E 031°57'687012365618.0
2018-Apr-22 22:59N 37°47' W 122°23'50762913.8
2018-Apr-22 22:58N 46°09' W 123°53'7742696784.5
2018-Apr-22 22:58N 01°16' E 103°60'4804250630.5
2018-Apr-22 22:56N 46°56' E 031°57'8469112092.6
2018-Apr-22 22:52S 27°52' E 153°20'6393319664.6
2018-Apr-22 22:51N 37°52' W 122°29'715461030.4
2018-Apr-22 22:44N 45°22' E 036°41'87413222.3
2018-Apr-22 22:40N 54°53' E 019°29'548735916.8
2018-Apr-22 22:31N 45°33' W 122°42'606021815667.8
2018-Apr-22 22:31N 44°51' E 020°38'528719032597.1
2018-Apr-22 22:30N 01°12' E 103°48'56086730028.3
2018-Apr-22 22:30N 63°13' E 021°09'10451880296.2
2018-Apr-22 22:30N 46°57' E 031°60'86093873899.3
2018-Apr-22 22:30S 32°40' E 152°17'667112006952.7
2018-Apr-22 22:30N 32°37' W 117°43'626022536287.1
2018-Apr-22 22:30N 60°07' E 028°08'61965576484.7
2018-Apr-22 22:30N 33°58' W 118°29'295353424.5
2018-Apr-22 22:30N 37°48' W 122°17'723113015577.8
2018-Apr-22 22:30N 44°44' E 037°47'64171358900.5
2018-Apr-22 22:30N 29°33' W 095°02'60771215386.0
2018-Apr-22 22:29N 46°50' E 031°57'65671.1
2018-Apr-22 22:29N 46°56' E 031°57'613622089721.4
2018-Apr-22 22:29S 23°00' W 044°19'543719572313.8
2018-Apr-22 22:29N 37°46' E 023°27'66162662.7
2018-Apr-22 22:29N 46°50' E 031°57'687012365628.6
2018-Apr-22 22:29N 37°47' W 122°23'63951534818.4
2018-Apr-22 22:28S 27°52' E 153°20'661623819235.2
2018-Apr-22 22:28N 46°09' W 123°53'6440927378.1
2018-Apr-22 22:28N 46°46' E 031°57'21533584.5
2018-Apr-22 22:28N 45°22' E 036°41'73446353.3
2018-Apr-22 22:27N 37°55' E 023°42'103111601.3
2018-Apr-22 22:21N 54°51' E 019°33'596936857.3
2018-Apr-22 22:12N 37°52' W 122°29'645934654.1
2018-Apr-22 22:00N 44°51' E 020°38'11011982674.3
2018-Apr-22 22:00N 63°13' E 021°09'513718492977.5
2018-Apr-22 22:00N 45°33' W 122°42'641923108698.6
2018-Apr-22 22:00N 46°57' E 031°60'86083873380.3
2018-Apr-22 22:00S 32°41' E 152°15'667612016211.0
2018-Apr-22 22:00N 32°36' W 117°40'625822528239.7
2018-Apr-22 22:00N 60°08' E 028°07'527218980575.9
2018-Apr-22 22:00N 01°16' E 103°59'786314153597.3
2018-Apr-22 22:00N 37°52' W 122°28'72353721092.6
2018-Apr-22 22:00N 44°44' E 037°47'64171777023.7
2018-Apr-22 22:00N 29°33' W 095°02'59461945922.9
2018-Apr-22 22:00N 37°55' E 023°42'648233295.3
2018-Apr-22 21:59N 46°50' E 031°57'725591.2
2018-Apr-22 21:59N 46°57' E 031°60'23002.9
2018-Apr-22 21:59N 46°56' E 031°57'667799980.5
2018-Apr-22 21:59N 37°46' E 023°27'50451135056.3
2018-Apr-22 21:59N 01°14' E 103°47'4794784514.0
2018-Apr-22 21:59N 46°50' E 031°57'687024731273.2
2018-Apr-22 21:59N 37°47' W 122°23'59061328880.1
2018-Apr-22 21:58S 23°00' W 044°19'625211254258.8
2018-Apr-22 21:58N 46°09' W 123°53'6721514820.1
2018-Apr-22 21:58N 45°22' E 036°41'81954917092.8
2018-Apr-22 21:58S 27°52' E 153°20'846659760.1
2018-Apr-22 21:49N 46°46' E 031°57'6866211255.9
2018-Apr-22 21:47N 37°50' W 122°19'3185875.4
2018-Apr-22 21:44N 33°35' W 118°24'649829131.7
2018-Apr-22 21:30N 44°51' E 020°38'11011982674.2
2018-Apr-22 21:30N 63°13' E 021°09'10451880294.0
2018-Apr-22 21:30N 46°57' E 031°60'69303564205.3
2018-Apr-22 21:30N 33°37' W 118°25'667924043146.5
2018-Apr-22 21:30S 32°42' E 152°12'912610951661.7
2018-Apr-22 21:30N 60°07' E 028°10'626422550243.5
2018-Apr-22 21:30N 32°34' W 117°42'73233295154.4
2018-Apr-22 21:30N 44°44' E 037°47'64171358900.5
2018-Apr-22 21:30N 29°33' W 095°02'59463057878.9
2018-Apr-22 21:30N 37°55' E 023°42'655214229.8
2018-Apr-22 21:29N 46°57' E 031°60'668481020.5
2018-Apr-22 21:29N 37°46' E 023°27'69142262800.5
2018-Apr-22 21:29N 37°52' W 122°25'66683.9
2018-Apr-22 21:29N 37°50' W 122°19'78721288222.0
2018-Apr-22 21:29N 01°16' E 103°58'48018641674.1
2018-Apr-22 21:29N 46°50' E 031°57'687012365636.6
2018-Apr-22 21:29N 37°47' W 122°23'71551430908.5
2018-Apr-22 21:28N 45°22' E 036°41'67211728323.5
2018-Apr-22 21:28N 46°09' W 123°53'507202656.6
2018-Apr-22 21:28N 37°48' W 122°17'59011416342.6
2018-Apr-22 21:28S 23°00' W 044°19'107133506082.9
2018-Apr-22 21:28S 27°52' E 153°20'143902252346.3
2018-Apr-22 21:27N 33°48' W 078°45'5124409946.2
2018-Apr-22 21:26N 46°50' E 031°57'611342.3
2018-Apr-22 21:26N 46°56' E 031°57'10415.4
2018-Apr-22 21:25N 46°46' E 031°57'64271156879.6
2018-Apr-22 21:25N 45°33' W 122°42'8152020.4
2018-Apr-22 21:01N 32°32' W 117°43'652123476312.5
2018-Apr-22 21:00N 44°51' E 020°38'11013965348.3
2018-Apr-22 21:00N 63°13' E 021°09'51372641850.2
2018-Apr-22 21:00N 45°33' W 122°42'691624896831.6
2018-Apr-22 21:00S 32°43' E 152°09'66455980452.3
2018-Apr-22 21:00N 37°52' W 122°25'82904.9
2018-Apr-22 21:00N 37°48' W 122°17'72313718730.2
2018-Apr-22 21:00N 44°44' E 037°47'64171925107.6
2018-Apr-22 21:00N 29°33' W 095°02'59463057881.4
2018-Apr-22 21:00N 37°55' E 023°42'648233293.6
2018-Apr-22 21:00N 46°50' E 031°57'712806.1
2018-Apr-22 20:59N 46°57' E 031°60'8963225220.8
2018-Apr-22 20:59N 59°20' E 018°05'13111179768.1
2018-Apr-22 20:59N 37°46' E 023°27'69101463353.9
2018-Apr-22 20:59N 37°50' W 122°19'68631235340.8
2018-Apr-22 20:59N 46°50' E 031°57'68708243752.4
2018-Apr-22 20:59N 37°47' W 122°23'50757016.3
2018-Apr-22 20:58N 46°09' W 123°53'22037932526.9
2018-Apr-22 20:58N 33°48' W 078°45'106275465568.7
2018-Apr-22 20:58N 01°15' E 103°50'5264653419.4
2018-Apr-22 20:58N 60°06' E 028°11'893910726243.0
2018-Apr-22 20:58S 27°52' E 153°20'84685080554.7
2018-Apr-22 20:57N 46°57' E 031°60'2100.5
2018-Apr-22 20:56N 46°56' E 031°57'21812863.0
2018-Apr-22 20:55N 45°22' E 036°41'271735317.0
2018-Apr-22 20:51N 27°56' W 015°25'531215712.3
2018-Apr-22 20:31N 32°29' W 117°43'652311741606.9
2018-Apr-22 20:30N 44°51' E 020°38'490353105.0
2018-Apr-22 20:30N 46°57' E 031°60'686424709119.7
2018-Apr-22 20:30N 37°52' W 122°27'54203902153.0
2018-Apr-22 20:30N 28°08' W 015°22'26811930548.4
2018-Apr-22 20:30N 60°05' E 028°10'46565586990.9
2018-Apr-22 20:30N 33°48' W 078°45'21343841520.1
2018-Apr-22 20:30N 37°50' W 122°20'72318677785.2
2018-Apr-22 20:30N 44°44' E 037°47'723113015731.8
2018-Apr-22 20:30N 37°48' W 122°17'59871959477.7
2018-Apr-22 20:30N 54°39' E 019°52'53324799026.6
2018-Apr-22 20:30N 29°33' W 095°02'59462675644.0
2018-Apr-22 20:30N 37°55' E 023°42'660823789371.7
2018-Apr-22 20:30N 46°13' W 124°14'64422576904.0
2018-Apr-22 20:30N 46°57' E 031°60'8961075075.1
2018-Apr-22 20:29N 59°20' E 018°05'13111573024.2
2018-Apr-22 20:29N 37°46' E 023°27'50412016391.8
2018-Apr-22 20:29N 01°17' E 103°46'4790594649.6
2018-Apr-22 20:29N 46°50' E 031°57'687012365620.7
2018-Apr-22 20:29N 37°47' W 122°23'63952877780.9
2018-Apr-22 20:29S 27°52' E 153°20'81952682052.3
2018-Apr-22 20:28N 45°22' E 036°41'4550682428.2
2018-Apr-22 20:28N 01°15' E 103°50'4797183727.3
2018-Apr-22 20:26N 46°56' E 031°57'487447940.4
2018-Apr-22 20:20N 36°53' W 076°22'2155456410.5
2018-Apr-22 20:20N 45°33' W 122°42'520740838.5
2018-Apr-22 20:12N 27°59' W 016°37'520626249.4
2018-Apr-22 20:01N 45°30' W 122°40'606110909552.8
2018-Apr-22 20:00N 44°51' E 020°38'490353105.0
2018-Apr-22 20:00N 46°57' E 031°60'25609214888.2
2018-Apr-22 20:00N 28°14' W 016°24'536619315873.3
2018-Apr-22 20:00N 37°51' W 122°28'4621662671.1
2018-Apr-22 20:00N 45°33' W 122°42'52629471426.1
2018-Apr-22 20:00N 28°06' W 015°20'53103823122.5
2018-Apr-22 20:00N 32°28' W 117°41'394709176.0
2018-Apr-22 20:00N 37°48' W 122°21'21343840436.3
2018-Apr-22 20:00N 33°46' W 078°48'54572806248.4
2018-Apr-22 20:00N 44°44' E 037°47'64171443830.7
2018-Apr-22 20:00N 29°33' W 095°02'16913043644.5
2018-Apr-22 20:00N 46°09' W 123°53'55409971162.2
2018-Apr-22 20:00N 60°05' E 028°11'13421207428.5
2018-Apr-22 20:00N 37°55' E 023°42'648466589.0
2018-Apr-22 20:00N 46°50' E 031°57'64541.2
2018-Apr-22 19:59N 46°56' E 031°57'25986.1
2018-Apr-22 19:59N 46°57' E 031°60'8963225199.1
2018-Apr-22 19:59N 59°20' E 018°05'24922439.8
2018-Apr-22 19:59N 63°13' E 021°09'10513782461.9
2018-Apr-22 19:59N 46°50' E 031°57'68708243763.7
2018-Apr-22 19:59N 37°47' W 122°23'63957674082.3
2018-Apr-22 19:59S 27°52' E 153°20'81952269430.9
2018-Apr-22 19:58N 45°22' E 036°41'4550606603.7
2018-Apr-22 19:58N 01°15' E 103°50'78761012619.2
2018-Apr-22 19:58N 37°49' W 122°23'6915360783.3
2018-Apr-22 19:56N 37°46' E 023°27'656815235.6
2018-Apr-22 19:31N 45°33' W 122°42'606010907841.5
2018-Apr-22 19:30N 44°51' E 020°38'20067222142.4
2018-Apr-22 19:30N 28°04' W 015°19'25213024684.7
2018-Apr-22 19:30N 46°57' E 031°60'696325067265.8
2018-Apr-22 19:30N 32°30' W 117°43'394354389.3
2018-Apr-22 19:30N 37°49' W 122°26'78697082241.2
2018-Apr-22 19:30N 01°16' E 103°54'106374786767.4
2018-Apr-22 19:30N 33°45' W 078°51'54602807931.3
2018-Apr-22 19:30N 44°44' E 037°47'64171925108.0
2018-Apr-22 19:30N 29°33' W 095°02'16911217457.8
2018-Apr-22 19:30N 46°09' W 123°53'65963957501.6
2018-Apr-22 19:30N 37°55' E 023°42'648333277.9
2018-Apr-22 19:30N 46°50' E 031°57'78536.2
2018-Apr-22 19:29N 46°57' E 031°60'8963225213.5
2018-Apr-22 19:29N 59°20' E 018°05'13111179768.1
2018-Apr-22 19:29N 37°46' E 023°27'1352442484.5
2018-Apr-22 19:29N 60°06' E 028°09'27470353.2
2018-Apr-22 19:29N 63°13' E 021°09'1051343858.3
2018-Apr-22 19:29N 46°50' E 031°57'687012365636.6
2018-Apr-22 19:29N 37°47' W 122°23'63952302224.7
2018-Apr-22 19:29S 27°52' E 153°20'81953278070.9
2018-Apr-22 19:28N 45°22' E 036°41'7154830798.7
2018-Apr-22 19:28N 37°52' W 122°29'572950055.4
2018-Apr-22 19:21N 41°09' E 001°11'106616327.8
2018-Apr-22 19:17N 58°27' W 005°03'4934208979.7
2018-Apr-22 19:16N 33°45' W 118°11'6911327369.4
2018-Apr-22 19:14N 46°56' E 031°57'6254105702.9
2018-Apr-22 19:11N 50°02' W 125°15'626498045.9
2018-Apr-22 19:07N 46°46' E 031°57'451757257.2
2018-Apr-22 19:02N 41°16' W 072°28'3988129333.0
2018-Apr-22 19:00N 60°07' E 028°09'272980908.5
2018-Apr-22 19:00N 63°13' E 021°09'58166979376.7
2018-Apr-22 19:00N 33°45' W 118°11'691224884389.2
2018-Apr-22 19:00N 46°57' E 031°60'686724722863.5
2018-Apr-22 19:00N 37°49' W 122°27'2135548897.0
2018-Apr-22 19:00N 33°44' W 078°54'32462336810.4
2018-Apr-22 19:00N 28°04' W 016°12'279210052678.9
2018-Apr-22 19:00N 44°44' E 037°47'72396514673.6
2018-Apr-22 19:00N 37°49' W 122°29'1457437199.2
2018-Apr-22 19:00N 29°33' W 095°02'16911521822.2
2018-Apr-22 19:00N 46°09' W 123°53'65965936256.4
2018-Apr-22 19:00N 37°55' E 023°42'648583238.3
2018-Apr-22 19:00N 46°50' E 031°57'63780.7
2018-Apr-22 18:59N 46°56' E 031°57'25999.8
2018-Apr-22 18:59N 46°57' E 031°60'8963225206.3
2018-Apr-22 18:59N 59°20' E 018°05'13111179768.1
2018-Apr-22 18:59N 37°46' E 023°27'1687202382.2
2018-Apr-22 18:59N 58°27' W 005°03'1517910032.6
2018-Apr-22 18:59N 46°50' E 031°57'48012880331.3
2018-Apr-22 18:59N 01°18' E 104°00'33712426886.2
2018-Apr-22 18:59S 27°52' E 153°20'6647629758.3
2018-Apr-22 18:58N 45°31' W 122°40'459550840.4
2018-Apr-22 18:58N 37°52' W 122°29'232285308.9
2018-Apr-22 18:56N 41°16' W 072°28'2320245611.3
2018-Apr-22 18:56N 37°47' W 122°23'71551609768.9
2018-Apr-22 18:55N 45°22' E 036°41'21533581.7
2018-Apr-22 18:55N 46°46' E 031°57'137344529.0
2018-Apr-22 18:53N 41°04' E 001°11'534050853.2
2018-Apr-22 18:47N 50°02' W 125°15'267636484.9
2018-Apr-22 18:43N 26°32' W 076°58'355949860.2
2018-Apr-22 18:38S 23°00' W 044°19'635349291.0
2018-Apr-22 18:31N 63°13' E 021°09'11013965348.5
2018-Apr-22 18:30N 44°51' E 020°38'65327837920.3
2018-Apr-22 18:30N 32°34' W 117°58'10961972422.2
2018-Apr-22 18:30N 49°60' W 125°12'53071736721.3
2018-Apr-22 18:30N 60°06' E 028°11'620911175672.8
2018-Apr-22 18:30N 33°41' W 118°14'19613530062.1
2018-Apr-22 18:30N 33°42' W 078°57'54671789057.4
2018-Apr-22 18:30N 44°44' E 037°47'48431743425.6
2018-Apr-22 18:30N 41°16' W 072°29'13082353915.6
2018-Apr-22 18:30N 29°33' W 095°02'16912029099.7
2018-Apr-22 18:30N 46°09' W 123°53'65965936248.1
2018-Apr-22 18:30N 37°55' E 023°42'648388827.0
2018-Apr-22 18:30N 46°50' E 031°57'75118.2
2018-Apr-22 18:29N 46°57' E 031°60'48011571322.7
2018-Apr-22 18:29N 01°18' E 104°01'78613537371.1
2018-Apr-22 18:29N 37°49' W 122°28'68721124427.6
2018-Apr-22 18:29N 46°50' E 031°57'68706182809.9
2018-Apr-22 18:29N 37°47' W 122°23'63952877780.9
2018-Apr-22 18:29S 27°52' E 153°20'105296317134.4
2018-Apr-22 18:28N 58°27' W 005°03'5378645378.3
2018-Apr-22 18:28S 23°00' W 044°19'62907547486.1
2018-Apr-22 18:28N 45°22' E 036°41'15651878001.5
2018-Apr-22 18:28N 41°07' E 001°21'4000720036.9
2018-Apr-22 18:28N 26°32' W 076°58'5378307316.1
2018-Apr-22 18:27N 46°56' E 031°57'667342846.3
2018-Apr-22 18:26N 37°46' E 023°27'6917282985.0
2018-Apr-22 18:25N 37°52' W 122°29'687234795.6
2018-Apr-22 18:13N 46°46' E 031°57'6594954.4
2018-Apr-22 18:05N 54°39' E 019°51'599178431.6
2018-Apr-22 18:01N 37°49' W 122°26'646023254430.9
2018-Apr-22 18:00N 44°51' E 020°38'653723532875.3
2018-Apr-22 18:00N 32°36' W 118°08'10913927152.2
2018-Apr-22 18:00N 49°59' W 125°12'489817631962.7
2018-Apr-22 18:00N 63°13' E 021°09'10453760592.3
2018-Apr-22 18:00N 46°57' E 031°60'8001439510.8
2018-Apr-22 18:00N 60°05' E 028°11'1531551025.5
2018-Apr-22 18:00N 41°08' E 001°16'99638966990.6
2018-Apr-22 18:00S 27°52' E 153°20'33726069197.7
2018-Apr-22 18:00N 01°16' E 103°57'44905387735.3
2018-Apr-22 18:00N 44°44' E 037°47'48452180351.2
2018-Apr-22 18:00N 41°14' W 072°30'37974556718.1
2018-Apr-22 18:00N 54°40' E 019°50'53303198174.1
2018-Apr-22 18:00N 29°33' W 095°02'16911217459.8
2018-Apr-22 18:00N 46°09' W 123°53'65967914997.5
2018-Apr-22 18:00N 37°55' E 023°42'691812452793.6
2018-Apr-22 18:00N 33°37' W 118°18'19637066280.1
2018-Apr-22 18:00N 33°41' W 078°60'514118506638.7
2018-Apr-22 18:00N 46°50' E 031°57'901648848.4
2018-Apr-22 18:00N 59°20' E 018°05'8963225213.5
2018-Apr-22 17:59N 46°57' E 031°60'26013.6
2018-Apr-22 17:59N 46°56' E 031°57'6671199962.2
2018-Apr-22 17:59N 37°46' E 023°27'6918830131.0
2018-Apr-22 17:59N 37°49' W 122°27'68703091592.8
2018-Apr-22 17:59N 46°50' E 031°57'6132735840.2
2018-Apr-22 17:58S 23°00' W 044°19'53781489333.0
2018-Apr-22 17:58N 58°27' W 005°03'1733623814.6
2018-Apr-22 17:58N 45°22' E 036°41'7154143881.7
2018-Apr-22 17:55N 37°52' W 122°29'687270483.5
2018-Apr-22 17:49N 46°46' E 031°57'4871571.2
2018-Apr-22 17:31N 44°51' E 020°38'645523239309.5
2018-Apr-22 17:30N 37°51' W 122°23'68628234441.1
2018-Apr-22 17:30N 46°57' E 031°60'8001439164.5
2018-Apr-22 17:30N 60°04' E 028°08'553919941299.0
2018-Apr-22 17:30N 45°33' W 122°42'807484397.9
2018-Apr-22 17:30N 32°36' W 117°58'64383310776.6
2018-Apr-22 17:30S 27°52' E 153°20'81254178339.0
2018-Apr-22 17:30N 44°44' E 037°47'570220526154.0
2018-Apr-22 17:30N 26°34' W 077°00'4401583114.1
2018-Apr-22 17:30N 33°41' W 079°03'548328905.2
2018-Apr-22 17:30N 41°14' W 072°34'379413660147.4
2018-Apr-22 17:30N 54°43' E 019°44'60815472639.6
2018-Apr-22 17:30N 33°34' W 118°22'12171460578.9
2018-Apr-22 17:30N 29°33' W 095°02'59463567527.7
2018-Apr-22 17:30N 37°55' E 023°42'648333280.3
2018-Apr-22 17:30N 46°50' E 031°57'74261.1
2018-Apr-22 17:29N 46°57' E 031°60'8963225232.6
2018-Apr-22 17:29N 59°20' E 018°05'1311943814.5
2018-Apr-22 17:29N 37°46' E 023°27'1529220173.8
2018-Apr-22 17:29N 63°13' E 021°09'1051420270.7
2018-Apr-22 17:29N 46°50' E 031°57'480017279680.7
2018-Apr-22 17:29N 01°17' E 103°58'88581099576.7
2018-Apr-22 17:28S 23°00' W 044°19'62901029203.6
2018-Apr-22 17:28N 45°22' E 036°41'715425754809.0
2018-Apr-22 17:28N 37°52' W 122°29'6864284048.1
2018-Apr-22 17:26N 46°56' E 031°57'10425.1
2018-Apr-22 17:25N 46°46' E 031°57'626436967.9
2018-Apr-22 17:15N 50°02' W 125°15'548585848.1
2018-Apr-22 17:11N 39°33' E 002°43'1401280272.6
2018-Apr-22 17:11N 62°44' E 007°09'5065502.7
2018-Apr-22 17:05N 55°17' E 014°48'575372411.3
2018-Apr-22 17:01N 37°51' W 122°19'645323229058.2
2018-Apr-22 17:00N 44°51' E 020°38'650423415171.9
2018-Apr-22 17:00N 33°30' W 118°26'583921022084.6
2018-Apr-22 17:00N 63°12' E 021°02'509915300.2
2018-Apr-22 17:00N 54°46' E 019°37'6632385694.2
2018-Apr-22 17:00N 46°57' E 031°60'7971435051.8
2018-Apr-22 17:00N 60°02' E 028°08'62652050379.9
2018-Apr-22 17:00N 32°38' W 117°48'644723207923.4
2018-Apr-22 17:00S 27°52' E 153°20'1420317043498.2
2018-Apr-22 17:00N 26°35' W 077°03'45044053235.0
2018-Apr-22 17:00N 55°17' E 014°46'10901962515.3
2018-Apr-22 17:00N 44°44' E 037°47'64171925107.6
2018-Apr-22 17:00N 29°33' W 095°02'60771458463.2
2018-Apr-22 17:00N 46°50' E 031°57'64541.2
2018-Apr-22 16:59N 46°56' E 031°57'26005.8
2018-Apr-22 16:59N 46°57' E 031°60'8963225213.5
2018-Apr-22 16:59N 59°20' E 018°05'13111179768.1
2018-Apr-22 16:59N 37°46' E 023°27'1623389548.1
2018-Apr-22 16:59N 62°44' E 007°09'61532461053.6
2018-Apr-22 16:59N 01°17' E 103°57'48001570776.7
2018-Apr-22 16:59N 46°50' E 031°57'6132735840.7
2018-Apr-22 16:58S 23°00' W 044°19'5453198290.8
2018-Apr-22 16:57N 37°55' E 023°42'6455115.1
2018-Apr-22 16:49N 46°46' E 031°57'21585828.6
2018-Apr-22 16:49N 45°22' E 036°41'670884139.7
2018-Apr-22 16:44N 45°33' W 122°42'46122758.5
2018-Apr-22 16:43N 37°52' W 122°29'599632707.5
2018-Apr-22 16:32N 54°38' E 019°59'58724307.3
2018-Apr-22 16:30N 44°51' E 020°38'490353107.9
2018-Apr-22 16:30N 46°57' E 031°60'7932853143.6
2018-Apr-22 16:30N 59°57' E 028°09'517620962.7
2018-Apr-22 16:30N 55°14' E 014°40'587821162311.8
2018-Apr-22 16:30N 32°39' W 117°45'535919291309.4
2018-Apr-22 16:30N 62°42' E 007°10'3751351566.7
2018-Apr-22 16:30N 63°15' E 020°54'93384202219.5
2018-Apr-22 16:30S 27°52' E 153°20'1440851869834.9
2018-Apr-22 16:30N 33°37' W 079°06'21401925827.7
2018-Apr-22 16:30N 45°33' W 122°42'679224451991.1
2018-Apr-22 16:30N 44°44' E 037°47'631811372499.0
2018-Apr-22 16:30S 23°00' W 044°19'43791126061.8
2018-Apr-22 16:30N 29°33' W 095°02'59462675644.0
2018-Apr-22 16:30N 37°55' E 023°42'10151827537.6
2018-Apr-22 16:30N 54°38' E 019°59'653783313.7
2018-Apr-22 16:30N 46°50' E 031°57'64536.9
2018-Apr-22 16:29N 46°56' E 031°57'26013.6
2018-Apr-22 16:29N 46°57' E 031°60'668400848.9
2018-Apr-22 16:29N 37°46' E 023°27'1034372116.4
2018-Apr-22 16:29N 54°47' E 019°34'669109522.6
2018-Apr-22 16:29N 46°50' E 031°57'6869449627.7
2018-Apr-22 16:28N 37°52' W 122°29'502138888.0
2018-Apr-22 16:28N 46°09' W 123°53'6440149577.3
2018-Apr-22 16:25N 46°46' E 031°57'21577248.1
2018-Apr-22 16:25N 45°22' E 036°41'16414738.5
2018-Apr-22 16:04N 47°33' W 002°54'99116136.8
2018-Apr-22 16:00N 44°51' E 020°38'11011981938.0
2018-Apr-22 16:00N 63°12' E 021°01'587310571102.7
2018-Apr-22 16:00N 32°38' W 117°43'695625040437.8
2018-Apr-22 16:00N 46°57' E 031°60'7882835155.3
2018-Apr-22 16:00N 59°53' E 028°11'55529992886.9
2018-Apr-22 16:00N 45°33' W 122°42'618011124330.2
2018-Apr-22 16:00S 23°00' W 044°19'1071338566922.5
2018-Apr-22 16:00S 27°52' E 153°20'64011536152.4
2018-Apr-22 16:00N 37°50' W 122°19'723026027539.4
2018-Apr-22 16:00N 44°44' E 037°47'64171777023.7
2018-Apr-22 16:00N 29°33' W 095°02'59462140515.2
2018-Apr-22 16:00N 37°55' E 023°42'648583240.6
2018-Apr-22 16:00N 46°50' E 031°57'64541.2
2018-Apr-22 16:00N 46°56' E 031°57'22985.2
2018-Apr-22 15:59N 46°57' E 031°60'8963225225.4
2018-Apr-22 15:59N 59°20' E 018°05'13111179768.1
2018-Apr-22 15:59N 37°46' E 023°27'50051001017.6
2018-Apr-22 15:59N 33°35' W 079°06'51501158855.1
2018-Apr-22 15:59N 46°50' E 031°57'1421142148.3
2018-Apr-22 15:58N 47°33' W 002°54'1641369306.1
2018-Apr-22 15:58N 45°22' E 036°41'869521448.1
2018-Apr-22 15:58N 54°48' E 019°33'55012200512.5
2018-Apr-22 15:58N 46°09' W 123°53'77505580207.2
2018-Apr-22 15:58N 01°15' E 103°50'548742845.5
2018-Apr-22 15:50N 54°40' E 019°48'6619794.3
2018-Apr-22 15:46N 46°46' E 031°57'642725095.5
2018-Apr-22 15:31N 45°33' W 122°42'606010907833.9
2018-Apr-22 15:30N 44°51' E 020°38'11013965348.5
2018-Apr-22 15:30N 63°13' E 021°09'10451253529.3
2018-Apr-22 15:30N 46°57' E 031°60'783939093.0
2018-Apr-22 15:30N 59°48' E 028°14'1329598196.4
2018-Apr-22 15:30N 47°32' W 002°55'53461924502.4
2018-Apr-22 15:30N 32°36' W 117°41'73205270189.6
2018-Apr-22 15:30N 44°44' E 037°47'64171925109.0
2018-Apr-22 15:30N 29°33' W 095°02'59463567525.3
2018-Apr-22 15:30N 37°55' E 023°42'10201224557.7
2018-Apr-22 15:30N 54°42' E 019°43'662595662.9
2018-Apr-22 15:30N 46°50' E 031°57'65676.5
2018-Apr-22 15:30N 46°56' E 031°57'21992.8
2018-Apr-22 15:29N 46°57' E 031°60'668601268.8
2018-Apr-22 15:29N 37°46' E 023°27'1107128524.6
2018-Apr-22 15:29N 55°10' E 014°32'826743327.2
2018-Apr-22 15:29N 46°50' E 031°57'67141664.0
2018-Apr-22 15:28N 54°48' E 019°31'55002474935.9
2018-Apr-22 15:28N 46°09' W 123°53'77504650173.3
2018-Apr-22 15:28N 01°15' E 103°50'479417259934.3
2018-Apr-22 15:28N 46°46' E 031°56'61291697254.0
2018-Apr-22 15:27S 23°00' W 044°19'107132966687.8
2018-Apr-22 15:27S 27°52' E 153°20'9402846149.2
2018-Apr-22 15:26N 59°20' E 018°05'5725224009.7
2018-Apr-22 15:25N 37°52' W 122°29'715471541.3
2018-Apr-22 15:19N 45°22' E 036°41'165819197.2
2018-Apr-22 15:14N 47°43' W 003°21'447238790.2
2018-Apr-22 15:07N 28°57' W 095°18'459567520.9
2018-Apr-22 15:03N 46°09' W 001°10'92024185.8
2018-Apr-22 15:00N 44°51' E 020°38'490353107.9
2018-Apr-22 15:00N 46°57' E 031°60'1045537224.7
2018-Apr-22 15:00N 63°13' E 021°09'43761125314.8
2018-Apr-22 15:00N 33°31' W 079°08'54836579866.8
2018-Apr-22 15:00N 44°44' E 037°47'732026351066.5
2018-Apr-22 15:00N 32°37' W 117°42'1179424607.7
2018-Apr-22 15:00N 29°33' W 095°02'531919147395.6
2018-Apr-22 15:00N 54°45' E 019°37'947852310.9
2018-Apr-22 15:00N 46°09' W 001°10'12141092470.5
2018-Apr-22 15:00N 37°55' E 023°42'1101991295.8
2018-Apr-22 15:00N 55°09' E 014°31'8262974209.4
2018-Apr-22 15:00N 46°50' E 031°57'64537.0
2018-Apr-22 15:00N 46°56' E 031°57'25986.1
2018-Apr-22 14:59N 46°57' E 031°60'8961612610.4
2018-Apr-22 14:59N 59°20' E 018°05'312280557.3
2018-Apr-22 14:59N 59°43' E 028°17'78483019.1
2018-Apr-22 14:59N 46°50' E 031°57'14381294308.7
2018-Apr-22 14:59N 47°43' W 003°21'648523346005.0
2018-Apr-22 14:59N 01°17' E 103°54'88541225919.2
2018-Apr-22 14:58S 23°00' W 044°19'59451337608.8
2018-Apr-22 14:58N 54°48' E 019°29'8711567620.1
2018-Apr-22 14:58N 45°22' E 036°41'71546438714.9
2018-Apr-22 14:58N 37°52' W 122°29'6393575395.5
2018-Apr-22 14:57S 27°52' E 153°20'8705602675.1
2018-Apr-22 14:56N 37°46' E 023°27'74710075.2
2018-Apr-22 14:52N 45°20' E 036°40'670953082.1
2018-Apr-22 14:44N 45°33' W 122°42'4922210948.4
2018-Apr-22 14:43N 52°07' E 001°32'2513842.3
2018-Apr-22 14:39N 48°36' W 002°01'493534629.4
2018-Apr-22 14:31N 45°33' W 122°42'606021815667.8
2018-Apr-22 14:30N 44°51' E 020°38'5982151344.5
2018-Apr-22 14:30N 54°47' E 019°31'667600166.8
2018-Apr-22 14:30N 46°57' E 031°60'48024321931.4
2018-Apr-22 14:30N 01°17' E 104°00'33701102824.6
2018-Apr-22 14:30S 27°52' E 153°20'84676096419.8
2018-Apr-22 14:30N 46°50' E 031°57'61227346241.5
2018-Apr-22 14:30N 28°56' W 095°20'64625815865.3
2018-Apr-22 14:30N 44°44' E 037°47'1643657231.7
2018-Apr-22 14:30N 46°08' W 001°11'805724371.2
2018-Apr-22 14:30N 55°08' E 014°30'11011321006.6
2018-Apr-22 14:30N 37°55' E 023°42'648388824.2
2018-Apr-22 14:30N 46°50' E 031°57'65681.9
2018-Apr-22 14:30N 46°56' E 031°57'23009.8
2018-Apr-22 14:29N 46°57' E 031°60'8963225220.8
2018-Apr-22 14:29N 59°20' E 018°05'312224602.5
2018-Apr-22 14:29N 59°40' E 028°18'62835654707.7
2018-Apr-22 14:29N 32°38' W 117°45'20431226085.4
2018-Apr-22 14:29N 38°58' W 076°29'353127136.2
2018-Apr-22 14:29N 33°29' W 079°09'2197988644.9
2018-Apr-22 14:29N 46°09' W 123°53'49392963273.8
2018-Apr-22 14:29N 47°43' W 003°21'957111110.4
2018-Apr-22 14:28N 54°46' E 019°29'870149171.5
2018-Apr-22 14:28N 45°22' E 036°41'1448100263.4
2018-Apr-22 14:27N 52°05' E 001°32'122980415.8
2018-Apr-22 14:26N 46°46' E 031°57'2153069.6
2018-Apr-22 14:22N 45°20' E 036°40'1596108421.7
2018-Apr-22 14:21N 48°36' W 002°01'5762074787.9
2018-Apr-22 14:21N 54°32' E 010°08'7102068.0
2018-Apr-22 14:00N 44°51' E 020°38'490441384.9
2018-Apr-22 14:00N 46°57' E 031°60'7751394562.5
2018-Apr-22 14:00N 59°40' E 028°18'13431208339.3
2018-Apr-22 14:00N 46°06' W 001°12'637911481516.0
2018-Apr-22 14:00N 01°17' E 104°05'780114041022.7
2018-Apr-22 14:00N 45°33' W 122°42'64242312566.4
2018-Apr-22 14:00N 46°50' E 031°57'13754950778.1
2018-Apr-22 14:00N 48°36' W 002°01'36094330687.4
2018-Apr-22 14:00N 33°27' W 079°10'548919758937.4
2018-Apr-22 14:00N 44°44' E 037°47'9303347937.4
2018-Apr-22 14:00N 54°45' E 019°29'3952.4
2018-Apr-22 14:00N 54°48' E 019°30'17489392.5
2018-Apr-22 14:00N 55°07' E 014°29'11001320253.0
2018-Apr-22 14:00N 37°55' E 023°42'15215475925.7
2018-Apr-22 14:00N 63°13' E 021°09'10511891365.6
2018-Apr-22 14:00N 46°50' E 031°57'73656.4
2018-Apr-22 13:59N 46°57' E 031°60'8963225220.8
2018-Apr-22 13:59N 59°20' E 018°05'1311943814.5
2018-Apr-22 13:59N 37°46' E 023°27'47023385511.9
2018-Apr-22 13:59N 38°58' W 076°29'32571674859.2
2018-Apr-22 13:59N 47°33' W 002°54'323232233.3
2018-Apr-22 13:59N 52°05' E 001°32'49381615959.9
2018-Apr-22 13:59N 46°09' W 123°53'49395926991.5
2018-Apr-22 13:59N 47°42' W 003°22'1659170663.4
2018-Apr-22 13:58N 45°22' E 036°41'62901078216.0
2018-Apr-22 13:58S 23°00' W 044°19'6130432680.7
2018-Apr-22 13:57N 46°46' E 031°57'2156088.8
2018-Apr-22 13:55N 45°20' E 036°40'8195776369.5
2018-Apr-22 13:54S 27°52' E 153°20'10352483967.6
2018-Apr-22 13:53N 51°28' W 003°11'5157277067.5
2018-Apr-22 13:52N 37°52' W 122°29'4074273.2
2018-Apr-22 13:46N 32°40' W 117°07'57671038070.3
2018-Apr-22 13:46N 55°26' E 012°49'1071957.1
2018-Apr-22 13:43N 54°33' E 010°07'571328329.2
2018-Apr-22 13:30N 32°38' W 117°50'652123475052.0
2018-Apr-22 13:30N 44°51' E 020°38'60607271889.3
2018-Apr-22 13:30N 45°33' W 122°42'641923108671.5
2018-Apr-22 13:30N 46°57' E 031°60'7752789101.4
2018-Apr-22 13:30N 59°40' E 028°18'295354521.6
2018-Apr-22 13:30N 63°13' E 021°09'12881159207.4
2018-Apr-22 13:30N 46°05' W 001°13'1372987567.7
2018-Apr-22 13:30N 46°46' E 031°56'846630478040.7
2018-Apr-22 13:30S 27°52' E 153°20'648211666834.5
2018-Apr-22 13:30N 32°40' W 117°07'53879695946.1
2018-Apr-22 13:30N 52°05' E 001°32'12271472452.4
2018-Apr-22 13:30N 46°50' E 031°57'275494700.1
2018-Apr-22 13:30N 44°44' E 037°47'6054362.7
2018-Apr-22 13:30N 45°22' E 036°40'63442076179.9
2018-Apr-22 13:30N 29°33' W 095°02'50933666885.1
2018-Apr-22 13:30N 55°06' E 014°28'11001979164.3
2018-Apr-22 13:30N 37°55' E 023°42'648583240.6
2018-Apr-22 13:30N 46°50' E 031°57'64536.9
2018-Apr-22 13:30N 46°56' E 031°57'23006.8
2018-Apr-22 13:29N 46°57' E 031°60'51623097005.1
2018-Apr-22 13:29N 33°25' W 079°13'870184203.7
2018-Apr-22 13:29N 28°56' W 095°19'1707614412.4
2018-Apr-22 13:29N 46°09' W 123°53'52136255447.4
2018-Apr-22 13:29N 55°28' E 012°49'1095112645.3
2018-Apr-22 13:28N 45°22' E 036°41'74923431.8
2018-Apr-22 13:26N 37°46' E 023°27'1035143296.7
2018-Apr-22 13:26N 54°48' E 019°28'5968352231.3
2018-Apr-22 13:25N 37°52' W 122°29'530525740.7
2018-Apr-22 13:13N 48°36' W 002°01'796973.6
2018-Apr-22 13:12N 47°40' W 003°25'10125327.0
2018-Apr-22 13:00N 44°51' E 020°38'11013965348.3
2018-Apr-22 13:00N 63°13' E 021°09'10451880296.2
2018-Apr-22 13:00N 46°57' E 031°60'7751394561.4
2018-Apr-22 13:00N 59°40' E 028°18'62884527631.3
2018-Apr-22 13:00N 32°38' W 117°53'64432899352.3
2018-Apr-22 13:00S 27°52' E 153°20'84675080345.5
2018-Apr-22 13:00N 46°50' E 031°57'516618596510.2
2018-Apr-22 13:00N 33°23' W 079°14'264949390.6
2018-Apr-22 13:00N 36°46' W 075°49'51859333828.0
2018-Apr-22 13:00N 44°44' E 037°47'27389493.0
2018-Apr-22 13:00N 46°46' E 031°57'607810940974.0
2018-Apr-22 13:00N 29°33' W 095°02'531119118070.4
2018-Apr-22 13:00N 54°48' E 019°27'1028740247.8
2018-Apr-22 13:00N 37°55' E 023°42'648466589.0
2018-Apr-22 13:00N 46°50' E 031°57'64466.0
2018-Apr-22 13:00N 46°56' E 031°57'21930.9
2018-Apr-22 12:59N 46°57' E 031°60'668481022.3
2018-Apr-22 12:59N 37°46' E 023°27'11514144135.0
2018-Apr-22 12:59N 55°31' E 012°51'58071045225.3
2018-Apr-22 12:59N 01°19' E 104°00'77403482791.7
2018-Apr-22 12:59N 46°09' W 123°53'49381367401.5
2018-Apr-22 12:59N 52°05' E 001°33'1448217215.6
2018-Apr-22 12:58N 45°22' E 036°41'87056942.7
2018-Apr-22 12:57N 54°43' E 019°26'28018310.0
2018-Apr-22 12:56N 59°20' E 018°05'106228970.0
2018-Apr-22 12:54N 46°02' W 001°13'5434143828.2
2018-Apr-22 12:52N 37°52' W 122°29'527676904.2
2018-Apr-22 12:48N 47°41' W 003°26'528941303.0
2018-Apr-22 12:40N 32°40' W 117°07'519632757.8
2018-Apr-22 12:31N 42°14' W 008°42'1286420714.1
2018-Apr-22 12:30N 44°51' E 020°38'490353105.0
2018-Apr-22 12:30N 46°57' E 031°60'1045626765.4
2018-Apr-22 12:30N 63°13' E 021°09'93264196731.4
2018-Apr-22 12:30S 27°52' E 153°20'84675080349.9
2018-Apr-22 12:30N 46°50' E 031°57'51689303177.7
2018-Apr-22 12:30N 33°21' W 079°16'54976596657.5
2018-Apr-22 12:30N 44°44' E 037°47'67928150650.1
2018-Apr-22 12:30N 45°33' W 122°42'49183541241.1
2018-Apr-22 12:30N 47°40' W 003°25'44313987483.6
2018-Apr-22 12:30N 29°33' W 095°02'60771823078.9
2018-Apr-22 12:30N 46°50' E 031°57'621981.0
2018-Apr-22 12:30N 46°56' E 031°59'1652.3
2018-Apr-22 12:29N 46°57' E 031°60'6692409799.3
2018-Apr-22 12:29N 54°47' E 019°24'412370427.2
2018-Apr-22 12:29N 59°40' E 028°18'5566667864.9
2018-Apr-22 12:29N 46°09' W 123°53'49382962608.4
2018-Apr-22 12:29N 52°05' E 001°32'45265053.5
2018-Apr-22 12:28N 55°34' E 012°51'1097789836.1
2018-Apr-22 12:28N 45°22' E 036°41'1590190752.3
2018-Apr-22 12:28N 46°00' W 001°14'63752550019.3
2018-Apr-22 12:28N 01°18' E 104°00'8188627178.0
2018-Apr-22 12:27N 32°40' W 117°07'693124951665.8
2018-Apr-22 12:27N 46°46' E 031°57'215193388.5
2018-Apr-22 12:27N 45°20' E 036°40'733439597.1
2018-Apr-22 12:27N 37°55' E 023°42'1304361133.1
2018-Apr-22 12:26N 59°20' E 018°05'5725231560.4
2018-Apr-22 12:25N 37°52' W 122°29'5969596887.3
2018-Apr-22 12:24N 54°43' E 019°24'5941491.1
2018-Apr-22 12:00N 44°51' E 020°38'5932135005.9
2018-Apr-22 12:00N 54°42' E 019°22'6671201419.0
2018-Apr-22 12:00N 46°57' E 031°60'8251484667.7
2018-Apr-22 12:00N 55°05' E 014°23'392114116365.6
2018-Apr-22 12:00N 36°46' W 075°49'104169374173.0
2018-Apr-22 12:00N 01°17' E 103°56'337312144017.8
2018-Apr-22 12:00S 27°52' E 153°20'75019001400.4
2018-Apr-22 12:00N 28°57' W 095°18'61202447981.2
2018-Apr-22 12:00N 46°56' E 032°01'12284421039.0
2018-Apr-22 12:00N 52°04' E 001°30'12284422498.1
2018-Apr-22 12:00N 46°50' E 031°57'7811406333.8
2018-Apr-22 12:00N 59°40' E 028°18'556620038971.9
2018-Apr-22 12:00N 45°33' W 122°42'679212226007.6
2018-Apr-22 12:00N 44°44' E 037°47'9341120273.0
2018-Apr-22 12:00N 54°46' E 019°23'53082123392.8
2018-Apr-22 12:00N 29°33' W 095°02'455616401923.6
2018-Apr-22 12:00N 46°02' W 001°14'1214624469.0
2018-Apr-22 12:00N 37°55' E 023°42'648583236.2
2018-Apr-22 12:00N 46°50' E 031°57'73661.4
2018-Apr-22 11:59N 46°57' E 031°60'8963225194.5
2018-Apr-22 11:59N 59°20' E 018°05'279200717.8
2018-Apr-22 11:59N 55°36' E 012°54'52092679066.3
2018-Apr-22 11:59N 46°09' W 123°53'6721424503.8
2018-Apr-22 11:58N 45°22' E 036°41'71541287746.8
2018-Apr-22 11:58N 37°52' W 122°29'6872369247.7
2018-Apr-22 11:57N 46°46' E 031°57'215110507.1
2018-Apr-22 11:57N 45°20' E 036°40'747134502.8
2018-Apr-22 11:56N 37°46' E 023°27'1504125906.7
2018-Apr-22 11:56N 42°18' W 008°44'3936208.0
2018-Apr-22 11:52N 47°40' W 003°26'323141546.7
2018-Apr-22 11:47N 38°58' W 076°29'360115195.7
2018-Apr-22 11:33N 41°15' E 001°55'5439131404.8
2018-Apr-22 11:31N 45°33' W 122°42'60607271900.7
2018-Apr-22 11:30N 44°51' E 020°38'11013965326.7
2018-Apr-22 11:30N 63°13' E 021°09'10453760572.8
2018-Apr-22 11:30N 46°57' E 031°60'1373449371.3
2018-Apr-22 11:30N 46°04' W 001°14'101756105063.5
2018-Apr-22 11:30S 27°52' E 153°20'846730482113.8
2018-Apr-22 11:30N 46°50' E 031°57'17626341764.1
2018-Apr-22 11:30N 42°14' W 008°44'20311827501.4
2018-Apr-22 11:30N 44°44' E 037°47'9623464662.0
2018-Apr-22 11:30N 59°41' E 028°19'5281901788.4
2018-Apr-22 11:30N 55°06' E 014°22'5942167.1
2018-Apr-22 11:30N 55°37' E 012°56'1096493153.3
2018-Apr-22 11:30N 45°22' E 036°41'8711568363.9
2018-Apr-22 11:30N 54°41' E 019°21'1023920370.2
2018-Apr-22 11:30N 37°55' E 023°42'50363021331.3
2018-Apr-22 11:30N 01°15' E 103°50'479517262667.5
2018-Apr-22 11:30N 46°50' E 031°57'485717486607.8
2018-Apr-22 11:30N 36°44' W 075°46'48562913472.6
2018-Apr-22 11:29N 46°57' E 031°60'8963225228.0
2018-Apr-22 11:29N 59°20' E 018°05'27890993.0
2018-Apr-22 11:29N 54°45' E 019°23'54976596777.4
2018-Apr-22 11:29N 46°09' W 123°53'64343308681.8
2018-Apr-22 11:29N 46°56' E 032°01'6077331461.9
2018-Apr-22 11:28N 29°33' W 095°02'14581049631.1
2018-Apr-22 11:28N 37°52' W 122°29'6872380609.4
2018-Apr-22 11:27N 46°46' E 031°57'65994842.8
2018-Apr-22 11:26N 37°46' E 023°27'13252385200.9
2018-Apr-22 11:26N 47°41' W 003°25'166137376.5
2018-Apr-22 11:24N 45°20' E 036°40'7243260745.6
2018-Apr-22 11:22N 32°38' W 117°46'613879203.8
2018-Apr-22 11:17N 59°60' E 024°57'538939916.5
2018-Apr-22 11:09N 01°14' E 103°52'528935990.6
2018-Apr-22 11:00N 44°51' E 020°38'713855486.8
2018-Apr-22 11:00N 55°40' E 012°55'8861595440.2
2018-Apr-22 11:00N 46°57' E 031°60'217779530.6
2018-Apr-22 11:00N 45°21' E 036°40'670824148795.2
2018-Apr-22 11:00N 45°33' W 122°42'54269766779.6
2018-Apr-22 11:00N 60°02' E 024°55'363435744.5
2018-Apr-22 11:00N 54°46' E 019°23'9441698618.8
2018-Apr-22 11:00N 46°06' W 001°14'101766105314.5
2018-Apr-22 11:00S 27°52' E 153°20'846930488126.3
2018-Apr-22 11:00N 46°56' E 031°57'67092.2
2018-Apr-22 11:00N 46°50' E 031°57'787944066.7
2018-Apr-22 11:00N 59°45' E 028°15'1336534569.8
2018-Apr-22 11:00N 47°42' W 003°24'1660747136.1
2018-Apr-22 11:00N 45°20' E 036°40'733527511.6
2018-Apr-22 11:00N 37°55' E 023°42'15211825308.6
2018-Apr-22 11:00N 63°13' E 021°09'10513782735.7
2018-Apr-22 11:00N 46°50' E 031°57'73198.9
2018-Apr-22 10:59N 46°57' E 031°60'668801700.8
2018-Apr-22 10:59N 37°46' E 023°27'65931977788.3
2018-Apr-22 10:59N 46°09' W 123°53'4962388368.9
2018-Apr-22 10:58N 50°52' E 000°46'555665540.9
2018-Apr-22 10:58N 55°06' E 014°24'5090763521.8
2018-Apr-22 10:58N 29°33' W 095°02'94746820979.4
2018-Apr-22 10:58N 01°15' E 103°50'5506600631.7
2018-Apr-22 10:57N 54°41' E 019°22'931176452.7
2018-Apr-22 10:57N 44°44' E 037°47'1138113848.8
2018-Apr-22 10:56N 59°20' E 018°05'40033602377.2
2018-Apr-22 10:56N 36°40' W 075°42'223594676.7
2018-Apr-22 10:55N 37°52' W 122°29'39148584.9
2018-Apr-22 10:54N 32°38' W 117°43'6961114423.1
2018-Apr-22 10:51N 46°46' E 031°57'176438964.2
2018-Apr-22 10:48N 42°15' W 008°48'6742101982.5
2018-Apr-22 10:44N 01°15' E 103°51'627660250.7
2018-Apr-22 10:38N 52°05' E 001°32'628083428.3
2018-Apr-22 10:33N 01°14' E 103°54'5290109456.0
2018-Apr-22 10:30N 44°51' E 020°38'8803167645.0
2018-Apr-22 10:30N 50°51' E 000°42'9983592868.8
2018-Apr-22 10:30N 63°13' E 021°09'10453760592.3
2018-Apr-22 10:30N 46°57' E 031°60'47982878699.7
2018-Apr-22 10:30N 01°16' E 103°54'63725735044.3
2018-Apr-22 10:30N 46°08' W 001°14'101765233502.7
2018-Apr-22 10:30S 27°52' E 153°20'846715241029.1
2018-Apr-22 10:30N 46°50' E 031°57'12272208647.6
2018-Apr-22 10:30N 52°05' E 001°32'541519495533.2
2018-Apr-22 10:30N 32°38' W 117°44'627222580400.5
2018-Apr-22 10:30N 59°50' E 028°11'923174875.8
2018-Apr-22 10:30N 45°20' E 036°40'218130994.7
2018-Apr-22 10:30N 46°56' E 031°57'48028642966.2
2018-Apr-22 10:30N 01°14' E 103°55'480017278236.8
2018-Apr-22 10:30N 46°50' E 031°57'75121.7
2018-Apr-22 10:30N 46°57' E 031°60'8961612606.8
2018-Apr-22 10:29N 59°20' E 018°05'14465204592.2
2018-Apr-22 10:29N 42°13' W 008°46'401480966.9
2018-Apr-22 10:29N 47°42' W 003°22'13244766033.4
2018-Apr-22 10:29N 37°46' E 023°27'1106165911.3
2018-Apr-22 10:29N 55°07' E 014°25'5091310610.0
2018-Apr-22 10:28N 29°33' W 095°02'14581049629.1
2018-Apr-22 10:28N 37°52' W 122°29'71551430916.5
2018-Apr-22 10:28N 45°20' E 036°39'872209215.7
2018-Apr-22 10:27N 54°42' E 019°23'23233351.0
2018-Apr-22 10:27N 55°42' E 012°51'896537314.2
2018-Apr-22 10:27N 46°46' E 031°57'67738091.8
2018-Apr-22 10:26N 54°47' E 019°22'55102479334.3
2018-Apr-22 10:26N 01°14' E 103°52'781455923.1
2018-Apr-22 10:17N 45°33' W 122°42'679257534.1
2018-Apr-22 10:10N 44°44' E 037°47'2731697.1
2018-Apr-22 10:01N 46°46' E 031°57'480217285591.7
2018-Apr-22 10:01N 01°17' E 104°02'529419058308.5
2018-Apr-22 10:00N 44°51' E 020°38'11013965348.3
2018-Apr-22 10:00N 63°13' E 021°09'10003600814.8
2018-Apr-22 10:00N 50°50' E 000°37'9973589285.9
2018-Apr-22 10:00N 60°09' E 024°55'8311496689.4
2018-Apr-22 10:00N 46°57' E 031°60'668802000.6
2018-Apr-22 10:00N 54°43' E 019°22'940846158.6
2018-Apr-22 10:00N 46°10' W 001°15'50753045278.5
2018-Apr-22 10:00N 45°33' W 122°42'664723930581.4
2018-Apr-22 10:00S 27°52' E 153°20'84676096411.7
2018-Apr-22 10:00N 46°50' E 031°57'275494683.5
2018-Apr-22 10:00N 44°44' E 037°47'9773517595.8
2018-Apr-22 10:00N 59°54' E 028°07'928175807.4
2018-Apr-22 10:00N 45°20' E 036°40'14491043019.5
2018-Apr-22 10:00N 52°05' E 001°32'12254408293.5
2018-Apr-22 10:00N 46°56' E 031°57'622705.9
2018-Apr-22 10:00N 46°50' E 031°57'73198.5
2018-Apr-22 09:59N 46°57' E 031°60'8963225232.6
2018-Apr-22 09:59N 59°20' E 018°05'274987543.8
2018-Apr-22 09:59N 55°45' E 012°47'11642095239.3
2018-Apr-22 09:59N 37°46' E 023°27'69321559620.6
2018-Apr-22 09:59N 32°38' W 117°47'7323454504.8
2018-Apr-22 09:58N 44°44' E 037°47'64172310127.4
2018-Apr-22 09:58N 29°33' W 095°02'14581049629.1
2018-Apr-22 09:58N 37°52' W 122°29'502128968.9
2018-Apr-22 09:58N 46°09' W 123°53'49595950435.3
2018-Apr-22 09:58N 42°14' W 008°45'19767112500.5
2018-Apr-22 09:58N 45°20' E 036°39'875314845.3
2018-Apr-22 09:57N 54°46' E 019°21'5512192638.6
2018-Apr-22 09:56N 01°16' E 103°56'529012571.1
2018-Apr-22 09:30N 44°51' E 020°38'9311675620.2
2018-Apr-22 09:30N 60°09' E 024°55'8311496679.3
2018-Apr-22 09:30N 46°57' E 031°60'64197702897.4
2018-Apr-22 09:30N 45°33' W 122°42'782014076280.1
2018-Apr-22 09:30N 01°14' E 103°45'63675730083.8
2018-Apr-22 09:30N 46°11' W 001°15'13391606272.3
2018-Apr-22 09:30N 59°55' E 027°59'931837461.1
2018-Apr-22 09:30N 45°20' E 036°39'8741573360.7
2018-Apr-22 09:30N 54°45' E 019°21'6742425715.2
2018-Apr-22 09:30N 46°50' E 031°57'696325068560.1
2018-Apr-22 09:30N 32°38' W 117°50'53253195213.5
2018-Apr-22 09:30N 47°44' W 003°21'17176179880.4
2018-Apr-22 09:30N 44°44' E 037°47'11672101077.9
2018-Apr-22 09:30N 55°47' E 012°45'454102111.8
2018-Apr-22 09:30N 52°05' E 001°32'12684565260.5
2018-Apr-22 09:30N 37°55' E 023°42'6532351395.9
2018-Apr-22 09:30N 46°56' E 031°57'611363.8
2018-Apr-22 09:30N 46°50' E 031°57'8312990231.9
2018-Apr-22 09:30N 55°08' E 014°21'827425353.6
2018-Apr-22 09:29N 46°57' E 031°60'6682405111.8
2018-Apr-22 09:29N 37°46' E 023°27'1529611596.3
2018-Apr-22 09:29N 63°13' E 021°09'1662544014.2
2018-Apr-22 09:29N 42°14' W 008°44'2031130538.5
2018-Apr-22 09:28N 44°44' E 037°47'64172310127.9
2018-Apr-22 09:28N 29°33' W 095°02'47934313992.9
2018-Apr-22 09:28N 41°14' E 001°55'61911857337.0
2018-Apr-22 09:28N 01°17' E 103°60'77415573838.2
2018-Apr-22 09:28N 46°09' W 123°53'64403312049.4
2018-Apr-22 09:28N 46°46' E 031°57'21516458.9
2018-Apr-22 09:27N 45°20' E 036°40'87455217.3
2018-Apr-22 09:26N 54°44' E 019°20'551237514.1
2018-Apr-22 09:17N 01°16' E 103°57'786466769.7
2018-Apr-22 09:10N 37°52' W 122°29'522754390.1
2018-Apr-22 09:04N 33°36' E 130°19'514384154.4
2018-Apr-22 09:01N 44°51' E 020°38'8871064304.6
2018-Apr-22 09:00N 50°49' E 000°29'12651517652.3
2018-Apr-22 09:00N 46°57' E 031°60'69636266476.4
2018-Apr-22 09:00N 32°38' W 117°53'588310589811.2
2018-Apr-22 09:00N 63°13' E 021°09'93268393458.0
2018-Apr-22 09:00S 27°52' E 153°20'895032221338.7
2018-Apr-22 09:00N 59°54' E 027°51'415248798.4
2018-Apr-22 09:00N 54°44' E 019°22'9513422214.3
2018-Apr-22 09:00N 47°45' W 003°21'14385175234.5
2018-Apr-22 09:00N 46°50' E 031°57'275109930.7
2018-Apr-22 09:00N 44°44' E 037°47'4490950919.3
2018-Apr-22 09:00N 01°17' E 103°59'480317289530.1
2018-Apr-22 09:00N 46°56' E 031°57'611342.3
2018-Apr-22 09:00N 46°50' E 031°57'72843.5
2018-Apr-22 08:59N 46°57' E 031°60'668481018.7
2018-Apr-22 08:59N 37°46' E 023°27'1108996760.3
2018-Apr-22 08:59N 55°07' E 014°19'17420238.5
2018-Apr-22 08:59N 54°43' E 019°19'9383376254.7
2018-Apr-22 08:59N 46°12' W 001°15'39989754.7
2018-Apr-22 08:59N 42°14' W 008°43'2030429791.2
2018-Apr-22 08:58N 44°44' E 037°47'43573136809.6
2018-Apr-22 08:58N 33°36' E 130°19'68873099049.0
2018-Apr-22 08:58N 29°33' W 095°02'14581312037.5
2018-Apr-22 08:58N 37°52' W 122°29'71553219585.5
2018-Apr-22 08:58N 45°20' E 036°39'45542732498.1
2018-Apr-22 08:58N 01°17' E 103°58'774213935885.5
2018-Apr-22 08:58N 46°09' W 123°53'64402898045.9
2018-Apr-22 08:58N 46°46' E 031°57'2153392.8
2018-Apr-22 08:54N 45°20' E 036°40'455211756.6
2018-Apr-22 08:31N 01°15' E 103°54'528919041533.7
2018-Apr-22 08:30N 44°51' E 020°38'608721914989.0
2018-Apr-22 08:30N 46°12' W 124°10'496117859840.1
2018-Apr-22 08:30N 50°48' E 000°25'12672281120.4
2018-Apr-22 08:30N 46°57' E 031°60'696312532953.3
2018-Apr-22 08:30N 32°37' W 117°52'54652459159.2
2018-Apr-22 08:30N 46°12' W 001°18'1018036649393.2
2018-Apr-22 08:30S 27°52' E 153°20'895232226542.3
2018-Apr-22 08:30N 59°55' E 027°49'52773166375.0
2018-Apr-22 08:30N 01°17' E 103°60'480117283093.6
2018-Apr-22 08:30N 46°50' E 031°57'9021082394.3
2018-Apr-22 08:30N 55°52' E 012°42'11701053424.6
2018-Apr-22 08:30N 44°44' E 037°47'933373032.0
2018-Apr-22 08:30N 54°42' E 019°21'873448906.4
2018-Apr-22 08:30N 45°20' E 036°40'218196486.1
2018-Apr-22 08:30N 46°56' E 031°57'622684.6
2018-Apr-22 08:30N 46°50' E 031°57'8312991850.8
2018-Apr-22 08:30N 55°06' E 014°19'828331017.5
2018-Apr-22 08:29N 46°57' E 031°60'66848090.6
2018-Apr-22 08:29N 54°43' E 019°22'4942635412.6
2018-Apr-22 08:28N 33°36' E 130°19'435715684048.0
2018-Apr-22 08:28N 44°44' E 037°47'64173300184.4
2018-Apr-22 08:28N 29°33' W 095°02'63441756833.6
2018-Apr-22 08:28N 45°20' E 036°39'74631247.9
2018-Apr-22 08:26N 37°46' E 023°27'1324108338.8
2018-Apr-22 08:26N 47°45' W 003°21'491864141.7
2018-Apr-22 08:21N 45°33' W 122°42'6427154249.7
2018-Apr-22 08:19N 46°46' E 031°57'6872159610.2
2018-Apr-22 08:16N 37°52' W 122°29'564721930.7
2018-Apr-22 08:01N 55°54' E 012°40'7301313680.1
2018-Apr-22 08:00N 44°51' E 020°38'8911604066.8
2018-Apr-22 08:00N 50°47' E 000°21'12702285314.4
2018-Apr-22 08:00N 46°57' E 031°60'696112529023.0
2018-Apr-22 08:00N 32°37' W 117°49'808363821.3
2018-Apr-22 08:00N 45°33' W 122°42'549119766341.6
2018-Apr-22 08:00N 54°42' E 019°19'417750693.6
2018-Apr-22 08:00N 59°56' E 027°48'800479947.7
2018-Apr-22 08:00N 46°50' E 031°57'275141339.8
2018-Apr-22 08:00N 44°44' E 037°47'1649423951.6
2018-Apr-22 08:00N 46°13' W 001°21'1222733253.7
2018-Apr-22 08:00N 37°55' E 023°42'6532351378.5
2018-Apr-22 08:00N 46°56' E 031°57'622684.6
2018-Apr-22 08:00N 46°50' E 031°57'45765491056.2
2018-Apr-22 08:00N 33°37' E 130°19'49293548768.1
2018-Apr-22 07:59N 46°09' W 123°53'643211577451.7
2018-Apr-22 07:59N 46°57' E 031°60'668601271.1
2018-Apr-22 07:59N 37°46' E 023°27'5051699429.9
2018-Apr-22 07:59N 01°16' E 103°57'56102019679.6
2018-Apr-22 07:59N 63°13' E 021°09'1247498849.5
2018-Apr-22 07:59N 47°45' W 003°21'443227782.0
2018-Apr-22 07:59N 41°06' E 001°08'1625265877.4
2018-Apr-22 07:58N 44°44' E 037°47'64172566810.8
2018-Apr-22 07:58N 29°33' W 095°02'14581049631.1
2018-Apr-22 07:58N 37°52' W 122°29'71555151344.8
2018-Apr-22 07:58N 45°20' E 036°39'45501259979.9
2018-Apr-22 07:58N 01°15' E 103°50'337712157545.5
2018-Apr-22 07:58S 27°52' E 153°20'846610159221.1
2018-Apr-22 07:58N 46°46' E 031°57'67665742.1
2018-Apr-22 07:57N 54°44' E 019°20'874241947.6
2018-Apr-22 07:57N 45°20' E 036°40'721124699.3
2018-Apr-22 07:39N 32°40' W 117°07'5385118940.4
2018-Apr-22 07:36N 52°07' E 001°32'6277155835.3
2018-Apr-22 07:34N 01°15' E 103°50'6323106869.6
2018-Apr-22 07:31N 50°47' E 000°20'8921606173.1
2018-Apr-22 07:30N 44°51' E 020°38'528619031036.3
2018-Apr-22 07:30N 01°15' E 103°51'550819827459.7
2018-Apr-22 07:30N 54°43' E 019°21'669802315.4
2018-Apr-22 07:30N 46°57' E 031°60'69586262632.7
2018-Apr-22 07:30N 32°37' W 117°46'62553216656.6
2018-Apr-22 07:30N 59°56' E 027°46'800411287.5
2018-Apr-22 07:30N 46°50' E 031°57'275123673.7
2018-Apr-22 07:30N 44°44' E 037°47'72894373616.5
2018-Apr-22 07:30N 32°40' W 117°07'81992459626.6
2018-Apr-22 07:30N 01°15' E 103°50'479717270358.9
2018-Apr-22 07:30N 46°56' E 031°57'622706.2
2018-Apr-22 07:30N 46°50' E 031°57'6742425773.5
2018-Apr-22 07:30N 54°45' E 019°21'670344399.0
2018-Apr-22 07:30N 46°57' E 031°60'643223154918.2
2018-Apr-22 07:29N 46°09' W 123°53'52179390352.6
2018-Apr-22 07:29N 59°20' E 018°05'13111179768.1
2018-Apr-22 07:29N 37°46' E 023°27'1105568376.1
2018-Apr-22 07:29N 55°05' E 014°21'79675391.6
2018-Apr-22 07:29N 47°45' W 003°21'1717213122.5
2018-Apr-22 07:28N 44°44' E 037°47'64172566808.8
2018-Apr-22 07:28N 29°33' W 095°02'63442537648.5
2018-Apr-22 07:28N 45°20' E 036°39'4392988182.4
2018-Apr-22 07:28N 33°39' E 130°17'45758234291.5
2018-Apr-22 07:28N 46°46' E 031°57'4795185596.1
2018-Apr-22 07:26N 01°15' E 103°51'6276418410.0
2018-Apr-22 07:25N 52°05' E 001°32'4551636576.6
2018-Apr-22 07:25N 55°55' E 012°40'5179192203.1
2018-Apr-22 07:23N 45°33' W 122°42'46117864.4
2018-Apr-22 07:22N 37°52' W 122°29'536541360.9
2018-Apr-22 07:14N 27°54' W 016°40'20699094.5
2018-Apr-22 07:00N 44°51' E 020°38'490353107.9
2018-Apr-22 07:00N 46°57' E 031°60'69565008577.5
2018-Apr-22 07:00N 32°36' W 117°42'816629395968.0
2018-Apr-22 07:00N 01°15' E 103°52'55099915664.3
2018-Apr-22 07:00N 54°46' E 019°22'173623978.9
2018-Apr-22 07:00N 55°06' E 014°22'174625163.8
2018-Apr-22 07:00N 54°44' E 019°22'55073965072.8
2018-Apr-22 07:00N 01°15' E 103°50'47958631784.6
2018-Apr-22 07:00N 46°50' E 031°57'275109932.2
2018-Apr-22 07:00N 44°44' E 037°47'982235582.3
2018-Apr-22 07:00N 59°54' E 027°46'792712952.8
2018-Apr-22 07:00N 46°56' E 031°57'6532351378.5
2018-Apr-22 07:00N 37°55' E 023°42'6482332953.2
2018-Apr-22 07:00N 46°50' E 031°57'479917277723.6
2018-Apr-22 07:00N 01°15' E 103°55'48002160004.2
2018-Apr-22 06:59N 46°57' E 031°60'8963225225.4
2018-Apr-22 06:59N 59°20' E 018°05'1311943814.5
2018-Apr-22 06:59N 37°46' E 023°27'1267111235.4
2018-Apr-22 06:59N 52°05' E 001°32'1509169816.5
2018-Apr-22 06:58N 44°44' E 037°47'64172566810.6
2018-Apr-22 06:58N 29°33' W 095°02'14581312036.3
2018-Apr-22 06:58N 37°52' W 122°29'71554292787.4
2018-Apr-22 06:58N 45°20' E 036°39'81961966963.3
2018-Apr-22 06:58S 27°52' E 153°20'997217949381.3
2018-Apr-22 06:58N 41°04' E 001°06'126857775.3
2018-Apr-22 06:56N 37°00' E 027°47'5019475453.1
2018-Apr-22 06:56N 33°40' E 130°15'499955208.9
2018-Apr-22 06:50N 45°33' W 122°42'6427246143.3
2018-Apr-22 06:49N 46°46' E 031°57'8302749.1
2018-Apr-22 06:30N 55°08' E 014°27'171615946.6
2018-Apr-22 06:30N 54°47' E 019°23'671603497.9
2018-Apr-22 06:30N 46°57' E 031°60'13744947596.6
2018-Apr-22 06:30N 41°09' E 001°10'1515495732.0
2018-Apr-22 06:30N 59°53' E 027°47'62557506084.3
2018-Apr-22 06:30N 32°36' W 117°43'695925053893.5
2018-Apr-22 06:30N 46°50' E 031°57'47958631786.3
2018-Apr-22 06:30N 01°15' E 103°50'773513922906.2
2018-Apr-22 06:30N 46°13' W 124°10'68154906780.1
2018-Apr-22 06:30N 44°44' E 037°47'934672667.1
2018-Apr-22 06:30N 54°45' E 019°20'669172145.1
2018-Apr-22 06:30N 46°56' E 031°57'67568.7
2018-Apr-22 06:30N 46°50' E 031°57'72845.8
2018-Apr-22 06:29N 46°57' E 031°60'668400848.9
2018-Apr-22 06:29N 37°46' E 023°27'5050413174.7
2018-Apr-22 06:29N 01°17' E 103°55'481917346901.8
2018-Apr-22 06:29N 37°00' E 027°47'1442162218.5
2018-Apr-22 06:28N 52°05' E 001°32'45883303568.4
2018-Apr-22 06:28N 29°33' W 095°02'63442283885.5
2018-Apr-22 06:28N 45°20' E 036°39'81962107459.6
2018-Apr-22 06:28S 27°52' E 153°20'846610159225.0
2018-Apr-22 06:28N 46°46' E 031°57'64543006.2
2018-Apr-22 06:27N 37°55' E 023°42'5190667330.6
2018-Apr-22 06:26N 33°41' E 130°14'4349240872.7
2018-Apr-22 06:25N 44°44' E 037°47'72362605074.8
2018-Apr-22 06:25N 37°52' W 122°29'7864262130.9
2018-Apr-22 06:23N 01°16' E 103°57'7808334637.2
2018-Apr-22 06:22N 45°33' W 122°42'0 0.0
2018-Apr-22 06:01N 45°33' W 122°42'606010907833.9
2018-Apr-22 06:00N 44°51' E 020°38'11011321782.8
2018-Apr-22 06:00N 63°13' E 021°09'10451880296.2
2018-Apr-22 06:00N 46°57' E 031°60'791258807.8
2018-Apr-22 06:00N 59°53' E 027°49'797717569.1
2018-Apr-22 06:00N 46°50' E 031°57'47952466224.4
2018-Apr-22 06:00N 01°15' E 103°50'448516146401.9
2018-Apr-22 06:00N 44°44' E 037°47'935841625.3
2018-Apr-22 06:00N 54°47' E 019°21'54942472376.2
2018-Apr-22 06:00N 46°09' W 123°53'77503985512.7
2018-Apr-22 06:00N 01°14' E 103°53'50399069887.9
2018-Apr-22 06:00N 37°55' E 023°42'6532351378.5
2018-Apr-22 06:00N 46°56' E 031°57'622706.2
2018-Apr-22 06:00N 46°50' E 031°57'671805426.7
2018-Apr-22 06:00N 54°45' E 019°27'667400206.2
2018-Apr-22 05:59N 46°57' E 031°60'8961612612.7
2018-Apr-22 05:59N 59°20' E 018°05'58865297743.6
2018-Apr-22 05:59N 32°38' W 117°47'7175516631.4
2018-Apr-22 05:59N 37°00' E 027°47'64983379.9
2018-Apr-22 05:58N 44°44' E 037°47'64174620255.8
2018-Apr-22 05:58N 29°33' W 095°02'14581312036.3
2018-Apr-22 05:58N 37°52' W 122°29'71554292790.0
2018-Apr-22 05:58N 45°20' E 036°39'45542732377.8
2018-Apr-22 05:58N 01°18' E 103°58'47981919325.3
2018-Apr-22 05:58N 46°46' E 031°57'4570191322.9
2018-Apr-22 05:56N 33°41' E 130°14'3944152669.3
2018-Apr-22 05:55S 27°52' E 153°20'661216471.8
2018-Apr-22 05:31N 46°09' W 123°59'64363861852.9
2018-Apr-22 05:30N 46°57' E 031°60'6641194938.7
2018-Apr-22 05:30N 54°45' E 019°34'5952141856.1
2018-Apr-22 05:30N 44°51' E 020°38'941338783.0
2018-Apr-22 05:30N 59°55' E 027°50'799958392.1
2018-Apr-22 05:30N 46°50' E 031°57'27589943.3
2018-Apr-22 05:30N 44°44' E 037°47'9351682348.7
2018-Apr-22 05:30N 54°46' E 019°21'670160799.5
2018-Apr-22 05:30N 46°56' E 031°57'611342.2
2018-Apr-22 05:30N 46°50' E 031°57'72326.2
2018-Apr-22 05:29N 46°57' E 031°60'8963225220.8
2018-Apr-22 05:29N 59°20' E 018°05'13111179768.7
2018-Apr-22 05:29N 37°46' E 023°27'50463633395.8
2018-Apr-22 05:29N 01°15' E 103°50'63760.6
2018-Apr-22 05:29N 01°17' E 103°56'4819403435.2
2018-Apr-22 05:28N 37°00' E 027°47'649111173.7
2018-Apr-22 05:28N 44°44' E 037°47'64172887659.8
2018-Apr-22 05:28N 29°33' W 095°02'14581049629.1
2018-Apr-22 05:28N 37°52' W 122°29'715512878370.1
2018-Apr-22 05:28N 45°20' E 036°39'81961966960.1
2018-Apr-22 05:28S 27°52' E 153°20'6482158732.4
2018-Apr-22 05:25N 32°40' W 117°07'6931674369.3
2018-Apr-22 05:25N 46°46' E 031°57'457026326.0
2018-Apr-22 05:14N 33°41' E 130°14'5000193532.7
2018-Apr-22 05:13N 45°33' W 122°42'0 0.0
2018-Apr-22 05:01N 45°33' W 122°42'51374623237.9
2018-Apr-22 05:00N 63°13' E 021°09'5111839531.7
2018-Apr-22 05:00N 54°45' E 019°20'6701205705.4
2018-Apr-22 05:00N 46°57' E 031°60'7942856931.0
2018-Apr-22 05:00N 59°56' E 027°48'62555629450.5
2018-Apr-22 05:00N 32°38' W 117°47'69612278128.9
2018-Apr-22 05:00N 46°50' E 031°57'27589945.3
2018-Apr-22 05:00N 44°44' E 037°47'72896560424.8
2018-Apr-22 05:00N 32°40' W 117°07'69252266238.9
2018-Apr-22 05:00N 46°56' E 031°57'653783798.6
2018-Apr-22 05:00N 37°55' E 023°42'6482332962.2
2018-Apr-22 05:00N 46°50' E 031°57'72843.1
2018-Apr-22 04:59N 46°57' E 031°60'62534640.7
2018-Apr-22 04:58N 37°00' E 027°47'68308195494.6
2018-Apr-22 04:58N 46°09' W 123°53'68062227455.2
2018-Apr-22 04:58N 44°44' E 037°47'64172566810.8
2018-Apr-22 04:58N 29°33' W 095°02'94746820981.1
2018-Apr-22 04:58N 01°15' E 103°50'45502729953.3
2018-Apr-22 04:58N 45°20' E 036°39'81962107458.3
2018-Apr-22 04:58S 27°52' E 153°20'3377810503.8
2018-Apr-22 04:57N 01°15' E 103°50'5646383533.1
2018-Apr-22 04:56N 59°20' E 018°05'1311786512.1
2018-Apr-22 04:56N 37°46' E 023°27'52071441860.5
2018-Apr-22 04:56N 33°41' E 130°14'4570175040.1
2018-Apr-22 04:55N 46°46' E 031°57'478822921.2
2018-Apr-22 04:42N 01°18' E 103°45'526927373.9
2018-Apr-22 04:31N 59°58' E 027°47'272244879.0
2018-Apr-22 04:30N 63°13' E 021°09'11011321782.8
2018-Apr-22 04:30N 44°51' E 020°38'487125311.4
2018-Apr-22 04:30N 46°50' E 031°57'27589944.1
2018-Apr-22 04:30N 44°44' E 037°47'72896560420.6
2018-Apr-22 04:30N 32°40' W 117°07'81989837669.6
2018-Apr-22 04:30N 01°16' E 103°51'50361812966.2
2018-Apr-22 04:30N 37°55' E 023°42'6482332962.2
2018-Apr-22 04:30N 46°50' E 031°57'673807810.4
2018-Apr-22 04:30N 54°43' E 019°20'55026602403.5
2018-Apr-22 04:30N 01°18' E 103°45'47902874052.4
2018-Apr-22 04:29N 46°57' E 031°60'21765151.6
2018-Apr-22 04:29N 45°20' E 036°40'45511260320.6
2018-Apr-22 04:29N 01°16' E 103°53'4817412904.8
2018-Apr-22 04:28N 37°00' E 027°47'683024586463.0
2018-Apr-22 04:28N 46°09' W 123°53'68061750143.4
2018-Apr-22 04:28N 44°44' E 037°47'64173850213.1
2018-Apr-22 04:28N 29°33' W 095°02'1629308604.8
2018-Apr-22 04:28N 45°33' W 122°42'66474786117.0
2018-Apr-22 04:28S 27°52' E 153°20'84682540271.8
2018-Apr-22 04:27N 46°57' E 031°60'66839427.2
2018-Apr-22 04:26N 37°46' E 023°27'74629210.0
2018-Apr-22 04:25N 45°20' E 036°39'21448243.7
2018-Apr-22 04:25N 46°46' E 031°57'6872156579.8
2018-Apr-22 04:22N 37°52' W 122°29'786964677.7
2018-Apr-22 04:15N 01°15' E 103°52'885273087.7
2018-Apr-22 04:07S 23°00' W 044°19'552348026.5
2018-Apr-22 04:00N 32°40' W 117°53'588221173984.9
2018-Apr-22 04:00N 63°13' E 021°09'1045940148.1
2018-Apr-22 04:00N 46°57' E 031°60'7942858226.2
2018-Apr-22 04:00N 59°57' E 027°48'9423392684.1
2018-Apr-22 04:00N 44°51' E 020°38'52883807383.7
2018-Apr-22 04:00N 01°16' E 103°54'47971918876.6
2018-Apr-22 04:00N 46°50' E 031°57'6721209897.4
2018-Apr-22 04:00N 54°42' E 019°20'933373063.3
2018-Apr-22 04:00N 44°44' E 037°47'27771295.1
2018-Apr-22 04:00N 46°56' E 031°57'67561.5
2018-Apr-22 04:00N 46°50' E 031°57'64245781640.4
2018-Apr-22 04:00N 45°33' W 122°42'64193301255.5
2018-Apr-22 03:59N 46°57' E 031°60'8961612606.8
2018-Apr-22 03:59N 59°20' E 018°05'564920335417.8
2018-Apr-22 03:59N 01°17' E 103°56'50504544962.5
2018-Apr-22 03:59N 37°46' E 023°27'747336261.9
2018-Apr-22 03:59N 45°20' E 036°40'6722440017.7
2018-Apr-22 03:58N 46°09' W 123°53'683024586483.7
2018-Apr-22 03:58N 37°00' E 027°47'649583663.6
2018-Apr-22 03:58N 44°44' E 037°47'64171650092.2
2018-Apr-22 03:58N 29°33' W 095°02'75321129769.9
2018-Apr-22 03:58S 27°52' E 153°20'846615238821.2
2018-Apr-22 03:58N 46°46' E 031°57'61301838966.4
2018-Apr-22 03:57S 23°00' W 044°19'6287150895.1
2018-Apr-22 03:55N 45°20' E 036°39'73236093.4
2018-Apr-22 03:54N 37°55' E 023°42'527249681.6
2018-Apr-22 03:47N 36°18' W 086°27'11006267714.2
2018-Apr-22 03:45N 01°17' E 103°46'81090.9
2018-Apr-22 03:44N 01°11' E 103°49'816135268.9
2018-Apr-22 03:31N 32°40' W 117°52'588010584278.5
2018-Apr-22 03:30N 63°13' E 021°09'44758054733.8
2018-Apr-22 03:30N 36°20' W 086°34'47954315702.6
2018-Apr-22 03:30N 59°55' E 027°49'9413388574.6
2018-Apr-22 03:30N 44°51' E 020°38'528819036846.7
2018-Apr-22 03:30N 01°16' E 103°54'47971569984.8
2018-Apr-22 03:30N 46°50' E 031°57'47935751368.4
2018-Apr-22 03:30N 01°15' E 103°47'44825378976.5
2018-Apr-22 03:30N 44°44' E 037°47'44878077330.7
2018-Apr-22 03:30N 01°15' E 103°53'4800822792.6
2018-Apr-22 03:30N 46°56' E 031°57'611342.2
2018-Apr-22 03:30N 46°50' E 031°57'6711208016.8
2018-Apr-22 03:30N 54°41' E 019°21'667266795.7
2018-Apr-22 03:29N 46°57' E 031°60'64197702934.4
2018-Apr-22 03:29N 45°33' W 122°42'613337.2
2018-Apr-22 03:28N 46°09' W 123°53'68064900401.5
2018-Apr-22 03:28N 44°44' E 037°47'64171650091.3
2018-Apr-22 03:28N 29°33' W 095°02'75321084579.1
2018-Apr-22 03:28S 27°52' E 153°20'84682771204.3
2018-Apr-22 03:27N 46°57' E 031°60'111368.1
2018-Apr-22 03:27N 46°46' E 031°57'4571587657.2
2018-Apr-22 03:26N 33°40' E 130°14'2456196468.1
2018-Apr-22 03:26N 01°17' E 103°59'7861615232.2
2018-Apr-22 03:25N 37°52' W 122°29'7879127195.5
2018-Apr-22 03:21N 01°09' E 103°46'816823655.4
2018-Apr-22 03:01N 32°40' W 117°50'61007320241.0
2018-Apr-22 03:00N 54°40' E 019°24'515927750.0
2018-Apr-22 03:00N 63°13' E 021°09'10453760592.3
2018-Apr-22 03:00N 46°57' E 031°60'7921424944.3
2018-Apr-22 03:00N 59°54' E 027°47'9403383834.3
2018-Apr-22 03:00N 44°51' E 020°38'52864757713.9
2018-Apr-22 03:00N 01°14' E 103°49'781714070057.1
2018-Apr-22 03:00N 45°33' W 122°42'64243854280.9
2018-Apr-22 03:00N 46°50' E 031°57'27589943.5
2018-Apr-22 03:00N 44°44' E 037°47'63183249295.7
2018-Apr-22 03:00S 23°00' W 044°19'61322006910.7
2018-Apr-22 03:00N 46°50' E 031°57'6481166481.1
2018-Apr-22 03:00N 37°55' E 023°42'1304938950.4
2018-Apr-22 03:00N 59°20' E 018°05'896537536.8
2018-Apr-22 02:59N 46°57' E 031°60'668400850.4
2018-Apr-22 02:59N 37°46' E 023°27'5043442797.6
2018-Apr-22 02:59N 01°10' E 103°42'245095.3
2018-Apr-22 02:58N 01°18' E 104°05'58265.1
2018-Apr-22 02:58N 01°16' E 104°00'77416966897.8
2018-Apr-22 02:58N 46°09' W 123°53'68064900401.5
2018-Apr-22 02:58N 44°44' E 037°47'6491167328.8
2018-Apr-22 02:58N 37°00' E 027°47'61772021557.0
2018-Apr-22 02:58N 29°33' W 095°02'14581312038.8
2018-Apr-22 02:58N 37°52' W 122°29'68721767115.3
2018-Apr-22 02:58N 46°46' E 031°57'479228418.0
2018-Apr-22 02:48N 01°15' E 103°46'454725498.6
2018-Apr-22 02:37N 45°20' E 036°39'1 9.9
2018-Apr-22 02:32N 45°20' E 036°40'6709236788.4
2018-Apr-22 02:31N 45°33' W 122°42'78107029253.9
2018-Apr-22 02:30N 01°14' E 103°56'828143.6
2018-Apr-22 02:30N 01°17' E 104°04'48048647473.7
2018-Apr-22 02:30N 46°57' E 031°60'7921425833.4
2018-Apr-22 02:30N 59°54' E 027°45'9403383359.1
2018-Apr-22 02:30N 44°51' E 020°38'65183352185.3
2018-Apr-22 02:30N 32°39' W 117°47'69606264175.9
2018-Apr-22 02:30N 46°50' E 031°57'6661198449.3
2018-Apr-22 02:30N 54°40' E 019°31'55051981727.7
2018-Apr-22 02:30N 01°15' E 103°58'449116168193.6
2018-Apr-22 02:30N 44°44' E 037°47'27766540.4
2018-Apr-22 02:30N 46°56' E 031°57'611342.2
2018-Apr-22 02:30N 46°50' E 031°57'6482332962.2
2018-Apr-22 02:30N 37°55' E 023°42'50306036338.3
2018-Apr-22 02:30N 01°15' E 103°44'47912156090.4
2018-Apr-22 02:29N 46°57' E 031°60'668400846.0
2018-Apr-22 02:29N 37°46' E 023°27'54379786141.1
2018-Apr-22 02:29S 23°00' W 044°19'6252662019.0
2018-Apr-22 02:29N 46°09' W 123°53'6806700056.1
2018-Apr-22 02:28N 44°44' E 037°47'649583665.2
2018-Apr-22 02:28N 37°00' E 027°47'61773176733.0
2018-Apr-22 02:28N 29°33' W 095°02'948834156467.7
2018-Apr-22 02:28N 01°12' E 103°38'788514192322.4
2018-Apr-22 02:28N 37°52' W 122°29'63931095992.8
2018-Apr-22 02:28S 27°52' E 153°20'39401418510.0
2018-Apr-22 02:27N 33°37' E 130°15'2460520865.9
2018-Apr-22 02:27N 01°15' E 103°53'5648484145.8
2018-Apr-22 02:26N 59°20' E 018°05'90430997.9
2018-Apr-22 02:25N 46°46' E 031°57'2144540.5
2018-Apr-22 02:22N 45°20' E 036°39'1 9.9
2018-Apr-22 02:17N 45°20' E 036°40'455516348.9
2018-Apr-22 02:01N 01°16' E 103°58'48022880908.3
2018-Apr-22 02:00N 46°57' E 031°60'7932853130.4
2018-Apr-22 02:00N 59°55' E 027°44'9403383981.9
2018-Apr-22 02:00N 44°51' E 020°38'514018503494.4
2018-Apr-22 02:00N 33°37' E 130°17'45741496975.2
2018-Apr-22 02:00N 46°50' E 031°57'48038644805.9
2018-Apr-22 02:00N 01°18' E 104°03'81523668249.0
2018-Apr-22 02:00N 32°38' W 117°45'732113177032.8
2018-Apr-22 02:00N 44°44' E 037°47'9223320850.2
2018-Apr-22 02:00N 54°39' E 019°38'658157912.3
2018-Apr-22 02:00N 46°56' E 031°57'641823105168.7
2018-Apr-22 02:00N 45°33' W 122°42'642423126555.3
2018-Apr-22 02:00N 46°50' E 031°57'6482332962.2
2018-Apr-22 02:00N 37°55' E 023°42'655235651.9
2018-Apr-22 01:59N 46°57' E 031°60'8961612606.8
2018-Apr-22 01:59N 59°20' E 018°05'13111179767.6
2018-Apr-22 01:59N 37°46' E 023°27'1529250196.5
2018-Apr-22 01:59N 63°13' E 021°09'51331154995.7
2018-Apr-22 01:59N 46°09' W 123°53'6806662215.3
2018-Apr-22 01:58N 44°44' E 037°47'649466932.1
2018-Apr-22 01:58N 37°00' E 027°47'617711118565.3
2018-Apr-22 01:58N 29°33' W 095°02'43791751655.1
2018-Apr-22 01:58S 23°00' W 044°19'107132571120.9
2018-Apr-22 01:58S 27°52' E 153°20'3385100720.2
2018-Apr-22 01:56N 01°14' E 103°40'88403977862.6
2018-Apr-22 01:55S 23°00' W 044°19'5913734011.5
2018-Apr-22 01:55N 37°52' W 122°29'68721546224.9
2018-Apr-22 01:55N 46°46' E 031°57'479138500.6
2018-Apr-22 01:47N 38°58' W 076°29'10410203668.5
2018-Apr-22 01:44N 01°15' E 103°51'455132897.4
2018-Apr-22 01:36N 45°20' E 036°39'153828997.1
2018-Apr-22 01:33N 39°22' E 002°55'135235515.2
2018-Apr-22 01:30N 46°57' E 031°60'641911554346.1
2018-Apr-22 01:30N 45°33' W 122°42'606021815667.8
2018-Apr-22 01:30N 44°51' E 020°38'11013965348.5
2018-Apr-22 01:30N 63°13' E 021°09'515463704.9
2018-Apr-22 01:30N 54°39' E 019°45'49265910606.8
2018-Apr-22 01:30N 33°36' E 130°18'562910131857.2
2018-Apr-22 01:30N 32°37' W 117°43'695925051319.6
2018-Apr-22 01:30N 46°50' E 031°57'27554964.6
2018-Apr-22 01:30N 44°44' E 037°47'275109848.8
2018-Apr-22 01:30N 46°50' E 031°57'611342.3
2018-Apr-22 01:30N 46°56' E 031°57'653587844.6
2018-Apr-22 01:30N 37°55' E 023°42'655235651.9
2018-Apr-22 01:29N 46°57' E 031°60'8963225213.5
2018-Apr-22 01:29N 59°20' E 018°05'13111179768.1
2018-Apr-22 01:29N 37°46' E 023°27'47021692754.8
2018-Apr-22 01:29N 38°58' W 076°29'41801672147.1
2018-Apr-22 01:29S 23°00' W 044°19'88671680144.5
2018-Apr-22 01:29N 01°17' E 104°07'773527844533.3
2018-Apr-22 01:29N 46°09' W 123°53'5534948653.8
2018-Apr-22 01:28N 59°55' E 027°46'644823214056.5
2018-Apr-22 01:28S 23°00' W 044°19'63182067733.7
2018-Apr-22 01:28N 44°44' E 037°47'44753221890.4
2018-Apr-22 01:28N 01°18' E 103°39'94836827936.7
2018-Apr-22 01:28N 29°33' W 095°02'61777412376.9
2018-Apr-22 01:28N 37°00' E 027°47'716025775925.7
2018-Apr-22 01:28N 37°52' W 122°29'68721767115.3
2018-Apr-22 01:28N 46°46' E 031°57'84667619414.2
2018-Apr-22 01:28S 27°52' E 153°20'337346529.3
2018-Apr-22 01:23N 01°14' E 103°54'455389081.6
2018-Apr-22 01:20N 45°20' E 036°40'6556218538.8
2018-Apr-22 01:18N 48°08' W 122°43'6556224772.9
2018-Apr-22 01:17N 45°20' E 036°39'153818400.1
2018-Apr-22 01:12N 39°22' E 002°55'424725913.8
2018-Apr-22 01:02N 36°17' W 086°36'155470793.1
2018-Apr-22 01:01N 32°36' W 117°41'587821160127.7
2018-Apr-22 01:01N 63°13' E 021°09'51373698590.3
2018-Apr-22 01:00N 45°33' W 122°42'641923108692.2
2018-Apr-22 01:00N 46°57' E 031°60'4901765539.5
2018-Apr-22 01:00N 44°51' E 020°38'9413386576.0
2018-Apr-22 01:00N 59°55' E 027°49'47995759322.6
2018-Apr-22 01:00N 36°17' W 086°36'106715488076.1
2018-Apr-22 01:00N 33°36' E 130°19'45778238501.4
2018-Apr-22 01:00N 46°50' E 031°57'61323153774.5
2018-Apr-22 01:00S 23°00' W 044°19'63183791054.3
2018-Apr-22 01:00N 44°44' E 037°47'44861794437.9
2018-Apr-22 01:00N 01°13' E 103°49'47962158297.3
2018-Apr-22 01:00N 46°50' E 031°57'72132.6
2018-Apr-22 00:59N 46°57' E 031°60'8963225213.5
2018-Apr-22 00:59N 59°20' E 018°05'1311943814.5
2018-Apr-22 00:59N 37°46' E 023°27'6593624564.3
2018-Apr-22 00:59N 46°09' W 123°53'67228066594.6
2018-Apr-22 00:59N 45°20' E 036°39'606736.7
2018-Apr-22 00:58N 44°44' E 037°47'64172566808.8
2018-Apr-22 00:58N 29°33' W 095°02'61773176734.5
2018-Apr-22 00:58N 37°00' E 027°47'615201271.0
2018-Apr-22 00:58N 46°46' E 031°57'84664353948.9
2018-Apr-22 00:58S 27°52' E 153°20'33671346990.7
2018-Apr-22 00:57N 01°17' E 104°03'4806402324.2
2018-Apr-22 00:57N 46°56' E 031°57'21813319.8
2018-Apr-22 00:56N 45°20' E 036°40'7155536627.7
2018-Apr-22 00:55N 37°52' W 122°29'5914208720.3
2018-Apr-22 00:53S 23°02' W 044°19'418857107.0
2018-Apr-22 00:49N 38°41' W 077°15'400113116.5
2018-Apr-22 00:31N 63°13' E 021°09'1045537227.5
2018-Apr-22 00:30N 46°57' E 031°60'7932856334.4
2018-Apr-22 00:30N 59°56' E 027°48'9421695445.0
2018-Apr-22 00:30N 44°51' E 020°38'677270813.2
2018-Apr-22 00:30N 45°20' E 036°36'214256639.4
2018-Apr-22 00:30N 46°50' E 031°57'61395524756.7
2018-Apr-22 00:30S 23°05' W 044°22'63252846083.8
2018-Apr-22 00:30N 44°44' E 037°47'44942310984.0
2018-Apr-22 00:30N 01°18' E 104°04'48062471536.8
2018-Apr-22 00:30N 46°56' E 031°57'65676.5
2018-Apr-22 00:30N 46°50' E 031°57'6482332962.2
2018-Apr-22 00:30N 37°55' E 023°42'69344160138.8
2018-Apr-22 00:30N 32°37' W 117°40'69545007230.9
2018-Apr-22 00:29N 46°57' E 031°60'668481018.7
2018-Apr-22 00:29N 37°46' E 023°27'6593593336.1
2018-Apr-22 00:29N 46°09' W 123°53'6253662029.7
2018-Apr-22 00:28S 23°00' W 044°19'63183790898.7
2018-Apr-22 00:28N 44°44' E 037°47'64177700426.3
2018-Apr-22 00:28N 29°33' W 095°02'61772021558.3
2018-Apr-22 00:28N 37°00' E 027°47'50252584339.3
2018-Apr-22 00:28N 33°36' E 130°19'39372834799.3
2018-Apr-22 00:28S 27°52' E 153°20'9402483514.3
2018-Apr-22 00:26N 59°20' E 018°05'5725224009.4
2018-Apr-22 00:25N 37°52' W 122°29'68721903045.6
2018-Apr-22 00:25N 46°46' E 031°57'687326046.7
2018-Apr-22 00:09N 37°48' W 122°27'588057214.8
2018-Apr-22 00:03N 39°22' E 002°55'6115305754.3
2018-Apr-22 00:02N 01°14' E 103°42'7744457040.5
2018-Apr-22 00:00N 46°12' W 124°09'64405796417.1
2018-Apr-22 00:00N 46°57' E 031°60'7942859881.3
2018-Apr-22 00:00N 59°57' E 027°46'9421695987.3
2018-Apr-22 00:00N 44°51' E 020°38'65162606243.7
2018-Apr-22 00:00N 32°36' W 117°40'695812524479.5
2018-Apr-22 00:00N 46°50' E 031°57'27554966.1
2018-Apr-22 00:00N 44°44' E 037°47'44961798251.2
2018-Apr-22 00:00N 01°17' E 104°07'480817308133.6
2018-Apr-22 00:00N 46°56' E 031°57'611342.2
2018-Apr-22 00:00N 46°50' E 031°57'71968.3
2018-Apr-21 23:59N 46°57' E 031°60'668601273.3
2018-Apr-21 23:59N 37°46' E 023°27'5436782804.3
2018-Apr-21 23:59S 23°00' W 044°18'6317454856.0
2018-Apr-21 23:58N 44°44' E 037°47'64172887663.6
2018-Apr-21 23:58N 29°33' W 095°02'61771389822.3
2018-Apr-21 23:58N 37°00' E 027°47'84577611701.4
2018-Apr-21 23:58S 27°52' E 153°20'3376810333.4
2018-Apr-21 23:57N 01°13' E 103°50'5036385762.5
2018-Apr-21 23:57N 37°55' E 023°42'50291810505.5
2018-Apr-21 23:56N 01°15' E 103°42'564210155041.6
2018-Apr-21 23:56N 59°20' E 018°05'5725228987.7
2018-Apr-21 23:55N 37°52' W 122°29'68721649307.6
2018-Apr-21 23:55N 46°46' E 031°57'457816481957.0
2018-Apr-21 23:55N 33°36' E 130°19'4999449930.1
2018-Apr-21 23:54N 45°33' W 122°42'781437861.4
2018-Apr-21 23:42N 01°15' E 103°51'0 8.3
2018-Apr-21 23:41N 01°15' E 103°51'781443954.5
2018-Apr-21 23:31N 45°33' W 122°42'513718492951.5
2018-Apr-21 23:31N 63°13' E 021°09'56104039159.8
2018-Apr-21 23:30N 01°14' E 103°53'479917277116.6
2018-Apr-21 23:30N 46°57' E 031°60'860430973555.3
2018-Apr-21 23:30S 32°43' E 152°09'912332842976.0
2018-Apr-21 23:30N 44°51' E 020°38'9433396300.7
2018-Apr-21 23:30N 59°58' E 027°46'645923253564.2
2018-Apr-21 23:30S 23°06' W 044°25'61412009812.3
2018-Apr-21 23:30N 46°50' E 031°57'48044323571.0
2018-Apr-21 23:30N 01°17' E 104°04'44941797461.4
2018-Apr-21 23:30N 44°44' E 037°47'73224393188.4
2018-Apr-21 23:30N 32°37' W 117°45'69573577757.2
2018-Apr-21 23:30N 46°56' E 031°57'622684.6
2018-Apr-21 23:30N 46°50' E 031°57'648466592.4
2018-Apr-21 23:30N 37°55' E 023°42'1304670678.8
2018-Apr-21 23:30N 59°20' E 018°05'8961612619.9
2018-Apr-21 23:29N 46°57' E 031°60'668400847.5
2018-Apr-21 23:29N 37°46' E 023°27'76937942.0
2018-Apr-21 23:28N 44°44' E 037°47'680612251007.3
2018-Apr-21 23:28N 46°09' W 123°53'1691869615.6
2018-Apr-21 23:28N 29°33' W 095°02'947117047838.5
2018-Apr-21 23:28N 01°14' E 103°54'48191020513.6
2018-Apr-21 23:28N 37°00' E 027°47'84574349543.7
2018-Apr-21 23:28S 27°52' E 153°20'6393143849.0
2018-Apr-21 23:25N 37°52' W 122°29'68722061634.5
2018-Apr-21 23:25N 46°46' E 031°57'45788240978.5
2018-Apr-21 23:25N 33°36' E 130°19'496028477.3
2018-Apr-21 23:14N 47°35' W 122°23'780634147.5
2018-Apr-21 23:01N 01°18' E 104°03'48032470362.1
2018-Apr-21 23:00N 46°57' E 031°60'7972869797.9
2018-Apr-21 23:00N 59°59' E 027°45'798319004.6
2018-Apr-21 23:00N 46°56' E 031°57'611324.6
2018-Apr-21 23:00N 46°50' E 031°57'642423125679.3
2018-Apr-21 23:00N 45°33' W 122°42'781228121788.4
2018-Apr-21 23:00N 01°14' E 103°55'44891077426.6
2018-Apr-21 23:00N 44°44' E 037°47'730657047.5
2018-Apr-21 23:00N 44°51' E 020°38'488175514.7
2018-Apr-21 23:00N 46°50' E 031°57'6481166481.1
2018-Apr-21 23:00N 37°55' E 023°42'655214227.4
2018-Apr-21 22:59N 46°57' E 031°60'8963225232.6
2018-Apr-21 22:59N 59°20' E 018°05'13111179767.6
2018-Apr-21 22:59N 37°46' E 023°27'646011628731.4
2018-Apr-21 22:59N 47°35' W 122°24'7817879436.5
2018-Apr-21 22:59N 01°14' E 103°54'4489414350.2
2018-Apr-21 22:58N 44°44' E 037°47'68068167335.9
2018-Apr-21 22:58N 46°09' W 123°53'16911217461.8
2018-Apr-21 22:58N 29°33' W 095°02'1458874691.7
2018-Apr-21 22:58N 37°52' W 122°29'68721903045.6
2018-Apr-21 22:58N 46°46' E 031°57'615442792.1
2018-Apr-21 22:58N 37°00' E 027°47'845715223453.4
2018-Apr-21 22:58S 27°52' E 153°20'393780995.1
2018-Apr-21 22:55N 33°36' E 130°19'5546179884.7
2018-Apr-21 22:53N 33°59' W 118°27'195622566.4
2018-Apr-21 22:48N 33°22' W 079°17'212017707.2
2018-Apr-21 22:40N 37°47' W 122°23'4662812.2
2018-Apr-21 22:31N 45°33' W 122°42'60602726960.8
2018-Apr-21 22:30N 44°51' E 020°38'529219051148.7
2018-Apr-21 22:30N 01°16' E 103°58'48032470023.4
2018-Apr-21 22:30N 46°56' E 031°57'67556.9
2018-Apr-21 22:30N 46°50' E 031°57'8052898259.9
2018-Apr-21 22:30N 60°01' E 027°43'988209267.0
2018-Apr-21 22:30N 44°44' E 037°47'27589876.3
2018-Apr-21 22:30N 46°50' E 031°57'648583240.6
2018-Apr-21 22:30N 37°55' E 023°42'655235651.9
2018-Apr-21 22:29N 46°57' E 031°60'8963225213.5
2018-Apr-21 22:29N 59°20' E 018°05'13111179768.1
2018-Apr-21 22:29N 37°46' E 023°27'6593949338.4
2018-Apr-21 22:29N 46°09' W 123°53'772213702.9
2018-Apr-21 22:29N 33°59' W 118°27'19561005812.0
2018-Apr-21 22:29N 33°22' W 079°17'106703200967.7
2018-Apr-21 22:28N 01°14' E 103°54'885310623930.6
2018-Apr-21 22:28S 23°01' W 044°19'63181338012.8
2018-Apr-21 22:28N 44°44' E 037°47'64173850213.3
2018-Apr-21 22:28N 29°33' W 095°02'75321129770.3
2018-Apr-21 22:28S 27°52' E 153°20'845730446837.1
2018-Apr-21 22:28N 37°00' E 027°47'625204691.8
2018-Apr-21 22:27N 46°57' E 031°60'6866209475.4
2018-Apr-21 22:25N 37°47' W 122°23'7760.7
2018-Apr-21 22:25N 37°52' W 122°29'68722473961.4
2018-Apr-21 22:25N 46°46' E 031°57'842550717.3
2018-Apr-21 22:15S 26°59' E 153°13'1483676189.2
2018-Apr-21 22:03N 36°15' W 086°36'4481104066.0
2018-Apr-21 22:01N 63°13' E 021°09'43915269286.1
2018-Apr-21 22:00N 33°22' W 079°17'51684650811.1
2018-Apr-21 22:00N 46°57' E 031°60'490882769.8
2018-Apr-21 22:00N 44°51' E 020°38'606021815667.8
2018-Apr-21 22:00N 45°33' W 122°42'64183300738.4
2018-Apr-21 22:00N 46°56' E 031°57'622670.7
2018-Apr-21 22:00N 46°50' E 031°57'804263179.8
2018-Apr-21 22:00N 59°60' E 027°45'9871184579.0
2018-Apr-21 22:00N 44°44' E 037°47'44882692727.7
2018-Apr-21 22:00N 01°14' E 103°53'815914686102.2
2018-Apr-21 22:00N 32°40' W 117°49'69612784447.5
2018-Apr-21 22:00N 46°50' E 031°57'6482332945.0
2018-Apr-21 22:00N 37°55' E 023°42'1304335339.4
2018-Apr-21 21:59N 59°20' E 018°05'13111179767.6
2018-Apr-21 21:59N 37°46' E 023°27'50461135452.0
2018-Apr-21 21:59N 01°14' E 103°50'77522790701.3
2018-Apr-21 21:59N 46°09' W 123°53'77501743761.4
2018-Apr-21 21:59N 01°14' E 103°52'811529215743.6
2018-Apr-21 21:59N 33°59' W 118°27'298119052.7
2018-Apr-21 21:59N 37°47' W 122°23'59052657368.2
2018-Apr-21 21:58S 22°58' W 044°18'63161337454.1
2018-Apr-21 21:58N 44°44' E 037°47'64173850215.1
2018-Apr-21 21:58N 29°33' W 095°02'75321129769.9
2018-Apr-21 21:58S 27°52' E 153°20'845710148944.3
2018-Apr-21 21:58N 37°00' E 027°47'5509309882.4
2018-Apr-21 21:56N 36°15' W 086°36'536019297142.4
2018-Apr-21 21:56N 46°57' E 031°60'11365.6
2018-Apr-21 21:55N 46°46' E 031°57'8427206383.1
2018-Apr-21 21:52S 27°02' E 153°15'6364114547.1
2018-Apr-21 21:49N 37°52' W 122°29'5914401694.4
2018-Apr-21 21:48S 23°00' W 044°18'628744289.9
2018-Apr-21 21:40N 45°20' E 036°39'715592661.1
2018-Apr-21 21:35N 37°49' W 122°26'716096541.0
2018-Apr-21 21:30N 37°00' E 027°47'625562903.7
2018-Apr-21 21:30N 46°57' E 031°60'490588503.5
2018-Apr-21 21:30N 44°51' E 020°38'489351933.5
2018-Apr-21 21:30N 46°56' E 031°57'641811552584.1
2018-Apr-21 21:30N 45°33' W 122°42'642411562832.2
2018-Apr-21 21:30N 46°50' E 031°57'48002159858.9
2018-Apr-21 21:30N 01°14' E 103°54'561110099253.9
2018-Apr-21 21:30N 63°13' E 021°09'271108293.1
2018-Apr-21 21:30N 59°59' E 027°45'803262753.1
2018-Apr-21 21:30N 46°50' E 031°57'69583578325.4
2018-Apr-21 21:30N 32°41' W 117°46'69553576780.9
2018-Apr-21 21:29N 46°57' E 031°60'668400850.4
2018-Apr-21 21:29N 37°46' E 023°27'6593949338.4
2018-Apr-21 21:29N 46°09' W 123°53'65832633112.6
2018-Apr-21 21:29S 27°04' E 153°16'64321929647.5
2018-Apr-21 21:29N 33°59' W 118°27'298119050.9
2018-Apr-21 21:28N 37°47' W 122°23'72371240577.4
2018-Apr-21 21:28N 44°44' E 037°47'569910258339.7
2018-Apr-21 21:28N 36°16' W 086°38'584525622.6
2018-Apr-21 21:28N 29°33' W 095°02'75321129769.9
2018-Apr-21 21:28S 27°52' E 153°20'107123213721.3
2018-Apr-21 21:27S 23°00' W 044°18'6317909714.0
2018-Apr-21 21:27N 44°44' E 037°47'755135850.0
2018-Apr-21 21:27N 37°55' E 023°42'54561155301.8
2018-Apr-21 21:26S 22°57' W 044°26'6132225261.9
2018-Apr-21 21:25N 46°46' E 031°57'21464323.8
2018-Apr-21 21:25N 45°20' E 036°39'7155164055.6
2018-Apr-21 21:22N 37°52' W 122°29'6554576.9
2018-Apr-21 21:13N 48°45' W 123°23'211260838.1
2018-Apr-21 21:11N 38°58' W 076°29'3130170703.4
2018-Apr-21 21:10N 27°55' W 015°24'526732863.5
2018-Apr-21 21:01N 45°33' W 122°42'21421542138.5
2018-Apr-21 21:00N 33°19' W 079°17'51709306328.0
2018-Apr-21 21:00N 46°57' E 031°60'490588508.3
2018-Apr-21 21:00N 44°51' E 020°38'489251383.1
2018-Apr-21 21:00N 46°56' E 031°57'611325.0
2018-Apr-21 21:00N 46°50' E 031°57'25212268939.5
2018-Apr-21 21:00N 28°04' W 015°24'2756708809.6
2018-Apr-21 21:00N 44°44' E 037°47'27576050.0
2018-Apr-21 21:00N 46°50' E 031°57'648777651.1
2018-Apr-21 21:00N 37°55' E 023°42'655336645.6
2018-Apr-21 21:00N 46°57' E 031°60'896645042.7
2018-Apr-21 20:59N 59°20' E 018°05'297267137.3
2018-Apr-21 20:59N 59°57' E 027°47'61872784087.2
2018-Apr-21 20:59N 33°59' W 118°27'772138906.9
2018-Apr-21 20:59N 46°09' W 123°53'1783534817.2
2018-Apr-21 20:59N 36°16' W 086°38'110235669062.4
2018-Apr-21 20:59N 01°15' E 103°50'88585314807.2
2018-Apr-21 20:59S 22°59' W 044°27'589910617850.7
2018-Apr-21 20:58N 37°47' W 122°23'56871364818.2
2018-Apr-21 20:58N 63°13' E 021°09'1255903427.6
2018-Apr-21 20:58N 44°44' E 037°47'64173300181.9
2018-Apr-21 20:58N 29°33' W 095°02'75321129769.4
2018-Apr-21 20:58S 27°52' E 153°20'81967376096.9
2018-Apr-21 20:58N 45°20' E 036°39'6287526318.3
2018-Apr-21 20:57S 23°00' W 044°18'1074412892888.5
2018-Apr-21 20:57S 27°05' E 153°18'86781420005.0
2018-Apr-21 20:56N 37°46' E 023°27'6917279805.4
2018-Apr-21 20:55N 37°52' W 122°29'388698034.9
2018-Apr-21 20:55N 32°41' W 117°45'69592505228.0
2018-Apr-21 20:55N 46°46' E 031°57'517412775.0
2018-Apr-21 20:30N 33°16' W 079°16'51719308298.8
2018-Apr-21 20:30N 46°57' E 031°60'641923108692.2
2018-Apr-21 20:30N 45°33' W 122°42'606010907841.5
2018-Apr-21 20:30N 44°51' E 020°38'5722059331.1
2018-Apr-21 20:30N 37°00' E 027°47'843315179140.4
2018-Apr-21 20:30S 27°08' E 153°19'84387594540.7
2018-Apr-21 20:30N 46°56' E 031°57'622649.2
2018-Apr-21 20:30N 46°50' E 031°57'25012250462.4
2018-Apr-21 20:30N 28°12' W 015°03'26531910232.4
2018-Apr-21 20:30N 59°56' E 027°48'983442231.4
2018-Apr-21 20:30N 44°44' E 037°47'73165267372.2
2018-Apr-21 20:30N 32°40' W 117°42'69553576800.7
2018-Apr-21 20:30N 46°50' E 031°57'648777654.1
2018-Apr-21 20:30N 37°55' E 023°42'54574911449.3
2018-Apr-21 20:30S 22°58' W 044°26'61422763854.6
2018-Apr-21 20:29N 46°57' E 031°60'8963225213.5
2018-Apr-21 20:29N 59°20' E 018°05'904216984.8
2018-Apr-21 20:29N 46°46' E 031°57'691712450151.1
2018-Apr-21 20:29N 33°59' W 118°27'772173633.6
2018-Apr-21 20:29N 46°09' W 123°53'1783401112.9
2018-Apr-21 20:29N 36°16' W 086°38'110234960429.6
2018-Apr-21 20:29N 01°15' E 103°50'787628353850.4
2018-Apr-21 20:29N 37°47' W 122°23'72371132700.3
2018-Apr-21 20:28N 44°44' E 037°47'64173300185.3
2018-Apr-21 20:28N 29°33' W 095°02'14581049631.1
2018-Apr-21 20:28N 37°52' W 122°29'63931643989.1
2018-Apr-21 20:28S 27°52' E 153°20'10713642804.7
2018-Apr-21 20:27S 23°00' W 044°19'54371087416.9
2018-Apr-21 20:26N 37°46' E 023°27'504731929.9
2018-Apr-21 20:17N 01°15' E 103°51'7791108709.9
2018-Apr-21 20:13N 48°56' W 122°47'588529264.5
2018-Apr-21 20:01N 44°51' E 020°38'490294254.2
2018-Apr-21 20:00N 46°57' E 031°60'641911554346.1
2018-Apr-21 20:00N 45°33' W 122°42'78194021008.9
2018-Apr-21 20:00N 01°13' E 103°48'47988636222.1
2018-Apr-21 20:00N 46°56' E 031°57'611325.0
2018-Apr-21 20:00N 46°50' E 031°57'695725044105.8
2018-Apr-21 20:00N 32°40' W 117°44'625111252691.6
2018-Apr-21 20:00N 59°55' E 027°48'26499536500.9
2018-Apr-21 20:00N 28°10' W 014°53'25891164894.6
2018-Apr-21 20:00N 63°13' E 021°09'12551505721.4
2018-Apr-21 20:00N 44°44' E 037°47'27565909.1
2018-Apr-21 20:00N 46°50' E 031°57'71826.2
2018-Apr-21 19:59N 46°57' E 031°60'8963225232.6
2018-Apr-21 19:59N 59°20' E 018°05'1311786512.1
2018-Apr-21 19:59N 37°46' E 023°27'69031461758.2
2018-Apr-21 19:59N 33°59' W 118°27'772252557.9
2018-Apr-21 19:59N 46°09' W 123°53'17344409.0
2018-Apr-21 19:59N 48°56' W 122°47'17681060997.4
2018-Apr-21 19:59N 36°16' W 086°38'43552239706.8
2018-Apr-21 19:58S 22°59' W 044°26'6323989689.7
2018-Apr-21 19:58N 44°44' E 037°47'64175775315.4
2018-Apr-21 19:58N 29°33' W 095°02'75321129770.3
2018-Apr-21 19:58S 27°52' E 153°20'8695549163.1
2018-Apr-21 19:57N 37°55' E 023°42'5034248242.6
2018-Apr-21 19:55N 33°13' W 079°16'10671417568.3
2018-Apr-21 19:54N 01°14' E 103°54'7869238041.9
2018-Apr-21 19:52N 37°52' W 122°29'687287111.3
2018-Apr-21 19:47N 46°46' E 031°57'6268512856.0
2018-Apr-21 19:46N 48°44' W 123°25'193727.5
2018-Apr-21 19:31N 45°33' W 122°42'21461931771.2
2018-Apr-21 19:30N 33°11' W 079°17'51766210631.8
2018-Apr-21 19:30N 46°57' E 031°60'4901765525.0
2018-Apr-21 19:30N 44°51' E 020°38'559210065167.4
2018-Apr-21 19:30S 22°59' W 044°26'35176330345.1
2018-Apr-21 19:30N 27°55' W 015°22'25259090001.3
2018-Apr-21 19:30N 46°50' E 031°57'622650.0
2018-Apr-21 19:30N 46°56' E 031°57'794952352.3
2018-Apr-21 19:30N 59°56' E 027°49'52971733540.7
2018-Apr-21 19:30N 48°56' W 122°47'65964748941.2
2018-Apr-21 19:30N 44°44' E 037°47'27565908.4
2018-Apr-21 19:30N 46°50' E 031°57'71968.6
2018-Apr-21 19:30N 46°57' E 031°60'6251125821.9
2018-Apr-21 19:29N 37°00' E 027°47'7146887135.6
2018-Apr-21 19:29N 33°59' W 118°27'772463022.9
2018-Apr-21 19:29N 46°09' W 123°53'77501743807.0
2018-Apr-21 19:29N 01°15' E 103°51'4485520860.3
2018-Apr-21 19:28N 44°44' E 037°47'64175775312.5
2018-Apr-21 19:28N 29°33' W 095°02'14581312036.3
2018-Apr-21 19:28N 37°52' W 122°29'78707083407.2
2018-Apr-21 19:28N 01°15' E 103°50'3377715149.1
2018-Apr-21 19:28S 27°52' E 153°20'8695539694.4
2018-Apr-21 19:27N 37°55' E 023°42'153280.9
2018-Apr-21 19:26N 37°46' E 023°27'65695911866.2
2018-Apr-21 19:26N 45°31' W 122°40'6428123092.4
2018-Apr-21 19:23N 46°46' E 031°57'2142776.6
2018-Apr-21 19:19N 45°20' E 036°39'81702450879.5
2018-Apr-21 19:18S 27°10' E 153°22'6692304943.1
2018-Apr-21 19:17N 48°41' W 123°24'493417922.7
2018-Apr-21 19:01N 63°13' E 021°09'1045537227.5
2018-Apr-21 19:00N 46°57' E 031°60'4901765525.0
2018-Apr-21 19:00N 44°51' E 020°38'489251383.1
2018-Apr-21 19:00N 46°56' E 031°57'695512518897.7
2018-Apr-21 19:00N 32°39' W 117°45'695925052373.1
2018-Apr-21 19:00N 46°50' E 031°57'8012884337.0
2018-Apr-21 19:00N 59°57' E 027°48'470316930270.6
2018-Apr-21 19:00N 33°09' W 079°19'403290495.3
2018-Apr-21 19:00N 36°16' W 086°34'17711062667.0
2018-Apr-21 19:00N 48°56' W 122°47'65964748979.6
2018-Apr-21 19:00N 44°44' E 037°47'44854036599.2
2018-Apr-21 19:00N 01°15' E 103°50'47952157833.4
2018-Apr-21 19:00N 46°50' E 031°57'648466592.4
2018-Apr-21 19:00N 37°55' E 023°42'655261835.4
2018-Apr-21 18:59N 46°57' E 031°60'8963225213.5
2018-Apr-21 18:59N 59°20' E 018°05'13951255278.9
2018-Apr-21 18:59N 37°00' E 027°47'615170305.4
2018-Apr-21 18:59N 46°46' E 031°57'64401220229.5
2018-Apr-21 18:59N 46°09' W 123°53'7722778137.4
2018-Apr-21 18:59N 33°59' W 118°27'7277638924.6
2018-Apr-21 18:58N 44°44' E 037°47'64172887657.7
2018-Apr-21 18:58N 29°33' W 095°02'1458874690.9
2018-Apr-21 18:58N 37°52' W 122°29'63931150792.4
2018-Apr-21 18:58S 27°52' E 153°20'6647373915.4
2018-Apr-21 18:57N 45°33' W 122°42'65682364570.3
2018-Apr-21 18:56N 37°46' E 023°27'8685104216.2
2018-Apr-21 18:51S 27°10' E 153°22'1016088133.0
2018-Apr-21 18:44N 46°13' W 001°22'159219560.0
2018-Apr-21 18:40N 45°20' E 036°39'144998411.6
2018-Apr-21 18:39N 52°07' E 001°32'4425598.4
2018-Apr-21 18:34N 58°27' W 005°03'74712983.8
2018-Apr-21 18:31N 46°13' W 001°22'1376825703.3
2018-Apr-21 18:30N 46°57' E 031°60'10453760592.3
2018-Apr-21 18:30N 63°13' E 021°09'11013965348.3
2018-Apr-21 18:30N 44°51' E 020°38'487194928.8
2018-Apr-21 18:30N 46°50' E 031°57'27554965.9
2018-Apr-21 18:30N 44°44' E 037°47'732026351170.9
2018-Apr-21 18:30N 32°37' W 117°43'1557800790.9
2018-Apr-21 18:30N 36°19' W 086°33'53569641535.4
2018-Apr-21 18:30N 46°50' E 031°57'648388827.0
2018-Apr-21 18:30N 37°55' E 023°42'655214229.0
2018-Apr-21 18:29N 46°57' E 031°60'668400848.9
2018-Apr-21 18:29N 37°46' E 023°27'667399991.8
2018-Apr-21 18:29N 46°56' E 031°57'6431926057.1
2018-Apr-21 18:29N 46°09' W 123°53'772555627.5
2018-Apr-21 18:29N 33°59' W 118°27'7277671690.8
2018-Apr-21 18:28N 44°44' E 037°47'64173850215.1
2018-Apr-21 18:28N 29°33' W 095°02'94748526177.7
2018-Apr-21 18:28N 01°15' E 103°51'787014166723.1
2018-Apr-21 18:28N 37°52' W 122°29'48608747943.9
2018-Apr-21 18:28N 58°27' W 005°03'42211381553.2
2018-Apr-21 18:28N 48°56' W 122°47'67624868395.0
2018-Apr-21 18:28S 27°52' E 153°20'33721214011.6
2018-Apr-21 18:27N 01°16' E 103°57'62801027656.8
2018-Apr-21 18:27N 52°05' E 001°32'122918982.1
2018-Apr-21 18:23N 46°46' E 031°57'8440105128.9
2018-Apr-21 18:18S 27°10' E 153°22'1049635249.2
2018-Apr-21 18:01N 58°27' W 005°03'7462685437.3
2018-Apr-21 18:01N 46°14' W 001°20'927417277.5
2018-Apr-21 18:00N 44°51' E 020°38'487219294.5
2018-Apr-21 18:00N 46°50' E 031°57'7992875699.1
2018-Apr-21 18:00N 59°55' E 027°49'982207878.1
2018-Apr-21 18:00N 44°44' E 037°47'56965126184.7
2018-Apr-21 18:00N 36°16' W 086°34'53592411592.0
2018-Apr-21 18:00N 46°50' E 031°57'648466592.4
2018-Apr-21 18:00N 37°55' E 023°42'655214229.8
2018-Apr-21 17:59N 46°57' E 031°60'668481020.5
2018-Apr-21 17:59N 37°46' E 023°27'659215551.0
2018-Apr-21 17:59N 46°46' E 031°57'47971151285.9
2018-Apr-21 17:59N 01°17' E 103°56'77443982706.6
2018-Apr-21 17:59N 46°09' W 123°53'49382221952.2
2018-Apr-21 17:59N 52°05' E 001°32'537319343160.6
2018-Apr-21 17:59N 33°59' W 118°27'7277793816.4
2018-Apr-21 17:58N 44°44' E 037°47'64172887661.3
2018-Apr-21 17:58N 29°33' W 095°02'14581312036.3
2018-Apr-21 17:58N 37°52' W 122°29'63931150792.4
2018-Apr-21 17:58S 27°52' E 153°20'33711733906.5
2018-Apr-21 17:57N 01°16' E 103°57'48013456600.0
2018-Apr-21 17:57N 46°57' E 031°60'2846.2
2018-Apr-21 17:57N 46°56' E 031°57'2181051.5
2018-Apr-21 17:45N 45°20' E 036°39'6709355164.6
2018-Apr-21 17:44N 45°33' W 122°42'486952015.2
2018-Apr-21 17:38N 43°06' W 009°19'336675724.6
2018-Apr-21 17:35N 33°05' W 079°27'472257622.0
2018-Apr-21 17:31N 44°51' E 020°38'11013965348.5
2018-Apr-21 17:31N 63°13' E 021°09'1045752113.4
2018-Apr-21 17:30N 46°57' E 031°60'64192310867